<?xml version="1.0" encoding="UTF-8" standalone="no" ?>
<gpx xmlns="http://www.topografix.com/GPX/1/1" xmlns:xsi="http://www.w3.org/2001/XMLSchema-instance" xsi:schemaLocation="http://www.topografix.com/GPX/1/1 http://www.topografix.com/GPX/1/1/gpx.xsd" version="1.1" creator="VisuGPX - https://www.visugpx.com">
  <metadata>
    <name>Marche nordique</name>
    <desc><![CDATA[Avec le groupe complet et sur la neige]]></desc>
  </metadata>
  <trk>
    <name><![CDATA[09/02/2013 9:03]]></name>
    <desc><![CDATA[]]></desc>
    <trkseg>
      <trkpt lat="47.32555" lon="4.95849">
        <ele>463.9</ele>
        <time>2013-02-09T08:06:33.000Z</time>
      </trkpt>
      <trkpt lat="47.32555" lon="4.95844">
        <ele>460.8</ele>
        <time>2013-02-09T08:06:42.000Z</time>
      </trkpt>
      <trkpt lat="47.32554" lon="4.95839">
        <ele>455.5</ele>
        <time>2013-02-09T08:06:50.000Z</time>
      </trkpt>
      <trkpt lat="47.32556" lon="4.95834">
        <ele>454.3</ele>
        <time>2013-02-09T08:06:52.000Z</time>
      </trkpt>
      <trkpt lat="47.32556" lon="4.95832">
        <ele>453.7</ele>
        <time>2013-02-09T08:06:53.000Z</time>
      </trkpt>
      <trkpt lat="47.32557" lon="4.95836">
        <ele>455.1</ele>
        <time>2013-02-09T08:07:42.000Z</time>
      </trkpt>
      <trkpt lat="47.32557" lon="4.95839">
        <ele>451.9</ele>
        <time>2013-02-09T08:07:49.000Z</time>
      </trkpt>
      <trkpt lat="47.3256" lon="4.95842">
        <ele>459.3</ele>
        <time>2013-02-09T08:08:44.000Z</time>
      </trkpt>
      <trkpt lat="47.3256" lon="4.95843">
        <ele>459.3</ele>
        <time>2013-02-09T08:08:45.000Z</time>
      </trkpt>
      <trkpt lat="47.32559" lon="4.95847">
        <ele>459.2</ele>
        <time>2013-02-09T08:08:49.000Z</time>
      </trkpt>
      <trkpt lat="47.32558" lon="4.95848">
        <ele>459.2</ele>
        <time>2013-02-09T08:08:50.000Z</time>
      </trkpt>
      <trkpt lat="47.32557" lon="4.95853">
        <ele>459.3</ele>
        <time>2013-02-09T08:08:53.000Z</time>
      </trkpt>
      <trkpt lat="47.32557" lon="4.95855">
        <ele>459.4</ele>
        <time>2013-02-09T08:08:54.000Z</time>
      </trkpt>
      <trkpt lat="47.32557" lon="4.95861">
        <ele>459.5</ele>
        <time>2013-02-09T08:08:57.000Z</time>
      </trkpt>
      <trkpt lat="47.32557" lon="4.95863">
        <ele>459.5</ele>
        <time>2013-02-09T08:08:58.000Z</time>
      </trkpt>
      <trkpt lat="47.32556" lon="4.95868">
        <ele>459.9</ele>
        <time>2013-02-09T08:09:00.000Z</time>
      </trkpt>
      <trkpt lat="47.32556" lon="4.95871">
        <ele>459.9</ele>
        <time>2013-02-09T08:09:01.000Z</time>
      </trkpt>
      <trkpt lat="47.32556" lon="4.95877">
        <ele>459.9</ele>
        <time>2013-02-09T08:09:03.000Z</time>
      </trkpt>
      <trkpt lat="47.32556" lon="4.9588">
        <ele>460</ele>
        <time>2013-02-09T08:09:04.000Z</time>
      </trkpt>
      <trkpt lat="47.32556" lon="4.95885">
        <ele>460.2</ele>
        <time>2013-02-09T08:09:06.000Z</time>
      </trkpt>
      <trkpt lat="47.32556" lon="4.95888">
        <ele>460.3</ele>
        <time>2013-02-09T08:09:07.000Z</time>
      </trkpt>
      <trkpt lat="47.32555" lon="4.95893">
        <ele>460.9</ele>
        <time>2013-02-09T08:09:09.000Z</time>
      </trkpt>
      <trkpt lat="47.32554" lon="4.95896">
        <ele>461.1</ele>
        <time>2013-02-09T08:09:10.000Z</time>
      </trkpt>
      <trkpt lat="47.32552" lon="4.95901">
        <ele>461.5</ele>
        <time>2013-02-09T08:09:12.000Z</time>
      </trkpt>
      <trkpt lat="47.32551" lon="4.95904">
        <ele>461.6</ele>
        <time>2013-02-09T08:09:13.000Z</time>
      </trkpt>
      <trkpt lat="47.3255" lon="4.95908">
        <ele>461.7</ele>
        <time>2013-02-09T08:09:15.000Z</time>
      </trkpt>
      <trkpt lat="47.32549" lon="4.9591">
        <ele>461.7</ele>
        <time>2013-02-09T08:09:16.000Z</time>
      </trkpt>
      <trkpt lat="47.32546" lon="4.95914">
        <ele>461.3</ele>
        <time>2013-02-09T08:09:19.000Z</time>
      </trkpt>
      <trkpt lat="47.32545" lon="4.95915">
        <ele>461.3</ele>
        <time>2013-02-09T08:09:20.000Z</time>
      </trkpt>
      <trkpt lat="47.32541" lon="4.95918">
        <ele>461.2</ele>
        <time>2013-02-09T08:09:23.000Z</time>
      </trkpt>
      <trkpt lat="47.3254" lon="4.95919">
        <ele>461.1</ele>
        <time>2013-02-09T08:09:24.000Z</time>
      </trkpt>
      <trkpt lat="47.32538" lon="4.95924">
        <ele>461</ele>
        <time>2013-02-09T08:09:27.000Z</time>
      </trkpt>
      <trkpt lat="47.32537" lon="4.95926">
        <ele>460.9</ele>
        <time>2013-02-09T08:09:28.000Z</time>
      </trkpt>
      <trkpt lat="47.32535" lon="4.9593">
        <ele>460.8</ele>
        <time>2013-02-09T08:09:30.000Z</time>
      </trkpt>
      <trkpt lat="47.32534" lon="4.95932">
        <ele>460.9</ele>
        <time>2013-02-09T08:09:31.000Z</time>
      </trkpt>
      <trkpt lat="47.32533" lon="4.95936">
        <ele>460.9</ele>
        <time>2013-02-09T08:09:33.000Z</time>
      </trkpt>
      <trkpt lat="47.32532" lon="4.95938">
        <ele>461</ele>
        <time>2013-02-09T08:09:34.000Z</time>
      </trkpt>
      <trkpt lat="47.32531" lon="4.95943">
        <ele>461.1</ele>
        <time>2013-02-09T08:09:36.000Z</time>
      </trkpt>
      <trkpt lat="47.3253" lon="4.95945">
        <ele>461</ele>
        <time>2013-02-09T08:09:37.000Z</time>
      </trkpt>
      <trkpt lat="47.32528" lon="4.95949">
        <ele>461</ele>
        <time>2013-02-09T08:09:39.000Z</time>
      </trkpt>
      <trkpt lat="47.32527" lon="4.95951">
        <ele>461</ele>
        <time>2013-02-09T08:09:40.000Z</time>
      </trkpt>
      <trkpt lat="47.32526" lon="4.95955">
        <ele>460.7</ele>
        <time>2013-02-09T08:09:42.000Z</time>
      </trkpt>
      <trkpt lat="47.3252" lon="4.9597">
        <ele>455.2</ele>
        <time>2013-02-09T08:09:50.000Z</time>
      </trkpt>
      <trkpt lat="47.32518" lon="4.95975">
        <ele>457.2</ele>
        <time>2013-02-09T08:09:52.000Z</time>
      </trkpt>
      <trkpt lat="47.32517" lon="4.95977">
        <ele>457</ele>
        <time>2013-02-09T08:09:53.000Z</time>
      </trkpt>
      <trkpt lat="47.32515" lon="4.95981">
        <ele>457.6</ele>
        <time>2013-02-09T08:09:55.000Z</time>
      </trkpt>
      <trkpt lat="47.32515" lon="4.95983">
        <ele>457.6</ele>
        <time>2013-02-09T08:09:56.000Z</time>
      </trkpt>
      <trkpt lat="47.32513" lon="4.95988">
        <ele>457.5</ele>
        <time>2013-02-09T08:09:58.000Z</time>
      </trkpt>
      <trkpt lat="47.32512" lon="4.9599">
        <ele>457.7</ele>
        <time>2013-02-09T08:09:59.000Z</time>
      </trkpt>
      <trkpt lat="47.3251" lon="4.95994">
        <ele>457.5</ele>
        <time>2013-02-09T08:10:01.000Z</time>
      </trkpt>
      <trkpt lat="47.3251" lon="4.95996">
        <ele>457.5</ele>
        <time>2013-02-09T08:10:02.000Z</time>
      </trkpt>
      <trkpt lat="47.32508" lon="4.96003">
        <ele>457.3</ele>
        <time>2013-02-09T08:10:05.000Z</time>
      </trkpt>
      <trkpt lat="47.32508" lon="4.96005">
        <ele>457.5</ele>
        <time>2013-02-09T08:10:06.000Z</time>
      </trkpt>
      <trkpt lat="47.32507" lon="4.96009">
        <ele>457.9</ele>
        <time>2013-02-09T08:10:08.000Z</time>
      </trkpt>
      <trkpt lat="47.32506" lon="4.96011">
        <ele>457.8</ele>
        <time>2013-02-09T08:10:09.000Z</time>
      </trkpt>
      <trkpt lat="47.32505" lon="4.96016">
        <ele>457.9</ele>
        <time>2013-02-09T08:10:11.000Z</time>
      </trkpt>
      <trkpt lat="47.32504" lon="4.96018">
        <ele>458.1</ele>
        <time>2013-02-09T08:10:12.000Z</time>
      </trkpt>
      <trkpt lat="47.32503" lon="4.96022">
        <ele>458.3</ele>
        <time>2013-02-09T08:10:14.000Z</time>
      </trkpt>
      <trkpt lat="47.32503" lon="4.96024">
        <ele>458.5</ele>
        <time>2013-02-09T08:10:15.000Z</time>
      </trkpt>
      <trkpt lat="47.32501" lon="4.96029">
        <ele>458.9</ele>
        <time>2013-02-09T08:10:17.000Z</time>
      </trkpt>
      <trkpt lat="47.32501" lon="4.96031">
        <ele>459.3</ele>
        <time>2013-02-09T08:10:18.000Z</time>
      </trkpt>
      <trkpt lat="47.325" lon="4.96037">
        <ele>460.2</ele>
        <time>2013-02-09T08:10:21.000Z</time>
      </trkpt>
      <trkpt lat="47.32499" lon="4.96039">
        <ele>460.3</ele>
        <time>2013-02-09T08:10:22.000Z</time>
      </trkpt>
      <trkpt lat="47.32498" lon="4.96045">
        <ele>461.1</ele>
        <time>2013-02-09T08:10:25.000Z</time>
      </trkpt>
      <trkpt lat="47.32497" lon="4.96047">
        <ele>461</ele>
        <time>2013-02-09T08:10:26.000Z</time>
      </trkpt>
      <trkpt lat="47.32496" lon="4.96053">
        <ele>461.4</ele>
        <time>2013-02-09T08:10:29.000Z</time>
      </trkpt>
      <trkpt lat="47.32495" lon="4.96055">
        <ele>461.6</ele>
        <time>2013-02-09T08:10:30.000Z</time>
      </trkpt>
      <trkpt lat="47.32494" lon="4.96059">
        <ele>462</ele>
        <time>2013-02-09T08:10:32.000Z</time>
      </trkpt>
      <trkpt lat="47.32493" lon="4.96061">
        <ele>461.9</ele>
        <time>2013-02-09T08:10:33.000Z</time>
      </trkpt>
      <trkpt lat="47.3249" lon="4.96063">
        <ele>461.6</ele>
        <time>2013-02-09T08:10:35.000Z</time>
      </trkpt>
      <trkpt lat="47.32488" lon="4.96064">
        <ele>461.6</ele>
        <time>2013-02-09T08:10:36.000Z</time>
      </trkpt>
      <trkpt lat="47.32485" lon="4.96066">
        <ele>461.6</ele>
        <time>2013-02-09T08:10:38.000Z</time>
      </trkpt>
      <trkpt lat="47.32483" lon="4.96067">
        <ele>461.3</ele>
        <time>2013-02-09T08:10:39.000Z</time>
      </trkpt>
      <trkpt lat="47.32479" lon="4.96068">
        <ele>460.8</ele>
        <time>2013-02-09T08:10:41.000Z</time>
      </trkpt>
      <trkpt lat="47.32477" lon="4.96068">
        <ele>460.6</ele>
        <time>2013-02-09T08:10:42.000Z</time>
      </trkpt>
      <trkpt lat="47.3246" lon="4.96065">
        <ele>456.9</ele>
        <time>2013-02-09T08:10:49.000Z</time>
      </trkpt>
      <trkpt lat="47.32457" lon="4.96065">
        <ele>458.9</ele>
        <time>2013-02-09T08:10:51.000Z</time>
      </trkpt>
      <trkpt lat="47.32455" lon="4.96065">
        <ele>459</ele>
        <time>2013-02-09T08:10:52.000Z</time>
      </trkpt>
      <trkpt lat="47.32451" lon="4.96064">
        <ele>457.6</ele>
        <time>2013-02-09T08:10:54.000Z</time>
      </trkpt>
      <trkpt lat="47.3245" lon="4.96064">
        <ele>456.7</ele>
        <time>2013-02-09T08:10:55.000Z</time>
      </trkpt>
      <trkpt lat="47.32446" lon="4.96064">
        <ele>457.1</ele>
        <time>2013-02-09T08:10:57.000Z</time>
      </trkpt>
      <trkpt lat="47.32444" lon="4.96064">
        <ele>457</ele>
        <time>2013-02-09T08:10:58.000Z</time>
      </trkpt>
      <trkpt lat="47.32441" lon="4.96064">
        <ele>456.8</ele>
        <time>2013-02-09T08:11:00.000Z</time>
      </trkpt>
      <trkpt lat="47.32439" lon="4.96064">
        <ele>456.7</ele>
        <time>2013-02-09T08:11:01.000Z</time>
      </trkpt>
      <trkpt lat="47.32435" lon="4.96064">
        <ele>456.6</ele>
        <time>2013-02-09T08:11:03.000Z</time>
      </trkpt>
      <trkpt lat="47.32433" lon="4.96063">
        <ele>456.6</ele>
        <time>2013-02-09T08:11:04.000Z</time>
      </trkpt>
      <trkpt lat="47.32429" lon="4.96062">
        <ele>456.4</ele>
        <time>2013-02-09T08:11:06.000Z</time>
      </trkpt>
      <trkpt lat="47.32427" lon="4.96062">
        <ele>456.3</ele>
        <time>2013-02-09T08:11:07.000Z</time>
      </trkpt>
      <trkpt lat="47.32424" lon="4.96061">
        <ele>456.2</ele>
        <time>2013-02-09T08:11:09.000Z</time>
      </trkpt>
      <trkpt lat="47.32422" lon="4.96061">
        <ele>456.3</ele>
        <time>2013-02-09T08:11:10.000Z</time>
      </trkpt>
      <trkpt lat="47.32418" lon="4.9606">
        <ele>456.5</ele>
        <time>2013-02-09T08:11:12.000Z</time>
      </trkpt>
      <trkpt lat="47.32417" lon="4.9606">
        <ele>456.4</ele>
        <time>2013-02-09T08:11:13.000Z</time>
      </trkpt>
      <trkpt lat="47.32413" lon="4.96059">
        <ele>456.1</ele>
        <time>2013-02-09T08:11:15.000Z</time>
      </trkpt>
      <trkpt lat="47.32411" lon="4.96059">
        <ele>456</ele>
        <time>2013-02-09T08:11:16.000Z</time>
      </trkpt>
      <trkpt lat="47.32408" lon="4.96058">
        <ele>456.1</ele>
        <time>2013-02-09T08:11:18.000Z</time>
      </trkpt>
      <trkpt lat="47.32406" lon="4.96058">
        <ele>456.1</ele>
        <time>2013-02-09T08:11:19.000Z</time>
      </trkpt>
      <trkpt lat="47.32402" lon="4.96057">
        <ele>456.1</ele>
        <time>2013-02-09T08:11:21.000Z</time>
      </trkpt>
      <trkpt lat="47.324" lon="4.96057">
        <ele>456.2</ele>
        <time>2013-02-09T08:11:22.000Z</time>
      </trkpt>
      <trkpt lat="47.32397" lon="4.96056">
        <ele>456.3</ele>
        <time>2013-02-09T08:11:24.000Z</time>
      </trkpt>
      <trkpt lat="47.32395" lon="4.96056">
        <ele>456.3</ele>
        <time>2013-02-09T08:11:25.000Z</time>
      </trkpt>
      <trkpt lat="47.32391" lon="4.96054">
        <ele>456.2</ele>
        <time>2013-02-09T08:11:27.000Z</time>
      </trkpt>
      <trkpt lat="47.32389" lon="4.96054">
        <ele>456.2</ele>
        <time>2013-02-09T08:11:28.000Z</time>
      </trkpt>
      <trkpt lat="47.32385" lon="4.96053">
        <ele>456.4</ele>
        <time>2013-02-09T08:11:30.000Z</time>
      </trkpt>
      <trkpt lat="47.32383" lon="4.96053">
        <ele>456.5</ele>
        <time>2013-02-09T08:11:31.000Z</time>
      </trkpt>
      <trkpt lat="47.32379" lon="4.96052">
        <ele>456.6</ele>
        <time>2013-02-09T08:11:33.000Z</time>
      </trkpt>
      <trkpt lat="47.32377" lon="4.96052">
        <ele>456.7</ele>
        <time>2013-02-09T08:11:34.000Z</time>
      </trkpt>
      <trkpt lat="47.32373" lon="4.96051">
        <ele>456.8</ele>
        <time>2013-02-09T08:11:36.000Z</time>
      </trkpt>
      <trkpt lat="47.32371" lon="4.9605">
        <ele>456.9</ele>
        <time>2013-02-09T08:11:37.000Z</time>
      </trkpt>
      <trkpt lat="47.32367" lon="4.96049">
        <ele>456.9</ele>
        <time>2013-02-09T08:11:39.000Z</time>
      </trkpt>
      <trkpt lat="47.32365" lon="4.96048">
        <ele>456.9</ele>
        <time>2013-02-09T08:11:40.000Z</time>
      </trkpt>
      <trkpt lat="47.32361" lon="4.96047">
        <ele>456.9</ele>
        <time>2013-02-09T08:11:42.000Z</time>
      </trkpt>
      <trkpt lat="47.32345" lon="4.96038">
        <ele>452.2</ele>
        <time>2013-02-09T08:11:50.000Z</time>
      </trkpt>
      <trkpt lat="47.32341" lon="4.96039">
        <ele>454.3</ele>
        <time>2013-02-09T08:11:52.000Z</time>
      </trkpt>
      <trkpt lat="47.32339" lon="4.96039">
        <ele>454.2</ele>
        <time>2013-02-09T08:11:53.000Z</time>
      </trkpt>
      <trkpt lat="47.32335" lon="4.96037">
        <ele>454.8</ele>
        <time>2013-02-09T08:11:55.000Z</time>
      </trkpt>
      <trkpt lat="47.32333" lon="4.96036">
        <ele>455.4</ele>
        <time>2013-02-09T08:11:56.000Z</time>
      </trkpt>
      <trkpt lat="47.32329" lon="4.96035">
        <ele>455.3</ele>
        <time>2013-02-09T08:11:58.000Z</time>
      </trkpt>
      <trkpt lat="47.32327" lon="4.96035">
        <ele>455.2</ele>
        <time>2013-02-09T08:11:59.000Z</time>
      </trkpt>
      <trkpt lat="47.32323" lon="4.96034">
        <ele>455.3</ele>
        <time>2013-02-09T08:12:01.000Z</time>
      </trkpt>
      <trkpt lat="47.3232" lon="4.96033">
        <ele>455.4</ele>
        <time>2013-02-09T08:12:02.000Z</time>
      </trkpt>
      <trkpt lat="47.32316" lon="4.96032">
        <ele>456</ele>
        <time>2013-02-09T08:12:04.000Z</time>
      </trkpt>
      <trkpt lat="47.32314" lon="4.96032">
        <ele>456.1</ele>
        <time>2013-02-09T08:12:05.000Z</time>
      </trkpt>
      <trkpt lat="47.3231" lon="4.9603">
        <ele>455.9</ele>
        <time>2013-02-09T08:12:07.000Z</time>
      </trkpt>
      <trkpt lat="47.32308" lon="4.9603">
        <ele>455.8</ele>
        <time>2013-02-09T08:12:08.000Z</time>
      </trkpt>
      <trkpt lat="47.32304" lon="4.96029">
        <ele>455.8</ele>
        <time>2013-02-09T08:12:10.000Z</time>
      </trkpt>
      <trkpt lat="47.32302" lon="4.96028">
        <ele>455.9</ele>
        <time>2013-02-09T08:12:11.000Z</time>
      </trkpt>
      <trkpt lat="47.32298" lon="4.96027">
        <ele>455.8</ele>
        <time>2013-02-09T08:12:13.000Z</time>
      </trkpt>
      <trkpt lat="47.32296" lon="4.96027">
        <ele>455.8</ele>
        <time>2013-02-09T08:12:14.000Z</time>
      </trkpt>
      <trkpt lat="47.32291" lon="4.96026">
        <ele>455.8</ele>
        <time>2013-02-09T08:12:16.000Z</time>
      </trkpt>
      <trkpt lat="47.32289" lon="4.96025">
        <ele>455.9</ele>
        <time>2013-02-09T08:12:17.000Z</time>
      </trkpt>
      <trkpt lat="47.32285" lon="4.96025">
        <ele>455.7</ele>
        <time>2013-02-09T08:12:19.000Z</time>
      </trkpt>
      <trkpt lat="47.32283" lon="4.96024">
        <ele>455.7</ele>
        <time>2013-02-09T08:12:20.000Z</time>
      </trkpt>
      <trkpt lat="47.32279" lon="4.96024">
        <ele>455.7</ele>
        <time>2013-02-09T08:12:22.000Z</time>
      </trkpt>
      <trkpt lat="47.32277" lon="4.96024">
        <ele>455.8</ele>
        <time>2013-02-09T08:12:23.000Z</time>
      </trkpt>
      <trkpt lat="47.32272" lon="4.96023">
        <ele>455.9</ele>
        <time>2013-02-09T08:12:25.000Z</time>
      </trkpt>
      <trkpt lat="47.3227" lon="4.96023">
        <ele>455.8</ele>
        <time>2013-02-09T08:12:26.000Z</time>
      </trkpt>
      <trkpt lat="47.32266" lon="4.96022">
        <ele>455.6</ele>
        <time>2013-02-09T08:12:28.000Z</time>
      </trkpt>
      <trkpt lat="47.32264" lon="4.96021">
        <ele>455.4</ele>
        <time>2013-02-09T08:12:29.000Z</time>
      </trkpt>
      <trkpt lat="47.3226" lon="4.9602">
        <ele>455.4</ele>
        <time>2013-02-09T08:12:31.000Z</time>
      </trkpt>
      <trkpt lat="47.32258" lon="4.9602">
        <ele>455.3</ele>
        <time>2013-02-09T08:12:32.000Z</time>
      </trkpt>
      <trkpt lat="47.32254" lon="4.96018">
        <ele>455</ele>
        <time>2013-02-09T08:12:34.000Z</time>
      </trkpt>
      <trkpt lat="47.32252" lon="4.96017">
        <ele>454.8</ele>
        <time>2013-02-09T08:12:35.000Z</time>
      </trkpt>
      <trkpt lat="47.32248" lon="4.96016">
        <ele>454.4</ele>
        <time>2013-02-09T08:12:37.000Z</time>
      </trkpt>
      <trkpt lat="47.32246" lon="4.96015">
        <ele>454.4</ele>
        <time>2013-02-09T08:12:38.000Z</time>
      </trkpt>
      <trkpt lat="47.32242" lon="4.96013">
        <ele>454.3</ele>
        <time>2013-02-09T08:12:40.000Z</time>
      </trkpt>
      <trkpt lat="47.3224" lon="4.96012">
        <ele>454.2</ele>
        <time>2013-02-09T08:12:41.000Z</time>
      </trkpt>
      <trkpt lat="47.32238" lon="4.96011">
        <ele>454.1</ele>
        <time>2013-02-09T08:12:42.000Z</time>
      </trkpt>
      <trkpt lat="47.32224" lon="4.96005">
        <ele>453.1</ele>
        <time>2013-02-09T08:12:49.000Z</time>
      </trkpt>
      <trkpt lat="47.32222" lon="4.96003">
        <ele>453.2</ele>
        <time>2013-02-09T08:12:50.000Z</time>
      </trkpt>
      <trkpt lat="47.32222" lon="4.95998">
        <ele>451.3</ele>
        <time>2013-02-09T08:12:51.000Z</time>
      </trkpt>
      <trkpt lat="47.32218" lon="4.95997">
        <ele>452.5</ele>
        <time>2013-02-09T08:12:53.000Z</time>
      </trkpt>
      <trkpt lat="47.32216" lon="4.95995">
        <ele>452.1</ele>
        <time>2013-02-09T08:12:54.000Z</time>
      </trkpt>
      <trkpt lat="47.32215" lon="4.95992">
        <ele>451.9</ele>
        <time>2013-02-09T08:12:55.000Z</time>
      </trkpt>
      <trkpt lat="47.32213" lon="4.9599">
        <ele>451.5</ele>
        <time>2013-02-09T08:12:56.000Z</time>
      </trkpt>
      <trkpt lat="47.32209" lon="4.95986">
        <ele>450.8</ele>
        <time>2013-02-09T08:12:58.000Z</time>
      </trkpt>
      <trkpt lat="47.32208" lon="4.95984">
        <ele>450.5</ele>
        <time>2013-02-09T08:12:59.000Z</time>
      </trkpt>
      <trkpt lat="47.32205" lon="4.9598">
        <ele>450.3</ele>
        <time>2013-02-09T08:13:01.000Z</time>
      </trkpt>
      <trkpt lat="47.32205" lon="4.95978">
        <ele>450.2</ele>
        <time>2013-02-09T08:13:02.000Z</time>
      </trkpt>
      <trkpt lat="47.32209" lon="4.95978">
        <ele>449.5</ele>
        <time>2013-02-09T08:13:05.000Z</time>
      </trkpt>
      <trkpt lat="47.3221" lon="4.95979">
        <ele>449.7</ele>
        <time>2013-02-09T08:13:06.000Z</time>
      </trkpt>
      <trkpt lat="47.32214" lon="4.95983">
        <ele>449.5</ele>
        <time>2013-02-09T08:13:08.000Z</time>
      </trkpt>
      <trkpt lat="47.32215" lon="4.95984">
        <ele>449.5</ele>
        <time>2013-02-09T08:13:09.000Z</time>
      </trkpt>
      <trkpt lat="47.32219" lon="4.95987">
        <ele>449.8</ele>
        <time>2013-02-09T08:13:11.000Z</time>
      </trkpt>
      <trkpt lat="47.3222" lon="4.95988">
        <ele>450</ele>
        <time>2013-02-09T08:13:12.000Z</time>
      </trkpt>
      <trkpt lat="47.32223" lon="4.95992">
        <ele>450.3</ele>
        <time>2013-02-09T08:13:14.000Z</time>
      </trkpt>
      <trkpt lat="47.32224" lon="4.95994">
        <ele>450.5</ele>
        <time>2013-02-09T08:13:15.000Z</time>
      </trkpt>
      <trkpt lat="47.32227" lon="4.95997">
        <ele>450.8</ele>
        <time>2013-02-09T08:13:17.000Z</time>
      </trkpt>
      <trkpt lat="47.32228" lon="4.95999">
        <ele>451</ele>
        <time>2013-02-09T08:13:18.000Z</time>
      </trkpt>
      <trkpt lat="47.32224" lon="4.95995">
        <ele>451.5</ele>
        <time>2013-02-09T08:13:23.000Z</time>
      </trkpt>
      <trkpt lat="47.32223" lon="4.95993">
        <ele>451.5</ele>
        <time>2013-02-09T08:13:24.000Z</time>
      </trkpt>
      <trkpt lat="47.32219" lon="4.9599">
        <ele>451.6</ele>
        <time>2013-02-09T08:13:26.000Z</time>
      </trkpt>
      <trkpt lat="47.32217" lon="4.95989">
        <ele>451.4</ele>
        <time>2013-02-09T08:13:27.000Z</time>
      </trkpt>
      <trkpt lat="47.32213" lon="4.95986">
        <ele>451.5</ele>
        <time>2013-02-09T08:13:29.000Z</time>
      </trkpt>
      <trkpt lat="47.32212" lon="4.95984">
        <ele>451.6</ele>
        <time>2013-02-09T08:13:30.000Z</time>
      </trkpt>
      <trkpt lat="47.32209" lon="4.95981">
        <ele>451.6</ele>
        <time>2013-02-09T08:13:32.000Z</time>
      </trkpt>
      <trkpt lat="47.32207" lon="4.95979">
        <ele>451.5</ele>
        <time>2013-02-09T08:13:33.000Z</time>
      </trkpt>
      <trkpt lat="47.32204" lon="4.95976">
        <ele>451.4</ele>
        <time>2013-02-09T08:13:35.000Z</time>
      </trkpt>
      <trkpt lat="47.32202" lon="4.95974">
        <ele>451.2</ele>
        <time>2013-02-09T08:13:36.000Z</time>
      </trkpt>
      <trkpt lat="47.32198" lon="4.95971">
        <ele>451.1</ele>
        <time>2013-02-09T08:13:38.000Z</time>
      </trkpt>
      <trkpt lat="47.32196" lon="4.9597">
        <ele>451</ele>
        <time>2013-02-09T08:13:39.000Z</time>
      </trkpt>
      <trkpt lat="47.32192" lon="4.95968">
        <ele>450.9</ele>
        <time>2013-02-09T08:13:41.000Z</time>
      </trkpt>
      <trkpt lat="47.3219" lon="4.95966">
        <ele>450.8</ele>
        <time>2013-02-09T08:13:42.000Z</time>
      </trkpt>
      <trkpt lat="47.32176" lon="4.95951">
        <ele>446.9</ele>
        <time>2013-02-09T08:13:49.000Z</time>
      </trkpt>
      <trkpt lat="47.32173" lon="4.9595">
        <ele>445.3</ele>
        <time>2013-02-09T08:13:50.000Z</time>
      </trkpt>
      <trkpt lat="47.32172" lon="4.95949">
        <ele>445.4</ele>
        <time>2013-02-09T08:13:51.000Z</time>
      </trkpt>
      <trkpt lat="47.32168" lon="4.95948">
        <ele>444.3</ele>
        <time>2013-02-09T08:13:53.000Z</time>
      </trkpt>
      <trkpt lat="47.32166" lon="4.95948">
        <ele>444.9</ele>
        <time>2013-02-09T08:13:54.000Z</time>
      </trkpt>
      <trkpt lat="47.32161" lon="4.95947">
        <ele>444.4</ele>
        <time>2013-02-09T08:13:56.000Z</time>
      </trkpt>
      <trkpt lat="47.32159" lon="4.95947">
        <ele>444.3</ele>
        <time>2013-02-09T08:13:57.000Z</time>
      </trkpt>
      <trkpt lat="47.32157" lon="4.95946">
        <ele>443.8</ele>
        <time>2013-02-09T08:13:58.000Z</time>
      </trkpt>
      <trkpt lat="47.32154" lon="4.95946">
        <ele>444.1</ele>
        <time>2013-02-09T08:13:59.000Z</time>
      </trkpt>
      <trkpt lat="47.3215" lon="4.95945">
        <ele>442.4</ele>
        <time>2013-02-09T08:14:01.000Z</time>
      </trkpt>
      <trkpt lat="47.32148" lon="4.95945">
        <ele>441.8</ele>
        <time>2013-02-09T08:14:02.000Z</time>
      </trkpt>
      <trkpt lat="47.32144" lon="4.95946">
        <ele>441.5</ele>
        <time>2013-02-09T08:14:04.000Z</time>
      </trkpt>
      <trkpt lat="47.32142" lon="4.95946">
        <ele>441.4</ele>
        <time>2013-02-09T08:14:05.000Z</time>
      </trkpt>
      <trkpt lat="47.32138" lon="4.95948">
        <ele>441.2</ele>
        <time>2013-02-09T08:14:07.000Z</time>
      </trkpt>
      <trkpt lat="47.32136" lon="4.95948">
        <ele>440.8</ele>
        <time>2013-02-09T08:14:08.000Z</time>
      </trkpt>
      <trkpt lat="47.32132" lon="4.95949">
        <ele>439.9</ele>
        <time>2013-02-09T08:14:10.000Z</time>
      </trkpt>
      <trkpt lat="47.3213" lon="4.95949">
        <ele>439.2</ele>
        <time>2013-02-09T08:14:11.000Z</time>
      </trkpt>
      <trkpt lat="47.32127" lon="4.9595">
        <ele>438.9</ele>
        <time>2013-02-09T08:14:12.000Z</time>
      </trkpt>
      <trkpt lat="47.32125" lon="4.95951">
        <ele>438.8</ele>
        <time>2013-02-09T08:14:13.000Z</time>
      </trkpt>
      <trkpt lat="47.32122" lon="4.95951">
        <ele>438.8</ele>
        <time>2013-02-09T08:14:14.000Z</time>
      </trkpt>
      <trkpt lat="47.32119" lon="4.95952">
        <ele>438.8</ele>
        <time>2013-02-09T08:14:15.000Z</time>
      </trkpt>
      <trkpt lat="47.32116" lon="4.95953">
        <ele>438.6</ele>
        <time>2013-02-09T08:14:16.000Z</time>
      </trkpt>
      <trkpt lat="47.32114" lon="4.95952">
        <ele>437.8</ele>
        <time>2013-02-09T08:14:17.000Z</time>
      </trkpt>
      <trkpt lat="47.32111" lon="4.95951">
        <ele>437.6</ele>
        <time>2013-02-09T08:14:18.000Z</time>
      </trkpt>
      <trkpt lat="47.32109" lon="4.95951">
        <ele>437.6</ele>
        <time>2013-02-09T08:14:19.000Z</time>
      </trkpt>
      <trkpt lat="47.32106" lon="4.95951">
        <ele>437.1</ele>
        <time>2013-02-09T08:14:20.000Z</time>
      </trkpt>
      <trkpt lat="47.32103" lon="4.9595">
        <ele>437</ele>
        <time>2013-02-09T08:14:21.000Z</time>
      </trkpt>
      <trkpt lat="47.32101" lon="4.9595">
        <ele>436.8</ele>
        <time>2013-02-09T08:14:22.000Z</time>
      </trkpt>
      <trkpt lat="47.32098" lon="4.9595">
        <ele>436.7</ele>
        <time>2013-02-09T08:14:23.000Z</time>
      </trkpt>
      <trkpt lat="47.32095" lon="4.9595">
        <ele>436.6</ele>
        <time>2013-02-09T08:14:24.000Z</time>
      </trkpt>
      <trkpt lat="47.32093" lon="4.95949">
        <ele>436.5</ele>
        <time>2013-02-09T08:14:25.000Z</time>
      </trkpt>
      <trkpt lat="47.3209" lon="4.95948">
        <ele>436.5</ele>
        <time>2013-02-09T08:14:26.000Z</time>
      </trkpt>
      <trkpt lat="47.32088" lon="4.95947">
        <ele>436.5</ele>
        <time>2013-02-09T08:14:27.000Z</time>
      </trkpt>
      <trkpt lat="47.32085" lon="4.95946">
        <ele>436.4</ele>
        <time>2013-02-09T08:14:28.000Z</time>
      </trkpt>
      <trkpt lat="47.32083" lon="4.95945">
        <ele>436.3</ele>
        <time>2013-02-09T08:14:29.000Z</time>
      </trkpt>
      <trkpt lat="47.32081" lon="4.95944">
        <ele>436.2</ele>
        <time>2013-02-09T08:14:30.000Z</time>
      </trkpt>
      <trkpt lat="47.32078" lon="4.95943">
        <ele>436.1</ele>
        <time>2013-02-09T08:14:31.000Z</time>
      </trkpt>
      <trkpt lat="47.32076" lon="4.95941">
        <ele>436</ele>
        <time>2013-02-09T08:14:32.000Z</time>
      </trkpt>
      <trkpt lat="47.32074" lon="4.9594">
        <ele>435.9</ele>
        <time>2013-02-09T08:14:33.000Z</time>
      </trkpt>
      <trkpt lat="47.32071" lon="4.95936">
        <ele>435.9</ele>
        <time>2013-02-09T08:14:35.000Z</time>
      </trkpt>
      <trkpt lat="47.32069" lon="4.95934">
        <ele>435.9</ele>
        <time>2013-02-09T08:14:36.000Z</time>
      </trkpt>
      <trkpt lat="47.32067" lon="4.95932">
        <ele>435.7</ele>
        <time>2013-02-09T08:14:37.000Z</time>
      </trkpt>
      <trkpt lat="47.32065" lon="4.9593">
        <ele>435.7</ele>
        <time>2013-02-09T08:14:38.000Z</time>
      </trkpt>
      <trkpt lat="47.32061" lon="4.95927">
        <ele>435.5</ele>
        <time>2013-02-09T08:14:40.000Z</time>
      </trkpt>
      <trkpt lat="47.32059" lon="4.95926">
        <ele>435.5</ele>
        <time>2013-02-09T08:14:41.000Z</time>
      </trkpt>
      <trkpt lat="47.32056" lon="4.95922">
        <ele>435.3</ele>
        <time>2013-02-09T08:14:43.000Z</time>
      </trkpt>
      <trkpt lat="47.32054" lon="4.9592">
        <ele>435.4</ele>
        <time>2013-02-09T08:14:44.000Z</time>
      </trkpt>
      <trkpt lat="47.32052" lon="4.95918">
        <ele>435.4</ele>
        <time>2013-02-09T08:14:45.000Z</time>
      </trkpt>
      <trkpt lat="47.32051" lon="4.95916">
        <ele>435.3</ele>
        <time>2013-02-09T08:14:46.000Z</time>
      </trkpt>
      <trkpt lat="47.32047" lon="4.95911">
        <ele>435.3</ele>
        <time>2013-02-09T08:14:48.000Z</time>
      </trkpt>
      <trkpt lat="47.32046" lon="4.95909">
        <ele>435.3</ele>
        <time>2013-02-09T08:14:49.000Z</time>
      </trkpt>
      <trkpt lat="47.32042" lon="4.95906">
        <ele>435</ele>
        <time>2013-02-09T08:14:51.000Z</time>
      </trkpt>
      <trkpt lat="47.32041" lon="4.95904">
        <ele>434.8</ele>
        <time>2013-02-09T08:14:52.000Z</time>
      </trkpt>
      <trkpt lat="47.32038" lon="4.959">
        <ele>434.6</ele>
        <time>2013-02-09T08:14:54.000Z</time>
      </trkpt>
      <trkpt lat="47.32037" lon="4.95899">
        <ele>434.4</ele>
        <time>2013-02-09T08:14:55.000Z</time>
      </trkpt>
      <trkpt lat="47.32033" lon="4.95897">
        <ele>434.1</ele>
        <time>2013-02-09T08:14:57.000Z</time>
      </trkpt>
      <trkpt lat="47.32031" lon="4.95896">
        <ele>433.9</ele>
        <time>2013-02-09T08:14:58.000Z</time>
      </trkpt>
      <trkpt lat="47.32028" lon="4.95894">
        <ele>433.5</ele>
        <time>2013-02-09T08:15:00.000Z</time>
      </trkpt>
      <trkpt lat="47.32027" lon="4.95893">
        <ele>433.3</ele>
        <time>2013-02-09T08:15:01.000Z</time>
      </trkpt>
      <trkpt lat="47.32023" lon="4.95892">
        <ele>433</ele>
        <time>2013-02-09T08:15:03.000Z</time>
      </trkpt>
      <trkpt lat="47.32021" lon="4.95891">
        <ele>432.8</ele>
        <time>2013-02-09T08:15:04.000Z</time>
      </trkpt>
      <trkpt lat="47.32018" lon="4.9589">
        <ele>432.9</ele>
        <time>2013-02-09T08:15:06.000Z</time>
      </trkpt>
      <trkpt lat="47.32016" lon="4.9589">
        <ele>432.9</ele>
        <time>2013-02-09T08:15:07.000Z</time>
      </trkpt>
      <trkpt lat="47.32012" lon="4.95889">
        <ele>432.9</ele>
        <time>2013-02-09T08:15:09.000Z</time>
      </trkpt>
      <trkpt lat="47.3201" lon="4.95889">
        <ele>432.7</ele>
        <time>2013-02-09T08:15:10.000Z</time>
      </trkpt>
      <trkpt lat="47.32007" lon="4.95888">
        <ele>432.8</ele>
        <time>2013-02-09T08:15:12.000Z</time>
      </trkpt>
      <trkpt lat="47.32005" lon="4.95888">
        <ele>432.9</ele>
        <time>2013-02-09T08:15:13.000Z</time>
      </trkpt>
      <trkpt lat="47.32002" lon="4.95885">
        <ele>432.8</ele>
        <time>2013-02-09T08:15:15.000Z</time>
      </trkpt>
      <trkpt lat="47.32001" lon="4.95884">
        <ele>433</ele>
        <time>2013-02-09T08:15:16.000Z</time>
      </trkpt>
      <trkpt lat="47.31998" lon="4.95883">
        <ele>433.1</ele>
        <time>2013-02-09T08:15:18.000Z</time>
      </trkpt>
      <trkpt lat="47.31996" lon="4.95883">
        <ele>433.2</ele>
        <time>2013-02-09T08:15:19.000Z</time>
      </trkpt>
      <trkpt lat="47.31993" lon="4.95881">
        <ele>433.2</ele>
        <time>2013-02-09T08:15:21.000Z</time>
      </trkpt>
      <trkpt lat="47.31991" lon="4.9588">
        <ele>433.3</ele>
        <time>2013-02-09T08:15:22.000Z</time>
      </trkpt>
      <trkpt lat="47.31988" lon="4.95878">
        <ele>433.3</ele>
        <time>2013-02-09T08:15:24.000Z</time>
      </trkpt>
      <trkpt lat="47.31986" lon="4.95877">
        <ele>433.4</ele>
        <time>2013-02-09T08:15:25.000Z</time>
      </trkpt>
      <trkpt lat="47.31982" lon="4.95876">
        <ele>433.5</ele>
        <time>2013-02-09T08:15:27.000Z</time>
      </trkpt>
      <trkpt lat="47.3198" lon="4.95875">
        <ele>433.4</ele>
        <time>2013-02-09T08:15:28.000Z</time>
      </trkpt>
      <trkpt lat="47.31977" lon="4.95873">
        <ele>433.3</ele>
        <time>2013-02-09T08:15:30.000Z</time>
      </trkpt>
      <trkpt lat="47.31975" lon="4.95872">
        <ele>433.3</ele>
        <time>2013-02-09T08:15:31.000Z</time>
      </trkpt>
      <trkpt lat="47.31972" lon="4.95871">
        <ele>433.5</ele>
        <time>2013-02-09T08:15:33.000Z</time>
      </trkpt>
      <trkpt lat="47.3197" lon="4.9587">
        <ele>433.7</ele>
        <time>2013-02-09T08:15:34.000Z</time>
      </trkpt>
      <trkpt lat="47.31967" lon="4.95869">
        <ele>434.2</ele>
        <time>2013-02-09T08:15:36.000Z</time>
      </trkpt>
      <trkpt lat="47.31965" lon="4.95868">
        <ele>434.4</ele>
        <time>2013-02-09T08:15:37.000Z</time>
      </trkpt>
      <trkpt lat="47.31962" lon="4.95866">
        <ele>434.6</ele>
        <time>2013-02-09T08:15:39.000Z</time>
      </trkpt>
      <trkpt lat="47.31961" lon="4.95865">
        <ele>434.8</ele>
        <time>2013-02-09T08:15:40.000Z</time>
      </trkpt>
      <trkpt lat="47.31957" lon="4.95863">
        <ele>435.1</ele>
        <time>2013-02-09T08:15:42.000Z</time>
      </trkpt>
      <trkpt lat="47.31946" lon="4.95856">
        <ele>437.1</ele>
        <time>2013-02-09T08:15:49.000Z</time>
      </trkpt>
      <trkpt lat="47.31943" lon="4.95854">
        <ele>437.7</ele>
        <time>2013-02-09T08:15:51.000Z</time>
      </trkpt>
      <trkpt lat="47.31942" lon="4.95854">
        <ele>438.3</ele>
        <time>2013-02-09T08:15:52.000Z</time>
      </trkpt>
      <trkpt lat="47.31937" lon="4.95853">
        <ele>440</ele>
        <time>2013-02-09T08:15:55.000Z</time>
      </trkpt>
      <trkpt lat="47.31935" lon="4.95852">
        <ele>439.8</ele>
        <time>2013-02-09T08:15:56.000Z</time>
      </trkpt>
      <trkpt lat="47.31933" lon="4.9585">
        <ele>439.2</ele>
        <time>2013-02-09T08:15:58.000Z</time>
      </trkpt>
      <trkpt lat="47.31931" lon="4.95849">
        <ele>439.4</ele>
        <time>2013-02-09T08:15:59.000Z</time>
      </trkpt>
      <trkpt lat="47.31927" lon="4.95847">
        <ele>439.7</ele>
        <time>2013-02-09T08:16:02.000Z</time>
      </trkpt>
      <trkpt lat="47.31926" lon="4.95846">
        <ele>439.8</ele>
        <time>2013-02-09T08:16:03.000Z</time>
      </trkpt>
      <trkpt lat="47.31921" lon="4.95844">
        <ele>440.1</ele>
        <time>2013-02-09T08:16:06.000Z</time>
      </trkpt>
      <trkpt lat="47.3192" lon="4.95843">
        <ele>440.5</ele>
        <time>2013-02-09T08:16:07.000Z</time>
      </trkpt>
      <trkpt lat="47.31916" lon="4.95842">
        <ele>441.5</ele>
        <time>2013-02-09T08:16:10.000Z</time>
      </trkpt>
      <trkpt lat="47.31914" lon="4.95841">
        <ele>441.9</ele>
        <time>2013-02-09T08:16:11.000Z</time>
      </trkpt>
      <trkpt lat="47.31911" lon="4.95838">
        <ele>442.2</ele>
        <time>2013-02-09T08:16:14.000Z</time>
      </trkpt>
      <trkpt lat="47.31909" lon="4.95838">
        <ele>442.2</ele>
        <time>2013-02-09T08:16:15.000Z</time>
      </trkpt>
      <trkpt lat="47.31905" lon="4.95835">
        <ele>442</ele>
        <time>2013-02-09T08:16:18.000Z</time>
      </trkpt>
      <trkpt lat="47.31904" lon="4.95834">
        <ele>442.1</ele>
        <time>2013-02-09T08:16:19.000Z</time>
      </trkpt>
      <trkpt lat="47.319" lon="4.95831">
        <ele>442.3</ele>
        <time>2013-02-09T08:16:22.000Z</time>
      </trkpt>
      <trkpt lat="47.31899" lon="4.9583">
        <ele>442.4</ele>
        <time>2013-02-09T08:16:23.000Z</time>
      </trkpt>
      <trkpt lat="47.31895" lon="4.95828">
        <ele>443</ele>
        <time>2013-02-09T08:16:26.000Z</time>
      </trkpt>
      <trkpt lat="47.31894" lon="4.95827">
        <ele>443.2</ele>
        <time>2013-02-09T08:16:27.000Z</time>
      </trkpt>
      <trkpt lat="47.3189" lon="4.95825">
        <ele>443.8</ele>
        <time>2013-02-09T08:16:30.000Z</time>
      </trkpt>
      <trkpt lat="47.31889" lon="4.95824">
        <ele>444.1</ele>
        <time>2013-02-09T08:16:31.000Z</time>
      </trkpt>
      <trkpt lat="47.31885" lon="4.95821">
        <ele>444.6</ele>
        <time>2013-02-09T08:16:34.000Z</time>
      </trkpt>
      <trkpt lat="47.31883" lon="4.9582">
        <ele>444.7</ele>
        <time>2013-02-09T08:16:35.000Z</time>
      </trkpt>
      <trkpt lat="47.3188" lon="4.95817">
        <ele>445.2</ele>
        <time>2013-02-09T08:16:38.000Z</time>
      </trkpt>
      <trkpt lat="47.31879" lon="4.95816">
        <ele>445.5</ele>
        <time>2013-02-09T08:16:39.000Z</time>
      </trkpt>
      <trkpt lat="47.31875" lon="4.95813">
        <ele>446.1</ele>
        <time>2013-02-09T08:16:42.000Z</time>
      </trkpt>
      <trkpt lat="47.31864" lon="4.95774">
        <ele>453.6</ele>
        <time>2013-02-09T08:17:03.000Z</time>
      </trkpt>
      <trkpt lat="47.31863" lon="4.95769">
        <ele>454.8</ele>
        <time>2013-02-09T08:17:05.000Z</time>
      </trkpt>
      <trkpt lat="47.31862" lon="4.95767">
        <ele>454.7</ele>
        <time>2013-02-09T08:17:06.000Z</time>
      </trkpt>
      <trkpt lat="47.31861" lon="4.95762">
        <ele>454</ele>
        <time>2013-02-09T08:17:08.000Z</time>
      </trkpt>
      <trkpt lat="47.31861" lon="4.9576">
        <ele>453.3</ele>
        <time>2013-02-09T08:17:09.000Z</time>
      </trkpt>
      <trkpt lat="47.31859" lon="4.95754">
        <ele>453.8</ele>
        <time>2013-02-09T08:17:12.000Z</time>
      </trkpt>
      <trkpt lat="47.31859" lon="4.95752">
        <ele>453.8</ele>
        <time>2013-02-09T08:17:13.000Z</time>
      </trkpt>
      <trkpt lat="47.31856" lon="4.95747">
        <ele>454.9</ele>
        <time>2013-02-09T08:17:16.000Z</time>
      </trkpt>
      <trkpt lat="47.31855" lon="4.95745">
        <ele>455.3</ele>
        <time>2013-02-09T08:17:17.000Z</time>
      </trkpt>
      <trkpt lat="47.31853" lon="4.95742">
        <ele>455.6</ele>
        <time>2013-02-09T08:17:19.000Z</time>
      </trkpt>
      <trkpt lat="47.31852" lon="4.9574">
        <ele>455.8</ele>
        <time>2013-02-09T08:17:20.000Z</time>
      </trkpt>
      <trkpt lat="47.3185" lon="4.95735">
        <ele>456.4</ele>
        <time>2013-02-09T08:17:23.000Z</time>
      </trkpt>
      <trkpt lat="47.31849" lon="4.95733">
        <ele>456.4</ele>
        <time>2013-02-09T08:17:24.000Z</time>
      </trkpt>
      <trkpt lat="47.31846" lon="4.95728">
        <ele>456.8</ele>
        <time>2013-02-09T08:17:27.000Z</time>
      </trkpt>
      <trkpt lat="47.31845" lon="4.95726">
        <ele>457</ele>
        <time>2013-02-09T08:17:28.000Z</time>
      </trkpt>
      <trkpt lat="47.31844" lon="4.95722">
        <ele>457</ele>
        <time>2013-02-09T08:17:30.000Z</time>
      </trkpt>
      <trkpt lat="47.31843" lon="4.9572">
        <ele>457.1</ele>
        <time>2013-02-09T08:17:31.000Z</time>
      </trkpt>
      <trkpt lat="47.31841" lon="4.95716">
        <ele>457.3</ele>
        <time>2013-02-09T08:17:33.000Z</time>
      </trkpt>
      <trkpt lat="47.3184" lon="4.95714">
        <ele>457.3</ele>
        <time>2013-02-09T08:17:34.000Z</time>
      </trkpt>
      <trkpt lat="47.31839" lon="4.95708">
        <ele>457.4</ele>
        <time>2013-02-09T08:17:37.000Z</time>
      </trkpt>
      <trkpt lat="47.31838" lon="4.95706">
        <ele>457.5</ele>
        <time>2013-02-09T08:17:38.000Z</time>
      </trkpt>
      <trkpt lat="47.31835" lon="4.95702">
        <ele>457.8</ele>
        <time>2013-02-09T08:17:41.000Z</time>
      </trkpt>
      <trkpt lat="47.31833" lon="4.95701">
        <ele>458</ele>
        <time>2013-02-09T08:17:42.000Z</time>
      </trkpt>
      <trkpt lat="47.31828" lon="4.957">
        <ele>467.2</ele>
        <time>2013-02-09T08:17:49.000Z</time>
      </trkpt>
      <trkpt lat="47.31824" lon="4.957">
        <ele>465</ele>
        <time>2013-02-09T08:17:51.000Z</time>
      </trkpt>
      <trkpt lat="47.31822" lon="4.95702">
        <ele>465.7</ele>
        <time>2013-02-09T08:17:52.000Z</time>
      </trkpt>
      <trkpt lat="47.31818" lon="4.95702">
        <ele>463.5</ele>
        <time>2013-02-09T08:17:53.000Z</time>
      </trkpt>
      <trkpt lat="47.31816" lon="4.95702">
        <ele>462.8</ele>
        <time>2013-02-09T08:17:54.000Z</time>
      </trkpt>
      <trkpt lat="47.31812" lon="4.95703">
        <ele>463</ele>
        <time>2013-02-09T08:17:56.000Z</time>
      </trkpt>
      <trkpt lat="47.31811" lon="4.95704">
        <ele>463</ele>
        <time>2013-02-09T08:17:57.000Z</time>
      </trkpt>
      <trkpt lat="47.31808" lon="4.95704">
        <ele>462.9</ele>
        <time>2013-02-09T08:17:59.000Z</time>
      </trkpt>
      <trkpt lat="47.31806" lon="4.95704">
        <ele>462.6</ele>
        <time>2013-02-09T08:18:00.000Z</time>
      </trkpt>
      <trkpt lat="47.31802" lon="4.95706">
        <ele>462.5</ele>
        <time>2013-02-09T08:18:03.000Z</time>
      </trkpt>
      <trkpt lat="47.31801" lon="4.95707">
        <ele>462.7</ele>
        <time>2013-02-09T08:18:04.000Z</time>
      </trkpt>
      <trkpt lat="47.31798" lon="4.95708">
        <ele>463.1</ele>
        <time>2013-02-09T08:18:06.000Z</time>
      </trkpt>
      <trkpt lat="47.31796" lon="4.95709">
        <ele>463.2</ele>
        <time>2013-02-09T08:18:07.000Z</time>
      </trkpt>
      <trkpt lat="47.31793" lon="4.95709">
        <ele>462.7</ele>
        <time>2013-02-09T08:18:09.000Z</time>
      </trkpt>
      <trkpt lat="47.31791" lon="4.95709">
        <ele>462.7</ele>
        <time>2013-02-09T08:18:10.000Z</time>
      </trkpt>
      <trkpt lat="47.31788" lon="4.9571">
        <ele>462.5</ele>
        <time>2013-02-09T08:18:12.000Z</time>
      </trkpt>
      <trkpt lat="47.31786" lon="4.9571">
        <ele>462.8</ele>
        <time>2013-02-09T08:18:13.000Z</time>
      </trkpt>
      <trkpt lat="47.31783" lon="4.95711">
        <ele>462.9</ele>
        <time>2013-02-09T08:18:15.000Z</time>
      </trkpt>
      <trkpt lat="47.31781" lon="4.95712">
        <ele>462.9</ele>
        <time>2013-02-09T08:18:16.000Z</time>
      </trkpt>
      <trkpt lat="47.31777" lon="4.95712">
        <ele>463.2</ele>
        <time>2013-02-09T08:18:18.000Z</time>
      </trkpt>
      <trkpt lat="47.31775" lon="4.95713">
        <ele>463.2</ele>
        <time>2013-02-09T08:18:19.000Z</time>
      </trkpt>
      <trkpt lat="47.31771" lon="4.95713">
        <ele>463.3</ele>
        <time>2013-02-09T08:18:21.000Z</time>
      </trkpt>
      <trkpt lat="47.3177" lon="4.95713">
        <ele>463.5</ele>
        <time>2013-02-09T08:18:22.000Z</time>
      </trkpt>
      <trkpt lat="47.31765" lon="4.95713">
        <ele>463.9</ele>
        <time>2013-02-09T08:18:25.000Z</time>
      </trkpt>
      <trkpt lat="47.31764" lon="4.95713">
        <ele>464.1</ele>
        <time>2013-02-09T08:18:26.000Z</time>
      </trkpt>
      <trkpt lat="47.3176" lon="4.95712">
        <ele>464.3</ele>
        <time>2013-02-09T08:18:28.000Z</time>
      </trkpt>
      <trkpt lat="47.31759" lon="4.95712">
        <ele>464.4</ele>
        <time>2013-02-09T08:18:29.000Z</time>
      </trkpt>
      <trkpt lat="47.31755" lon="4.95713">
        <ele>464.7</ele>
        <time>2013-02-09T08:18:31.000Z</time>
      </trkpt>
      <trkpt lat="47.31753" lon="4.95713">
        <ele>464.8</ele>
        <time>2013-02-09T08:18:32.000Z</time>
      </trkpt>
      <trkpt lat="47.3175" lon="4.95713">
        <ele>464.9</ele>
        <time>2013-02-09T08:18:34.000Z</time>
      </trkpt>
      <trkpt lat="47.31748" lon="4.95713">
        <ele>465</ele>
        <time>2013-02-09T08:18:35.000Z</time>
      </trkpt>
      <trkpt lat="47.31745" lon="4.95712">
        <ele>465</ele>
        <time>2013-02-09T08:18:37.000Z</time>
      </trkpt>
      <trkpt lat="47.31743" lon="4.95713">
        <ele>465.1</ele>
        <time>2013-02-09T08:18:38.000Z</time>
      </trkpt>
      <trkpt lat="47.31739" lon="4.95713">
        <ele>465.1</ele>
        <time>2013-02-09T08:18:40.000Z</time>
      </trkpt>
      <trkpt lat="47.31738" lon="4.95713">
        <ele>465.3</ele>
        <time>2013-02-09T08:18:41.000Z</time>
      </trkpt>
      <trkpt lat="47.31736" lon="4.95712">
        <ele>465.5</ele>
        <time>2013-02-09T08:18:42.000Z</time>
      </trkpt>
      <trkpt lat="47.31725" lon="4.95713">
        <ele>467.6</ele>
        <time>2013-02-09T08:18:49.000Z</time>
      </trkpt>
      <trkpt lat="47.31722" lon="4.95714">
        <ele>468.8</ele>
        <time>2013-02-09T08:18:51.000Z</time>
      </trkpt>
      <trkpt lat="47.3172" lon="4.95715">
        <ele>469.2</ele>
        <time>2013-02-09T08:18:52.000Z</time>
      </trkpt>
      <trkpt lat="47.31718" lon="4.95716">
        <ele>472.1</ele>
        <time>2013-02-09T08:18:55.000Z</time>
      </trkpt>
      <trkpt lat="47.31716" lon="4.95717">
        <ele>472.2</ele>
        <time>2013-02-09T08:18:56.000Z</time>
      </trkpt>
      <trkpt lat="47.31712" lon="4.95717">
        <ele>474</ele>
        <time>2013-02-09T08:18:59.000Z</time>
      </trkpt>
      <trkpt lat="47.31711" lon="4.95717">
        <ele>474.6</ele>
        <time>2013-02-09T08:19:00.000Z</time>
      </trkpt>
      <trkpt lat="47.31707" lon="4.95717">
        <ele>474.4</ele>
        <time>2013-02-09T08:19:03.000Z</time>
      </trkpt>
      <trkpt lat="47.31705" lon="4.95717">
        <ele>475.1</ele>
        <time>2013-02-09T08:19:04.000Z</time>
      </trkpt>
      <trkpt lat="47.31701" lon="4.95716">
        <ele>477.1</ele>
        <time>2013-02-09T08:19:08.000Z</time>
      </trkpt>
      <trkpt lat="47.317" lon="4.95716">
        <ele>478</ele>
        <time>2013-02-09T08:19:09.000Z</time>
      </trkpt>
      <trkpt lat="47.31696" lon="4.95716">
        <ele>479.3</ele>
        <time>2013-02-09T08:19:12.000Z</time>
      </trkpt>
      <trkpt lat="47.31694" lon="4.95716">
        <ele>479.5</ele>
        <time>2013-02-09T08:19:13.000Z</time>
      </trkpt>
      <trkpt lat="47.3169" lon="4.95714">
        <ele>476.8</ele>
        <time>2013-02-09T08:19:16.000Z</time>
      </trkpt>
      <trkpt lat="47.31688" lon="4.95714">
        <ele>476.8</ele>
        <time>2013-02-09T08:19:17.000Z</time>
      </trkpt>
      <trkpt lat="47.31685" lon="4.95714">
        <ele>477</ele>
        <time>2013-02-09T08:19:20.000Z</time>
      </trkpt>
      <trkpt lat="47.31684" lon="4.95714">
        <ele>477.3</ele>
        <time>2013-02-09T08:19:21.000Z</time>
      </trkpt>
      <trkpt lat="47.31679" lon="4.95714">
        <ele>477</ele>
        <time>2013-02-09T08:19:28.000Z</time>
      </trkpt>
      <trkpt lat="47.31678" lon="4.95714">
        <ele>477.2</ele>
        <time>2013-02-09T08:19:29.000Z</time>
      </trkpt>
      <trkpt lat="47.31675" lon="4.95715">
        <ele>478</ele>
        <time>2013-02-09T08:19:32.000Z</time>
      </trkpt>
      <trkpt lat="47.31673" lon="4.95715">
        <ele>478.1</ele>
        <time>2013-02-09T08:19:33.000Z</time>
      </trkpt>
      <trkpt lat="47.3167" lon="4.95717">
        <ele>477.3</ele>
        <time>2013-02-09T08:19:37.000Z</time>
      </trkpt>
      <trkpt lat="47.31668" lon="4.95717">
        <ele>476.9</ele>
        <time>2013-02-09T08:19:38.000Z</time>
      </trkpt>
      <trkpt lat="47.31664" lon="4.95718">
        <ele>475.5</ele>
        <time>2013-02-09T08:19:40.000Z</time>
      </trkpt>
      <trkpt lat="47.31663" lon="4.95718">
        <ele>474.9</ele>
        <time>2013-02-09T08:19:41.000Z</time>
      </trkpt>
      <trkpt lat="47.31662" lon="4.95719">
        <ele>474.5</ele>
        <time>2013-02-09T08:22:43.000Z</time>
      </trkpt>
      <trkpt lat="47.31642" lon="4.95702">
        <ele>467.2</ele>
        <time>2013-02-09T08:22:50.000Z</time>
      </trkpt>
      <trkpt lat="47.31642" lon="4.95702">
        <ele>467.2</ele>
        <time>2013-02-09T08:23:43.000Z</time>
      </trkpt>
      <trkpt lat="47.31653" lon="4.95703">
        <ele>464.7</ele>
        <time>2013-02-09T08:23:50.000Z</time>
      </trkpt>
      <trkpt lat="47.31653" lon="4.95703">
        <ele>464.7</ele>
        <time>2013-02-09T08:24:10.000Z</time>
      </trkpt>
      <trkpt lat="47.31653" lon="4.9571">
        <ele>468</ele>
        <time>2013-02-09T08:24:11.000Z</time>
      </trkpt>
      <trkpt lat="47.31654" lon="4.95715">
        <ele>468.9</ele>
        <time>2013-02-09T08:24:14.000Z</time>
      </trkpt>
      <trkpt lat="47.31653" lon="4.95717">
        <ele>469.2</ele>
        <time>2013-02-09T08:24:15.000Z</time>
      </trkpt>
      <trkpt lat="47.31653" lon="4.95722">
        <ele>469.6</ele>
        <time>2013-02-09T08:24:17.000Z</time>
      </trkpt>
      <trkpt lat="47.31653" lon="4.95724">
        <ele>469.7</ele>
        <time>2013-02-09T08:24:18.000Z</time>
      </trkpt>
      <trkpt lat="47.31654" lon="4.95729">
        <ele>470.2</ele>
        <time>2013-02-09T08:24:20.000Z</time>
      </trkpt>
      <trkpt lat="47.31654" lon="4.95731">
        <ele>470.4</ele>
        <time>2013-02-09T08:24:21.000Z</time>
      </trkpt>
      <trkpt lat="47.31655" lon="4.95735">
        <ele>470.7</ele>
        <time>2013-02-09T08:24:23.000Z</time>
      </trkpt>
      <trkpt lat="47.31655" lon="4.95737">
        <ele>470.9</ele>
        <time>2013-02-09T08:24:24.000Z</time>
      </trkpt>
      <trkpt lat="47.31655" lon="4.95742">
        <ele>471.2</ele>
        <time>2013-02-09T08:24:26.000Z</time>
      </trkpt>
      <trkpt lat="47.31655" lon="4.95744">
        <ele>471.3</ele>
        <time>2013-02-09T08:24:27.000Z</time>
      </trkpt>
      <trkpt lat="47.31655" lon="4.9575">
        <ele>471.8</ele>
        <time>2013-02-09T08:24:29.000Z</time>
      </trkpt>
      <trkpt lat="47.31656" lon="4.95752">
        <ele>472.1</ele>
        <time>2013-02-09T08:24:30.000Z</time>
      </trkpt>
      <trkpt lat="47.31656" lon="4.95755">
        <ele>472.2</ele>
        <time>2013-02-09T08:24:31.000Z</time>
      </trkpt>
      <trkpt lat="47.31657" lon="4.95758">
        <ele>472.4</ele>
        <time>2013-02-09T08:24:32.000Z</time>
      </trkpt>
      <trkpt lat="47.31658" lon="4.95765">
        <ele>472.7</ele>
        <time>2013-02-09T08:24:34.000Z</time>
      </trkpt>
      <trkpt lat="47.31658" lon="4.95768">
        <ele>473</ele>
        <time>2013-02-09T08:24:35.000Z</time>
      </trkpt>
      <trkpt lat="47.31658" lon="4.95774">
        <ele>473.5</ele>
        <time>2013-02-09T08:24:37.000Z</time>
      </trkpt>
      <trkpt lat="47.31659" lon="4.95777">
        <ele>473.6</ele>
        <time>2013-02-09T08:24:38.000Z</time>
      </trkpt>
      <trkpt lat="47.31659" lon="4.95781">
        <ele>473.6</ele>
        <time>2013-02-09T08:24:39.000Z</time>
      </trkpt>
      <trkpt lat="47.3166" lon="4.95784">
        <ele>473.6</ele>
        <time>2013-02-09T08:24:40.000Z</time>
      </trkpt>
      <trkpt lat="47.31659" lon="4.95788">
        <ele>473.7</ele>
        <time>2013-02-09T08:24:41.000Z</time>
      </trkpt>
      <trkpt lat="47.3166" lon="4.95791">
        <ele>473.7</ele>
        <time>2013-02-09T08:24:42.000Z</time>
      </trkpt>
      <trkpt lat="47.3166" lon="4.95794">
        <ele>473.7</ele>
        <time>2013-02-09T08:24:43.000Z</time>
      </trkpt>
      <trkpt lat="47.31657" lon="4.9582">
        <ele>476</ele>
        <time>2013-02-09T08:24:50.000Z</time>
      </trkpt>
      <trkpt lat="47.31657" lon="4.95825">
        <ele>478.3</ele>
        <time>2013-02-09T08:24:52.000Z</time>
      </trkpt>
      <trkpt lat="47.31657" lon="4.95826">
        <ele>479.1</ele>
        <time>2013-02-09T08:24:53.000Z</time>
      </trkpt>
      <trkpt lat="47.31657" lon="4.9583">
        <ele>479.2</ele>
        <time>2013-02-09T08:24:54.000Z</time>
      </trkpt>
      <trkpt lat="47.31658" lon="4.95834">
        <ele>479.6</ele>
        <time>2013-02-09T08:24:55.000Z</time>
      </trkpt>
      <trkpt lat="47.31659" lon="4.9584">
        <ele>480.6</ele>
        <time>2013-02-09T08:24:57.000Z</time>
      </trkpt>
      <trkpt lat="47.31659" lon="4.95843">
        <ele>482</ele>
        <time>2013-02-09T08:24:58.000Z</time>
      </trkpt>
      <trkpt lat="47.31659" lon="4.95848">
        <ele>483.2</ele>
        <time>2013-02-09T08:25:00.000Z</time>
      </trkpt>
      <trkpt lat="47.3166" lon="4.95851">
        <ele>484.1</ele>
        <time>2013-02-09T08:25:01.000Z</time>
      </trkpt>
      <trkpt lat="47.31659" lon="4.95856">
        <ele>485.6</ele>
        <time>2013-02-09T08:25:03.000Z</time>
      </trkpt>
      <trkpt lat="47.31658" lon="4.9586">
        <ele>485.9</ele>
        <time>2013-02-09T08:25:04.000Z</time>
      </trkpt>
      <trkpt lat="47.31657" lon="4.95866">
        <ele>486.1</ele>
        <time>2013-02-09T08:25:06.000Z</time>
      </trkpt>
      <trkpt lat="47.31657" lon="4.95868">
        <ele>486.4</ele>
        <time>2013-02-09T08:25:07.000Z</time>
      </trkpt>
      <trkpt lat="47.31658" lon="4.95874">
        <ele>487.3</ele>
        <time>2013-02-09T08:25:09.000Z</time>
      </trkpt>
      <trkpt lat="47.31658" lon="4.95877">
        <ele>487.8</ele>
        <time>2013-02-09T08:25:10.000Z</time>
      </trkpt>
      <trkpt lat="47.31657" lon="4.95882">
        <ele>488.9</ele>
        <time>2013-02-09T08:25:12.000Z</time>
      </trkpt>
      <trkpt lat="47.31658" lon="4.95885">
        <ele>489.1</ele>
        <time>2013-02-09T08:25:13.000Z</time>
      </trkpt>
      <trkpt lat="47.31657" lon="4.9589">
        <ele>488.1</ele>
        <time>2013-02-09T08:25:15.000Z</time>
      </trkpt>
      <trkpt lat="47.31657" lon="4.95893">
        <ele>487.5</ele>
        <time>2013-02-09T08:25:16.000Z</time>
      </trkpt>
      <trkpt lat="47.31656" lon="4.95897">
        <ele>486.5</ele>
        <time>2013-02-09T08:25:18.000Z</time>
      </trkpt>
      <trkpt lat="47.31656" lon="4.959">
        <ele>486</ele>
        <time>2013-02-09T08:25:19.000Z</time>
      </trkpt>
      <trkpt lat="47.31656" lon="4.95904">
        <ele>484.9</ele>
        <time>2013-02-09T08:25:21.000Z</time>
      </trkpt>
      <trkpt lat="47.31656" lon="4.95907">
        <ele>484.7</ele>
        <time>2013-02-09T08:25:22.000Z</time>
      </trkpt>
      <trkpt lat="47.31655" lon="4.95913">
        <ele>484.1</ele>
        <time>2013-02-09T08:25:24.000Z</time>
      </trkpt>
      <trkpt lat="47.31654" lon="4.95916">
        <ele>483.7</ele>
        <time>2013-02-09T08:25:25.000Z</time>
      </trkpt>
      <trkpt lat="47.31653" lon="4.9592">
        <ele>483.3</ele>
        <time>2013-02-09T08:25:26.000Z</time>
      </trkpt>
      <trkpt lat="47.31652" lon="4.95924">
        <ele>483.1</ele>
        <time>2013-02-09T08:25:27.000Z</time>
      </trkpt>
      <trkpt lat="47.31652" lon="4.95928">
        <ele>482.9</ele>
        <time>2013-02-09T08:25:28.000Z</time>
      </trkpt>
      <trkpt lat="47.31651" lon="4.95931">
        <ele>483</ele>
        <time>2013-02-09T08:25:29.000Z</time>
      </trkpt>
      <trkpt lat="47.31651" lon="4.95934">
        <ele>483</ele>
        <time>2013-02-09T08:25:30.000Z</time>
      </trkpt>
      <trkpt lat="47.3165" lon="4.95937">
        <ele>483.2</ele>
        <time>2013-02-09T08:25:31.000Z</time>
      </trkpt>
      <trkpt lat="47.3165" lon="4.95941">
        <ele>483.2</ele>
        <time>2013-02-09T08:25:32.000Z</time>
      </trkpt>
      <trkpt lat="47.31649" lon="4.95945">
        <ele>483.2</ele>
        <time>2013-02-09T08:25:33.000Z</time>
      </trkpt>
      <trkpt lat="47.31649" lon="4.95948">
        <ele>483.1</ele>
        <time>2013-02-09T08:25:34.000Z</time>
      </trkpt>
      <trkpt lat="47.31649" lon="4.95952">
        <ele>483</ele>
        <time>2013-02-09T08:25:35.000Z</time>
      </trkpt>
      <trkpt lat="47.31649" lon="4.95958">
        <ele>482.9</ele>
        <time>2013-02-09T08:25:37.000Z</time>
      </trkpt>
      <trkpt lat="47.31649" lon="4.95962">
        <ele>482.9</ele>
        <time>2013-02-09T08:25:38.000Z</time>
      </trkpt>
      <trkpt lat="47.3165" lon="4.95966">
        <ele>482.8</ele>
        <time>2013-02-09T08:25:39.000Z</time>
      </trkpt>
      <trkpt lat="47.3165" lon="4.95969">
        <ele>482.7</ele>
        <time>2013-02-09T08:25:40.000Z</time>
      </trkpt>
      <trkpt lat="47.3165" lon="4.95972">
        <ele>482.7</ele>
        <time>2013-02-09T08:25:41.000Z</time>
      </trkpt>
      <trkpt lat="47.3165" lon="4.95976">
        <ele>482.6</ele>
        <time>2013-02-09T08:25:42.000Z</time>
      </trkpt>
      <trkpt lat="47.31649" lon="4.9598">
        <ele>482.7</ele>
        <time>2013-02-09T08:25:43.000Z</time>
      </trkpt>
      <trkpt lat="47.31647" lon="4.96008">
        <ele>478.7</ele>
        <time>2013-02-09T08:25:50.000Z</time>
      </trkpt>
      <trkpt lat="47.31643" lon="4.96012">
        <ele>481.7</ele>
        <time>2013-02-09T08:25:52.000Z</time>
      </trkpt>
      <trkpt lat="47.31641" lon="4.96014">
        <ele>482.3</ele>
        <time>2013-02-09T08:25:53.000Z</time>
      </trkpt>
      <trkpt lat="47.31638" lon="4.96015">
        <ele>481.3</ele>
        <time>2013-02-09T08:25:54.000Z</time>
      </trkpt>
      <trkpt lat="47.31636" lon="4.96016">
        <ele>481.5</ele>
        <time>2013-02-09T08:25:55.000Z</time>
      </trkpt>
      <trkpt lat="47.31635" lon="4.96015">
        <ele>482.6</ele>
        <time>2013-02-09T08:25:56.000Z</time>
      </trkpt>
      <trkpt lat="47.31631" lon="4.96015">
        <ele>481.5</ele>
        <time>2013-02-09T08:25:57.000Z</time>
      </trkpt>
      <trkpt lat="47.31627" lon="4.96015">
        <ele>480.1</ele>
        <time>2013-02-09T08:25:58.000Z</time>
      </trkpt>
      <trkpt lat="47.31624" lon="4.96015">
        <ele>479.4</ele>
        <time>2013-02-09T08:25:59.000Z</time>
      </trkpt>
      <trkpt lat="47.3162" lon="4.96015">
        <ele>478.4</ele>
        <time>2013-02-09T08:26:00.000Z</time>
      </trkpt>
      <trkpt lat="47.31616" lon="4.96016">
        <ele>478.4</ele>
        <time>2013-02-09T08:26:01.000Z</time>
      </trkpt>
      <trkpt lat="47.31613" lon="4.96014">
        <ele>479.8</ele>
        <time>2013-02-09T08:26:03.000Z</time>
      </trkpt>
      <trkpt lat="47.31611" lon="4.96014">
        <ele>480.9</ele>
        <time>2013-02-09T08:26:04.000Z</time>
      </trkpt>
      <trkpt lat="47.31608" lon="4.96012">
        <ele>482.3</ele>
        <time>2013-02-09T08:26:06.000Z</time>
      </trkpt>
      <trkpt lat="47.31606" lon="4.96011">
        <ele>483.1</ele>
        <time>2013-02-09T08:26:07.000Z</time>
      </trkpt>
      <trkpt lat="47.31601" lon="4.96009">
        <ele>484.3</ele>
        <time>2013-02-09T08:26:09.000Z</time>
      </trkpt>
      <trkpt lat="47.316" lon="4.96008">
        <ele>485.5</ele>
        <time>2013-02-09T08:26:10.000Z</time>
      </trkpt>
      <trkpt lat="47.31596" lon="4.96005">
        <ele>486.9</ele>
        <time>2013-02-09T08:26:12.000Z</time>
      </trkpt>
      <trkpt lat="47.31593" lon="4.96004">
        <ele>486.7</ele>
        <time>2013-02-09T08:26:13.000Z</time>
      </trkpt>
      <trkpt lat="47.3159" lon="4.96001">
        <ele>485.9</ele>
        <time>2013-02-09T08:26:15.000Z</time>
      </trkpt>
      <trkpt lat="47.31588" lon="4.95999">
        <ele>485.1</ele>
        <time>2013-02-09T08:26:16.000Z</time>
      </trkpt>
      <trkpt lat="47.31585" lon="4.95995">
        <ele>485.2</ele>
        <time>2013-02-09T08:26:18.000Z</time>
      </trkpt>
      <trkpt lat="47.31583" lon="4.95993">
        <ele>485.1</ele>
        <time>2013-02-09T08:26:19.000Z</time>
      </trkpt>
      <trkpt lat="47.3158" lon="4.9599">
        <ele>485.4</ele>
        <time>2013-02-09T08:26:21.000Z</time>
      </trkpt>
      <trkpt lat="47.31578" lon="4.95988">
        <ele>485.2</ele>
        <time>2013-02-09T08:26:22.000Z</time>
      </trkpt>
      <trkpt lat="47.31575" lon="4.95985">
        <ele>485.1</ele>
        <time>2013-02-09T08:26:24.000Z</time>
      </trkpt>
      <trkpt lat="47.31573" lon="4.95984">
        <ele>485.2</ele>
        <time>2013-02-09T08:26:25.000Z</time>
      </trkpt>
      <trkpt lat="47.3157" lon="4.9598">
        <ele>485.4</ele>
        <time>2013-02-09T08:26:27.000Z</time>
      </trkpt>
      <trkpt lat="47.31569" lon="4.95978">
        <ele>485.6</ele>
        <time>2013-02-09T08:26:28.000Z</time>
      </trkpt>
      <trkpt lat="47.31566" lon="4.95974">
        <ele>485.8</ele>
        <time>2013-02-09T08:26:30.000Z</time>
      </trkpt>
      <trkpt lat="47.31565" lon="4.95972">
        <ele>485.8</ele>
        <time>2013-02-09T08:26:31.000Z</time>
      </trkpt>
      <trkpt lat="47.31563" lon="4.95968">
        <ele>485.4</ele>
        <time>2013-02-09T08:26:33.000Z</time>
      </trkpt>
      <trkpt lat="47.31562" lon="4.95966">
        <ele>485.2</ele>
        <time>2013-02-09T08:26:34.000Z</time>
      </trkpt>
      <trkpt lat="47.31559" lon="4.95962">
        <ele>484.9</ele>
        <time>2013-02-09T08:26:36.000Z</time>
      </trkpt>
      <trkpt lat="47.31557" lon="4.9596">
        <ele>484.4</ele>
        <time>2013-02-09T08:26:37.000Z</time>
      </trkpt>
      <trkpt lat="47.31554" lon="4.95957">
        <ele>483.8</ele>
        <time>2013-02-09T08:26:39.000Z</time>
      </trkpt>
      <trkpt lat="47.31553" lon="4.95955">
        <ele>483.6</ele>
        <time>2013-02-09T08:26:40.000Z</time>
      </trkpt>
      <trkpt lat="47.31549" lon="4.95951">
        <ele>483.7</ele>
        <time>2013-02-09T08:26:43.000Z</time>
      </trkpt>
      <trkpt lat="47.31541" lon="4.95929">
        <ele>482.2</ele>
        <time>2013-02-09T08:26:50.000Z</time>
      </trkpt>
      <trkpt lat="47.31538" lon="4.95925">
        <ele>482.6</ele>
        <time>2013-02-09T08:26:53.000Z</time>
      </trkpt>
      <trkpt lat="47.31536" lon="4.95923">
        <ele>482.2</ele>
        <time>2013-02-09T08:26:54.000Z</time>
      </trkpt>
      <trkpt lat="47.31532" lon="4.95921">
        <ele>479.4</ele>
        <time>2013-02-09T08:26:56.000Z</time>
      </trkpt>
      <trkpt lat="47.31531" lon="4.9592">
        <ele>479.7</ele>
        <time>2013-02-09T08:26:57.000Z</time>
      </trkpt>
      <trkpt lat="47.31527" lon="4.95917">
        <ele>480.4</ele>
        <time>2013-02-09T08:27:00.000Z</time>
      </trkpt>
      <trkpt lat="47.31526" lon="4.95916">
        <ele>480.7</ele>
        <time>2013-02-09T08:27:01.000Z</time>
      </trkpt>
      <trkpt lat="47.31523" lon="4.95914">
        <ele>481.3</ele>
        <time>2013-02-09T08:27:03.000Z</time>
      </trkpt>
      <trkpt lat="47.31521" lon="4.95912">
        <ele>483</ele>
        <time>2013-02-09T08:27:04.000Z</time>
      </trkpt>
      <trkpt lat="47.31518" lon="4.9591">
        <ele>485.5</ele>
        <time>2013-02-09T08:27:06.000Z</time>
      </trkpt>
      <trkpt lat="47.31517" lon="4.95909">
        <ele>486.2</ele>
        <time>2013-02-09T08:27:07.000Z</time>
      </trkpt>
      <trkpt lat="47.31513" lon="4.95907">
        <ele>486.3</ele>
        <time>2013-02-09T08:27:09.000Z</time>
      </trkpt>
      <trkpt lat="47.31511" lon="4.95907">
        <ele>485.9</ele>
        <time>2013-02-09T08:27:10.000Z</time>
      </trkpt>
      <trkpt lat="47.31508" lon="4.95903">
        <ele>485.7</ele>
        <time>2013-02-09T08:27:12.000Z</time>
      </trkpt>
      <trkpt lat="47.31507" lon="4.95901">
        <ele>485.1</ele>
        <time>2013-02-09T08:27:13.000Z</time>
      </trkpt>
      <trkpt lat="47.31504" lon="4.95897">
        <ele>484.3</ele>
        <time>2013-02-09T08:27:15.000Z</time>
      </trkpt>
      <trkpt lat="47.31503" lon="4.95894">
        <ele>484.5</ele>
        <time>2013-02-09T08:27:16.000Z</time>
      </trkpt>
      <trkpt lat="47.31499" lon="4.95891">
        <ele>484.4</ele>
        <time>2013-02-09T08:27:18.000Z</time>
      </trkpt>
      <trkpt lat="47.31497" lon="4.95889">
        <ele>484.6</ele>
        <time>2013-02-09T08:27:19.000Z</time>
      </trkpt>
      <trkpt lat="47.31493" lon="4.95886">
        <ele>485.1</ele>
        <time>2013-02-09T08:27:21.000Z</time>
      </trkpt>
      <trkpt lat="47.31492" lon="4.95885">
        <ele>485</ele>
        <time>2013-02-09T08:27:22.000Z</time>
      </trkpt>
      <trkpt lat="47.31488" lon="4.95882">
        <ele>485.4</ele>
        <time>2013-02-09T08:27:24.000Z</time>
      </trkpt>
      <trkpt lat="47.31486" lon="4.95881">
        <ele>485.6</ele>
        <time>2013-02-09T08:27:25.000Z</time>
      </trkpt>
      <trkpt lat="47.31483" lon="4.95881">
        <ele>486</ele>
        <time>2013-02-09T08:27:27.000Z</time>
      </trkpt>
      <trkpt lat="47.31482" lon="4.9588">
        <ele>486.2</ele>
        <time>2013-02-09T08:27:28.000Z</time>
      </trkpt>
      <trkpt lat="47.31479" lon="4.95876">
        <ele>486.1</ele>
        <time>2013-02-09T08:27:30.000Z</time>
      </trkpt>
      <trkpt lat="47.31478" lon="4.95873">
        <ele>485.8</ele>
        <time>2013-02-09T08:27:31.000Z</time>
      </trkpt>
      <trkpt lat="47.31477" lon="4.95868">
        <ele>485.6</ele>
        <time>2013-02-09T08:27:33.000Z</time>
      </trkpt>
      <trkpt lat="47.31477" lon="4.95865">
        <ele>485.6</ele>
        <time>2013-02-09T08:27:34.000Z</time>
      </trkpt>
      <trkpt lat="47.31477" lon="4.95861">
        <ele>485.4</ele>
        <time>2013-02-09T08:27:35.000Z</time>
      </trkpt>
      <trkpt lat="47.31477" lon="4.95857">
        <ele>485.4</ele>
        <time>2013-02-09T08:27:36.000Z</time>
      </trkpt>
      <trkpt lat="47.31478" lon="4.95852">
        <ele>485.5</ele>
        <time>2013-02-09T08:27:38.000Z</time>
      </trkpt>
      <trkpt lat="47.31478" lon="4.9585">
        <ele>485.7</ele>
        <time>2013-02-09T08:27:39.000Z</time>
      </trkpt>
      <trkpt lat="47.31478" lon="4.95845">
        <ele>485.7</ele>
        <time>2013-02-09T08:27:41.000Z</time>
      </trkpt>
      <trkpt lat="47.31479" lon="4.95843">
        <ele>485.7</ele>
        <time>2013-02-09T08:27:42.000Z</time>
      </trkpt>
      <trkpt lat="47.31478" lon="4.95841">
        <ele>485.7</ele>
        <time>2013-02-09T08:27:43.000Z</time>
      </trkpt>
      <trkpt lat="47.31482" lon="4.95812">
        <ele>484.3</ele>
        <time>2013-02-09T08:27:51.000Z</time>
      </trkpt>
      <trkpt lat="47.31482" lon="4.95806">
        <ele>487.5</ele>
        <time>2013-02-09T08:27:54.000Z</time>
      </trkpt>
      <trkpt lat="47.31483" lon="4.95803">
        <ele>487.1</ele>
        <time>2013-02-09T08:27:55.000Z</time>
      </trkpt>
      <trkpt lat="47.31484" lon="4.95798">
        <ele>489.1</ele>
        <time>2013-02-09T08:27:58.000Z</time>
      </trkpt>
      <trkpt lat="47.31485" lon="4.95796">
        <ele>489.4</ele>
        <time>2013-02-09T08:27:59.000Z</time>
      </trkpt>
      <trkpt lat="47.31485" lon="4.95791">
        <ele>489.5</ele>
        <time>2013-02-09T08:28:01.000Z</time>
      </trkpt>
      <trkpt lat="47.31485" lon="4.95788">
        <ele>489.1</ele>
        <time>2013-02-09T08:28:02.000Z</time>
      </trkpt>
      <trkpt lat="47.31485" lon="4.95784">
        <ele>489.9</ele>
        <time>2013-02-09T08:28:04.000Z</time>
      </trkpt>
      <trkpt lat="47.31486" lon="4.95782">
        <ele>490.9</ele>
        <time>2013-02-09T08:28:05.000Z</time>
      </trkpt>
      <trkpt lat="47.31488" lon="4.95776">
        <ele>491.6</ele>
        <time>2013-02-09T08:28:07.000Z</time>
      </trkpt>
      <trkpt lat="47.31489" lon="4.95773">
        <ele>491.2</ele>
        <time>2013-02-09T08:28:08.000Z</time>
      </trkpt>
      <trkpt lat="47.31491" lon="4.95767">
        <ele>490.5</ele>
        <time>2013-02-09T08:28:10.000Z</time>
      </trkpt>
      <trkpt lat="47.31491" lon="4.95764">
        <ele>489.4</ele>
        <time>2013-02-09T08:28:11.000Z</time>
      </trkpt>
      <trkpt lat="47.31492" lon="4.95759">
        <ele>488.9</ele>
        <time>2013-02-09T08:28:14.000Z</time>
      </trkpt>
      <trkpt lat="47.31493" lon="4.95757">
        <ele>489.4</ele>
        <time>2013-02-09T08:28:15.000Z</time>
      </trkpt>
      <trkpt lat="47.31494" lon="4.95752">
        <ele>489.1</ele>
        <time>2013-02-09T08:28:17.000Z</time>
      </trkpt>
      <trkpt lat="47.31494" lon="4.9575">
        <ele>489</ele>
        <time>2013-02-09T08:28:18.000Z</time>
      </trkpt>
      <trkpt lat="47.31495" lon="4.95746">
        <ele>489.3</ele>
        <time>2013-02-09T08:28:20.000Z</time>
      </trkpt>
      <trkpt lat="47.31496" lon="4.95744">
        <ele>489.2</ele>
        <time>2013-02-09T08:28:21.000Z</time>
      </trkpt>
      <trkpt lat="47.31498" lon="4.9574">
        <ele>488.4</ele>
        <time>2013-02-09T08:28:23.000Z</time>
      </trkpt>
      <trkpt lat="47.31498" lon="4.95738">
        <ele>488.2</ele>
        <time>2013-02-09T08:28:24.000Z</time>
      </trkpt>
      <trkpt lat="47.31498" lon="4.95733">
        <ele>487.7</ele>
        <time>2013-02-09T08:28:26.000Z</time>
      </trkpt>
      <trkpt lat="47.31498" lon="4.95729">
        <ele>487.6</ele>
        <time>2013-02-09T08:28:27.000Z</time>
      </trkpt>
      <trkpt lat="47.31497" lon="4.95724">
        <ele>487.4</ele>
        <time>2013-02-09T08:28:29.000Z</time>
      </trkpt>
      <trkpt lat="47.31496" lon="4.95721">
        <ele>487.2</ele>
        <time>2013-02-09T08:28:30.000Z</time>
      </trkpt>
      <trkpt lat="47.31495" lon="4.95717">
        <ele>487</ele>
        <time>2013-02-09T08:28:32.000Z</time>
      </trkpt>
      <trkpt lat="47.31494" lon="4.95714">
        <ele>486.9</ele>
        <time>2013-02-09T08:28:33.000Z</time>
      </trkpt>
      <trkpt lat="47.31492" lon="4.95709">
        <ele>486.7</ele>
        <time>2013-02-09T08:28:36.000Z</time>
      </trkpt>
      <trkpt lat="47.31491" lon="4.95707">
        <ele>486.8</ele>
        <time>2013-02-09T08:28:37.000Z</time>
      </trkpt>
      <trkpt lat="47.31488" lon="4.95703">
        <ele>486.9</ele>
        <time>2013-02-09T08:28:41.000Z</time>
      </trkpt>
      <trkpt lat="47.31487" lon="4.95701">
        <ele>486.7</ele>
        <time>2013-02-09T08:28:42.000Z</time>
      </trkpt>
      <trkpt lat="47.31486" lon="4.957">
        <ele>486.2</ele>
        <time>2013-02-09T08:28:43.000Z</time>
      </trkpt>
      <trkpt lat="47.31445" lon="4.95677">
        <ele>485.4</ele>
        <time>2013-02-09T08:29:04.000Z</time>
      </trkpt>
      <trkpt lat="47.31442" lon="4.95673">
        <ele>482.9</ele>
        <time>2013-02-09T08:29:06.000Z</time>
      </trkpt>
      <trkpt lat="47.31441" lon="4.95671">
        <ele>482.1</ele>
        <time>2013-02-09T08:29:07.000Z</time>
      </trkpt>
      <trkpt lat="47.31438" lon="4.95669">
        <ele>482.6</ele>
        <time>2013-02-09T08:29:09.000Z</time>
      </trkpt>
      <trkpt lat="47.31436" lon="4.95667">
        <ele>483</ele>
        <time>2013-02-09T08:29:10.000Z</time>
      </trkpt>
      <trkpt lat="47.31432" lon="4.95665">
        <ele>482</ele>
        <time>2013-02-09T08:29:12.000Z</time>
      </trkpt>
      <trkpt lat="47.3143" lon="4.95664">
        <ele>481.6</ele>
        <time>2013-02-09T08:29:13.000Z</time>
      </trkpt>
      <trkpt lat="47.31426" lon="4.95662">
        <ele>483</ele>
        <time>2013-02-09T08:29:15.000Z</time>
      </trkpt>
      <trkpt lat="47.31424" lon="4.95661">
        <ele>483.6</ele>
        <time>2013-02-09T08:29:16.000Z</time>
      </trkpt>
      <trkpt lat="47.31423" lon="4.9566">
        <ele>483.7</ele>
        <time>2013-02-09T08:29:17.000Z</time>
      </trkpt>
      <trkpt lat="47.3142" lon="4.95659">
        <ele>483.8</ele>
        <time>2013-02-09T08:29:18.000Z</time>
      </trkpt>
      <trkpt lat="47.31417" lon="4.95656">
        <ele>484</ele>
        <time>2013-02-09T08:29:20.000Z</time>
      </trkpt>
      <trkpt lat="47.31414" lon="4.95654">
        <ele>482.2</ele>
        <time>2013-02-09T08:29:21.000Z</time>
      </trkpt>
      <trkpt lat="47.31411" lon="4.95653">
        <ele>482.9</ele>
        <time>2013-02-09T08:29:23.000Z</time>
      </trkpt>
      <trkpt lat="47.31409" lon="4.95652">
        <ele>482.4</ele>
        <time>2013-02-09T08:29:24.000Z</time>
      </trkpt>
      <trkpt lat="47.31407" lon="4.95649">
        <ele>483</ele>
        <time>2013-02-09T08:29:26.000Z</time>
      </trkpt>
      <trkpt lat="47.31405" lon="4.95648">
        <ele>482.7</ele>
        <time>2013-02-09T08:29:27.000Z</time>
      </trkpt>
      <trkpt lat="47.31402" lon="4.95644">
        <ele>483.4</ele>
        <time>2013-02-09T08:29:30.000Z</time>
      </trkpt>
      <trkpt lat="47.314" lon="4.95642">
        <ele>483.5</ele>
        <time>2013-02-09T08:29:31.000Z</time>
      </trkpt>
      <trkpt lat="47.31398" lon="4.95638">
        <ele>483.8</ele>
        <time>2013-02-09T08:29:33.000Z</time>
      </trkpt>
      <trkpt lat="47.31397" lon="4.95637">
        <ele>483.9</ele>
        <time>2013-02-09T08:29:34.000Z</time>
      </trkpt>
      <trkpt lat="47.31393" lon="4.95634">
        <ele>484.2</ele>
        <time>2013-02-09T08:29:36.000Z</time>
      </trkpt>
      <trkpt lat="47.31391" lon="4.95633">
        <ele>484.6</ele>
        <time>2013-02-09T08:29:37.000Z</time>
      </trkpt>
      <trkpt lat="47.31388" lon="4.9563">
        <ele>485.8</ele>
        <time>2013-02-09T08:29:39.000Z</time>
      </trkpt>
      <trkpt lat="47.31387" lon="4.95628">
        <ele>485.8</ele>
        <time>2013-02-09T08:29:40.000Z</time>
      </trkpt>
      <trkpt lat="47.31384" lon="4.95625">
        <ele>485.9</ele>
        <time>2013-02-09T08:29:42.000Z</time>
      </trkpt>
      <trkpt lat="47.31382" lon="4.95624">
        <ele>486</ele>
        <time>2013-02-09T08:29:43.000Z</time>
      </trkpt>
      <trkpt lat="47.31368" lon="4.95606">
        <ele>484</ele>
        <time>2013-02-09T08:29:50.000Z</time>
      </trkpt>
      <trkpt lat="47.31365" lon="4.95605">
        <ele>485.1</ele>
        <time>2013-02-09T08:29:51.000Z</time>
      </trkpt>
      <trkpt lat="47.31364" lon="4.95604">
        <ele>484.8</ele>
        <time>2013-02-09T08:29:52.000Z</time>
      </trkpt>
      <trkpt lat="47.3136" lon="4.95601">
        <ele>485.8</ele>
        <time>2013-02-09T08:29:54.000Z</time>
      </trkpt>
      <trkpt lat="47.31359" lon="4.95598">
        <ele>486.5</ele>
        <time>2013-02-09T08:29:55.000Z</time>
      </trkpt>
      <trkpt lat="47.31357" lon="4.95594">
        <ele>486.5</ele>
        <time>2013-02-09T08:29:57.000Z</time>
      </trkpt>
      <trkpt lat="47.31355" lon="4.95593">
        <ele>486.5</ele>
        <time>2013-02-09T08:29:58.000Z</time>
      </trkpt>
      <trkpt lat="47.31353" lon="4.9559">
        <ele>487.2</ele>
        <time>2013-02-09T08:30:00.000Z</time>
      </trkpt>
      <trkpt lat="47.31352" lon="4.95588">
        <ele>487.6</ele>
        <time>2013-02-09T08:30:01.000Z</time>
      </trkpt>
      <trkpt lat="47.31349" lon="4.95584">
        <ele>488</ele>
        <time>2013-02-09T08:30:03.000Z</time>
      </trkpt>
      <trkpt lat="47.31348" lon="4.95583">
        <ele>488.1</ele>
        <time>2013-02-09T08:30:04.000Z</time>
      </trkpt>
      <trkpt lat="47.31346" lon="4.95579">
        <ele>489</ele>
        <time>2013-02-09T08:30:06.000Z</time>
      </trkpt>
      <trkpt lat="47.31345" lon="4.95577">
        <ele>489.1</ele>
        <time>2013-02-09T08:30:07.000Z</time>
      </trkpt>
      <trkpt lat="47.31342" lon="4.95572">
        <ele>490.3</ele>
        <time>2013-02-09T08:30:09.000Z</time>
      </trkpt>
      <trkpt lat="47.3134" lon="4.9557">
        <ele>491.3</ele>
        <time>2013-02-09T08:30:10.000Z</time>
      </trkpt>
      <trkpt lat="47.31337" lon="4.95565">
        <ele>492.9</ele>
        <time>2013-02-09T08:30:12.000Z</time>
      </trkpt>
      <trkpt lat="47.31335" lon="4.95563">
        <ele>493.9</ele>
        <time>2013-02-09T08:30:13.000Z</time>
      </trkpt>
      <trkpt lat="47.31332" lon="4.95559">
        <ele>493.8</ele>
        <time>2013-02-09T08:30:15.000Z</time>
      </trkpt>
      <trkpt lat="47.31331" lon="4.95558">
        <ele>492.9</ele>
        <time>2013-02-09T08:30:16.000Z</time>
      </trkpt>
      <trkpt lat="47.31328" lon="4.95555">
        <ele>492.2</ele>
        <time>2013-02-09T08:30:18.000Z</time>
      </trkpt>
      <trkpt lat="47.31327" lon="4.95553">
        <ele>492.3</ele>
        <time>2013-02-09T08:30:19.000Z</time>
      </trkpt>
      <trkpt lat="47.31325" lon="4.9555">
        <ele>491.8</ele>
        <time>2013-02-09T08:30:21.000Z</time>
      </trkpt>
      <trkpt lat="47.31323" lon="4.95547">
        <ele>491.4</ele>
        <time>2013-02-09T08:30:22.000Z</time>
      </trkpt>
      <trkpt lat="47.31319" lon="4.95543">
        <ele>490.6</ele>
        <time>2013-02-09T08:30:24.000Z</time>
      </trkpt>
      <trkpt lat="47.31318" lon="4.95542">
        <ele>490.5</ele>
        <time>2013-02-09T08:30:25.000Z</time>
      </trkpt>
      <trkpt lat="47.31315" lon="4.95539">
        <ele>490.3</ele>
        <time>2013-02-09T08:30:27.000Z</time>
      </trkpt>
      <trkpt lat="47.31315" lon="4.95537">
        <ele>490.3</ele>
        <time>2013-02-09T08:30:28.000Z</time>
      </trkpt>
      <trkpt lat="47.31313" lon="4.95533">
        <ele>490.5</ele>
        <time>2013-02-09T08:30:30.000Z</time>
      </trkpt>
      <trkpt lat="47.31312" lon="4.95531">
        <ele>490.6</ele>
        <time>2013-02-09T08:30:31.000Z</time>
      </trkpt>
      <trkpt lat="47.3131" lon="4.95527">
        <ele>490.8</ele>
        <time>2013-02-09T08:30:33.000Z</time>
      </trkpt>
      <trkpt lat="47.31309" lon="4.95524">
        <ele>491</ele>
        <time>2013-02-09T08:30:34.000Z</time>
      </trkpt>
      <trkpt lat="47.31308" lon="4.95519">
        <ele>490.7</ele>
        <time>2013-02-09T08:30:36.000Z</time>
      </trkpt>
      <trkpt lat="47.31308" lon="4.95517">
        <ele>490.5</ele>
        <time>2013-02-09T08:30:37.000Z</time>
      </trkpt>
      <trkpt lat="47.31308" lon="4.95511">
        <ele>490.3</ele>
        <time>2013-02-09T08:30:39.000Z</time>
      </trkpt>
      <trkpt lat="47.31308" lon="4.95508">
        <ele>490.1</ele>
        <time>2013-02-09T08:30:40.000Z</time>
      </trkpt>
      <trkpt lat="47.31309" lon="4.95505">
        <ele>490</ele>
        <time>2013-02-09T08:30:41.000Z</time>
      </trkpt>
      <trkpt lat="47.31309" lon="4.95501">
        <ele>489.9</ele>
        <time>2013-02-09T08:30:42.000Z</time>
      </trkpt>
      <trkpt lat="47.3131" lon="4.95498">
        <ele>489.6</ele>
        <time>2013-02-09T08:30:43.000Z</time>
      </trkpt>
      <trkpt lat="47.31307" lon="4.95454">
        <ele>488</ele>
        <time>2013-02-09T08:30:50.000Z</time>
      </trkpt>
      <trkpt lat="47.31306" lon="4.9545">
        <ele>486.1</ele>
        <time>2013-02-09T08:30:51.000Z</time>
      </trkpt>
      <trkpt lat="47.31305" lon="4.95447">
        <ele>485.5</ele>
        <time>2013-02-09T08:30:52.000Z</time>
      </trkpt>
      <trkpt lat="47.31304" lon="4.95443">
        <ele>484.7</ele>
        <time>2013-02-09T08:30:53.000Z</time>
      </trkpt>
      <trkpt lat="47.31303" lon="4.9544">
        <ele>483.3</ele>
        <time>2013-02-09T08:30:54.000Z</time>
      </trkpt>
      <trkpt lat="47.31304" lon="4.95434">
        <ele>482.3</ele>
        <time>2013-02-09T08:30:56.000Z</time>
      </trkpt>
      <trkpt lat="47.31304" lon="4.9543">
        <ele>480.7</ele>
        <time>2013-02-09T08:30:57.000Z</time>
      </trkpt>
      <trkpt lat="47.31304" lon="4.95425">
        <ele>480</ele>
        <time>2013-02-09T08:30:59.000Z</time>
      </trkpt>
      <trkpt lat="47.31305" lon="4.95422">
        <ele>479.6</ele>
        <time>2013-02-09T08:31:00.000Z</time>
      </trkpt>
      <trkpt lat="47.31305" lon="4.95417">
        <ele>479.8</ele>
        <time>2013-02-09T08:31:02.000Z</time>
      </trkpt>
      <trkpt lat="47.31305" lon="4.95413">
        <ele>479</ele>
        <time>2013-02-09T08:31:03.000Z</time>
      </trkpt>
      <trkpt lat="47.31305" lon="4.95407">
        <ele>479.7</ele>
        <time>2013-02-09T08:31:06.000Z</time>
      </trkpt>
      <trkpt lat="47.31305" lon="4.95405">
        <ele>480.7</ele>
        <time>2013-02-09T08:31:07.000Z</time>
      </trkpt>
      <trkpt lat="47.31305" lon="4.954">
        <ele>484</ele>
        <time>2013-02-09T08:31:11.000Z</time>
      </trkpt>
      <trkpt lat="47.31304" lon="4.95398">
        <ele>484.6</ele>
        <time>2013-02-09T08:31:12.000Z</time>
      </trkpt>
      <trkpt lat="47.31303" lon="4.95394">
        <ele>484.3</ele>
        <time>2013-02-09T08:31:13.000Z</time>
      </trkpt>
      <trkpt lat="47.31302" lon="4.95392">
        <ele>484</ele>
        <time>2013-02-09T08:31:14.000Z</time>
      </trkpt>
      <trkpt lat="47.31301" lon="4.95389">
        <ele>482.8</ele>
        <time>2013-02-09T08:31:15.000Z</time>
      </trkpt>
      <trkpt lat="47.313" lon="4.95385">
        <ele>481.8</ele>
        <time>2013-02-09T08:31:16.000Z</time>
      </trkpt>
      <trkpt lat="47.31299" lon="4.95382">
        <ele>481.4</ele>
        <time>2013-02-09T08:31:17.000Z</time>
      </trkpt>
      <trkpt lat="47.31298" lon="4.95379">
        <ele>481</ele>
        <time>2013-02-09T08:31:18.000Z</time>
      </trkpt>
      <trkpt lat="47.31297" lon="4.95373">
        <ele>480.7</ele>
        <time>2013-02-09T08:31:20.000Z</time>
      </trkpt>
      <trkpt lat="47.31297" lon="4.9537">
        <ele>480.8</ele>
        <time>2013-02-09T08:31:21.000Z</time>
      </trkpt>
      <trkpt lat="47.31297" lon="4.95365">
        <ele>480.9</ele>
        <time>2013-02-09T08:31:23.000Z</time>
      </trkpt>
      <trkpt lat="47.31296" lon="4.95363">
        <ele>480.9</ele>
        <time>2013-02-09T08:31:24.000Z</time>
      </trkpt>
      <trkpt lat="47.31295" lon="4.95359">
        <ele>480.7</ele>
        <time>2013-02-09T08:31:26.000Z</time>
      </trkpt>
      <trkpt lat="47.31295" lon="4.95356">
        <ele>480.5</ele>
        <time>2013-02-09T08:31:27.000Z</time>
      </trkpt>
      <trkpt lat="47.31294" lon="4.9535">
        <ele>480.1</ele>
        <time>2013-02-09T08:31:29.000Z</time>
      </trkpt>
      <trkpt lat="47.31293" lon="4.95347">
        <ele>480.1</ele>
        <time>2013-02-09T08:31:30.000Z</time>
      </trkpt>
      <trkpt lat="47.31293" lon="4.95341">
        <ele>479.8</ele>
        <time>2013-02-09T08:31:32.000Z</time>
      </trkpt>
      <trkpt lat="47.31293" lon="4.95337">
        <ele>479.9</ele>
        <time>2013-02-09T08:31:33.000Z</time>
      </trkpt>
      <trkpt lat="47.31293" lon="4.95333">
        <ele>479.7</ele>
        <time>2013-02-09T08:31:34.000Z</time>
      </trkpt>
      <trkpt lat="47.31293" lon="4.95329">
        <ele>479.7</ele>
        <time>2013-02-09T08:31:35.000Z</time>
      </trkpt>
      <trkpt lat="47.31293" lon="4.95325">
        <ele>479.5</ele>
        <time>2013-02-09T08:31:36.000Z</time>
      </trkpt>
      <trkpt lat="47.31293" lon="4.95321">
        <ele>479.4</ele>
        <time>2013-02-09T08:31:37.000Z</time>
      </trkpt>
      <trkpt lat="47.31293" lon="4.95318">
        <ele>479.6</ele>
        <time>2013-02-09T08:31:38.000Z</time>
      </trkpt>
      <trkpt lat="47.31293" lon="4.95314">
        <ele>479.8</ele>
        <time>2013-02-09T08:31:39.000Z</time>
      </trkpt>
      <trkpt lat="47.31292" lon="4.9531">
        <ele>480</ele>
        <time>2013-02-09T08:31:40.000Z</time>
      </trkpt>
      <trkpt lat="47.31292" lon="4.95307">
        <ele>480.1</ele>
        <time>2013-02-09T08:31:41.000Z</time>
      </trkpt>
      <trkpt lat="47.31292" lon="4.95303">
        <ele>480.4</ele>
        <time>2013-02-09T08:31:42.000Z</time>
      </trkpt>
      <trkpt lat="47.31291" lon="4.953">
        <ele>480.4</ele>
        <time>2013-02-09T08:31:43.000Z</time>
      </trkpt>
      <trkpt lat="47.31289" lon="4.95266">
        <ele>476.5</ele>
        <time>2013-02-09T08:31:50.000Z</time>
      </trkpt>
      <trkpt lat="47.31288" lon="4.9526">
        <ele>479</ele>
        <time>2013-02-09T08:31:52.000Z</time>
      </trkpt>
      <trkpt lat="47.31288" lon="4.95257">
        <ele>480.2</ele>
        <time>2013-02-09T08:31:53.000Z</time>
      </trkpt>
      <trkpt lat="47.31286" lon="4.95251">
        <ele>480.6</ele>
        <time>2013-02-09T08:31:55.000Z</time>
      </trkpt>
      <trkpt lat="47.31286" lon="4.95249">
        <ele>481.5</ele>
        <time>2013-02-09T08:31:56.000Z</time>
      </trkpt>
      <trkpt lat="47.31285" lon="4.95245">
        <ele>481.7</ele>
        <time>2013-02-09T08:31:58.000Z</time>
      </trkpt>
      <trkpt lat="47.31284" lon="4.95243">
        <ele>482</ele>
        <time>2013-02-09T08:31:59.000Z</time>
      </trkpt>
      <trkpt lat="47.31283" lon="4.95238">
        <ele>482.4</ele>
        <time>2013-02-09T08:32:02.000Z</time>
      </trkpt>
      <trkpt lat="47.31282" lon="4.95236">
        <ele>482</ele>
        <time>2013-02-09T08:32:03.000Z</time>
      </trkpt>
      <trkpt lat="47.31282" lon="4.9523">
        <ele>481.1</ele>
        <time>2013-02-09T08:32:06.000Z</time>
      </trkpt>
      <trkpt lat="47.31282" lon="4.95228">
        <ele>481.4</ele>
        <time>2013-02-09T08:32:07.000Z</time>
      </trkpt>
      <trkpt lat="47.31281" lon="4.95222">
        <ele>484.7</ele>
        <time>2013-02-09T08:32:10.000Z</time>
      </trkpt>
      <trkpt lat="47.3128" lon="4.95221">
        <ele>483.4</ele>
        <time>2013-02-09T08:32:11.000Z</time>
      </trkpt>
      <trkpt lat="47.31278" lon="4.95217">
        <ele>483.8</ele>
        <time>2013-02-09T08:32:13.000Z</time>
      </trkpt>
      <trkpt lat="47.31278" lon="4.95214">
        <ele>483.7</ele>
        <time>2013-02-09T08:32:14.000Z</time>
      </trkpt>
      <trkpt lat="47.31276" lon="4.95208">
        <ele>481.9</ele>
        <time>2013-02-09T08:32:17.000Z</time>
      </trkpt>
      <trkpt lat="47.31275" lon="4.95206">
        <ele>481.7</ele>
        <time>2013-02-09T08:32:18.000Z</time>
      </trkpt>
      <trkpt lat="47.31274" lon="4.952">
        <ele>480.4</ele>
        <time>2013-02-09T08:32:21.000Z</time>
      </trkpt>
      <trkpt lat="47.31274" lon="4.95198">
        <ele>480.1</ele>
        <time>2013-02-09T08:32:22.000Z</time>
      </trkpt>
      <trkpt lat="47.31273" lon="4.95194">
        <ele>479.9</ele>
        <time>2013-02-09T08:32:24.000Z</time>
      </trkpt>
      <trkpt lat="47.31273" lon="4.95191">
        <ele>479.4</ele>
        <time>2013-02-09T08:32:25.000Z</time>
      </trkpt>
      <trkpt lat="47.31273" lon="4.95186">
        <ele>479.2</ele>
        <time>2013-02-09T08:32:27.000Z</time>
      </trkpt>
      <trkpt lat="47.31273" lon="4.95183">
        <ele>479.2</ele>
        <time>2013-02-09T08:32:28.000Z</time>
      </trkpt>
      <trkpt lat="47.31273" lon="4.95179">
        <ele>478.7</ele>
        <time>2013-02-09T08:32:30.000Z</time>
      </trkpt>
      <trkpt lat="47.31273" lon="4.95177">
        <ele>478.5</ele>
        <time>2013-02-09T08:32:31.000Z</time>
      </trkpt>
      <trkpt lat="47.31272" lon="4.95171">
        <ele>478</ele>
        <time>2013-02-09T08:32:33.000Z</time>
      </trkpt>
      <trkpt lat="47.31272" lon="4.95167">
        <ele>477.9</ele>
        <time>2013-02-09T08:32:34.000Z</time>
      </trkpt>
      <trkpt lat="47.31271" lon="4.95163">
        <ele>477.4</ele>
        <time>2013-02-09T08:32:36.000Z</time>
      </trkpt>
      <trkpt lat="47.3127" lon="4.9516">
        <ele>477.6</ele>
        <time>2013-02-09T08:32:37.000Z</time>
      </trkpt>
      <trkpt lat="47.31269" lon="4.95155">
        <ele>477.4</ele>
        <time>2013-02-09T08:32:39.000Z</time>
      </trkpt>
      <trkpt lat="47.31269" lon="4.95152">
        <ele>477.1</ele>
        <time>2013-02-09T08:32:40.000Z</time>
      </trkpt>
      <trkpt lat="47.31268" lon="4.95147">
        <ele>476.8</ele>
        <time>2013-02-09T08:32:42.000Z</time>
      </trkpt>
      <trkpt lat="47.31267" lon="4.95144">
        <ele>477</ele>
        <time>2013-02-09T08:32:43.000Z</time>
      </trkpt>
      <trkpt lat="47.31263" lon="4.95123">
        <ele>479.1</ele>
        <time>2013-02-09T08:32:51.000Z</time>
      </trkpt>
      <trkpt lat="47.31261" lon="4.95118">
        <ele>480.6</ele>
        <time>2013-02-09T08:32:54.000Z</time>
      </trkpt>
      <trkpt lat="47.31261" lon="4.95116">
        <ele>480.4</ele>
        <time>2013-02-09T08:32:55.000Z</time>
      </trkpt>
      <trkpt lat="47.31259" lon="4.95111">
        <ele>481.7</ele>
        <time>2013-02-09T08:32:59.000Z</time>
      </trkpt>
      <trkpt lat="47.31259" lon="4.95109">
        <ele>481.9</ele>
        <time>2013-02-09T08:33:00.000Z</time>
      </trkpt>
      <trkpt lat="47.31257" lon="4.95104">
        <ele>483</ele>
        <time>2013-02-09T08:33:03.000Z</time>
      </trkpt>
      <trkpt lat="47.31256" lon="4.95103">
        <ele>483.1</ele>
        <time>2013-02-09T08:33:04.000Z</time>
      </trkpt>
      <trkpt lat="47.31255" lon="4.95097">
        <ele>483.7</ele>
        <time>2013-02-09T08:33:07.000Z</time>
      </trkpt>
      <trkpt lat="47.31254" lon="4.95095">
        <ele>483.3</ele>
        <time>2013-02-09T08:33:08.000Z</time>
      </trkpt>
      <trkpt lat="47.31252" lon="4.95091">
        <ele>483.2</ele>
        <time>2013-02-09T08:33:10.000Z</time>
      </trkpt>
      <trkpt lat="47.31252" lon="4.95089">
        <ele>483.2</ele>
        <time>2013-02-09T08:33:11.000Z</time>
      </trkpt>
      <trkpt lat="47.3125" lon="4.95084">
        <ele>482.4</ele>
        <time>2013-02-09T08:33:13.000Z</time>
      </trkpt>
      <trkpt lat="47.3125" lon="4.95082">
        <ele>481.8</ele>
        <time>2013-02-09T08:33:14.000Z</time>
      </trkpt>
      <trkpt lat="47.31248" lon="4.95077">
        <ele>480.4</ele>
        <time>2013-02-09T08:33:16.000Z</time>
      </trkpt>
      <trkpt lat="47.31247" lon="4.95075">
        <ele>479.8</ele>
        <time>2013-02-09T08:33:17.000Z</time>
      </trkpt>
      <trkpt lat="47.31247" lon="4.9507">
        <ele>478.8</ele>
        <time>2013-02-09T08:33:19.000Z</time>
      </trkpt>
      <trkpt lat="47.31246" lon="4.95067">
        <ele>478.5</ele>
        <time>2013-02-09T08:33:20.000Z</time>
      </trkpt>
      <trkpt lat="47.31245" lon="4.95063">
        <ele>478.4</ele>
        <time>2013-02-09T08:33:22.000Z</time>
      </trkpt>
      <trkpt lat="47.31245" lon="4.95061">
        <ele>478.2</ele>
        <time>2013-02-09T08:33:23.000Z</time>
      </trkpt>
      <trkpt lat="47.31243" lon="4.95056">
        <ele>478</ele>
        <time>2013-02-09T08:33:25.000Z</time>
      </trkpt>
      <trkpt lat="47.31242" lon="4.95055">
        <ele>478.1</ele>
        <time>2013-02-09T08:33:26.000Z</time>
      </trkpt>
      <trkpt lat="47.31239" lon="4.95051">
        <ele>478.9</ele>
        <time>2013-02-09T08:33:29.000Z</time>
      </trkpt>
      <trkpt lat="47.31239" lon="4.95049">
        <ele>479</ele>
        <time>2013-02-09T08:33:30.000Z</time>
      </trkpt>
      <trkpt lat="47.31237" lon="4.95043">
        <ele>479.2</ele>
        <time>2013-02-09T08:33:33.000Z</time>
      </trkpt>
      <trkpt lat="47.31236" lon="4.95041">
        <ele>479.2</ele>
        <time>2013-02-09T08:33:34.000Z</time>
      </trkpt>
      <trkpt lat="47.31235" lon="4.95035">
        <ele>479.6</ele>
        <time>2013-02-09T08:33:37.000Z</time>
      </trkpt>
      <trkpt lat="47.31234" lon="4.95033">
        <ele>479.6</ele>
        <time>2013-02-09T08:33:38.000Z</time>
      </trkpt>
      <trkpt lat="47.31232" lon="4.95029">
        <ele>479.8</ele>
        <time>2013-02-09T08:33:41.000Z</time>
      </trkpt>
      <trkpt lat="47.31231" lon="4.95027">
        <ele>479.7</ele>
        <time>2013-02-09T08:33:42.000Z</time>
      </trkpt>
      <trkpt lat="47.31231" lon="4.95025">
        <ele>479.7</ele>
        <time>2013-02-09T08:33:43.000Z</time>
      </trkpt>
      <trkpt lat="47.31225" lon="4.95001">
        <ele>474.6</ele>
        <time>2013-02-09T08:33:51.000Z</time>
      </trkpt>
      <trkpt lat="47.31221" lon="4.95001">
        <ele>473.8</ele>
        <time>2013-02-09T08:33:53.000Z</time>
      </trkpt>
      <trkpt lat="47.3122" lon="4.95001">
        <ele>474.4</ele>
        <time>2013-02-09T08:33:54.000Z</time>
      </trkpt>
      <trkpt lat="47.31216" lon="4.94998">
        <ele>478.1</ele>
        <time>2013-02-09T08:33:58.000Z</time>
      </trkpt>
      <trkpt lat="47.31215" lon="4.94997">
        <ele>478.7</ele>
        <time>2013-02-09T08:33:59.000Z</time>
      </trkpt>
      <trkpt lat="47.31211" lon="4.94996">
        <ele>481.9</ele>
        <time>2013-02-09T08:34:03.000Z</time>
      </trkpt>
      <trkpt lat="47.3121" lon="4.94994">
        <ele>482.6</ele>
        <time>2013-02-09T08:34:04.000Z</time>
      </trkpt>
      <trkpt lat="47.31207" lon="4.94991">
        <ele>482.8</ele>
        <time>2013-02-09T08:34:07.000Z</time>
      </trkpt>
      <trkpt lat="47.31206" lon="4.94989">
        <ele>483</ele>
        <time>2013-02-09T08:34:08.000Z</time>
      </trkpt>
      <trkpt lat="47.31203" lon="4.94986">
        <ele>482.9</ele>
        <time>2013-02-09T08:34:11.000Z</time>
      </trkpt>
      <trkpt lat="47.31202" lon="4.94985">
        <ele>482.9</ele>
        <time>2013-02-09T08:34:12.000Z</time>
      </trkpt>
      <trkpt lat="47.31199" lon="4.94981">
        <ele>483.7</ele>
        <time>2013-02-09T08:34:15.000Z</time>
      </trkpt>
      <trkpt lat="47.31198" lon="4.94979">
        <ele>483.4</ele>
        <time>2013-02-09T08:34:16.000Z</time>
      </trkpt>
      <trkpt lat="47.31195" lon="4.94976">
        <ele>483.5</ele>
        <time>2013-02-09T08:34:19.000Z</time>
      </trkpt>
      <trkpt lat="47.31193" lon="4.94975">
        <ele>483.6</ele>
        <time>2013-02-09T08:34:20.000Z</time>
      </trkpt>
      <trkpt lat="47.31191" lon="4.94971">
        <ele>483.4</ele>
        <time>2013-02-09T08:34:23.000Z</time>
      </trkpt>
      <trkpt lat="47.3119" lon="4.9497">
        <ele>483.5</ele>
        <time>2013-02-09T08:34:24.000Z</time>
      </trkpt>
      <trkpt lat="47.31188" lon="4.94966">
        <ele>483.4</ele>
        <time>2013-02-09T08:34:26.000Z</time>
      </trkpt>
      <trkpt lat="47.31187" lon="4.94964">
        <ele>483.4</ele>
        <time>2013-02-09T08:34:27.000Z</time>
      </trkpt>
      <trkpt lat="47.31184" lon="4.94959">
        <ele>483.3</ele>
        <time>2013-02-09T08:34:30.000Z</time>
      </trkpt>
      <trkpt lat="47.31184" lon="4.94958">
        <ele>483.2</ele>
        <time>2013-02-09T08:34:31.000Z</time>
      </trkpt>
      <trkpt lat="47.31181" lon="4.94954">
        <ele>483.1</ele>
        <time>2013-02-09T08:34:34.000Z</time>
      </trkpt>
      <trkpt lat="47.3118" lon="4.94952">
        <ele>483</ele>
        <time>2013-02-09T08:34:35.000Z</time>
      </trkpt>
      <trkpt lat="47.31177" lon="4.94948">
        <ele>482.9</ele>
        <time>2013-02-09T08:34:39.000Z</time>
      </trkpt>
      <trkpt lat="47.31176" lon="4.94947">
        <ele>482.9</ele>
        <time>2013-02-09T08:34:40.000Z</time>
      </trkpt>
      <trkpt lat="47.31174" lon="4.94944">
        <ele>482.7</ele>
        <time>2013-02-09T08:34:43.000Z</time>
      </trkpt>
      <trkpt lat="47.31166" lon="4.9494">
        <ele>482.7</ele>
        <time>2013-02-09T08:34:51.000Z</time>
      </trkpt>
      <trkpt lat="47.31162" lon="4.94938">
        <ele>479.9</ele>
        <time>2013-02-09T08:34:53.000Z</time>
      </trkpt>
      <trkpt lat="47.31161" lon="4.94937">
        <ele>479.1</ele>
        <time>2013-02-09T08:34:54.000Z</time>
      </trkpt>
      <trkpt lat="47.31157" lon="4.94939">
        <ele>479.6</ele>
        <time>2013-02-09T08:35:43.000Z</time>
      </trkpt>
      <trkpt lat="47.31161" lon="4.9493">
        <ele>479.6</ele>
        <time>2013-02-09T08:35:50.000Z</time>
      </trkpt>
      <trkpt lat="47.31161" lon="4.9493">
        <ele>479.6</ele>
        <time>2013-02-09T08:36:34.000Z</time>
      </trkpt>
      <trkpt lat="47.31155" lon="4.94935">
        <ele>474.7</ele>
        <time>2013-02-09T08:36:35.000Z</time>
      </trkpt>
      <trkpt lat="47.31151" lon="4.94938">
        <ele>475.4</ele>
        <time>2013-02-09T08:36:39.000Z</time>
      </trkpt>
      <trkpt lat="47.31151" lon="4.94939">
        <ele>475.4</ele>
        <time>2013-02-09T08:36:40.000Z</time>
      </trkpt>
      <trkpt lat="47.3115" lon="4.94943">
        <ele>475.6</ele>
        <time>2013-02-09T08:36:43.000Z</time>
      </trkpt>
      <trkpt lat="47.31153" lon="4.94954">
        <ele>479.5</ele>
        <time>2013-02-09T08:36:51.000Z</time>
      </trkpt>
      <trkpt lat="47.31153" lon="4.94961">
        <ele>478.5</ele>
        <time>2013-02-09T08:36:53.000Z</time>
      </trkpt>
      <trkpt lat="47.31152" lon="4.94963">
        <ele>477.8</ele>
        <time>2013-02-09T08:36:54.000Z</time>
      </trkpt>
      <trkpt lat="47.31152" lon="4.94969">
        <ele>476.4</ele>
        <time>2013-02-09T08:36:57.000Z</time>
      </trkpt>
      <trkpt lat="47.31152" lon="4.94971">
        <ele>475.7</ele>
        <time>2013-02-09T08:36:58.000Z</time>
      </trkpt>
      <trkpt lat="47.31151" lon="4.94976">
        <ele>474.7</ele>
        <time>2013-02-09T08:37:01.000Z</time>
      </trkpt>
      <trkpt lat="47.31151" lon="4.94978">
        <ele>474.1</ele>
        <time>2013-02-09T08:37:02.000Z</time>
      </trkpt>
      <trkpt lat="47.31151" lon="4.94983">
        <ele>474.3</ele>
        <time>2013-02-09T08:37:04.000Z</time>
      </trkpt>
      <trkpt lat="47.31151" lon="4.94985">
        <ele>474.8</ele>
        <time>2013-02-09T08:37:05.000Z</time>
      </trkpt>
      <trkpt lat="47.31152" lon="4.94991">
        <ele>475.8</ele>
        <time>2013-02-09T08:37:08.000Z</time>
      </trkpt>
      <trkpt lat="47.31152" lon="4.94994">
        <ele>476.4</ele>
        <time>2013-02-09T08:37:09.000Z</time>
      </trkpt>
      <trkpt lat="47.31152" lon="4.95">
        <ele>477.3</ele>
        <time>2013-02-09T08:37:12.000Z</time>
      </trkpt>
      <trkpt lat="47.31153" lon="4.95002">
        <ele>477.3</ele>
        <time>2013-02-09T08:37:13.000Z</time>
      </trkpt>
      <trkpt lat="47.31153" lon="4.95006">
        <ele>477.3</ele>
        <time>2013-02-09T08:37:15.000Z</time>
      </trkpt>
      <trkpt lat="47.31153" lon="4.95008">
        <ele>477.2</ele>
        <time>2013-02-09T08:37:16.000Z</time>
      </trkpt>
      <trkpt lat="47.31154" lon="4.95014">
        <ele>476.5</ele>
        <time>2013-02-09T08:37:19.000Z</time>
      </trkpt>
      <trkpt lat="47.31153" lon="4.95017">
        <ele>476</ele>
        <time>2013-02-09T08:37:20.000Z</time>
      </trkpt>
      <trkpt lat="47.31153" lon="4.95022">
        <ele>475.6</ele>
        <time>2013-02-09T08:37:22.000Z</time>
      </trkpt>
      <trkpt lat="47.31154" lon="4.95024">
        <ele>475.5</ele>
        <time>2013-02-09T08:37:23.000Z</time>
      </trkpt>
      <trkpt lat="47.31154" lon="4.95028">
        <ele>475.5</ele>
        <time>2013-02-09T08:37:25.000Z</time>
      </trkpt>
      <trkpt lat="47.31154" lon="4.9503">
        <ele>475.6</ele>
        <time>2013-02-09T08:37:26.000Z</time>
      </trkpt>
      <trkpt lat="47.31155" lon="4.95035">
        <ele>475.6</ele>
        <time>2013-02-09T08:37:28.000Z</time>
      </trkpt>
      <trkpt lat="47.31155" lon="4.95037">
        <ele>475.6</ele>
        <time>2013-02-09T08:37:29.000Z</time>
      </trkpt>
      <trkpt lat="47.31156" lon="4.95043">
        <ele>475.4</ele>
        <time>2013-02-09T08:37:32.000Z</time>
      </trkpt>
      <trkpt lat="47.31156" lon="4.95046">
        <ele>475.2</ele>
        <time>2013-02-09T08:37:33.000Z</time>
      </trkpt>
      <trkpt lat="47.31156" lon="4.9505">
        <ele>474.9</ele>
        <time>2013-02-09T08:37:35.000Z</time>
      </trkpt>
      <trkpt lat="47.31156" lon="4.95053">
        <ele>474.7</ele>
        <time>2013-02-09T08:37:36.000Z</time>
      </trkpt>
      <trkpt lat="47.31157" lon="4.95058">
        <ele>474.4</ele>
        <time>2013-02-09T08:37:38.000Z</time>
      </trkpt>
      <trkpt lat="47.31158" lon="4.9506">
        <ele>474.3</ele>
        <time>2013-02-09T08:37:39.000Z</time>
      </trkpt>
      <trkpt lat="47.31159" lon="4.95066">
        <ele>474.3</ele>
        <time>2013-02-09T08:37:41.000Z</time>
      </trkpt>
      <trkpt lat="47.3116" lon="4.95068">
        <ele>474.2</ele>
        <time>2013-02-09T08:37:42.000Z</time>
      </trkpt>
      <trkpt lat="47.3116" lon="4.95071">
        <ele>474.2</ele>
        <time>2013-02-09T08:37:43.000Z</time>
      </trkpt>
      <trkpt lat="47.31167" lon="4.95088">
        <ele>482.2</ele>
        <time>2013-02-09T08:37:51.000Z</time>
      </trkpt>
      <trkpt lat="47.31165" lon="4.95093">
        <ele>482.6</ele>
        <time>2013-02-09T08:37:53.000Z</time>
      </trkpt>
      <trkpt lat="47.31166" lon="4.95096">
        <ele>482.5</ele>
        <time>2013-02-09T08:37:54.000Z</time>
      </trkpt>
      <trkpt lat="47.31167" lon="4.951">
        <ele>482.6</ele>
        <time>2013-02-09T08:37:55.000Z</time>
      </trkpt>
      <trkpt lat="47.31168" lon="4.95103">
        <ele>482.5</ele>
        <time>2013-02-09T08:37:56.000Z</time>
      </trkpt>
      <trkpt lat="47.31169" lon="4.95109">
        <ele>481.6</ele>
        <time>2013-02-09T08:37:58.000Z</time>
      </trkpt>
      <trkpt lat="47.31169" lon="4.95111">
        <ele>482.1</ele>
        <time>2013-02-09T08:37:59.000Z</time>
      </trkpt>
      <trkpt lat="47.31169" lon="4.95116">
        <ele>482.8</ele>
        <time>2013-02-09T08:38:01.000Z</time>
      </trkpt>
      <trkpt lat="47.31169" lon="4.95119">
        <ele>482.6</ele>
        <time>2013-02-09T08:38:02.000Z</time>
      </trkpt>
      <trkpt lat="47.31169" lon="4.95126">
        <ele>481.4</ele>
        <time>2013-02-09T08:38:04.000Z</time>
      </trkpt>
      <trkpt lat="47.31169" lon="4.95129">
        <ele>481.3</ele>
        <time>2013-02-09T08:38:05.000Z</time>
      </trkpt>
      <trkpt lat="47.31169" lon="4.95134">
        <ele>480.8</ele>
        <time>2013-02-09T08:38:07.000Z</time>
      </trkpt>
      <trkpt lat="47.31169" lon="4.95137">
        <ele>480.2</ele>
        <time>2013-02-09T08:38:08.000Z</time>
      </trkpt>
      <trkpt lat="47.31167" lon="4.95141">
        <ele>479.9</ele>
        <time>2013-02-09T08:38:10.000Z</time>
      </trkpt>
      <trkpt lat="47.31166" lon="4.95144">
        <ele>479.5</ele>
        <time>2013-02-09T08:38:11.000Z</time>
      </trkpt>
      <trkpt lat="47.31165" lon="4.95148">
        <ele>479.6</ele>
        <time>2013-02-09T08:38:13.000Z</time>
      </trkpt>
      <trkpt lat="47.31165" lon="4.95151">
        <ele>480</ele>
        <time>2013-02-09T08:38:14.000Z</time>
      </trkpt>
      <trkpt lat="47.31163" lon="4.95156">
        <ele>480.1</ele>
        <time>2013-02-09T08:38:16.000Z</time>
      </trkpt>
      <trkpt lat="47.31162" lon="4.95158">
        <ele>479.6</ele>
        <time>2013-02-09T08:38:17.000Z</time>
      </trkpt>
      <trkpt lat="47.3116" lon="4.95162">
        <ele>479.6</ele>
        <time>2013-02-09T08:38:19.000Z</time>
      </trkpt>
      <trkpt lat="47.31159" lon="4.95164">
        <ele>479.5</ele>
        <time>2013-02-09T08:38:20.000Z</time>
      </trkpt>
      <trkpt lat="47.31156" lon="4.95167">
        <ele>479.3</ele>
        <time>2013-02-09T08:38:22.000Z</time>
      </trkpt>
      <trkpt lat="47.31156" lon="4.95169">
        <ele>478.9</ele>
        <time>2013-02-09T08:38:23.000Z</time>
      </trkpt>
      <trkpt lat="47.31154" lon="4.95173">
        <ele>479.3</ele>
        <time>2013-02-09T08:38:25.000Z</time>
      </trkpt>
      <trkpt lat="47.31152" lon="4.95175">
        <ele>479.2</ele>
        <time>2013-02-09T08:38:26.000Z</time>
      </trkpt>
      <trkpt lat="47.3115" lon="4.9518">
        <ele>479.3</ele>
        <time>2013-02-09T08:38:28.000Z</time>
      </trkpt>
      <trkpt lat="47.31149" lon="4.95182">
        <ele>479.4</ele>
        <time>2013-02-09T08:38:29.000Z</time>
      </trkpt>
      <trkpt lat="47.31148" lon="4.95186">
        <ele>479.5</ele>
        <time>2013-02-09T08:38:31.000Z</time>
      </trkpt>
      <trkpt lat="47.31147" lon="4.95188">
        <ele>479.5</ele>
        <time>2013-02-09T08:38:32.000Z</time>
      </trkpt>
      <trkpt lat="47.31146" lon="4.95192">
        <ele>479.6</ele>
        <time>2013-02-09T08:38:34.000Z</time>
      </trkpt>
      <trkpt lat="47.31145" lon="4.95195">
        <ele>479.6</ele>
        <time>2013-02-09T08:38:35.000Z</time>
      </trkpt>
      <trkpt lat="47.31144" lon="4.952">
        <ele>479.4</ele>
        <time>2013-02-09T08:38:37.000Z</time>
      </trkpt>
      <trkpt lat="47.31144" lon="4.95203">
        <ele>479.2</ele>
        <time>2013-02-09T08:38:38.000Z</time>
      </trkpt>
      <trkpt lat="47.31143" lon="4.95208">
        <ele>478.8</ele>
        <time>2013-02-09T08:38:40.000Z</time>
      </trkpt>
      <trkpt lat="47.31143" lon="4.95211">
        <ele>478.6</ele>
        <time>2013-02-09T08:38:41.000Z</time>
      </trkpt>
      <trkpt lat="47.31143" lon="4.95217">
        <ele>478.3</ele>
        <time>2013-02-09T08:38:43.000Z</time>
      </trkpt>
      <trkpt lat="47.3114" lon="4.95241">
        <ele>474.3</ele>
        <time>2013-02-09T08:38:51.000Z</time>
      </trkpt>
      <trkpt lat="47.31139" lon="4.95246">
        <ele>473.3</ele>
        <time>2013-02-09T08:38:53.000Z</time>
      </trkpt>
      <trkpt lat="47.31138" lon="4.95248">
        <ele>473.7</ele>
        <time>2013-02-09T08:38:54.000Z</time>
      </trkpt>
      <trkpt lat="47.3114" lon="4.95253">
        <ele>477.2</ele>
        <time>2013-02-09T08:38:57.000Z</time>
      </trkpt>
      <trkpt lat="47.3114" lon="4.95256">
        <ele>477</ele>
        <time>2013-02-09T08:38:58.000Z</time>
      </trkpt>
      <trkpt lat="47.31141" lon="4.95261">
        <ele>477.8</ele>
        <time>2013-02-09T08:39:00.000Z</time>
      </trkpt>
      <trkpt lat="47.31141" lon="4.95264">
        <ele>477.9</ele>
        <time>2013-02-09T08:39:01.000Z</time>
      </trkpt>
      <trkpt lat="47.31142" lon="4.9527">
        <ele>477.8</ele>
        <time>2013-02-09T08:39:03.000Z</time>
      </trkpt>
      <trkpt lat="47.31142" lon="4.95272">
        <ele>477.7</ele>
        <time>2013-02-09T08:39:04.000Z</time>
      </trkpt>
      <trkpt lat="47.31143" lon="4.95277">
        <ele>478.2</ele>
        <time>2013-02-09T08:39:06.000Z</time>
      </trkpt>
      <trkpt lat="47.31143" lon="4.95279">
        <ele>478</ele>
        <time>2013-02-09T08:39:07.000Z</time>
      </trkpt>
      <trkpt lat="47.31145" lon="4.95284">
        <ele>477.1</ele>
        <time>2013-02-09T08:39:09.000Z</time>
      </trkpt>
      <trkpt lat="47.31145" lon="4.95287">
        <ele>477</ele>
        <time>2013-02-09T08:39:10.000Z</time>
      </trkpt>
      <trkpt lat="47.31147" lon="4.95291">
        <ele>476.7</ele>
        <time>2013-02-09T08:39:12.000Z</time>
      </trkpt>
      <trkpt lat="47.31148" lon="4.95294">
        <ele>476.2</ele>
        <time>2013-02-09T08:39:13.000Z</time>
      </trkpt>
      <trkpt lat="47.31149" lon="4.95299">
        <ele>476.1</ele>
        <time>2013-02-09T08:39:15.000Z</time>
      </trkpt>
      <trkpt lat="47.3115" lon="4.95303">
        <ele>475.6</ele>
        <time>2013-02-09T08:39:16.000Z</time>
      </trkpt>
      <trkpt lat="47.3115" lon="4.95307">
        <ele>474.5</ele>
        <time>2013-02-09T08:39:17.000Z</time>
      </trkpt>
      <trkpt lat="47.3115" lon="4.9531">
        <ele>473.8</ele>
        <time>2013-02-09T08:39:18.000Z</time>
      </trkpt>
      <trkpt lat="47.3115" lon="4.95313">
        <ele>473.5</ele>
        <time>2013-02-09T08:39:19.000Z</time>
      </trkpt>
      <trkpt lat="47.3115" lon="4.95317">
        <ele>473.2</ele>
        <time>2013-02-09T08:39:20.000Z</time>
      </trkpt>
      <trkpt lat="47.3115" lon="4.95321">
        <ele>473.1</ele>
        <time>2013-02-09T08:39:21.000Z</time>
      </trkpt>
      <trkpt lat="47.3115" lon="4.95325">
        <ele>472.8</ele>
        <time>2013-02-09T08:39:22.000Z</time>
      </trkpt>
      <trkpt lat="47.3115" lon="4.95328">
        <ele>472.6</ele>
        <time>2013-02-09T08:39:23.000Z</time>
      </trkpt>
      <trkpt lat="47.31149" lon="4.95332">
        <ele>472.4</ele>
        <time>2013-02-09T08:39:24.000Z</time>
      </trkpt>
      <trkpt lat="47.31149" lon="4.95337">
        <ele>472.5</ele>
        <time>2013-02-09T08:39:26.000Z</time>
      </trkpt>
      <trkpt lat="47.31148" lon="4.9534">
        <ele>472.4</ele>
        <time>2013-02-09T08:39:27.000Z</time>
      </trkpt>
      <trkpt lat="47.31146" lon="4.95346">
        <ele>472.2</ele>
        <time>2013-02-09T08:39:29.000Z</time>
      </trkpt>
      <trkpt lat="47.31145" lon="4.95349">
        <ele>472.3</ele>
        <time>2013-02-09T08:39:30.000Z</time>
      </trkpt>
      <trkpt lat="47.31144" lon="4.95354">
        <ele>472.5</ele>
        <time>2013-02-09T08:39:32.000Z</time>
      </trkpt>
      <trkpt lat="47.31143" lon="4.95357">
        <ele>472.5</ele>
        <time>2013-02-09T08:39:33.000Z</time>
      </trkpt>
      <trkpt lat="47.3114" lon="4.95361">
        <ele>472.2</ele>
        <time>2013-02-09T08:39:35.000Z</time>
      </trkpt>
      <trkpt lat="47.31138" lon="4.95363">
        <ele>472.1</ele>
        <time>2013-02-09T08:39:36.000Z</time>
      </trkpt>
      <trkpt lat="47.31136" lon="4.95366">
        <ele>471.9</ele>
        <time>2013-02-09T08:39:37.000Z</time>
      </trkpt>
      <trkpt lat="47.31134" lon="4.95369">
        <ele>471.5</ele>
        <time>2013-02-09T08:39:38.000Z</time>
      </trkpt>
      <trkpt lat="47.31131" lon="4.95373">
        <ele>471.4</ele>
        <time>2013-02-09T08:39:40.000Z</time>
      </trkpt>
      <trkpt lat="47.3113" lon="4.95375">
        <ele>471.4</ele>
        <time>2013-02-09T08:39:41.000Z</time>
      </trkpt>
      <trkpt lat="47.31126" lon="4.95378">
        <ele>471.2</ele>
        <time>2013-02-09T08:39:43.000Z</time>
      </trkpt>
      <trkpt lat="47.31106" lon="4.95393">
        <ele>481.5</ele>
        <time>2013-02-09T08:39:51.000Z</time>
      </trkpt>
      <trkpt lat="47.31102" lon="4.95393">
        <ele>477.6</ele>
        <time>2013-02-09T08:39:54.000Z</time>
      </trkpt>
      <trkpt lat="47.31101" lon="4.95393">
        <ele>477.2</ele>
        <time>2013-02-09T08:39:55.000Z</time>
      </trkpt>
      <trkpt lat="47.31097" lon="4.95393">
        <ele>475.5</ele>
        <time>2013-02-09T08:39:56.000Z</time>
      </trkpt>
      <trkpt lat="47.31095" lon="4.95393">
        <ele>474.1</ele>
        <time>2013-02-09T08:39:57.000Z</time>
      </trkpt>
      <trkpt lat="47.31092" lon="4.95393">
        <ele>473.2</ele>
        <time>2013-02-09T08:39:58.000Z</time>
      </trkpt>
      <trkpt lat="47.3109" lon="4.95394">
        <ele>473.3</ele>
        <time>2013-02-09T08:39:59.000Z</time>
      </trkpt>
      <trkpt lat="47.31087" lon="4.95393">
        <ele>473.3</ele>
        <time>2013-02-09T08:40:00.000Z</time>
      </trkpt>
      <trkpt lat="47.31085" lon="4.95393">
        <ele>474</ele>
        <time>2013-02-09T08:40:01.000Z</time>
      </trkpt>
      <trkpt lat="47.31081" lon="4.95392">
        <ele>474.2</ele>
        <time>2013-02-09T08:40:03.000Z</time>
      </trkpt>
      <trkpt lat="47.31079" lon="4.95392">
        <ele>474.4</ele>
        <time>2013-02-09T08:40:04.000Z</time>
      </trkpt>
      <trkpt lat="47.31075" lon="4.95389">
        <ele>475.5</ele>
        <time>2013-02-09T08:40:07.000Z</time>
      </trkpt>
      <trkpt lat="47.31074" lon="4.95388">
        <ele>475.2</ele>
        <time>2013-02-09T08:40:08.000Z</time>
      </trkpt>
      <trkpt lat="47.31069" lon="4.95388">
        <ele>474.6</ele>
        <time>2013-02-09T08:40:10.000Z</time>
      </trkpt>
      <trkpt lat="47.31067" lon="4.95387">
        <ele>474.6</ele>
        <time>2013-02-09T08:40:11.000Z</time>
      </trkpt>
      <trkpt lat="47.31064" lon="4.95385">
        <ele>476</ele>
        <time>2013-02-09T08:40:13.000Z</time>
      </trkpt>
      <trkpt lat="47.31063" lon="4.95384">
        <ele>477</ele>
        <time>2013-02-09T08:40:14.000Z</time>
      </trkpt>
      <trkpt lat="47.3106" lon="4.95379">
        <ele>476.8</ele>
        <time>2013-02-09T08:40:16.000Z</time>
      </trkpt>
      <trkpt lat="47.31059" lon="4.95377">
        <ele>476</ele>
        <time>2013-02-09T08:40:17.000Z</time>
      </trkpt>
      <trkpt lat="47.31056" lon="4.95372">
        <ele>474.6</ele>
        <time>2013-02-09T08:40:19.000Z</time>
      </trkpt>
      <trkpt lat="47.31055" lon="4.9537">
        <ele>474.1</ele>
        <time>2013-02-09T08:40:20.000Z</time>
      </trkpt>
      <trkpt lat="47.31052" lon="4.95366">
        <ele>474.3</ele>
        <time>2013-02-09T08:40:22.000Z</time>
      </trkpt>
      <trkpt lat="47.31051" lon="4.95364">
        <ele>474.2</ele>
        <time>2013-02-09T08:40:23.000Z</time>
      </trkpt>
      <trkpt lat="47.31049" lon="4.9536">
        <ele>473.7</ele>
        <time>2013-02-09T08:40:25.000Z</time>
      </trkpt>
      <trkpt lat="47.31047" lon="4.95359">
        <ele>473</ele>
        <time>2013-02-09T08:40:26.000Z</time>
      </trkpt>
      <trkpt lat="47.31045" lon="4.95355">
        <ele>472.1</ele>
        <time>2013-02-09T08:40:28.000Z</time>
      </trkpt>
      <trkpt lat="47.31043" lon="4.95353">
        <ele>471.8</ele>
        <time>2013-02-09T08:40:29.000Z</time>
      </trkpt>
      <trkpt lat="47.3104" lon="4.95349">
        <ele>470.6</ele>
        <time>2013-02-09T08:40:31.000Z</time>
      </trkpt>
      <trkpt lat="47.31038" lon="4.95347">
        <ele>470.2</ele>
        <time>2013-02-09T08:40:32.000Z</time>
      </trkpt>
      <trkpt lat="47.31036" lon="4.95343">
        <ele>469.9</ele>
        <time>2013-02-09T08:40:34.000Z</time>
      </trkpt>
      <trkpt lat="47.31035" lon="4.95342">
        <ele>469.8</ele>
        <time>2013-02-09T08:40:35.000Z</time>
      </trkpt>
      <trkpt lat="47.31034" lon="4.95338">
        <ele>470.2</ele>
        <time>2013-02-09T08:40:37.000Z</time>
      </trkpt>
      <trkpt lat="47.31034" lon="4.95335">
        <ele>470.3</ele>
        <time>2013-02-09T08:40:38.000Z</time>
      </trkpt>
      <trkpt lat="47.31033" lon="4.95331">
        <ele>470.6</ele>
        <time>2013-02-09T08:40:40.000Z</time>
      </trkpt>
      <trkpt lat="47.31032" lon="4.95328">
        <ele>470.7</ele>
        <time>2013-02-09T08:40:41.000Z</time>
      </trkpt>
      <trkpt lat="47.31031" lon="4.95322">
        <ele>471</ele>
        <time>2013-02-09T08:40:43.000Z</time>
      </trkpt>
      <trkpt lat="47.3103" lon="4.95292">
        <ele>468</ele>
        <time>2013-02-09T08:40:50.000Z</time>
      </trkpt>
      <trkpt lat="47.31028" lon="4.95289">
        <ele>468.1</ele>
        <time>2013-02-09T08:40:52.000Z</time>
      </trkpt>
      <trkpt lat="47.31027" lon="4.95286">
        <ele>469.4</ele>
        <time>2013-02-09T08:40:53.000Z</time>
      </trkpt>
      <trkpt lat="47.31024" lon="4.95282">
        <ele>469.6</ele>
        <time>2013-02-09T08:40:56.000Z</time>
      </trkpt>
      <trkpt lat="47.31024" lon="4.95281">
        <ele>469.9</ele>
        <time>2013-02-09T08:40:57.000Z</time>
      </trkpt>
      <trkpt lat="47.31021" lon="4.95276">
        <ele>471.1</ele>
        <time>2013-02-09T08:41:00.000Z</time>
      </trkpt>
      <trkpt lat="47.31021" lon="4.95274">
        <ele>472.1</ele>
        <time>2013-02-09T08:41:01.000Z</time>
      </trkpt>
      <trkpt lat="47.31019" lon="4.9527">
        <ele>473.2</ele>
        <time>2013-02-09T08:41:03.000Z</time>
      </trkpt>
      <trkpt lat="47.31019" lon="4.95268">
        <ele>473.6</ele>
        <time>2013-02-09T08:41:04.000Z</time>
      </trkpt>
      <trkpt lat="47.31017" lon="4.95264">
        <ele>474</ele>
        <time>2013-02-09T08:41:06.000Z</time>
      </trkpt>
      <trkpt lat="47.31016" lon="4.95262">
        <ele>474.8</ele>
        <time>2013-02-09T08:41:07.000Z</time>
      </trkpt>
      <trkpt lat="47.31014" lon="4.95257">
        <ele>475.7</ele>
        <time>2013-02-09T08:41:10.000Z</time>
      </trkpt>
      <trkpt lat="47.31014" lon="4.95256">
        <ele>476.1</ele>
        <time>2013-02-09T08:41:11.000Z</time>
      </trkpt>
      <trkpt lat="47.31012" lon="4.95251">
        <ele>477.6</ele>
        <time>2013-02-09T08:41:15.000Z</time>
      </trkpt>
      <trkpt lat="47.31011" lon="4.95249">
        <ele>477.4</ele>
        <time>2013-02-09T08:41:16.000Z</time>
      </trkpt>
      <trkpt lat="47.31009" lon="4.95243">
        <ele>476.3</ele>
        <time>2013-02-09T08:41:19.000Z</time>
      </trkpt>
      <trkpt lat="47.31008" lon="4.9524">
        <ele>476.1</ele>
        <time>2013-02-09T08:41:20.000Z</time>
      </trkpt>
      <trkpt lat="47.31006" lon="4.95234">
        <ele>475.2</ele>
        <time>2013-02-09T08:41:22.000Z</time>
      </trkpt>
      <trkpt lat="47.31005" lon="4.95232">
        <ele>475.2</ele>
        <time>2013-02-09T08:41:23.000Z</time>
      </trkpt>
      <trkpt lat="47.31003" lon="4.95229">
        <ele>474.9</ele>
        <time>2013-02-09T08:41:25.000Z</time>
      </trkpt>
      <trkpt lat="47.31003" lon="4.95226">
        <ele>474.8</ele>
        <time>2013-02-09T08:41:26.000Z</time>
      </trkpt>
      <trkpt lat="47.31002" lon="4.95222">
        <ele>474.8</ele>
        <time>2013-02-09T08:41:28.000Z</time>
      </trkpt>
      <trkpt lat="47.31001" lon="4.95219">
        <ele>474.7</ele>
        <time>2013-02-09T08:41:29.000Z</time>
      </trkpt>
      <trkpt lat="47.31" lon="4.95214">
        <ele>474.6</ele>
        <time>2013-02-09T08:41:31.000Z</time>
      </trkpt>
      <trkpt lat="47.30999" lon="4.95212">
        <ele>474.7</ele>
        <time>2013-02-09T08:41:32.000Z</time>
      </trkpt>
      <trkpt lat="47.30998" lon="4.95206">
        <ele>474.9</ele>
        <time>2013-02-09T08:41:35.000Z</time>
      </trkpt>
      <trkpt lat="47.30997" lon="4.95205">
        <ele>474.9</ele>
        <time>2013-02-09T08:41:36.000Z</time>
      </trkpt>
      <trkpt lat="47.30995" lon="4.95199">
        <ele>475</ele>
        <time>2013-02-09T08:41:39.000Z</time>
      </trkpt>
      <trkpt lat="47.30995" lon="4.95197">
        <ele>474.8</ele>
        <time>2013-02-09T08:41:40.000Z</time>
      </trkpt>
      <trkpt lat="47.30994" lon="4.95191">
        <ele>474.4</ele>
        <time>2013-02-09T08:41:42.000Z</time>
      </trkpt>
      <trkpt lat="47.30993" lon="4.95188">
        <ele>474.3</ele>
        <time>2013-02-09T08:41:43.000Z</time>
      </trkpt>
      <trkpt lat="47.30984" lon="4.95155">
        <ele>481.4</ele>
        <time>2013-02-09T08:41:52.000Z</time>
      </trkpt>
      <trkpt lat="47.30986" lon="4.9515">
        <ele>481.6</ele>
        <time>2013-02-09T08:41:55.000Z</time>
      </trkpt>
      <trkpt lat="47.30986" lon="4.95148">
        <ele>482.1</ele>
        <time>2013-02-09T08:41:56.000Z</time>
      </trkpt>
      <trkpt lat="47.30986" lon="4.95142">
        <ele>482.3</ele>
        <time>2013-02-09T08:41:59.000Z</time>
      </trkpt>
      <trkpt lat="47.30986" lon="4.95141">
        <ele>481.8</ele>
        <time>2013-02-09T08:42:00.000Z</time>
      </trkpt>
      <trkpt lat="47.30985" lon="4.95135">
        <ele>482.7</ele>
        <time>2013-02-09T08:42:02.000Z</time>
      </trkpt>
      <trkpt lat="47.30984" lon="4.95133">
        <ele>483.6</ele>
        <time>2013-02-09T08:42:03.000Z</time>
      </trkpt>
      <trkpt lat="47.30982" lon="4.9513">
        <ele>486.1</ele>
        <time>2013-02-09T08:42:05.000Z</time>
      </trkpt>
      <trkpt lat="47.30981" lon="4.95127">
        <ele>486.5</ele>
        <time>2013-02-09T08:42:06.000Z</time>
      </trkpt>
      <trkpt lat="47.3098" lon="4.95124">
        <ele>487.7</ele>
        <time>2013-02-09T08:42:08.000Z</time>
      </trkpt>
      <trkpt lat="47.30979" lon="4.95121">
        <ele>488</ele>
        <time>2013-02-09T08:42:09.000Z</time>
      </trkpt>
      <trkpt lat="47.30977" lon="4.95115">
        <ele>488.8</ele>
        <time>2013-02-09T08:42:11.000Z</time>
      </trkpt>
      <trkpt lat="47.30977" lon="4.95113">
        <ele>489</ele>
        <time>2013-02-09T08:42:12.000Z</time>
      </trkpt>
      <trkpt lat="47.30975" lon="4.95108">
        <ele>489.8</ele>
        <time>2013-02-09T08:42:14.000Z</time>
      </trkpt>
      <trkpt lat="47.30975" lon="4.95105">
        <ele>489.8</ele>
        <time>2013-02-09T08:42:15.000Z</time>
      </trkpt>
      <trkpt lat="47.30975" lon="4.95098">
        <ele>487.8</ele>
        <time>2013-02-09T08:42:19.000Z</time>
      </trkpt>
      <trkpt lat="47.30974" lon="4.95097">
        <ele>487.4</ele>
        <time>2013-02-09T08:42:20.000Z</time>
      </trkpt>
      <trkpt lat="47.30973" lon="4.95091">
        <ele>486.6</ele>
        <time>2013-02-09T08:42:23.000Z</time>
      </trkpt>
      <trkpt lat="47.30972" lon="4.95089">
        <ele>486.2</ele>
        <time>2013-02-09T08:42:24.000Z</time>
      </trkpt>
      <trkpt lat="47.30971" lon="4.95084">
        <ele>485.8</ele>
        <time>2013-02-09T08:42:26.000Z</time>
      </trkpt>
      <trkpt lat="47.3097" lon="4.95081">
        <ele>485.7</ele>
        <time>2013-02-09T08:42:27.000Z</time>
      </trkpt>
      <trkpt lat="47.30968" lon="4.95075">
        <ele>485.5</ele>
        <time>2013-02-09T08:42:29.000Z</time>
      </trkpt>
      <trkpt lat="47.30968" lon="4.95072">
        <ele>485.5</ele>
        <time>2013-02-09T08:42:30.000Z</time>
      </trkpt>
      <trkpt lat="47.30968" lon="4.95066">
        <ele>485.2</ele>
        <time>2013-02-09T08:42:32.000Z</time>
      </trkpt>
      <trkpt lat="47.30967" lon="4.95064">
        <ele>485</ele>
        <time>2013-02-09T08:42:33.000Z</time>
      </trkpt>
      <trkpt lat="47.30967" lon="4.95058">
        <ele>484.7</ele>
        <time>2013-02-09T08:42:35.000Z</time>
      </trkpt>
      <trkpt lat="47.30966" lon="4.95055">
        <ele>484.6</ele>
        <time>2013-02-09T08:42:36.000Z</time>
      </trkpt>
      <trkpt lat="47.30966" lon="4.95049">
        <ele>484</ele>
        <time>2013-02-09T08:42:38.000Z</time>
      </trkpt>
      <trkpt lat="47.30966" lon="4.95046">
        <ele>483.8</ele>
        <time>2013-02-09T08:42:39.000Z</time>
      </trkpt>
      <trkpt lat="47.30965" lon="4.95041">
        <ele>483.6</ele>
        <time>2013-02-09T08:42:41.000Z</time>
      </trkpt>
      <trkpt lat="47.30965" lon="4.95038">
        <ele>483.5</ele>
        <time>2013-02-09T08:42:42.000Z</time>
      </trkpt>
      <trkpt lat="47.30965" lon="4.95033">
        <ele>483.2</ele>
        <time>2013-02-09T08:42:44.000Z</time>
      </trkpt>
      <trkpt lat="47.30965" lon="4.95031">
        <ele>483.2</ele>
        <time>2013-02-09T08:42:45.000Z</time>
      </trkpt>
      <trkpt lat="47.30964" lon="4.95024">
        <ele>483.1</ele>
        <time>2013-02-09T08:42:47.000Z</time>
      </trkpt>
      <trkpt lat="47.30963" lon="4.95022">
        <ele>483.1</ele>
        <time>2013-02-09T08:42:48.000Z</time>
      </trkpt>
      <trkpt lat="47.30962" lon="4.95016">
        <ele>483.3</ele>
        <time>2013-02-09T08:42:50.000Z</time>
      </trkpt>
      <trkpt lat="47.30961" lon="4.95013">
        <ele>483.2</ele>
        <time>2013-02-09T08:42:51.000Z</time>
      </trkpt>
      <trkpt lat="47.30961" lon="4.95009">
        <ele>483.2</ele>
        <time>2013-02-09T08:42:52.000Z</time>
      </trkpt>
      <trkpt lat="47.30961" lon="4.95006">
        <ele>483.2</ele>
        <time>2013-02-09T08:42:53.000Z</time>
      </trkpt>
      <trkpt lat="47.30961" lon="4.95002">
        <ele>483.1</ele>
        <time>2013-02-09T08:42:54.000Z</time>
      </trkpt>
      <trkpt lat="47.30961" lon="4.94999">
        <ele>483</ele>
        <time>2013-02-09T08:42:55.000Z</time>
      </trkpt>
      <trkpt lat="47.30961" lon="4.94995">
        <ele>482.9</ele>
        <time>2013-02-09T08:42:56.000Z</time>
      </trkpt>
      <trkpt lat="47.30961" lon="4.94992">
        <ele>482.8</ele>
        <time>2013-02-09T08:42:57.000Z</time>
      </trkpt>
      <trkpt lat="47.30961" lon="4.94989">
        <ele>482.7</ele>
        <time>2013-02-09T08:42:58.000Z</time>
      </trkpt>
      <trkpt lat="47.30961" lon="4.94985">
        <ele>482.4</ele>
        <time>2013-02-09T08:42:59.000Z</time>
      </trkpt>
      <trkpt lat="47.30961" lon="4.94979">
        <ele>482.3</ele>
        <time>2013-02-09T08:43:01.000Z</time>
      </trkpt>
      <trkpt lat="47.30961" lon="4.94976">
        <ele>482.4</ele>
        <time>2013-02-09T08:43:02.000Z</time>
      </trkpt>
      <trkpt lat="47.30962" lon="4.9497">
        <ele>482.3</ele>
        <time>2013-02-09T08:43:04.000Z</time>
      </trkpt>
      <trkpt lat="47.30962" lon="4.94967">
        <ele>482.3</ele>
        <time>2013-02-09T08:43:05.000Z</time>
      </trkpt>
      <trkpt lat="47.30963" lon="4.94961">
        <ele>482.4</ele>
        <time>2013-02-09T08:43:07.000Z</time>
      </trkpt>
      <trkpt lat="47.30963" lon="4.94958">
        <ele>482.3</ele>
        <time>2013-02-09T08:43:08.000Z</time>
      </trkpt>
      <trkpt lat="47.30962" lon="4.94951">
        <ele>482</ele>
        <time>2013-02-09T08:43:10.000Z</time>
      </trkpt>
      <trkpt lat="47.30961" lon="4.94947">
        <ele>481.7</ele>
        <time>2013-02-09T08:43:11.000Z</time>
      </trkpt>
      <trkpt lat="47.30961" lon="4.94942">
        <ele>481.4</ele>
        <time>2013-02-09T08:43:12.000Z</time>
      </trkpt>
      <trkpt lat="47.30961" lon="4.94938">
        <ele>481.3</ele>
        <time>2013-02-09T08:43:13.000Z</time>
      </trkpt>
      <trkpt lat="47.30962" lon="4.94935">
        <ele>481</ele>
        <time>2013-02-09T08:43:14.000Z</time>
      </trkpt>
      <trkpt lat="47.30962" lon="4.94932">
        <ele>480.7</ele>
        <time>2013-02-09T08:43:15.000Z</time>
      </trkpt>
      <trkpt lat="47.30963" lon="4.94929">
        <ele>480.6</ele>
        <time>2013-02-09T08:43:16.000Z</time>
      </trkpt>
      <trkpt lat="47.30965" lon="4.94925">
        <ele>480.8</ele>
        <time>2013-02-09T08:43:17.000Z</time>
      </trkpt>
      <trkpt lat="47.30965" lon="4.94921">
        <ele>480.7</ele>
        <time>2013-02-09T08:43:18.000Z</time>
      </trkpt>
      <trkpt lat="47.30966" lon="4.94916">
        <ele>480.6</ele>
        <time>2013-02-09T08:43:19.000Z</time>
      </trkpt>
      <trkpt lat="47.30966" lon="4.94912">
        <ele>480.6</ele>
        <time>2013-02-09T08:43:20.000Z</time>
      </trkpt>
      <trkpt lat="47.30966" lon="4.94908">
        <ele>480.4</ele>
        <time>2013-02-09T08:43:21.000Z</time>
      </trkpt>
      <trkpt lat="47.30967" lon="4.94905">
        <ele>480.3</ele>
        <time>2013-02-09T08:43:22.000Z</time>
      </trkpt>
      <trkpt lat="47.30968" lon="4.94902">
        <ele>480.2</ele>
        <time>2013-02-09T08:43:23.000Z</time>
      </trkpt>
      <trkpt lat="47.30969" lon="4.94896">
        <ele>479.9</ele>
        <time>2013-02-09T08:43:25.000Z</time>
      </trkpt>
      <trkpt lat="47.3097" lon="4.94893">
        <ele>479.9</ele>
        <time>2013-02-09T08:43:26.000Z</time>
      </trkpt>
      <trkpt lat="47.30971" lon="4.94887">
        <ele>480</ele>
        <time>2013-02-09T08:43:28.000Z</time>
      </trkpt>
      <trkpt lat="47.30971" lon="4.94884">
        <ele>479.9</ele>
        <time>2013-02-09T08:43:29.000Z</time>
      </trkpt>
      <trkpt lat="47.30972" lon="4.94877">
        <ele>479.7</ele>
        <time>2013-02-09T08:43:31.000Z</time>
      </trkpt>
      <trkpt lat="47.30973" lon="4.94874">
        <ele>479.6</ele>
        <time>2013-02-09T08:43:32.000Z</time>
      </trkpt>
      <trkpt lat="47.30973" lon="4.94871">
        <ele>479.5</ele>
        <time>2013-02-09T08:43:33.000Z</time>
      </trkpt>
      <trkpt lat="47.30974" lon="4.94868">
        <ele>479.3</ele>
        <time>2013-02-09T08:43:34.000Z</time>
      </trkpt>
      <trkpt lat="47.30975" lon="4.94862">
        <ele>479.1</ele>
        <time>2013-02-09T08:43:36.000Z</time>
      </trkpt>
      <trkpt lat="47.30976" lon="4.94859">
        <ele>479.1</ele>
        <time>2013-02-09T08:43:37.000Z</time>
      </trkpt>
      <trkpt lat="47.30977" lon="4.94853">
        <ele>479</ele>
        <time>2013-02-09T08:43:39.000Z</time>
      </trkpt>
      <trkpt lat="47.30978" lon="4.9485">
        <ele>478.8</ele>
        <time>2013-02-09T08:43:40.000Z</time>
      </trkpt>
      <trkpt lat="47.30979" lon="4.94845">
        <ele>478.4</ele>
        <time>2013-02-09T08:43:42.000Z</time>
      </trkpt>
      <trkpt lat="47.3098" lon="4.94843">
        <ele>478.1</ele>
        <time>2013-02-09T08:43:43.000Z</time>
      </trkpt>
      <trkpt lat="47.30984" lon="4.94813">
        <ele>480.4</ele>
        <time>2013-02-09T08:43:52.000Z</time>
      </trkpt>
      <trkpt lat="47.30986" lon="4.9481">
        <ele>478.9</ele>
        <time>2013-02-09T08:43:54.000Z</time>
      </trkpt>
      <trkpt lat="47.30987" lon="4.94807">
        <ele>478.1</ele>
        <time>2013-02-09T08:43:55.000Z</time>
      </trkpt>
      <trkpt lat="47.30988" lon="4.94802">
        <ele>476.2</ele>
        <time>2013-02-09T08:43:57.000Z</time>
      </trkpt>
      <trkpt lat="47.30989" lon="4.948">
        <ele>475.7</ele>
        <time>2013-02-09T08:43:58.000Z</time>
      </trkpt>
      <trkpt lat="47.3099" lon="4.94794">
        <ele>475</ele>
        <time>2013-02-09T08:44:01.000Z</time>
      </trkpt>
      <trkpt lat="47.3099" lon="4.94793">
        <ele>475.6</ele>
        <time>2013-02-09T08:44:02.000Z</time>
      </trkpt>
      <trkpt lat="47.30989" lon="4.94788">
        <ele>475.6</ele>
        <time>2013-02-09T08:44:05.000Z</time>
      </trkpt>
      <trkpt lat="47.30989" lon="4.94786">
        <ele>475.9</ele>
        <time>2013-02-09T08:44:06.000Z</time>
      </trkpt>
      <trkpt lat="47.30989" lon="4.9478">
        <ele>475.6</ele>
        <time>2013-02-09T08:44:09.000Z</time>
      </trkpt>
      <trkpt lat="47.30989" lon="4.94778">
        <ele>476</ele>
        <time>2013-02-09T08:44:10.000Z</time>
      </trkpt>
      <trkpt lat="47.30989" lon="4.94772">
        <ele>476.2</ele>
        <time>2013-02-09T08:44:13.000Z</time>
      </trkpt>
      <trkpt lat="47.30989" lon="4.94771">
        <ele>475.8</ele>
        <time>2013-02-09T08:44:14.000Z</time>
      </trkpt>
      <trkpt lat="47.30991" lon="4.94765">
        <ele>474.4</ele>
        <time>2013-02-09T08:44:25.000Z</time>
      </trkpt>
      <trkpt lat="47.30991" lon="4.94765">
        <ele>473.1</ele>
        <time>2013-02-09T08:44:26.000Z</time>
      </trkpt>
      <trkpt lat="47.30991" lon="4.94764">
        <ele>473.1</ele>
        <time>2013-02-09T08:44:38.000Z</time>
      </trkpt>
      <trkpt lat="47.30996" lon="4.94759">
        <ele>468.2</ele>
        <time>2013-02-09T08:44:39.000Z</time>
      </trkpt>
      <trkpt lat="47.30995" lon="4.94759">
        <ele>468</ele>
        <time>2013-02-09T08:44:43.000Z</time>
      </trkpt>
      <trkpt lat="47.30977" lon="4.94767">
        <ele>463.2</ele>
        <time>2013-02-09T08:44:57.000Z</time>
      </trkpt>
      <trkpt lat="47.30975" lon="4.94772">
        <ele>460.5</ele>
        <time>2013-02-09T08:45:03.000Z</time>
      </trkpt>
      <trkpt lat="47.30974" lon="4.94773">
        <ele>460.1</ele>
        <time>2013-02-09T08:45:04.000Z</time>
      </trkpt>
      <trkpt lat="47.30971" lon="4.94777">
        <ele>459.9</ele>
        <time>2013-02-09T08:45:09.000Z</time>
      </trkpt>
      <trkpt lat="47.3097" lon="4.94778">
        <ele>460.1</ele>
        <time>2013-02-09T08:45:10.000Z</time>
      </trkpt>
      <trkpt lat="47.30967" lon="4.94779">
        <ele>461</ele>
        <time>2013-02-09T08:45:12.000Z</time>
      </trkpt>
      <trkpt lat="47.30965" lon="4.9478">
        <ele>460.2</ele>
        <time>2013-02-09T08:45:13.000Z</time>
      </trkpt>
      <trkpt lat="47.30963" lon="4.94783">
        <ele>460.2</ele>
        <time>2013-02-09T08:45:28.000Z</time>
      </trkpt>
      <trkpt lat="47.30962" lon="4.94785">
        <ele>460.1</ele>
        <time>2013-02-09T08:45:29.000Z</time>
      </trkpt>
      <trkpt lat="47.3096" lon="4.9479">
        <ele>460.1</ele>
        <time>2013-02-09T08:45:33.000Z</time>
      </trkpt>
      <trkpt lat="47.30959" lon="4.94791">
        <ele>460.2</ele>
        <time>2013-02-09T08:45:34.000Z</time>
      </trkpt>
      <trkpt lat="47.30957" lon="4.94797">
        <ele>460.8</ele>
        <time>2013-02-09T08:45:40.000Z</time>
      </trkpt>
      <trkpt lat="47.30957" lon="4.94798">
        <ele>460.8</ele>
        <time>2013-02-09T08:45:41.000Z</time>
      </trkpt>
      <trkpt lat="47.30957" lon="4.94801">
        <ele>460.8</ele>
        <time>2013-02-09T08:45:43.000Z</time>
      </trkpt>
      <trkpt lat="47.3096" lon="4.94819">
        <ele>456.4</ele>
        <time>2013-02-09T08:45:53.000Z</time>
      </trkpt>
      <trkpt lat="47.30955" lon="4.94821">
        <ele>461.5</ele>
        <time>2013-02-09T08:46:03.000Z</time>
      </trkpt>
      <trkpt lat="47.30955" lon="4.94823">
        <ele>461.7</ele>
        <time>2013-02-09T08:46:04.000Z</time>
      </trkpt>
      <trkpt lat="47.30954" lon="4.94828">
        <ele>462</ele>
        <time>2013-02-09T08:46:07.000Z</time>
      </trkpt>
      <trkpt lat="47.30953" lon="4.94829">
        <ele>461</ele>
        <time>2013-02-09T08:46:08.000Z</time>
      </trkpt>
      <trkpt lat="47.30951" lon="4.94835">
        <ele>460.5</ele>
        <time>2013-02-09T08:46:12.000Z</time>
      </trkpt>
      <trkpt lat="47.30951" lon="4.94836">
        <ele>461.3</ele>
        <time>2013-02-09T08:46:13.000Z</time>
      </trkpt>
      <trkpt lat="47.30949" lon="4.94841">
        <ele>460.5</ele>
        <time>2013-02-09T08:46:17.000Z</time>
      </trkpt>
      <trkpt lat="47.30948" lon="4.94842">
        <ele>460.2</ele>
        <time>2013-02-09T08:46:18.000Z</time>
      </trkpt>
      <trkpt lat="47.30948" lon="4.94847">
        <ele>459.3</ele>
        <time>2013-02-09T08:46:20.000Z</time>
      </trkpt>
      <trkpt lat="47.30948" lon="4.9485">
        <ele>458</ele>
        <time>2013-02-09T08:46:21.000Z</time>
      </trkpt>
      <trkpt lat="47.30947" lon="4.94856">
        <ele>455.9</ele>
        <time>2013-02-09T08:46:24.000Z</time>
      </trkpt>
      <trkpt lat="47.30947" lon="4.94857">
        <ele>456.1</ele>
        <time>2013-02-09T08:46:25.000Z</time>
      </trkpt>
      <trkpt lat="47.30946" lon="4.94862">
        <ele>456.4</ele>
        <time>2013-02-09T08:46:29.000Z</time>
      </trkpt>
      <trkpt lat="47.30945" lon="4.94864">
        <ele>456.4</ele>
        <time>2013-02-09T08:46:30.000Z</time>
      </trkpt>
      <trkpt lat="47.30943" lon="4.94869">
        <ele>456.7</ele>
        <time>2013-02-09T08:46:34.000Z</time>
      </trkpt>
      <trkpt lat="47.30943" lon="4.94871">
        <ele>456.6</ele>
        <time>2013-02-09T08:46:35.000Z</time>
      </trkpt>
      <trkpt lat="47.30942" lon="4.94877">
        <ele>456.4</ele>
        <time>2013-02-09T08:46:39.000Z</time>
      </trkpt>
      <trkpt lat="47.30941" lon="4.94877">
        <ele>456.3</ele>
        <time>2013-02-09T08:46:40.000Z</time>
      </trkpt>
      <trkpt lat="47.3094" lon="4.94881">
        <ele>456.7</ele>
        <time>2013-02-09T08:46:43.000Z</time>
      </trkpt>
      <trkpt lat="47.30929" lon="4.94914">
        <ele>466.3</ele>
        <time>2013-02-09T08:46:53.000Z</time>
      </trkpt>
      <trkpt lat="47.30926" lon="4.94918">
        <ele>464.3</ele>
        <time>2013-02-09T08:46:57.000Z</time>
      </trkpt>
      <trkpt lat="47.30925" lon="4.94921">
        <ele>463.8</ele>
        <time>2013-02-09T08:46:58.000Z</time>
      </trkpt>
      <trkpt lat="47.30924" lon="4.94926">
        <ele>462.1</ele>
        <time>2013-02-09T08:47:01.000Z</time>
      </trkpt>
      <trkpt lat="47.30924" lon="4.94928">
        <ele>461.7</ele>
        <time>2013-02-09T08:47:02.000Z</time>
      </trkpt>
      <trkpt lat="47.30923" lon="4.94934">
        <ele>462.5</ele>
        <time>2013-02-09T08:47:06.000Z</time>
      </trkpt>
      <trkpt lat="47.30923" lon="4.94936">
        <ele>462.3</ele>
        <time>2013-02-09T08:47:07.000Z</time>
      </trkpt>
      <trkpt lat="47.30923" lon="4.94941">
        <ele>463.1</ele>
        <time>2013-02-09T08:47:10.000Z</time>
      </trkpt>
      <trkpt lat="47.30922" lon="4.94943">
        <ele>463.7</ele>
        <time>2013-02-09T08:47:11.000Z</time>
      </trkpt>
      <trkpt lat="47.30921" lon="4.94949">
        <ele>464.2</ele>
        <time>2013-02-09T08:47:14.000Z</time>
      </trkpt>
      <trkpt lat="47.30921" lon="4.94951">
        <ele>463.4</ele>
        <time>2013-02-09T08:47:15.000Z</time>
      </trkpt>
      <trkpt lat="47.30918" lon="4.94956">
        <ele>462.3</ele>
        <time>2013-02-09T08:47:18.000Z</time>
      </trkpt>
      <trkpt lat="47.30918" lon="4.94958">
        <ele>462.2</ele>
        <time>2013-02-09T08:47:19.000Z</time>
      </trkpt>
      <trkpt lat="47.30918" lon="4.94962">
        <ele>461.6</ele>
        <time>2013-02-09T08:47:21.000Z</time>
      </trkpt>
      <trkpt lat="47.30917" lon="4.94965">
        <ele>461.3</ele>
        <time>2013-02-09T08:47:22.000Z</time>
      </trkpt>
      <trkpt lat="47.30916" lon="4.94969">
        <ele>461.1</ele>
        <time>2013-02-09T08:47:24.000Z</time>
      </trkpt>
      <trkpt lat="47.30916" lon="4.94971">
        <ele>461</ele>
        <time>2013-02-09T08:47:25.000Z</time>
      </trkpt>
      <trkpt lat="47.30915" lon="4.94977">
        <ele>460.3</ele>
        <time>2013-02-09T08:47:28.000Z</time>
      </trkpt>
      <trkpt lat="47.30915" lon="4.9498">
        <ele>459.9</ele>
        <time>2013-02-09T08:47:29.000Z</time>
      </trkpt>
      <trkpt lat="47.30914" lon="4.94985">
        <ele>459</ele>
        <time>2013-02-09T08:47:31.000Z</time>
      </trkpt>
      <trkpt lat="47.30914" lon="4.94988">
        <ele>458</ele>
        <time>2013-02-09T08:47:32.000Z</time>
      </trkpt>
      <trkpt lat="47.30915" lon="4.94992">
        <ele>456.3</ele>
        <time>2013-02-09T08:47:35.000Z</time>
      </trkpt>
      <trkpt lat="47.30915" lon="4.94995">
        <ele>454.6</ele>
        <time>2013-02-09T08:47:36.000Z</time>
      </trkpt>
      <trkpt lat="47.30915" lon="4.94998">
        <ele>453.6</ele>
        <time>2013-02-09T08:47:40.000Z</time>
      </trkpt>
      <trkpt lat="47.30909" lon="4.95007">
        <ele>447.5</ele>
        <time>2013-02-09T08:47:41.000Z</time>
      </trkpt>
      <trkpt lat="47.30909" lon="4.95007">
        <ele>447.5</ele>
        <time>2013-02-09T08:47:43.000Z</time>
      </trkpt>
      <trkpt lat="47.3092" lon="4.95007">
        <ele>440.4</ele>
        <time>2013-02-09T08:47:53.000Z</time>
      </trkpt>
      <trkpt lat="47.30919" lon="4.95013">
        <ele>439.5</ele>
        <time>2013-02-09T08:47:57.000Z</time>
      </trkpt>
      <trkpt lat="47.30918" lon="4.95015">
        <ele>439.8</ele>
        <time>2013-02-09T08:47:58.000Z</time>
      </trkpt>
      <trkpt lat="47.30918" lon="4.95021">
        <ele>443.4</ele>
        <time>2013-02-09T08:48:02.000Z</time>
      </trkpt>
      <trkpt lat="47.30919" lon="4.95022">
        <ele>444.9</ele>
        <time>2013-02-09T08:48:03.000Z</time>
      </trkpt>
      <trkpt lat="47.30919" lon="4.95028">
        <ele>449</ele>
        <time>2013-02-09T08:48:07.000Z</time>
      </trkpt>
      <trkpt lat="47.30919" lon="4.9503">
        <ele>449.3</ele>
        <time>2013-02-09T08:48:08.000Z</time>
      </trkpt>
      <trkpt lat="47.3092" lon="4.95036">
        <ele>451.7</ele>
        <time>2013-02-09T08:48:11.000Z</time>
      </trkpt>
      <trkpt lat="47.3092" lon="4.95038">
        <ele>452.9</ele>
        <time>2013-02-09T08:48:12.000Z</time>
      </trkpt>
      <trkpt lat="47.30922" lon="4.95042">
        <ele>454.1</ele>
        <time>2013-02-09T08:48:14.000Z</time>
      </trkpt>
      <trkpt lat="47.30923" lon="4.95044">
        <ele>453.7</ele>
        <time>2013-02-09T08:48:15.000Z</time>
      </trkpt>
      <trkpt lat="47.30924" lon="4.95049">
        <ele>452</ele>
        <time>2013-02-09T08:48:17.000Z</time>
      </trkpt>
      <trkpt lat="47.30925" lon="4.95051">
        <ele>451.8</ele>
        <time>2013-02-09T08:48:18.000Z</time>
      </trkpt>
      <trkpt lat="47.30924" lon="4.95057">
        <ele>451.2</ele>
        <time>2013-02-09T08:48:21.000Z</time>
      </trkpt>
      <trkpt lat="47.30924" lon="4.95059">
        <ele>451.2</ele>
        <time>2013-02-09T08:48:22.000Z</time>
      </trkpt>
      <trkpt lat="47.30925" lon="4.95064">
        <ele>450.8</ele>
        <time>2013-02-09T08:48:24.000Z</time>
      </trkpt>
      <trkpt lat="47.30925" lon="4.95066">
        <ele>450.7</ele>
        <time>2013-02-09T08:48:25.000Z</time>
      </trkpt>
      <trkpt lat="47.30925" lon="4.95071">
        <ele>450.2</ele>
        <time>2013-02-09T08:48:27.000Z</time>
      </trkpt>
      <trkpt lat="47.30924" lon="4.95073">
        <ele>450.1</ele>
        <time>2013-02-09T08:48:28.000Z</time>
      </trkpt>
      <trkpt lat="47.30925" lon="4.95078">
        <ele>449.9</ele>
        <time>2013-02-09T08:48:30.000Z</time>
      </trkpt>
      <trkpt lat="47.30926" lon="4.95082">
        <ele>449.9</ele>
        <time>2013-02-09T08:48:31.000Z</time>
      </trkpt>
      <trkpt lat="47.30926" lon="4.95085">
        <ele>449.7</ele>
        <time>2013-02-09T08:48:32.000Z</time>
      </trkpt>
      <trkpt lat="47.30926" lon="4.95089">
        <ele>449.6</ele>
        <time>2013-02-09T08:48:33.000Z</time>
      </trkpt>
      <trkpt lat="47.30927" lon="4.95092">
        <ele>449.5</ele>
        <time>2013-02-09T08:48:34.000Z</time>
      </trkpt>
      <trkpt lat="47.30927" lon="4.95096">
        <ele>449.4</ele>
        <time>2013-02-09T08:48:35.000Z</time>
      </trkpt>
      <trkpt lat="47.30928" lon="4.95099">
        <ele>449.2</ele>
        <time>2013-02-09T08:48:36.000Z</time>
      </trkpt>
      <trkpt lat="47.30929" lon="4.95103">
        <ele>449.2</ele>
        <time>2013-02-09T08:48:37.000Z</time>
      </trkpt>
      <trkpt lat="47.30929" lon="4.95107">
        <ele>449.4</ele>
        <time>2013-02-09T08:48:38.000Z</time>
      </trkpt>
      <trkpt lat="47.30929" lon="4.95111">
        <ele>449.2</ele>
        <time>2013-02-09T08:48:39.000Z</time>
      </trkpt>
      <trkpt lat="47.3093" lon="4.95117">
        <ele>448.7</ele>
        <time>2013-02-09T08:48:41.000Z</time>
      </trkpt>
      <trkpt lat="47.3093" lon="4.9512">
        <ele>448.5</ele>
        <time>2013-02-09T08:48:42.000Z</time>
      </trkpt>
      <trkpt lat="47.30931" lon="4.95123">
        <ele>448.3</ele>
        <time>2013-02-09T08:48:43.000Z</time>
      </trkpt>
      <trkpt lat="47.30931" lon="4.95155">
        <ele>450</ele>
        <time>2013-02-09T08:48:52.000Z</time>
      </trkpt>
      <trkpt lat="47.30931" lon="4.95157">
        <ele>448.1</ele>
        <time>2013-02-09T08:48:53.000Z</time>
      </trkpt>
      <trkpt lat="47.30933" lon="4.95161">
        <ele>446.7</ele>
        <time>2013-02-09T08:48:54.000Z</time>
      </trkpt>
      <trkpt lat="47.30934" lon="4.95165">
        <ele>445.3</ele>
        <time>2013-02-09T08:48:56.000Z</time>
      </trkpt>
      <trkpt lat="47.30934" lon="4.95168">
        <ele>445.2</ele>
        <time>2013-02-09T08:48:57.000Z</time>
      </trkpt>
      <trkpt lat="47.30935" lon="4.95174">
        <ele>444.7</ele>
        <time>2013-02-09T08:48:59.000Z</time>
      </trkpt>
      <trkpt lat="47.30935" lon="4.95175">
        <ele>444.5</ele>
        <time>2013-02-09T08:49:00.000Z</time>
      </trkpt>
      <trkpt lat="47.30936" lon="4.95179">
        <ele>443.7</ele>
        <time>2013-02-09T08:49:01.000Z</time>
      </trkpt>
      <trkpt lat="47.30936" lon="4.95183">
        <ele>441.9</ele>
        <time>2013-02-09T08:49:02.000Z</time>
      </trkpt>
      <trkpt lat="47.30938" lon="4.95189">
        <ele>440.8</ele>
        <time>2013-02-09T08:49:04.000Z</time>
      </trkpt>
      <trkpt lat="47.30938" lon="4.95193">
        <ele>439.8</ele>
        <time>2013-02-09T08:49:05.000Z</time>
      </trkpt>
      <trkpt lat="47.3094" lon="4.95198">
        <ele>440.4</ele>
        <time>2013-02-09T08:49:07.000Z</time>
      </trkpt>
      <trkpt lat="47.30941" lon="4.95202">
        <ele>440.2</ele>
        <time>2013-02-09T08:49:08.000Z</time>
      </trkpt>
      <trkpt lat="47.30942" lon="4.95208">
        <ele>440.3</ele>
        <time>2013-02-09T08:49:10.000Z</time>
      </trkpt>
      <trkpt lat="47.30943" lon="4.95212">
        <ele>440.1</ele>
        <time>2013-02-09T08:49:11.000Z</time>
      </trkpt>
      <trkpt lat="47.30944" lon="4.95218">
        <ele>440.7</ele>
        <time>2013-02-09T08:49:13.000Z</time>
      </trkpt>
      <trkpt lat="47.30944" lon="4.9522">
        <ele>441.5</ele>
        <time>2013-02-09T08:49:14.000Z</time>
      </trkpt>
      <trkpt lat="47.30945" lon="4.95226">
        <ele>442.3</ele>
        <time>2013-02-09T08:49:16.000Z</time>
      </trkpt>
      <trkpt lat="47.30945" lon="4.95229">
        <ele>442.3</ele>
        <time>2013-02-09T08:49:17.000Z</time>
      </trkpt>
      <trkpt lat="47.30946" lon="4.95234">
        <ele>443</ele>
        <time>2013-02-09T08:49:19.000Z</time>
      </trkpt>
      <trkpt lat="47.30946" lon="4.95237">
        <ele>443.2</ele>
        <time>2013-02-09T08:49:20.000Z</time>
      </trkpt>
      <trkpt lat="47.30947" lon="4.95242">
        <ele>442.9</ele>
        <time>2013-02-09T08:49:22.000Z</time>
      </trkpt>
      <trkpt lat="47.30948" lon="4.95245">
        <ele>442.5</ele>
        <time>2013-02-09T08:49:23.000Z</time>
      </trkpt>
      <trkpt lat="47.30948" lon="4.95248">
        <ele>442.1</ele>
        <time>2013-02-09T08:49:24.000Z</time>
      </trkpt>
      <trkpt lat="47.30949" lon="4.95252">
        <ele>441.7</ele>
        <time>2013-02-09T08:49:25.000Z</time>
      </trkpt>
      <trkpt lat="47.3095" lon="4.95258">
        <ele>441.1</ele>
        <time>2013-02-09T08:49:27.000Z</time>
      </trkpt>
      <trkpt lat="47.3095" lon="4.95261">
        <ele>441</ele>
        <time>2013-02-09T08:49:28.000Z</time>
      </trkpt>
      <trkpt lat="47.3095" lon="4.95268">
        <ele>440.6</ele>
        <time>2013-02-09T08:49:30.000Z</time>
      </trkpt>
      <trkpt lat="47.3095" lon="4.95271">
        <ele>440.8</ele>
        <time>2013-02-09T08:49:31.000Z</time>
      </trkpt>
      <trkpt lat="47.3095" lon="4.95277">
        <ele>440.9</ele>
        <time>2013-02-09T08:49:33.000Z</time>
      </trkpt>
      <trkpt lat="47.3095" lon="4.9528">
        <ele>440.8</ele>
        <time>2013-02-09T08:49:34.000Z</time>
      </trkpt>
      <trkpt lat="47.3095" lon="4.95287">
        <ele>440.8</ele>
        <time>2013-02-09T08:49:36.000Z</time>
      </trkpt>
      <trkpt lat="47.30951" lon="4.9529">
        <ele>440.8</ele>
        <time>2013-02-09T08:49:37.000Z</time>
      </trkpt>
      <trkpt lat="47.30952" lon="4.95293">
        <ele>440.9</ele>
        <time>2013-02-09T08:49:38.000Z</time>
      </trkpt>
      <trkpt lat="47.30953" lon="4.95296">
        <ele>440.7</ele>
        <time>2013-02-09T08:49:39.000Z</time>
      </trkpt>
      <trkpt lat="47.30954" lon="4.95302">
        <ele>440.4</ele>
        <time>2013-02-09T08:49:41.000Z</time>
      </trkpt>
      <trkpt lat="47.30955" lon="4.95305">
        <ele>440</ele>
        <time>2013-02-09T08:49:42.000Z</time>
      </trkpt>
      <trkpt lat="47.30954" lon="4.95308">
        <ele>440</ele>
        <time>2013-02-09T08:49:43.000Z</time>
      </trkpt>
      <trkpt lat="47.30956" lon="4.95353">
        <ele>432.1</ele>
        <time>2013-02-09T08:49:54.000Z</time>
      </trkpt>
      <trkpt lat="47.30958" lon="4.95356">
        <ele>431.6</ele>
        <time>2013-02-09T08:49:55.000Z</time>
      </trkpt>
      <trkpt lat="47.30958" lon="4.95361">
        <ele>433.7</ele>
        <time>2013-02-09T08:49:57.000Z</time>
      </trkpt>
      <trkpt lat="47.30957" lon="4.95366">
        <ele>434.2</ele>
        <time>2013-02-09T08:50:00.000Z</time>
      </trkpt>
      <trkpt lat="47.30957" lon="4.95368">
        <ele>434</ele>
        <time>2013-02-09T08:50:01.000Z</time>
      </trkpt>
      <trkpt lat="47.30959" lon="4.95372">
        <ele>435.7</ele>
        <time>2013-02-09T08:50:03.000Z</time>
      </trkpt>
      <trkpt lat="47.30959" lon="4.95374">
        <ele>435.9</ele>
        <time>2013-02-09T08:50:04.000Z</time>
      </trkpt>
      <trkpt lat="47.30958" lon="4.95379">
        <ele>437</ele>
        <time>2013-02-09T08:50:06.000Z</time>
      </trkpt>
      <trkpt lat="47.30959" lon="4.95382">
        <ele>437.3</ele>
        <time>2013-02-09T08:50:07.000Z</time>
      </trkpt>
      <trkpt lat="47.30959" lon="4.95388">
        <ele>440.4</ele>
        <time>2013-02-09T08:50:09.000Z</time>
      </trkpt>
      <trkpt lat="47.3096" lon="4.95391">
        <ele>440.7</ele>
        <time>2013-02-09T08:50:10.000Z</time>
      </trkpt>
      <trkpt lat="47.3096" lon="4.95394">
        <ele>441.2</ele>
        <time>2013-02-09T08:50:11.000Z</time>
      </trkpt>
      <trkpt lat="47.3096" lon="4.95398">
        <ele>441.4</ele>
        <time>2013-02-09T08:50:12.000Z</time>
      </trkpt>
      <trkpt lat="47.30961" lon="4.95402">
        <ele>440.7</ele>
        <time>2013-02-09T08:50:13.000Z</time>
      </trkpt>
      <trkpt lat="47.30961" lon="4.95406">
        <ele>440.5</ele>
        <time>2013-02-09T08:50:14.000Z</time>
      </trkpt>
      <trkpt lat="47.30962" lon="4.95409">
        <ele>441.2</ele>
        <time>2013-02-09T08:50:15.000Z</time>
      </trkpt>
      <trkpt lat="47.30963" lon="4.95412">
        <ele>440.1</ele>
        <time>2013-02-09T08:50:16.000Z</time>
      </trkpt>
      <trkpt lat="47.30964" lon="4.95415">
        <ele>440</ele>
        <time>2013-02-09T08:50:17.000Z</time>
      </trkpt>
      <trkpt lat="47.30965" lon="4.95419">
        <ele>440.3</ele>
        <time>2013-02-09T08:50:18.000Z</time>
      </trkpt>
      <trkpt lat="47.30966" lon="4.95424">
        <ele>440.1</ele>
        <time>2013-02-09T08:50:20.000Z</time>
      </trkpt>
      <trkpt lat="47.30967" lon="4.95427">
        <ele>439.7</ele>
        <time>2013-02-09T08:50:21.000Z</time>
      </trkpt>
      <trkpt lat="47.30969" lon="4.9543">
        <ele>439.2</ele>
        <time>2013-02-09T08:50:22.000Z</time>
      </trkpt>
      <trkpt lat="47.3097" lon="4.95433">
        <ele>439.2</ele>
        <time>2013-02-09T08:50:23.000Z</time>
      </trkpt>
      <trkpt lat="47.30971" lon="4.95436">
        <ele>438.9</ele>
        <time>2013-02-09T08:50:24.000Z</time>
      </trkpt>
      <trkpt lat="47.30972" lon="4.9544">
        <ele>439</ele>
        <time>2013-02-09T08:50:25.000Z</time>
      </trkpt>
      <trkpt lat="47.30973" lon="4.95444">
        <ele>438.6</ele>
        <time>2013-02-09T08:50:26.000Z</time>
      </trkpt>
      <trkpt lat="47.30973" lon="4.95448">
        <ele>438.2</ele>
        <time>2013-02-09T08:50:27.000Z</time>
      </trkpt>
      <trkpt lat="47.30973" lon="4.95452">
        <ele>437.9</ele>
        <time>2013-02-09T08:50:28.000Z</time>
      </trkpt>
      <trkpt lat="47.30973" lon="4.95455">
        <ele>437.6</ele>
        <time>2013-02-09T08:50:29.000Z</time>
      </trkpt>
      <trkpt lat="47.30973" lon="4.95458">
        <ele>437.4</ele>
        <time>2013-02-09T08:50:30.000Z</time>
      </trkpt>
      <trkpt lat="47.30973" lon="4.95462">
        <ele>437.1</ele>
        <time>2013-02-09T08:50:31.000Z</time>
      </trkpt>
      <trkpt lat="47.30974" lon="4.95466">
        <ele>436.9</ele>
        <time>2013-02-09T08:50:32.000Z</time>
      </trkpt>
      <trkpt lat="47.30975" lon="4.95469">
        <ele>436.8</ele>
        <time>2013-02-09T08:50:33.000Z</time>
      </trkpt>
      <trkpt lat="47.30975" lon="4.95473">
        <ele>436.7</ele>
        <time>2013-02-09T08:50:34.000Z</time>
      </trkpt>
      <trkpt lat="47.30975" lon="4.95476">
        <ele>436.4</ele>
        <time>2013-02-09T08:50:35.000Z</time>
      </trkpt>
      <trkpt lat="47.30977" lon="4.95481">
        <ele>436.4</ele>
        <time>2013-02-09T08:50:37.000Z</time>
      </trkpt>
      <trkpt lat="47.30977" lon="4.95485">
        <ele>436.6</ele>
        <time>2013-02-09T08:50:38.000Z</time>
      </trkpt>
      <trkpt lat="47.30978" lon="4.95491">
        <ele>436.6</ele>
        <time>2013-02-09T08:50:40.000Z</time>
      </trkpt>
      <trkpt lat="47.30979" lon="4.95494">
        <ele>436.6</ele>
        <time>2013-02-09T08:50:41.000Z</time>
      </trkpt>
      <trkpt lat="47.3098" lon="4.955">
        <ele>436.2</ele>
        <time>2013-02-09T08:50:42.000Z</time>
      </trkpt>
      <trkpt lat="47.30981" lon="4.95503">
        <ele>436.1</ele>
        <time>2013-02-09T08:50:43.000Z</time>
      </trkpt>
      <trkpt lat="47.30972" lon="4.95515">
        <ele>433.7</ele>
        <time>2013-02-09T08:50:52.000Z</time>
      </trkpt>
      <trkpt lat="47.30973" lon="4.95521">
        <ele>434.1</ele>
        <time>2013-02-09T08:50:55.000Z</time>
      </trkpt>
      <trkpt lat="47.30975" lon="4.95524">
        <ele>434.7</ele>
        <time>2013-02-09T08:50:56.000Z</time>
      </trkpt>
      <trkpt lat="47.30975" lon="4.9553">
        <ele>432.4</ele>
        <time>2013-02-09T08:50:58.000Z</time>
      </trkpt>
      <trkpt lat="47.30976" lon="4.95532">
        <ele>431.5</ele>
        <time>2013-02-09T08:50:59.000Z</time>
      </trkpt>
      <trkpt lat="47.30973" lon="4.95539">
        <ele>427.6</ele>
        <time>2013-02-09T08:51:00.000Z</time>
      </trkpt>
      <trkpt lat="47.30974" lon="4.95545">
        <ele>426.5</ele>
        <time>2013-02-09T08:51:02.000Z</time>
      </trkpt>
      <trkpt lat="47.30975" lon="4.95548">
        <ele>425.8</ele>
        <time>2013-02-09T08:51:03.000Z</time>
      </trkpt>
      <trkpt lat="47.30977" lon="4.9555">
        <ele>425.8</ele>
        <time>2013-02-09T08:51:04.000Z</time>
      </trkpt>
      <trkpt lat="47.30979" lon="4.95553">
        <ele>426.4</ele>
        <time>2013-02-09T08:51:05.000Z</time>
      </trkpt>
      <trkpt lat="47.3098" lon="4.95556">
        <ele>425.6</ele>
        <time>2013-02-09T08:51:06.000Z</time>
      </trkpt>
      <trkpt lat="47.30981" lon="4.95559">
        <ele>424.2</ele>
        <time>2013-02-09T08:51:07.000Z</time>
      </trkpt>
      <trkpt lat="47.30982" lon="4.95566">
        <ele>422.6</ele>
        <time>2013-02-09T08:51:09.000Z</time>
      </trkpt>
      <trkpt lat="47.30981" lon="4.95569">
        <ele>421.7</ele>
        <time>2013-02-09T08:51:10.000Z</time>
      </trkpt>
      <trkpt lat="47.30981" lon="4.95575">
        <ele>421.5</ele>
        <time>2013-02-09T08:51:12.000Z</time>
      </trkpt>
      <trkpt lat="47.30981" lon="4.95577">
        <ele>421.6</ele>
        <time>2013-02-09T08:51:13.000Z</time>
      </trkpt>
      <trkpt lat="47.30983" lon="4.95583">
        <ele>420.5</ele>
        <time>2013-02-09T08:51:15.000Z</time>
      </trkpt>
      <trkpt lat="47.30983" lon="4.95587">
        <ele>420.1</ele>
        <time>2013-02-09T08:51:16.000Z</time>
      </trkpt>
      <trkpt lat="47.30984" lon="4.95593">
        <ele>420.1</ele>
        <time>2013-02-09T08:51:18.000Z</time>
      </trkpt>
      <trkpt lat="47.30985" lon="4.95595">
        <ele>420.1</ele>
        <time>2013-02-09T08:51:19.000Z</time>
      </trkpt>
      <trkpt lat="47.30987" lon="4.956">
        <ele>420.2</ele>
        <time>2013-02-09T08:51:21.000Z</time>
      </trkpt>
      <trkpt lat="47.30988" lon="4.95603">
        <ele>419.8</ele>
        <time>2013-02-09T08:51:22.000Z</time>
      </trkpt>
      <trkpt lat="47.30991" lon="4.95608">
        <ele>419.5</ele>
        <time>2013-02-09T08:51:24.000Z</time>
      </trkpt>
      <trkpt lat="47.30991" lon="4.95611">
        <ele>419.5</ele>
        <time>2013-02-09T08:51:25.000Z</time>
      </trkpt>
      <trkpt lat="47.30992" lon="4.95617">
        <ele>419.9</ele>
        <time>2013-02-09T08:51:27.000Z</time>
      </trkpt>
      <trkpt lat="47.30992" lon="4.9562">
        <ele>419.7</ele>
        <time>2013-02-09T08:51:28.000Z</time>
      </trkpt>
      <trkpt lat="47.30994" lon="4.95624">
        <ele>419.9</ele>
        <time>2013-02-09T08:51:29.000Z</time>
      </trkpt>
      <trkpt lat="47.30995" lon="4.95628">
        <ele>419.9</ele>
        <time>2013-02-09T08:51:30.000Z</time>
      </trkpt>
      <trkpt lat="47.30996" lon="4.95632">
        <ele>419.8</ele>
        <time>2013-02-09T08:51:31.000Z</time>
      </trkpt>
      <trkpt lat="47.30997" lon="4.95635">
        <ele>420.1</ele>
        <time>2013-02-09T08:51:32.000Z</time>
      </trkpt>
      <trkpt lat="47.30999" lon="4.95641">
        <ele>420.5</ele>
        <time>2013-02-09T08:51:34.000Z</time>
      </trkpt>
      <trkpt lat="47.31" lon="4.95644">
        <ele>420.4</ele>
        <time>2013-02-09T08:51:35.000Z</time>
      </trkpt>
      <trkpt lat="47.31001" lon="4.95649">
        <ele>420.1</ele>
        <time>2013-02-09T08:51:37.000Z</time>
      </trkpt>
      <trkpt lat="47.31001" lon="4.95652">
        <ele>420.2</ele>
        <time>2013-02-09T08:51:38.000Z</time>
      </trkpt>
      <trkpt lat="47.31002" lon="4.95655">
        <ele>420.2</ele>
        <time>2013-02-09T08:51:39.000Z</time>
      </trkpt>
      <trkpt lat="47.31003" lon="4.95658">
        <ele>420.4</ele>
        <time>2013-02-09T08:51:40.000Z</time>
      </trkpt>
      <trkpt lat="47.31005" lon="4.95664">
        <ele>420.6</ele>
        <time>2013-02-09T08:51:42.000Z</time>
      </trkpt>
      <trkpt lat="47.31005" lon="4.95667">
        <ele>420.6</ele>
        <time>2013-02-09T08:51:43.000Z</time>
      </trkpt>
      <trkpt lat="47.31007" lon="4.95671">
        <ele>420.5</ele>
        <time>2013-02-09T08:51:45.000Z</time>
      </trkpt>
      <trkpt lat="47.31007" lon="4.95674">
        <ele>420.3</ele>
        <time>2013-02-09T08:51:46.000Z</time>
      </trkpt>
      <trkpt lat="47.31009" lon="4.95679">
        <ele>420.1</ele>
        <time>2013-02-09T08:51:48.000Z</time>
      </trkpt>
      <trkpt lat="47.31009" lon="4.95683">
        <ele>420.1</ele>
        <time>2013-02-09T08:51:49.000Z</time>
      </trkpt>
      <trkpt lat="47.31011" lon="4.95689">
        <ele>419.8</ele>
        <time>2013-02-09T08:51:51.000Z</time>
      </trkpt>
      <trkpt lat="47.31011" lon="4.95692">
        <ele>419.8</ele>
        <time>2013-02-09T08:51:52.000Z</time>
      </trkpt>
      <trkpt lat="47.31011" lon="4.95697">
        <ele>419.9</ele>
        <time>2013-02-09T08:51:54.000Z</time>
      </trkpt>
      <trkpt lat="47.31012" lon="4.95699">
        <ele>419.9</ele>
        <time>2013-02-09T08:51:55.000Z</time>
      </trkpt>
      <trkpt lat="47.31013" lon="4.95702">
        <ele>419.9</ele>
        <time>2013-02-09T08:51:56.000Z</time>
      </trkpt>
      <trkpt lat="47.31013" lon="4.95705">
        <ele>419.8</ele>
        <time>2013-02-09T08:51:57.000Z</time>
      </trkpt>
      <trkpt lat="47.31015" lon="4.95711">
        <ele>419.8</ele>
        <time>2013-02-09T08:51:59.000Z</time>
      </trkpt>
      <trkpt lat="47.31015" lon="4.95714">
        <ele>419.6</ele>
        <time>2013-02-09T08:52:00.000Z</time>
      </trkpt>
      <trkpt lat="47.31017" lon="4.9572">
        <ele>419.3</ele>
        <time>2013-02-09T08:52:02.000Z</time>
      </trkpt>
      <trkpt lat="47.31018" lon="4.95723">
        <ele>419.4</ele>
        <time>2013-02-09T08:52:03.000Z</time>
      </trkpt>
      <trkpt lat="47.3102" lon="4.95728">
        <ele>419.6</ele>
        <time>2013-02-09T08:52:05.000Z</time>
      </trkpt>
      <trkpt lat="47.3102" lon="4.95731">
        <ele>419.8</ele>
        <time>2013-02-09T08:52:06.000Z</time>
      </trkpt>
      <trkpt lat="47.31021" lon="4.95737">
        <ele>420.3</ele>
        <time>2013-02-09T08:52:08.000Z</time>
      </trkpt>
      <trkpt lat="47.31022" lon="4.9574">
        <ele>420.4</ele>
        <time>2013-02-09T08:52:09.000Z</time>
      </trkpt>
      <trkpt lat="47.31024" lon="4.95745">
        <ele>420.4</ele>
        <time>2013-02-09T08:52:10.000Z</time>
      </trkpt>
      <trkpt lat="47.31025" lon="4.95748">
        <ele>420.4</ele>
        <time>2013-02-09T08:52:11.000Z</time>
      </trkpt>
      <trkpt lat="47.31027" lon="4.95753">
        <ele>420.3</ele>
        <time>2013-02-09T08:52:13.000Z</time>
      </trkpt>
      <trkpt lat="47.31028" lon="4.95756">
        <ele>420.1</ele>
        <time>2013-02-09T08:52:14.000Z</time>
      </trkpt>
      <trkpt lat="47.3103" lon="4.9576">
        <ele>419.9</ele>
        <time>2013-02-09T08:52:17.000Z</time>
      </trkpt>
      <trkpt lat="47.3103" lon="4.95761">
        <ele>419.8</ele>
        <time>2013-02-09T08:52:18.000Z</time>
      </trkpt>
      <trkpt lat="47.3103" lon="4.95767">
        <ele>419.9</ele>
        <time>2013-02-09T08:52:22.000Z</time>
      </trkpt>
      <trkpt lat="47.31031" lon="4.95769">
        <ele>419.9</ele>
        <time>2013-02-09T08:52:23.000Z</time>
      </trkpt>
      <trkpt lat="47.31032" lon="4.95774">
        <ele>419.3</ele>
        <time>2013-02-09T08:52:25.000Z</time>
      </trkpt>
      <trkpt lat="47.31032" lon="4.95775">
        <ele>419.1</ele>
        <time>2013-02-09T08:52:26.000Z</time>
      </trkpt>
      <trkpt lat="47.31032" lon="4.95781">
        <ele>420</ele>
        <time>2013-02-09T08:52:43.000Z</time>
      </trkpt>
      <trkpt lat="47.31038" lon="4.9581">
        <ele>418.7</ele>
        <time>2013-02-09T08:52:50.000Z</time>
      </trkpt>
      <trkpt lat="47.31038" lon="4.9581">
        <ele>418.7</ele>
        <time>2013-02-09T08:53:03.000Z</time>
      </trkpt>
      <trkpt lat="47.31038" lon="4.95802">
        <ele>410.1</ele>
        <time>2013-02-09T08:53:04.000Z</time>
      </trkpt>
      <trkpt lat="47.31039" lon="4.95802">
        <ele>411.7</ele>
        <time>2013-02-09T08:53:43.000Z</time>
      </trkpt>
      <trkpt lat="47.31047" lon="4.95805">
        <ele>419</ele>
        <time>2013-02-09T08:53:50.000Z</time>
      </trkpt>
      <trkpt lat="47.31047" lon="4.95805">
        <ele>419</ele>
        <time>2013-02-09T08:54:43.000Z</time>
      </trkpt>
      <trkpt lat="47.31041" lon="4.95791">
        <ele>402.3</ele>
        <time>2013-02-09T08:54:54.000Z</time>
      </trkpt>
      <trkpt lat="47.31041" lon="4.95791">
        <ele>402.3</ele>
        <time>2013-02-09T08:55:09.000Z</time>
      </trkpt>
      <trkpt lat="47.31035" lon="4.9578">
        <ele>400.6</ele>
        <time>2013-02-09T08:55:10.000Z</time>
      </trkpt>
      <trkpt lat="47.31033" lon="4.95781">
        <ele>399.5</ele>
        <time>2013-02-09T08:55:43.000Z</time>
      </trkpt>
      <trkpt lat="47.31047" lon="4.95786">
        <ele>397.1</ele>
        <time>2013-02-09T08:56:05.000Z</time>
      </trkpt>
      <trkpt lat="47.31047" lon="4.95786">
        <ele>397.1</ele>
        <time>2013-02-09T08:57:11.000Z</time>
      </trkpt>
      <trkpt lat="47.31045" lon="4.95778">
        <ele>397.4</ele>
        <time>2013-02-09T08:57:12.000Z</time>
      </trkpt>
      <trkpt lat="47.31042" lon="4.95778">
        <ele>399.2</ele>
        <time>2013-02-09T08:57:43.000Z</time>
      </trkpt>
      <trkpt lat="47.3104" lon="4.95788">
        <ele>403.1</ele>
        <time>2013-02-09T08:57:51.000Z</time>
      </trkpt>
      <trkpt lat="47.3104" lon="4.95788">
        <ele>403.1</ele>
        <time>2013-02-09T08:58:43.000Z</time>
      </trkpt>
      <trkpt lat="47.31077" lon="4.95994">
        <ele>405.8</ele>
        <time>2013-02-09T09:01:06.000Z</time>
      </trkpt>
      <trkpt lat="47.31076" lon="4.95999">
        <ele>407.5</ele>
        <time>2013-02-09T09:01:09.000Z</time>
      </trkpt>
      <trkpt lat="47.31076" lon="4.96002">
        <ele>407.6</ele>
        <time>2013-02-09T09:01:10.000Z</time>
      </trkpt>
      <trkpt lat="47.31075" lon="4.96007">
        <ele>409.2</ele>
        <time>2013-02-09T09:01:13.000Z</time>
      </trkpt>
      <trkpt lat="47.31075" lon="4.96008">
        <ele>408.9</ele>
        <time>2013-02-09T09:01:14.000Z</time>
      </trkpt>
      <trkpt lat="47.31072" lon="4.96013">
        <ele>408.9</ele>
        <time>2013-02-09T09:01:17.000Z</time>
      </trkpt>
      <trkpt lat="47.31072" lon="4.96015">
        <ele>409</ele>
        <time>2013-02-09T09:01:18.000Z</time>
      </trkpt>
      <trkpt lat="47.31071" lon="4.9602">
        <ele>409.1</ele>
        <time>2013-02-09T09:01:20.000Z</time>
      </trkpt>
      <trkpt lat="47.31071" lon="4.96022">
        <ele>409.6</ele>
        <time>2013-02-09T09:01:21.000Z</time>
      </trkpt>
      <trkpt lat="47.31072" lon="4.96028">
        <ele>409.5</ele>
        <time>2013-02-09T09:01:24.000Z</time>
      </trkpt>
      <trkpt lat="47.31072" lon="4.96031">
        <ele>409.1</ele>
        <time>2013-02-09T09:01:25.000Z</time>
      </trkpt>
      <trkpt lat="47.31072" lon="4.96036">
        <ele>408.1</ele>
        <time>2013-02-09T09:01:27.000Z</time>
      </trkpt>
      <trkpt lat="47.31073" lon="4.96039">
        <ele>408.1</ele>
        <time>2013-02-09T09:01:28.000Z</time>
      </trkpt>
      <trkpt lat="47.31074" lon="4.96044">
        <ele>407.3</ele>
        <time>2013-02-09T09:01:30.000Z</time>
      </trkpt>
      <trkpt lat="47.31074" lon="4.96047">
        <ele>407.3</ele>
        <time>2013-02-09T09:01:31.000Z</time>
      </trkpt>
      <trkpt lat="47.31074" lon="4.96053">
        <ele>406.9</ele>
        <time>2013-02-09T09:01:33.000Z</time>
      </trkpt>
      <trkpt lat="47.31074" lon="4.96055">
        <ele>406.4</ele>
        <time>2013-02-09T09:01:34.000Z</time>
      </trkpt>
      <trkpt lat="47.31074" lon="4.96061">
        <ele>405.5</ele>
        <time>2013-02-09T09:01:37.000Z</time>
      </trkpt>
      <trkpt lat="47.31074" lon="4.96064">
        <ele>405.2</ele>
        <time>2013-02-09T09:01:38.000Z</time>
      </trkpt>
      <trkpt lat="47.31074" lon="4.9607">
        <ele>404.3</ele>
        <time>2013-02-09T09:01:40.000Z</time>
      </trkpt>
      <trkpt lat="47.31073" lon="4.96072">
        <ele>403.9</ele>
        <time>2013-02-09T09:01:41.000Z</time>
      </trkpt>
      <trkpt lat="47.31072" lon="4.96077">
        <ele>403.7</ele>
        <time>2013-02-09T09:01:43.000Z</time>
      </trkpt>
      <trkpt lat="47.31074" lon="4.96099">
        <ele>407.8</ele>
        <time>2013-02-09T09:01:50.000Z</time>
      </trkpt>
      <trkpt lat="47.31073" lon="4.96103">
        <ele>406.4</ele>
        <time>2013-02-09T09:01:51.000Z</time>
      </trkpt>
      <trkpt lat="47.31072" lon="4.96107">
        <ele>402.6</ele>
        <time>2013-02-09T09:01:52.000Z</time>
      </trkpt>
      <trkpt lat="47.31072" lon="4.96113">
        <ele>399.4</ele>
        <time>2013-02-09T09:01:54.000Z</time>
      </trkpt>
      <trkpt lat="47.31071" lon="4.96118">
        <ele>394.4</ele>
        <time>2013-02-09T09:01:55.000Z</time>
      </trkpt>
      <trkpt lat="47.31071" lon="4.96122">
        <ele>392.4</ele>
        <time>2013-02-09T09:01:57.000Z</time>
      </trkpt>
      <trkpt lat="47.31071" lon="4.96125">
        <ele>392.4</ele>
        <time>2013-02-09T09:01:58.000Z</time>
      </trkpt>
      <trkpt lat="47.31071" lon="4.96131">
        <ele>391.8</ele>
        <time>2013-02-09T09:02:00.000Z</time>
      </trkpt>
      <trkpt lat="47.31071" lon="4.96133">
        <ele>391.7</ele>
        <time>2013-02-09T09:02:01.000Z</time>
      </trkpt>
      <trkpt lat="47.3107" lon="4.96137">
        <ele>390.3</ele>
        <time>2013-02-09T09:02:03.000Z</time>
      </trkpt>
      <trkpt lat="47.31069" lon="4.96139">
        <ele>389.7</ele>
        <time>2013-02-09T09:02:04.000Z</time>
      </trkpt>
      <trkpt lat="47.31068" lon="4.96145">
        <ele>389.7</ele>
        <time>2013-02-09T09:02:07.000Z</time>
      </trkpt>
      <trkpt lat="47.31067" lon="4.96148">
        <ele>389.7</ele>
        <time>2013-02-09T09:02:08.000Z</time>
      </trkpt>
      <trkpt lat="47.31065" lon="4.96153">
        <ele>390</ele>
        <time>2013-02-09T09:02:10.000Z</time>
      </trkpt>
      <trkpt lat="47.31064" lon="4.96155">
        <ele>390</ele>
        <time>2013-02-09T09:02:11.000Z</time>
      </trkpt>
      <trkpt lat="47.31063" lon="4.9616">
        <ele>389.9</ele>
        <time>2013-02-09T09:02:13.000Z</time>
      </trkpt>
      <trkpt lat="47.31062" lon="4.96162">
        <ele>389</ele>
        <time>2013-02-09T09:02:14.000Z</time>
      </trkpt>
      <trkpt lat="47.31061" lon="4.96168">
        <ele>389.2</ele>
        <time>2013-02-09T09:02:17.000Z</time>
      </trkpt>
      <trkpt lat="47.31061" lon="4.9617">
        <ele>389.4</ele>
        <time>2013-02-09T09:02:18.000Z</time>
      </trkpt>
      <trkpt lat="47.3106" lon="4.96176">
        <ele>389.4</ele>
        <time>2013-02-09T09:02:21.000Z</time>
      </trkpt>
      <trkpt lat="47.3106" lon="4.96179">
        <ele>389.4</ele>
        <time>2013-02-09T09:02:22.000Z</time>
      </trkpt>
      <trkpt lat="47.3106" lon="4.96183">
        <ele>389.2</ele>
        <time>2013-02-09T09:02:23.000Z</time>
      </trkpt>
      <trkpt lat="47.3106" lon="4.96186">
        <ele>389.1</ele>
        <time>2013-02-09T09:02:24.000Z</time>
      </trkpt>
      <trkpt lat="47.31059" lon="4.96193">
        <ele>389</ele>
        <time>2013-02-09T09:02:27.000Z</time>
      </trkpt>
      <trkpt lat="47.31059" lon="4.96195">
        <ele>388.8</ele>
        <time>2013-02-09T09:02:28.000Z</time>
      </trkpt>
      <trkpt lat="47.3106" lon="4.962">
        <ele>388.7</ele>
        <time>2013-02-09T09:02:30.000Z</time>
      </trkpt>
      <trkpt lat="47.3106" lon="4.96202">
        <ele>388.8</ele>
        <time>2013-02-09T09:02:31.000Z</time>
      </trkpt>
      <trkpt lat="47.31061" lon="4.96207">
        <ele>389.1</ele>
        <time>2013-02-09T09:02:33.000Z</time>
      </trkpt>
      <trkpt lat="47.31061" lon="4.96209">
        <ele>389</ele>
        <time>2013-02-09T09:02:34.000Z</time>
      </trkpt>
      <trkpt lat="47.31062" lon="4.96215">
        <ele>388.4</ele>
        <time>2013-02-09T09:02:37.000Z</time>
      </trkpt>
      <trkpt lat="47.31061" lon="4.96217">
        <ele>388.2</ele>
        <time>2013-02-09T09:02:38.000Z</time>
      </trkpt>
      <trkpt lat="47.31062" lon="4.96222">
        <ele>388.2</ele>
        <time>2013-02-09T09:02:41.000Z</time>
      </trkpt>
      <trkpt lat="47.31062" lon="4.96224">
        <ele>388</ele>
        <time>2013-02-09T09:02:42.000Z</time>
      </trkpt>
      <trkpt lat="47.31062" lon="4.96226">
        <ele>387.9</ele>
        <time>2013-02-09T09:02:43.000Z</time>
      </trkpt>
      <trkpt lat="47.31065" lon="4.96249">
        <ele>381.5</ele>
        <time>2013-02-09T09:02:50.000Z</time>
      </trkpt>
      <trkpt lat="47.31068" lon="4.96251">
        <ele>385.8</ele>
        <time>2013-02-09T09:02:53.000Z</time>
      </trkpt>
      <trkpt lat="47.31068" lon="4.96253">
        <ele>385.5</ele>
        <time>2013-02-09T09:02:54.000Z</time>
      </trkpt>
      <trkpt lat="47.31069" lon="4.96257">
        <ele>385.9</ele>
        <time>2013-02-09T09:02:56.000Z</time>
      </trkpt>
      <trkpt lat="47.31069" lon="4.96259">
        <ele>384.1</ele>
        <time>2013-02-09T09:02:57.000Z</time>
      </trkpt>
      <trkpt lat="47.31071" lon="4.96264">
        <ele>384.4</ele>
        <time>2013-02-09T09:02:59.000Z</time>
      </trkpt>
      <trkpt lat="47.31072" lon="4.96266">
        <ele>383.8</ele>
        <time>2013-02-09T09:03:00.000Z</time>
      </trkpt>
      <trkpt lat="47.31075" lon="4.9627">
        <ele>385.3</ele>
        <time>2013-02-09T09:03:03.000Z</time>
      </trkpt>
      <trkpt lat="47.31076" lon="4.96272">
        <ele>385.5</ele>
        <time>2013-02-09T09:03:04.000Z</time>
      </trkpt>
      <trkpt lat="47.31076" lon="4.96277">
        <ele>385</ele>
        <time>2013-02-09T09:03:07.000Z</time>
      </trkpt>
      <trkpt lat="47.31077" lon="4.96279">
        <ele>384.8</ele>
        <time>2013-02-09T09:03:08.000Z</time>
      </trkpt>
      <trkpt lat="47.31077" lon="4.96283">
        <ele>384.8</ele>
        <time>2013-02-09T09:03:10.000Z</time>
      </trkpt>
      <trkpt lat="47.31078" lon="4.96285">
        <ele>383.9</ele>
        <time>2013-02-09T09:03:11.000Z</time>
      </trkpt>
      <trkpt lat="47.3108" lon="4.96289">
        <ele>383.6</ele>
        <time>2013-02-09T09:03:13.000Z</time>
      </trkpt>
      <trkpt lat="47.31081" lon="4.96292">
        <ele>383.7</ele>
        <time>2013-02-09T09:03:14.000Z</time>
      </trkpt>
      <trkpt lat="47.31082" lon="4.96296">
        <ele>383.9</ele>
        <time>2013-02-09T09:03:16.000Z</time>
      </trkpt>
      <trkpt lat="47.31084" lon="4.96298">
        <ele>383.7</ele>
        <time>2013-02-09T09:03:17.000Z</time>
      </trkpt>
      <trkpt lat="47.31085" lon="4.96302">
        <ele>383.5</ele>
        <time>2013-02-09T09:03:19.000Z</time>
      </trkpt>
      <trkpt lat="47.31086" lon="4.96305">
        <ele>383.3</ele>
        <time>2013-02-09T09:03:20.000Z</time>
      </trkpt>
      <trkpt lat="47.31087" lon="4.9631">
        <ele>383.3</ele>
        <time>2013-02-09T09:03:22.000Z</time>
      </trkpt>
      <trkpt lat="47.31088" lon="4.96312">
        <ele>383.3</ele>
        <time>2013-02-09T09:03:23.000Z</time>
      </trkpt>
      <trkpt lat="47.3109" lon="4.96317">
        <ele>383.9</ele>
        <time>2013-02-09T09:03:26.000Z</time>
      </trkpt>
      <trkpt lat="47.3109" lon="4.96319">
        <ele>383.7</ele>
        <time>2013-02-09T09:03:27.000Z</time>
      </trkpt>
      <trkpt lat="47.31091" lon="4.96324">
        <ele>383.7</ele>
        <time>2013-02-09T09:03:29.000Z</time>
      </trkpt>
      <trkpt lat="47.31091" lon="4.96326">
        <ele>383.7</ele>
        <time>2013-02-09T09:03:30.000Z</time>
      </trkpt>
      <trkpt lat="47.31093" lon="4.96332">
        <ele>383.8</ele>
        <time>2013-02-09T09:03:33.000Z</time>
      </trkpt>
      <trkpt lat="47.31094" lon="4.96333">
        <ele>383.9</ele>
        <time>2013-02-09T09:03:34.000Z</time>
      </trkpt>
      <trkpt lat="47.31095" lon="4.96337">
        <ele>384.1</ele>
        <time>2013-02-09T09:03:36.000Z</time>
      </trkpt>
      <trkpt lat="47.31096" lon="4.96339">
        <ele>383.8</ele>
        <time>2013-02-09T09:03:37.000Z</time>
      </trkpt>
      <trkpt lat="47.31099" lon="4.96343">
        <ele>383.4</ele>
        <time>2013-02-09T09:03:39.000Z</time>
      </trkpt>
      <trkpt lat="47.311" lon="4.96345">
        <ele>383.2</ele>
        <time>2013-02-09T09:03:40.000Z</time>
      </trkpt>
      <trkpt lat="47.31103" lon="4.96349">
        <ele>382.7</ele>
        <time>2013-02-09T09:03:42.000Z</time>
      </trkpt>
      <trkpt lat="47.31104" lon="4.96352">
        <ele>382.7</ele>
        <time>2013-02-09T09:03:43.000Z</time>
      </trkpt>
      <trkpt lat="47.31116" lon="4.96379">
        <ele>377.1</ele>
        <time>2013-02-09T09:03:52.000Z</time>
      </trkpt>
      <trkpt lat="47.31119" lon="4.96381">
        <ele>375.8</ele>
        <time>2013-02-09T09:03:54.000Z</time>
      </trkpt>
      <trkpt lat="47.3112" lon="4.96383">
        <ele>375.8</ele>
        <time>2013-02-09T09:03:55.000Z</time>
      </trkpt>
      <trkpt lat="47.31122" lon="4.96389">
        <ele>375</ele>
        <time>2013-02-09T09:03:58.000Z</time>
      </trkpt>
      <trkpt lat="47.31123" lon="4.96391">
        <ele>376.1</ele>
        <time>2013-02-09T09:03:59.000Z</time>
      </trkpt>
      <trkpt lat="47.31125" lon="4.96396">
        <ele>376.1</ele>
        <time>2013-02-09T09:04:01.000Z</time>
      </trkpt>
      <trkpt lat="47.31125" lon="4.96398">
        <ele>376.5</ele>
        <time>2013-02-09T09:04:02.000Z</time>
      </trkpt>
      <trkpt lat="47.31127" lon="4.96402">
        <ele>377.5</ele>
        <time>2013-02-09T09:04:04.000Z</time>
      </trkpt>
      <trkpt lat="47.31129" lon="4.96404">
        <ele>378.3</ele>
        <time>2013-02-09T09:04:05.000Z</time>
      </trkpt>
      <trkpt lat="47.3113" lon="4.96409">
        <ele>378.6</ele>
        <time>2013-02-09T09:04:07.000Z</time>
      </trkpt>
      <trkpt lat="47.31131" lon="4.96411">
        <ele>379.2</ele>
        <time>2013-02-09T09:04:08.000Z</time>
      </trkpt>
      <trkpt lat="47.31133" lon="4.96417">
        <ele>380.5</ele>
        <time>2013-02-09T09:04:11.000Z</time>
      </trkpt>
      <trkpt lat="47.31134" lon="4.96418">
        <ele>380.8</ele>
        <time>2013-02-09T09:04:12.000Z</time>
      </trkpt>
      <trkpt lat="47.31138" lon="4.96421">
        <ele>380.9</ele>
        <time>2013-02-09T09:04:16.000Z</time>
      </trkpt>
      <trkpt lat="47.31139" lon="4.96423">
        <ele>381.3</ele>
        <time>2013-02-09T09:04:17.000Z</time>
      </trkpt>
      <trkpt lat="47.31141" lon="4.96427">
        <ele>380.7</ele>
        <time>2013-02-09T09:04:19.000Z</time>
      </trkpt>
      <trkpt lat="47.31142" lon="4.96429">
        <ele>380.9</ele>
        <time>2013-02-09T09:04:20.000Z</time>
      </trkpt>
      <trkpt lat="47.31145" lon="4.96434">
        <ele>381.4</ele>
        <time>2013-02-09T09:04:23.000Z</time>
      </trkpt>
      <trkpt lat="47.31146" lon="4.96436">
        <ele>381.3</ele>
        <time>2013-02-09T09:04:24.000Z</time>
      </trkpt>
      <trkpt lat="47.31147" lon="4.96441">
        <ele>381.3</ele>
        <time>2013-02-09T09:04:26.000Z</time>
      </trkpt>
      <trkpt lat="47.31148" lon="4.96444">
        <ele>381.2</ele>
        <time>2013-02-09T09:04:27.000Z</time>
      </trkpt>
      <trkpt lat="47.31149" lon="4.9645">
        <ele>380.6</ele>
        <time>2013-02-09T09:04:29.000Z</time>
      </trkpt>
      <trkpt lat="47.3115" lon="4.96452">
        <ele>380.5</ele>
        <time>2013-02-09T09:04:30.000Z</time>
      </trkpt>
      <trkpt lat="47.31153" lon="4.96457">
        <ele>380.2</ele>
        <time>2013-02-09T09:04:32.000Z</time>
      </trkpt>
      <trkpt lat="47.31154" lon="4.9646">
        <ele>379.9</ele>
        <time>2013-02-09T09:04:33.000Z</time>
      </trkpt>
      <trkpt lat="47.31155" lon="4.96463">
        <ele>380.1</ele>
        <time>2013-02-09T09:04:35.000Z</time>
      </trkpt>
      <trkpt lat="47.31156" lon="4.96466">
        <ele>380.1</ele>
        <time>2013-02-09T09:04:36.000Z</time>
      </trkpt>
      <trkpt lat="47.31158" lon="4.9647">
        <ele>380.3</ele>
        <time>2013-02-09T09:04:38.000Z</time>
      </trkpt>
      <trkpt lat="47.31159" lon="4.96472">
        <ele>380.5</ele>
        <time>2013-02-09T09:04:39.000Z</time>
      </trkpt>
      <trkpt lat="47.3116" lon="4.96475">
        <ele>380.3</ele>
        <time>2013-02-09T09:04:40.000Z</time>
      </trkpt>
      <trkpt lat="47.31162" lon="4.96478">
        <ele>380</ele>
        <time>2013-02-09T09:04:41.000Z</time>
      </trkpt>
      <trkpt lat="47.31164" lon="4.96483">
        <ele>380.5</ele>
        <time>2013-02-09T09:04:43.000Z</time>
      </trkpt>
      <trkpt lat="47.31165" lon="4.96502">
        <ele>379.8</ele>
        <time>2013-02-09T09:04:51.000Z</time>
      </trkpt>
      <trkpt lat="47.31165" lon="4.96509">
        <ele>378.2</ele>
        <time>2013-02-09T09:04:54.000Z</time>
      </trkpt>
      <trkpt lat="47.31166" lon="4.96512">
        <ele>379.5</ele>
        <time>2013-02-09T09:04:55.000Z</time>
      </trkpt>
      <trkpt lat="47.31168" lon="4.96517">
        <ele>380.4</ele>
        <time>2013-02-09T09:04:57.000Z</time>
      </trkpt>
      <trkpt lat="47.3117" lon="4.96519">
        <ele>379.7</ele>
        <time>2013-02-09T09:04:58.000Z</time>
      </trkpt>
      <trkpt lat="47.31171" lon="4.96523">
        <ele>378.6</ele>
        <time>2013-02-09T09:05:00.000Z</time>
      </trkpt>
      <trkpt lat="47.31172" lon="4.96525">
        <ele>378.5</ele>
        <time>2013-02-09T09:05:01.000Z</time>
      </trkpt>
      <trkpt lat="47.31174" lon="4.96531">
        <ele>379.8</ele>
        <time>2013-02-09T09:05:04.000Z</time>
      </trkpt>
      <trkpt lat="47.31175" lon="4.96533">
        <ele>380</ele>
        <time>2013-02-09T09:05:05.000Z</time>
      </trkpt>
      <trkpt lat="47.31176" lon="4.96538">
        <ele>379.6</ele>
        <time>2013-02-09T09:05:07.000Z</time>
      </trkpt>
      <trkpt lat="47.31176" lon="4.96541">
        <ele>378.9</ele>
        <time>2013-02-09T09:05:08.000Z</time>
      </trkpt>
      <trkpt lat="47.31178" lon="4.96546">
        <ele>379.6</ele>
        <time>2013-02-09T09:05:10.000Z</time>
      </trkpt>
      <trkpt lat="47.31178" lon="4.96548">
        <ele>379.8</ele>
        <time>2013-02-09T09:05:11.000Z</time>
      </trkpt>
      <trkpt lat="47.31178" lon="4.96552">
        <ele>380.5</ele>
        <time>2013-02-09T09:05:13.000Z</time>
      </trkpt>
      <trkpt lat="47.31179" lon="4.96555">
        <ele>380.8</ele>
        <time>2013-02-09T09:05:14.000Z</time>
      </trkpt>
      <trkpt lat="47.31179" lon="4.96559">
        <ele>380.8</ele>
        <time>2013-02-09T09:05:16.000Z</time>
      </trkpt>
      <trkpt lat="47.3118" lon="4.96562">
        <ele>381.1</ele>
        <time>2013-02-09T09:05:17.000Z</time>
      </trkpt>
      <trkpt lat="47.31181" lon="4.96567">
        <ele>381.9</ele>
        <time>2013-02-09T09:05:20.000Z</time>
      </trkpt>
      <trkpt lat="47.31181" lon="4.96569">
        <ele>381.9</ele>
        <time>2013-02-09T09:05:21.000Z</time>
      </trkpt>
      <trkpt lat="47.31181" lon="4.96573">
        <ele>381.9</ele>
        <time>2013-02-09T09:05:23.000Z</time>
      </trkpt>
      <trkpt lat="47.31181" lon="4.96575">
        <ele>382.1</ele>
        <time>2013-02-09T09:05:24.000Z</time>
      </trkpt>
      <trkpt lat="47.31181" lon="4.96581">
        <ele>381.8</ele>
        <time>2013-02-09T09:05:26.000Z</time>
      </trkpt>
      <trkpt lat="47.31182" lon="4.96584">
        <ele>381</ele>
        <time>2013-02-09T09:05:27.000Z</time>
      </trkpt>
      <trkpt lat="47.31183" lon="4.96591">
        <ele>380.4</ele>
        <time>2013-02-09T09:05:29.000Z</time>
      </trkpt>
      <trkpt lat="47.31183" lon="4.96593">
        <ele>380.2</ele>
        <time>2013-02-09T09:05:30.000Z</time>
      </trkpt>
      <trkpt lat="47.31183" lon="4.96598">
        <ele>380.1</ele>
        <time>2013-02-09T09:05:32.000Z</time>
      </trkpt>
      <trkpt lat="47.31183" lon="4.96601">
        <ele>380</ele>
        <time>2013-02-09T09:05:33.000Z</time>
      </trkpt>
      <trkpt lat="47.31184" lon="4.96607">
        <ele>379.4</ele>
        <time>2013-02-09T09:05:35.000Z</time>
      </trkpt>
      <trkpt lat="47.31184" lon="4.96609">
        <ele>379.4</ele>
        <time>2013-02-09T09:05:36.000Z</time>
      </trkpt>
      <trkpt lat="47.31185" lon="4.96615">
        <ele>378.9</ele>
        <time>2013-02-09T09:05:38.000Z</time>
      </trkpt>
      <trkpt lat="47.31184" lon="4.96617">
        <ele>378.8</ele>
        <time>2013-02-09T09:05:39.000Z</time>
      </trkpt>
      <trkpt lat="47.31184" lon="4.96623">
        <ele>378.8</ele>
        <time>2013-02-09T09:05:42.000Z</time>
      </trkpt>
      <trkpt lat="47.31183" lon="4.96625">
        <ele>378.8</ele>
        <time>2013-02-09T09:05:43.000Z</time>
      </trkpt>
      <trkpt lat="47.31171" lon="4.96645">
        <ele>379.7</ele>
        <time>2013-02-09T09:05:50.000Z</time>
      </trkpt>
      <trkpt lat="47.3117" lon="4.96649">
        <ele>377.1</ele>
        <time>2013-02-09T09:05:52.000Z</time>
      </trkpt>
      <trkpt lat="47.3117" lon="4.96652">
        <ele>377.7</ele>
        <time>2013-02-09T09:05:53.000Z</time>
      </trkpt>
      <trkpt lat="47.3117" lon="4.96654">
        <ele>377.2</ele>
        <time>2013-02-09T09:05:54.000Z</time>
      </trkpt>
      <trkpt lat="47.31171" lon="4.9666">
        <ele>375.5</ele>
        <time>2013-02-09T09:05:55.000Z</time>
      </trkpt>
      <trkpt lat="47.31169" lon="4.96665">
        <ele>373.7</ele>
        <time>2013-02-09T09:05:57.000Z</time>
      </trkpt>
      <trkpt lat="47.31168" lon="4.96666">
        <ele>373.8</ele>
        <time>2013-02-09T09:05:58.000Z</time>
      </trkpt>
      <trkpt lat="47.31167" lon="4.96671">
        <ele>374.2</ele>
        <time>2013-02-09T09:06:01.000Z</time>
      </trkpt>
      <trkpt lat="47.31167" lon="4.96673">
        <ele>374.1</ele>
        <time>2013-02-09T09:06:02.000Z</time>
      </trkpt>
      <trkpt lat="47.31169" lon="4.96679">
        <ele>377.7</ele>
        <time>2013-02-09T09:06:07.000Z</time>
      </trkpt>
      <trkpt lat="47.31169" lon="4.9668">
        <ele>378</ele>
        <time>2013-02-09T09:06:08.000Z</time>
      </trkpt>
      <trkpt lat="47.31171" lon="4.96685">
        <ele>381.3</ele>
        <time>2013-02-09T09:06:11.000Z</time>
      </trkpt>
      <trkpt lat="47.31171" lon="4.96687">
        <ele>381.5</ele>
        <time>2013-02-09T09:06:12.000Z</time>
      </trkpt>
      <trkpt lat="47.31172" lon="4.96692">
        <ele>381.4</ele>
        <time>2013-02-09T09:06:15.000Z</time>
      </trkpt>
      <trkpt lat="47.31173" lon="4.96694">
        <ele>381.4</ele>
        <time>2013-02-09T09:06:16.000Z</time>
      </trkpt>
      <trkpt lat="47.31174" lon="4.96698">
        <ele>382.4</ele>
        <time>2013-02-09T09:06:18.000Z</time>
      </trkpt>
      <trkpt lat="47.31174" lon="4.967">
        <ele>382.7</ele>
        <time>2013-02-09T09:06:19.000Z</time>
      </trkpt>
      <trkpt lat="47.31176" lon="4.96705">
        <ele>383.1</ele>
        <time>2013-02-09T09:06:21.000Z</time>
      </trkpt>
      <trkpt lat="47.31177" lon="4.96708">
        <ele>383.2</ele>
        <time>2013-02-09T09:06:22.000Z</time>
      </trkpt>
      <trkpt lat="47.31178" lon="4.96714">
        <ele>382.5</ele>
        <time>2013-02-09T09:06:24.000Z</time>
      </trkpt>
      <trkpt lat="47.31179" lon="4.96717">
        <ele>382</ele>
        <time>2013-02-09T09:06:25.000Z</time>
      </trkpt>
      <trkpt lat="47.31179" lon="4.96721">
        <ele>381.8</ele>
        <time>2013-02-09T09:06:26.000Z</time>
      </trkpt>
      <trkpt lat="47.3118" lon="4.96724">
        <ele>381.4</ele>
        <time>2013-02-09T09:06:27.000Z</time>
      </trkpt>
      <trkpt lat="47.31181" lon="4.96729">
        <ele>380.5</ele>
        <time>2013-02-09T09:06:29.000Z</time>
      </trkpt>
      <trkpt lat="47.31182" lon="4.96731">
        <ele>380.4</ele>
        <time>2013-02-09T09:06:30.000Z</time>
      </trkpt>
      <trkpt lat="47.31183" lon="4.96737">
        <ele>380</ele>
        <time>2013-02-09T09:06:32.000Z</time>
      </trkpt>
      <trkpt lat="47.31183" lon="4.96739">
        <ele>379.7</ele>
        <time>2013-02-09T09:06:33.000Z</time>
      </trkpt>
      <trkpt lat="47.31185" lon="4.96745">
        <ele>379.7</ele>
        <time>2013-02-09T09:06:36.000Z</time>
      </trkpt>
      <trkpt lat="47.31186" lon="4.96747">
        <ele>379.9</ele>
        <time>2013-02-09T09:06:37.000Z</time>
      </trkpt>
      <trkpt lat="47.31187" lon="4.96751">
        <ele>380</ele>
        <time>2013-02-09T09:06:39.000Z</time>
      </trkpt>
      <trkpt lat="47.31188" lon="4.96754">
        <ele>380.3</ele>
        <time>2013-02-09T09:06:40.000Z</time>
      </trkpt>
      <trkpt lat="47.31189" lon="4.96758">
        <ele>380.1</ele>
        <time>2013-02-09T09:06:42.000Z</time>
      </trkpt>
      <trkpt lat="47.3119" lon="4.9676">
        <ele>380</ele>
        <time>2013-02-09T09:06:43.000Z</time>
      </trkpt>
      <trkpt lat="47.3119" lon="4.96763">
        <ele>379.8</ele>
        <time>2013-02-09T09:06:44.000Z</time>
      </trkpt>
      <trkpt lat="47.31198" lon="4.96788">
        <ele>379.2</ele>
        <time>2013-02-09T09:06:51.000Z</time>
      </trkpt>
      <trkpt lat="47.312" lon="4.96793">
        <ele>376.3</ele>
        <time>2013-02-09T09:06:55.000Z</time>
      </trkpt>
      <trkpt lat="47.31201" lon="4.96794">
        <ele>376.8</ele>
        <time>2013-02-09T09:06:56.000Z</time>
      </trkpt>
      <trkpt lat="47.31201" lon="4.96801">
        <ele>375.5</ele>
        <time>2013-02-09T09:07:00.000Z</time>
      </trkpt>
      <trkpt lat="47.31201" lon="4.96802">
        <ele>375.3</ele>
        <time>2013-02-09T09:07:01.000Z</time>
      </trkpt>
      <trkpt lat="47.31204" lon="4.96806">
        <ele>374.8</ele>
        <time>2013-02-09T09:07:04.000Z</time>
      </trkpt>
      <trkpt lat="47.31205" lon="4.96807">
        <ele>373.5</ele>
        <time>2013-02-09T09:07:05.000Z</time>
      </trkpt>
      <trkpt lat="47.31208" lon="4.9681">
        <ele>371.5</ele>
        <time>2013-02-09T09:07:07.000Z</time>
      </trkpt>
      <trkpt lat="47.31209" lon="4.96811">
        <ele>371</ele>
        <time>2013-02-09T09:07:08.000Z</time>
      </trkpt>
      <trkpt lat="47.31212" lon="4.96814">
        <ele>370.7</ele>
        <time>2013-02-09T09:07:12.000Z</time>
      </trkpt>
      <trkpt lat="47.31213" lon="4.96815">
        <ele>370.6</ele>
        <time>2013-02-09T09:07:13.000Z</time>
      </trkpt>
      <trkpt lat="47.31216" lon="4.96817">
        <ele>371.7</ele>
        <time>2013-02-09T09:07:17.000Z</time>
      </trkpt>
      <trkpt lat="47.31217" lon="4.96818">
        <ele>371.6</ele>
        <time>2013-02-09T09:07:18.000Z</time>
      </trkpt>
      <trkpt lat="47.3122" lon="4.9682">
        <ele>371.5</ele>
        <time>2013-02-09T09:07:20.000Z</time>
      </trkpt>
      <trkpt lat="47.31221" lon="4.96821">
        <ele>371.5</ele>
        <time>2013-02-09T09:07:21.000Z</time>
      </trkpt>
      <trkpt lat="47.31224" lon="4.96825">
        <ele>371.6</ele>
        <time>2013-02-09T09:07:24.000Z</time>
      </trkpt>
      <trkpt lat="47.31226" lon="4.96826">
        <ele>371.5</ele>
        <time>2013-02-09T09:07:25.000Z</time>
      </trkpt>
      <trkpt lat="47.31229" lon="4.9683">
        <ele>371.6</ele>
        <time>2013-02-09T09:07:28.000Z</time>
      </trkpt>
      <trkpt lat="47.3123" lon="4.96831">
        <ele>371.6</ele>
        <time>2013-02-09T09:07:29.000Z</time>
      </trkpt>
      <trkpt lat="47.31233" lon="4.96834">
        <ele>371.4</ele>
        <time>2013-02-09T09:07:31.000Z</time>
      </trkpt>
      <trkpt lat="47.31235" lon="4.96836">
        <ele>371.3</ele>
        <time>2013-02-09T09:07:32.000Z</time>
      </trkpt>
      <trkpt lat="47.31237" lon="4.96838">
        <ele>371.4</ele>
        <time>2013-02-09T09:07:34.000Z</time>
      </trkpt>
      <trkpt lat="47.31238" lon="4.9684">
        <ele>371.4</ele>
        <time>2013-02-09T09:07:35.000Z</time>
      </trkpt>
      <trkpt lat="47.31241" lon="4.96844">
        <ele>371.6</ele>
        <time>2013-02-09T09:07:38.000Z</time>
      </trkpt>
      <trkpt lat="47.31243" lon="4.96846">
        <ele>371.7</ele>
        <time>2013-02-09T09:07:39.000Z</time>
      </trkpt>
      <trkpt lat="47.31246" lon="4.9685">
        <ele>371.9</ele>
        <time>2013-02-09T09:07:42.000Z</time>
      </trkpt>
      <trkpt lat="47.31247" lon="4.96851">
        <ele>371.9</ele>
        <time>2013-02-09T09:07:43.000Z</time>
      </trkpt>
      <trkpt lat="47.31268" lon="4.96864">
        <ele>387.6</ele>
        <time>2013-02-09T09:07:52.000Z</time>
      </trkpt>
      <trkpt lat="47.31268" lon="4.9687">
        <ele>386.8</ele>
        <time>2013-02-09T09:07:56.000Z</time>
      </trkpt>
      <trkpt lat="47.3127" lon="4.96871">
        <ele>386.4</ele>
        <time>2013-02-09T09:07:57.000Z</time>
      </trkpt>
      <trkpt lat="47.31272" lon="4.96875">
        <ele>385.1</ele>
        <time>2013-02-09T09:08:00.000Z</time>
      </trkpt>
      <trkpt lat="47.31274" lon="4.96877">
        <ele>385.7</ele>
        <time>2013-02-09T09:08:01.000Z</time>
      </trkpt>
      <trkpt lat="47.31276" lon="4.9688">
        <ele>384.8</ele>
        <time>2013-02-09T09:08:03.000Z</time>
      </trkpt>
      <trkpt lat="47.31278" lon="4.96882">
        <ele>384.7</ele>
        <time>2013-02-09T09:08:04.000Z</time>
      </trkpt>
      <trkpt lat="47.31281" lon="4.96885">
        <ele>383.6</ele>
        <time>2013-02-09T09:08:06.000Z</time>
      </trkpt>
      <trkpt lat="47.31282" lon="4.96886">
        <ele>383.6</ele>
        <time>2013-02-09T09:08:07.000Z</time>
      </trkpt>
      <trkpt lat="47.31284" lon="4.96889">
        <ele>383.5</ele>
        <time>2013-02-09T09:08:09.000Z</time>
      </trkpt>
      <trkpt lat="47.31285" lon="4.9689">
        <ele>383</ele>
        <time>2013-02-09T09:08:10.000Z</time>
      </trkpt>
      <trkpt lat="47.31288" lon="4.96893">
        <ele>382.2</ele>
        <time>2013-02-09T09:08:12.000Z</time>
      </trkpt>
      <trkpt lat="47.31289" lon="4.96894">
        <ele>381.6</ele>
        <time>2013-02-09T09:08:13.000Z</time>
      </trkpt>
      <trkpt lat="47.31292" lon="4.96898">
        <ele>380.3</ele>
        <time>2013-02-09T09:08:16.000Z</time>
      </trkpt>
      <trkpt lat="47.31294" lon="4.969">
        <ele>380.3</ele>
        <time>2013-02-09T09:08:17.000Z</time>
      </trkpt>
      <trkpt lat="47.31297" lon="4.96904">
        <ele>380.3</ele>
        <time>2013-02-09T09:08:20.000Z</time>
      </trkpt>
      <trkpt lat="47.31298" lon="4.96906">
        <ele>380</ele>
        <time>2013-02-09T09:08:21.000Z</time>
      </trkpt>
      <trkpt lat="47.31301" lon="4.96909">
        <ele>379.6</ele>
        <time>2013-02-09T09:08:23.000Z</time>
      </trkpt>
      <trkpt lat="47.31303" lon="4.9691">
        <ele>379.5</ele>
        <time>2013-02-09T09:08:24.000Z</time>
      </trkpt>
      <trkpt lat="47.31305" lon="4.96913">
        <ele>379</ele>
        <time>2013-02-09T09:08:26.000Z</time>
      </trkpt>
      <trkpt lat="47.31306" lon="4.96914">
        <ele>378.5</ele>
        <time>2013-02-09T09:08:27.000Z</time>
      </trkpt>
      <trkpt lat="47.31309" lon="4.96918">
        <ele>377.9</ele>
        <time>2013-02-09T09:08:29.000Z</time>
      </trkpt>
      <trkpt lat="47.31311" lon="4.96919">
        <ele>377.9</ele>
        <time>2013-02-09T09:08:30.000Z</time>
      </trkpt>
      <trkpt lat="47.31313" lon="4.96922">
        <ele>377.6</ele>
        <time>2013-02-09T09:08:32.000Z</time>
      </trkpt>
      <trkpt lat="47.31315" lon="4.96923">
        <ele>377.3</ele>
        <time>2013-02-09T09:08:33.000Z</time>
      </trkpt>
      <trkpt lat="47.31318" lon="4.96926">
        <ele>377</ele>
        <time>2013-02-09T09:08:35.000Z</time>
      </trkpt>
      <trkpt lat="47.31319" lon="4.96927">
        <ele>376.8</ele>
        <time>2013-02-09T09:08:36.000Z</time>
      </trkpt>
      <trkpt lat="47.31321" lon="4.96931">
        <ele>376.5</ele>
        <time>2013-02-09T09:08:39.000Z</time>
      </trkpt>
      <trkpt lat="47.31322" lon="4.96933">
        <ele>376.3</ele>
        <time>2013-02-09T09:08:40.000Z</time>
      </trkpt>
      <trkpt lat="47.31325" lon="4.96936">
        <ele>375.7</ele>
        <time>2013-02-09T09:08:42.000Z</time>
      </trkpt>
      <trkpt lat="47.31326" lon="4.96938">
        <ele>375.5</ele>
        <time>2013-02-09T09:08:43.000Z</time>
      </trkpt>
      <trkpt lat="47.31365" lon="4.96971">
        <ele>373.8</ele>
        <time>2013-02-09T09:09:06.000Z</time>
      </trkpt>
      <trkpt lat="47.31366" lon="4.96976">
        <ele>374.7</ele>
        <time>2013-02-09T09:09:08.000Z</time>
      </trkpt>
      <trkpt lat="47.31367" lon="4.96978">
        <ele>373.9</ele>
        <time>2013-02-09T09:09:09.000Z</time>
      </trkpt>
      <trkpt lat="47.31368" lon="4.96983">
        <ele>372.6</ele>
        <time>2013-02-09T09:09:11.000Z</time>
      </trkpt>
      <trkpt lat="47.31369" lon="4.96985">
        <ele>372</ele>
        <time>2013-02-09T09:09:12.000Z</time>
      </trkpt>
      <trkpt lat="47.31372" lon="4.96989">
        <ele>370</ele>
        <time>2013-02-09T09:09:14.000Z</time>
      </trkpt>
      <trkpt lat="47.31373" lon="4.96991">
        <ele>369.3</ele>
        <time>2013-02-09T09:09:15.000Z</time>
      </trkpt>
      <trkpt lat="47.31374" lon="4.96995">
        <ele>368.2</ele>
        <time>2013-02-09T09:09:17.000Z</time>
      </trkpt>
      <trkpt lat="47.31375" lon="4.96997">
        <ele>367.9</ele>
        <time>2013-02-09T09:09:18.000Z</time>
      </trkpt>
      <trkpt lat="47.31376" lon="4.97003">
        <ele>367.3</ele>
        <time>2013-02-09T09:09:21.000Z</time>
      </trkpt>
      <trkpt lat="47.31377" lon="4.97005">
        <ele>366.9</ele>
        <time>2013-02-09T09:09:22.000Z</time>
      </trkpt>
      <trkpt lat="47.31379" lon="4.97011">
        <ele>365.8</ele>
        <time>2013-02-09T09:09:25.000Z</time>
      </trkpt>
      <trkpt lat="47.31379" lon="4.97013">
        <ele>365.4</ele>
        <time>2013-02-09T09:09:26.000Z</time>
      </trkpt>
      <trkpt lat="47.31381" lon="4.97018">
        <ele>363.9</ele>
        <time>2013-02-09T09:09:29.000Z</time>
      </trkpt>
      <trkpt lat="47.31382" lon="4.9702">
        <ele>363.5</ele>
        <time>2013-02-09T09:09:30.000Z</time>
      </trkpt>
      <trkpt lat="47.31384" lon="4.97025">
        <ele>361.9</ele>
        <time>2013-02-09T09:09:33.000Z</time>
      </trkpt>
      <trkpt lat="47.31384" lon="4.97027">
        <ele>361.8</ele>
        <time>2013-02-09T09:09:34.000Z</time>
      </trkpt>
      <trkpt lat="47.31387" lon="4.97031">
        <ele>362</ele>
        <time>2013-02-09T09:09:37.000Z</time>
      </trkpt>
      <trkpt lat="47.31388" lon="4.97033">
        <ele>361.7</ele>
        <time>2013-02-09T09:09:38.000Z</time>
      </trkpt>
      <trkpt lat="47.3139" lon="4.97037">
        <ele>361.4</ele>
        <time>2013-02-09T09:09:40.000Z</time>
      </trkpt>
      <trkpt lat="47.31391" lon="4.97039">
        <ele>361.4</ele>
        <time>2013-02-09T09:09:41.000Z</time>
      </trkpt>
      <trkpt lat="47.31393" lon="4.97043">
        <ele>360.9</ele>
        <time>2013-02-09T09:09:43.000Z</time>
      </trkpt>
      <trkpt lat="47.3143" lon="4.97069">
        <ele>367.2</ele>
        <time>2013-02-09T09:10:06.000Z</time>
      </trkpt>
      <trkpt lat="47.31431" lon="4.97075">
        <ele>361.3</ele>
        <time>2013-02-09T09:10:09.000Z</time>
      </trkpt>
      <trkpt lat="47.31433" lon="4.97077">
        <ele>360.7</ele>
        <time>2013-02-09T09:10:10.000Z</time>
      </trkpt>
      <trkpt lat="47.31436" lon="4.97082">
        <ele>360.1</ele>
        <time>2013-02-09T09:10:13.000Z</time>
      </trkpt>
      <trkpt lat="47.31437" lon="4.97084">
        <ele>359.9</ele>
        <time>2013-02-09T09:10:14.000Z</time>
      </trkpt>
      <trkpt lat="47.31439" lon="4.97087">
        <ele>359.3</ele>
        <time>2013-02-09T09:10:16.000Z</time>
      </trkpt>
      <trkpt lat="47.3144" lon="4.97089">
        <ele>359</ele>
        <time>2013-02-09T09:10:17.000Z</time>
      </trkpt>
      <trkpt lat="47.31443" lon="4.97092">
        <ele>359.1</ele>
        <time>2013-02-09T09:10:19.000Z</time>
      </trkpt>
      <trkpt lat="47.31444" lon="4.97094">
        <ele>358.8</ele>
        <time>2013-02-09T09:10:20.000Z</time>
      </trkpt>
      <trkpt lat="47.31447" lon="4.97097">
        <ele>359</ele>
        <time>2013-02-09T09:10:22.000Z</time>
      </trkpt>
      <trkpt lat="47.31448" lon="4.97098">
        <ele>359.1</ele>
        <time>2013-02-09T09:10:23.000Z</time>
      </trkpt>
      <trkpt lat="47.3145" lon="4.97102">
        <ele>358.4</ele>
        <time>2013-02-09T09:10:25.000Z</time>
      </trkpt>
      <trkpt lat="47.31451" lon="4.97103">
        <ele>358.9</ele>
        <time>2013-02-09T09:10:26.000Z</time>
      </trkpt>
      <trkpt lat="47.31454" lon="4.97107">
        <ele>358.8</ele>
        <time>2013-02-09T09:10:28.000Z</time>
      </trkpt>
      <trkpt lat="47.31455" lon="4.97108">
        <ele>358.9</ele>
        <time>2013-02-09T09:10:29.000Z</time>
      </trkpt>
      <trkpt lat="47.31458" lon="4.97111">
        <ele>358.7</ele>
        <time>2013-02-09T09:10:31.000Z</time>
      </trkpt>
      <trkpt lat="47.31459" lon="4.97113">
        <ele>358.2</ele>
        <time>2013-02-09T09:10:32.000Z</time>
      </trkpt>
      <trkpt lat="47.31461" lon="4.97115">
        <ele>358.1</ele>
        <time>2013-02-09T09:10:34.000Z</time>
      </trkpt>
      <trkpt lat="47.31462" lon="4.97118">
        <ele>358.1</ele>
        <time>2013-02-09T09:10:35.000Z</time>
      </trkpt>
      <trkpt lat="47.31464" lon="4.97122">
        <ele>358.5</ele>
        <time>2013-02-09T09:10:37.000Z</time>
      </trkpt>
      <trkpt lat="47.31465" lon="4.97124">
        <ele>358.4</ele>
        <time>2013-02-09T09:10:38.000Z</time>
      </trkpt>
      <trkpt lat="47.31468" lon="4.97128">
        <ele>358.6</ele>
        <time>2013-02-09T09:10:40.000Z</time>
      </trkpt>
      <trkpt lat="47.31469" lon="4.9713">
        <ele>358.5</ele>
        <time>2013-02-09T09:10:41.000Z</time>
      </trkpt>
      <trkpt lat="47.31473" lon="4.97133">
        <ele>358.9</ele>
        <time>2013-02-09T09:10:43.000Z</time>
      </trkpt>
      <trkpt lat="47.31474" lon="4.97134">
        <ele>358.9</ele>
        <time>2013-02-09T09:10:44.000Z</time>
      </trkpt>
      <trkpt lat="47.31477" lon="4.97138">
        <ele>358.6</ele>
        <time>2013-02-09T09:10:46.000Z</time>
      </trkpt>
      <trkpt lat="47.31478" lon="4.97139">
        <ele>358.5</ele>
        <time>2013-02-09T09:10:47.000Z</time>
      </trkpt>
      <trkpt lat="47.31481" lon="4.97142">
        <ele>358.7</ele>
        <time>2013-02-09T09:10:49.000Z</time>
      </trkpt>
      <trkpt lat="47.31483" lon="4.97144">
        <ele>358.8</ele>
        <time>2013-02-09T09:10:50.000Z</time>
      </trkpt>
      <trkpt lat="47.31485" lon="4.97147">
        <ele>359.2</ele>
        <time>2013-02-09T09:10:52.000Z</time>
      </trkpt>
      <trkpt lat="47.31486" lon="4.97149">
        <ele>359.5</ele>
        <time>2013-02-09T09:10:53.000Z</time>
      </trkpt>
      <trkpt lat="47.31489" lon="4.97153">
        <ele>359.7</ele>
        <time>2013-02-09T09:10:55.000Z</time>
      </trkpt>
      <trkpt lat="47.3149" lon="4.97154">
        <ele>359.9</ele>
        <time>2013-02-09T09:10:56.000Z</time>
      </trkpt>
      <trkpt lat="47.31494" lon="4.97158">
        <ele>360.2</ele>
        <time>2013-02-09T09:10:59.000Z</time>
      </trkpt>
      <trkpt lat="47.31496" lon="4.97159">
        <ele>360.1</ele>
        <time>2013-02-09T09:11:00.000Z</time>
      </trkpt>
      <trkpt lat="47.31499" lon="4.97161">
        <ele>359.9</ele>
        <time>2013-02-09T09:11:02.000Z</time>
      </trkpt>
      <trkpt lat="47.31501" lon="4.97162">
        <ele>359.8</ele>
        <time>2013-02-09T09:11:03.000Z</time>
      </trkpt>
      <trkpt lat="47.31504" lon="4.97165">
        <ele>359.7</ele>
        <time>2013-02-09T09:11:05.000Z</time>
      </trkpt>
      <trkpt lat="47.31506" lon="4.97167">
        <ele>359.7</ele>
        <time>2013-02-09T09:11:06.000Z</time>
      </trkpt>
      <trkpt lat="47.3151" lon="4.97169">
        <ele>359.5</ele>
        <time>2013-02-09T09:11:08.000Z</time>
      </trkpt>
      <trkpt lat="47.31511" lon="4.97171">
        <ele>359.5</ele>
        <time>2013-02-09T09:11:09.000Z</time>
      </trkpt>
      <trkpt lat="47.31515" lon="4.97174">
        <ele>359.4</ele>
        <time>2013-02-09T09:11:11.000Z</time>
      </trkpt>
      <trkpt lat="47.31516" lon="4.97175">
        <ele>359.5</ele>
        <time>2013-02-09T09:11:12.000Z</time>
      </trkpt>
      <trkpt lat="47.31519" lon="4.97178">
        <ele>359.7</ele>
        <time>2013-02-09T09:11:14.000Z</time>
      </trkpt>
      <trkpt lat="47.3152" lon="4.9718">
        <ele>359.8</ele>
        <time>2013-02-09T09:11:15.000Z</time>
      </trkpt>
      <trkpt lat="47.31523" lon="4.97183">
        <ele>359.9</ele>
        <time>2013-02-09T09:11:18.000Z</time>
      </trkpt>
      <trkpt lat="47.31524" lon="4.97184">
        <ele>359.9</ele>
        <time>2013-02-09T09:11:19.000Z</time>
      </trkpt>
      <trkpt lat="47.31527" lon="4.97189">
        <ele>360.2</ele>
        <time>2013-02-09T09:11:22.000Z</time>
      </trkpt>
      <trkpt lat="47.31528" lon="4.97191">
        <ele>360.3</ele>
        <time>2013-02-09T09:11:23.000Z</time>
      </trkpt>
      <trkpt lat="47.31531" lon="4.97193">
        <ele>361.3</ele>
        <time>2013-02-09T09:11:27.000Z</time>
      </trkpt>
      <trkpt lat="47.31532" lon="4.97195">
        <ele>361.5</ele>
        <time>2013-02-09T09:11:28.000Z</time>
      </trkpt>
      <trkpt lat="47.31535" lon="4.97198">
        <ele>362.1</ele>
        <time>2013-02-09T09:11:30.000Z</time>
      </trkpt>
      <trkpt lat="47.31536" lon="4.97199">
        <ele>362.2</ele>
        <time>2013-02-09T09:11:31.000Z</time>
      </trkpt>
      <trkpt lat="47.31539" lon="4.97202">
        <ele>363.4</ele>
        <time>2013-02-09T09:11:35.000Z</time>
      </trkpt>
      <trkpt lat="47.31541" lon="4.97203">
        <ele>363.6</ele>
        <time>2013-02-09T09:11:36.000Z</time>
      </trkpt>
      <trkpt lat="47.31544" lon="4.97207">
        <ele>364.1</ele>
        <time>2013-02-09T09:11:39.000Z</time>
      </trkpt>
      <trkpt lat="47.31545" lon="4.97207">
        <ele>364.2</ele>
        <time>2013-02-09T09:11:40.000Z</time>
      </trkpt>
      <trkpt lat="47.31549" lon="4.9721">
        <ele>364.4</ele>
        <time>2013-02-09T09:11:43.000Z</time>
      </trkpt>
      <trkpt lat="47.31551" lon="4.9721">
        <ele>364.5</ele>
        <time>2013-02-09T09:11:44.000Z</time>
      </trkpt>
      <trkpt lat="47.31571" lon="4.9721">
        <ele>372.1</ele>
        <time>2013-02-09T09:11:50.000Z</time>
      </trkpt>
      <trkpt lat="47.31575" lon="4.97214">
        <ele>375.3</ele>
        <time>2013-02-09T09:11:54.000Z</time>
      </trkpt>
      <trkpt lat="47.31575" lon="4.97215">
        <ele>375.3</ele>
        <time>2013-02-09T09:11:55.000Z</time>
      </trkpt>
      <trkpt lat="47.31579" lon="4.97218">
        <ele>378.4</ele>
        <time>2013-02-09T09:11:59.000Z</time>
      </trkpt>
      <trkpt lat="47.31579" lon="4.97218">
        <ele>379.8</ele>
        <time>2013-02-09T09:12:00.000Z</time>
      </trkpt>
      <trkpt lat="47.31584" lon="4.97218">
        <ele>382.7</ele>
        <time>2013-02-09T09:12:04.000Z</time>
      </trkpt>
      <trkpt lat="47.31585" lon="4.97218">
        <ele>384.4</ele>
        <time>2013-02-09T09:12:05.000Z</time>
      </trkpt>
      <trkpt lat="47.31589" lon="4.97219">
        <ele>386.2</ele>
        <time>2013-02-09T09:12:08.000Z</time>
      </trkpt>
      <trkpt lat="47.3159" lon="4.97221">
        <ele>387.2</ele>
        <time>2013-02-09T09:12:09.000Z</time>
      </trkpt>
      <trkpt lat="47.31593" lon="4.97224">
        <ele>388.9</ele>
        <time>2013-02-09T09:12:11.000Z</time>
      </trkpt>
      <trkpt lat="47.31594" lon="4.97225">
        <ele>390.2</ele>
        <time>2013-02-09T09:12:12.000Z</time>
      </trkpt>
      <trkpt lat="47.31597" lon="4.97227">
        <ele>391.1</ele>
        <time>2013-02-09T09:12:15.000Z</time>
      </trkpt>
      <trkpt lat="47.31598" lon="4.97227">
        <ele>391</ele>
        <time>2013-02-09T09:12:16.000Z</time>
      </trkpt>
      <trkpt lat="47.31602" lon="4.97229">
        <ele>390.6</ele>
        <time>2013-02-09T09:12:19.000Z</time>
      </trkpt>
      <trkpt lat="47.31604" lon="4.97229">
        <ele>390.3</ele>
        <time>2013-02-09T09:12:20.000Z</time>
      </trkpt>
      <trkpt lat="47.31608" lon="4.97231">
        <ele>390.3</ele>
        <time>2013-02-09T09:12:22.000Z</time>
      </trkpt>
      <trkpt lat="47.3161" lon="4.97232">
        <ele>390.1</ele>
        <time>2013-02-09T09:12:23.000Z</time>
      </trkpt>
      <trkpt lat="47.31613" lon="4.97235">
        <ele>390</ele>
        <time>2013-02-09T09:12:25.000Z</time>
      </trkpt>
      <trkpt lat="47.31616" lon="4.97236">
        <ele>389.9</ele>
        <time>2013-02-09T09:12:26.000Z</time>
      </trkpt>
      <trkpt lat="47.31619" lon="4.97238">
        <ele>389.7</ele>
        <time>2013-02-09T09:12:28.000Z</time>
      </trkpt>
      <trkpt lat="47.3162" lon="4.97239">
        <ele>389.4</ele>
        <time>2013-02-09T09:12:29.000Z</time>
      </trkpt>
      <trkpt lat="47.31623" lon="4.97241">
        <ele>389.2</ele>
        <time>2013-02-09T09:12:31.000Z</time>
      </trkpt>
      <trkpt lat="47.31625" lon="4.97242">
        <ele>389.1</ele>
        <time>2013-02-09T09:12:32.000Z</time>
      </trkpt>
      <trkpt lat="47.31627" lon="4.97243">
        <ele>388.6</ele>
        <time>2013-02-09T09:12:34.000Z</time>
      </trkpt>
      <trkpt lat="47.31629" lon="4.97244">
        <ele>388.4</ele>
        <time>2013-02-09T09:12:35.000Z</time>
      </trkpt>
      <trkpt lat="47.31631" lon="4.97245">
        <ele>387.9</ele>
        <time>2013-02-09T09:12:36.000Z</time>
      </trkpt>
      <trkpt lat="47.31634" lon="4.97247">
        <ele>387.3</ele>
        <time>2013-02-09T09:12:37.000Z</time>
      </trkpt>
      <trkpt lat="47.31636" lon="4.97248">
        <ele>386.4</ele>
        <time>2013-02-09T09:12:38.000Z</time>
      </trkpt>
      <trkpt lat="47.31639" lon="4.9725">
        <ele>385.5</ele>
        <time>2013-02-09T09:12:39.000Z</time>
      </trkpt>
      <trkpt lat="47.31641" lon="4.97251">
        <ele>384.8</ele>
        <time>2013-02-09T09:12:40.000Z</time>
      </trkpt>
      <trkpt lat="47.31643" lon="4.97253">
        <ele>384</ele>
        <time>2013-02-09T09:12:41.000Z</time>
      </trkpt>
      <trkpt lat="47.31646" lon="4.97254">
        <ele>383.4</ele>
        <time>2013-02-09T09:12:42.000Z</time>
      </trkpt>
      <trkpt lat="47.31648" lon="4.97254">
        <ele>382.9</ele>
        <time>2013-02-09T09:12:43.000Z</time>
      </trkpt>
      <trkpt lat="47.31673" lon="4.97268">
        <ele>359.2</ele>
        <time>2013-02-09T09:12:52.000Z</time>
      </trkpt>
      <trkpt lat="47.31677" lon="4.97271">
        <ele>353.6</ele>
        <time>2013-02-09T09:12:56.000Z</time>
      </trkpt>
      <trkpt lat="47.31679" lon="4.97273">
        <ele>353</ele>
        <time>2013-02-09T09:12:57.000Z</time>
      </trkpt>
      <trkpt lat="47.31681" lon="4.97275">
        <ele>352.4</ele>
        <time>2013-02-09T09:12:59.000Z</time>
      </trkpt>
      <trkpt lat="47.31683" lon="4.97277">
        <ele>351.6</ele>
        <time>2013-02-09T09:13:00.000Z</time>
      </trkpt>
      <trkpt lat="47.31686" lon="4.97279">
        <ele>352.7</ele>
        <time>2013-02-09T09:13:02.000Z</time>
      </trkpt>
      <trkpt lat="47.31687" lon="4.97281">
        <ele>353.7</ele>
        <time>2013-02-09T09:13:03.000Z</time>
      </trkpt>
      <trkpt lat="47.3169" lon="4.97285">
        <ele>354.2</ele>
        <time>2013-02-09T09:13:06.000Z</time>
      </trkpt>
      <trkpt lat="47.31692" lon="4.97287">
        <ele>354.1</ele>
        <time>2013-02-09T09:13:07.000Z</time>
      </trkpt>
      <trkpt lat="47.31694" lon="4.9729">
        <ele>354.2</ele>
        <time>2013-02-09T09:13:09.000Z</time>
      </trkpt>
      <trkpt lat="47.31695" lon="4.97291">
        <ele>354.2</ele>
        <time>2013-02-09T09:13:10.000Z</time>
      </trkpt>
      <trkpt lat="47.31698" lon="4.97294">
        <ele>354.8</ele>
        <time>2013-02-09T09:13:12.000Z</time>
      </trkpt>
      <trkpt lat="47.31699" lon="4.97295">
        <ele>355</ele>
        <time>2013-02-09T09:13:13.000Z</time>
      </trkpt>
      <trkpt lat="47.31702" lon="4.97298">
        <ele>355.5</ele>
        <time>2013-02-09T09:13:15.000Z</time>
      </trkpt>
      <trkpt lat="47.31703" lon="4.97299">
        <ele>354.5</ele>
        <time>2013-02-09T09:13:16.000Z</time>
      </trkpt>
      <trkpt lat="47.31707" lon="4.97301">
        <ele>353.6</ele>
        <time>2013-02-09T09:13:18.000Z</time>
      </trkpt>
      <trkpt lat="47.31709" lon="4.97302">
        <ele>353.5</ele>
        <time>2013-02-09T09:13:19.000Z</time>
      </trkpt>
      <trkpt lat="47.31712" lon="4.97306">
        <ele>354.4</ele>
        <time>2013-02-09T09:13:22.000Z</time>
      </trkpt>
      <trkpt lat="47.31713" lon="4.97307">
        <ele>354.6</ele>
        <time>2013-02-09T09:13:23.000Z</time>
      </trkpt>
      <trkpt lat="47.31716" lon="4.97311">
        <ele>354.9</ele>
        <time>2013-02-09T09:13:26.000Z</time>
      </trkpt>
      <trkpt lat="47.31717" lon="4.97312">
        <ele>355.3</ele>
        <time>2013-02-09T09:13:27.000Z</time>
      </trkpt>
      <trkpt lat="47.3172" lon="4.97316">
        <ele>355.8</ele>
        <time>2013-02-09T09:13:30.000Z</time>
      </trkpt>
      <trkpt lat="47.31722" lon="4.97317">
        <ele>355.9</ele>
        <time>2013-02-09T09:13:31.000Z</time>
      </trkpt>
      <trkpt lat="47.31725" lon="4.97319">
        <ele>356.3</ele>
        <time>2013-02-09T09:13:33.000Z</time>
      </trkpt>
      <trkpt lat="47.31727" lon="4.9732">
        <ele>356.6</ele>
        <time>2013-02-09T09:13:34.000Z</time>
      </trkpt>
      <trkpt lat="47.3173" lon="4.97323">
        <ele>357.6</ele>
        <time>2013-02-09T09:13:37.000Z</time>
      </trkpt>
      <trkpt lat="47.31731" lon="4.97324">
        <ele>357.9</ele>
        <time>2013-02-09T09:13:38.000Z</time>
      </trkpt>
      <trkpt lat="47.31735" lon="4.97328">
        <ele>357.7</ele>
        <time>2013-02-09T09:13:41.000Z</time>
      </trkpt>
      <trkpt lat="47.31736" lon="4.97329">
        <ele>357.7</ele>
        <time>2013-02-09T09:13:42.000Z</time>
      </trkpt>
      <trkpt lat="47.31737" lon="4.9733">
        <ele>358</ele>
        <time>2013-02-09T09:13:43.000Z</time>
      </trkpt>
      <trkpt lat="47.31751" lon="4.97328">
        <ele>369.5</ele>
        <time>2013-02-09T09:13:50.000Z</time>
      </trkpt>
      <trkpt lat="47.31755" lon="4.97329">
        <ele>367.7</ele>
        <time>2013-02-09T09:13:53.000Z</time>
      </trkpt>
      <trkpt lat="47.31757" lon="4.97328">
        <ele>366.6</ele>
        <time>2013-02-09T09:13:54.000Z</time>
      </trkpt>
      <trkpt lat="47.3176" lon="4.9733">
        <ele>365.3</ele>
        <time>2013-02-09T09:13:56.000Z</time>
      </trkpt>
      <trkpt lat="47.31761" lon="4.97331">
        <ele>365.4</ele>
        <time>2013-02-09T09:13:57.000Z</time>
      </trkpt>
      <trkpt lat="47.31765" lon="4.97335">
        <ele>365.8</ele>
        <time>2013-02-09T09:14:00.000Z</time>
      </trkpt>
      <trkpt lat="47.31766" lon="4.97335">
        <ele>365.5</ele>
        <time>2013-02-09T09:14:01.000Z</time>
      </trkpt>
      <trkpt lat="47.3177" lon="4.97338">
        <ele>364.8</ele>
        <time>2013-02-09T09:14:03.000Z</time>
      </trkpt>
      <trkpt lat="47.31772" lon="4.97339">
        <ele>364.5</ele>
        <time>2013-02-09T09:14:04.000Z</time>
      </trkpt>
      <trkpt lat="47.31775" lon="4.97341">
        <ele>363.2</ele>
        <time>2013-02-09T09:14:06.000Z</time>
      </trkpt>
      <trkpt lat="47.31777" lon="4.97343">
        <ele>361.6</ele>
        <time>2013-02-09T09:14:07.000Z</time>
      </trkpt>
      <trkpt lat="47.3178" lon="4.97345">
        <ele>361.2</ele>
        <time>2013-02-09T09:14:09.000Z</time>
      </trkpt>
      <trkpt lat="47.31781" lon="4.97347">
        <ele>360.9</ele>
        <time>2013-02-09T09:14:10.000Z</time>
      </trkpt>
      <trkpt lat="47.31785" lon="4.9735">
        <ele>361.5</ele>
        <time>2013-02-09T09:14:13.000Z</time>
      </trkpt>
      <trkpt lat="47.31786" lon="4.97352">
        <ele>361.9</ele>
        <time>2013-02-09T09:14:14.000Z</time>
      </trkpt>
      <trkpt lat="47.31789" lon="4.97355">
        <ele>361</ele>
        <time>2013-02-09T09:14:16.000Z</time>
      </trkpt>
      <trkpt lat="47.3179" lon="4.97357">
        <ele>360.5</ele>
        <time>2013-02-09T09:14:17.000Z</time>
      </trkpt>
      <trkpt lat="47.31792" lon="4.9736">
        <ele>359.7</ele>
        <time>2013-02-09T09:14:20.000Z</time>
      </trkpt>
      <trkpt lat="47.31794" lon="4.97361">
        <ele>359.4</ele>
        <time>2013-02-09T09:14:21.000Z</time>
      </trkpt>
      <trkpt lat="47.31797" lon="4.97365">
        <ele>359.3</ele>
        <time>2013-02-09T09:14:25.000Z</time>
      </trkpt>
      <trkpt lat="47.31797" lon="4.97366">
        <ele>359.3</ele>
        <time>2013-02-09T09:14:26.000Z</time>
      </trkpt>
      <trkpt lat="47.31801" lon="4.9737">
        <ele>358.5</ele>
        <time>2013-02-09T09:14:30.000Z</time>
      </trkpt>
      <trkpt lat="47.31801" lon="4.97371">
        <ele>358.4</ele>
        <time>2013-02-09T09:14:31.000Z</time>
      </trkpt>
      <trkpt lat="47.31804" lon="4.97373">
        <ele>357.3</ele>
        <time>2013-02-09T09:14:34.000Z</time>
      </trkpt>
      <trkpt lat="47.31805" lon="4.97375">
        <ele>357</ele>
        <time>2013-02-09T09:14:35.000Z</time>
      </trkpt>
      <trkpt lat="47.31807" lon="4.97377">
        <ele>356.7</ele>
        <time>2013-02-09T09:14:37.000Z</time>
      </trkpt>
      <trkpt lat="47.31809" lon="4.97379">
        <ele>356.5</ele>
        <time>2013-02-09T09:14:38.000Z</time>
      </trkpt>
      <trkpt lat="47.31812" lon="4.97382">
        <ele>356.9</ele>
        <time>2013-02-09T09:14:41.000Z</time>
      </trkpt>
      <trkpt lat="47.31813" lon="4.97383">
        <ele>357</ele>
        <time>2013-02-09T09:14:42.000Z</time>
      </trkpt>
      <trkpt lat="47.31813" lon="4.97385">
        <ele>357.1</ele>
        <time>2013-02-09T09:14:43.000Z</time>
      </trkpt>
      <trkpt lat="47.31824" lon="4.97392">
        <ele>356.3</ele>
        <time>2013-02-09T09:14:50.000Z</time>
      </trkpt>
      <trkpt lat="47.31826" lon="4.97398">
        <ele>360.6</ele>
        <time>2013-02-09T09:14:59.000Z</time>
      </trkpt>
      <trkpt lat="47.31827" lon="4.97398">
        <ele>360.4</ele>
        <time>2013-02-09T09:15:00.000Z</time>
      </trkpt>
      <trkpt lat="47.31829" lon="4.97402">
        <ele>362.5</ele>
        <time>2013-02-09T09:15:02.000Z</time>
      </trkpt>
      <trkpt lat="47.3183" lon="4.97404">
        <ele>363.1</ele>
        <time>2013-02-09T09:15:03.000Z</time>
      </trkpt>
      <trkpt lat="47.31831" lon="4.97409">
        <ele>362</ele>
        <time>2013-02-09T09:15:06.000Z</time>
      </trkpt>
      <trkpt lat="47.31831" lon="4.97411">
        <ele>362.1</ele>
        <time>2013-02-09T09:15:07.000Z</time>
      </trkpt>
      <trkpt lat="47.31833" lon="4.97415">
        <ele>362.7</ele>
        <time>2013-02-09T09:15:09.000Z</time>
      </trkpt>
      <trkpt lat="47.31833" lon="4.97417">
        <ele>362.3</ele>
        <time>2013-02-09T09:15:10.000Z</time>
      </trkpt>
      <trkpt lat="47.31835" lon="4.97422">
        <ele>363.1</ele>
        <time>2013-02-09T09:15:12.000Z</time>
      </trkpt>
      <trkpt lat="47.31836" lon="4.97424">
        <ele>364</ele>
        <time>2013-02-09T09:15:13.000Z</time>
      </trkpt>
      <trkpt lat="47.31836" lon="4.9743">
        <ele>364.1</ele>
        <time>2013-02-09T09:15:17.000Z</time>
      </trkpt>
      <trkpt lat="47.31836" lon="4.97432">
        <ele>364.1</ele>
        <time>2013-02-09T09:15:18.000Z</time>
      </trkpt>
      <trkpt lat="47.31837" lon="4.97438">
        <ele>363.7</ele>
        <time>2013-02-09T09:15:21.000Z</time>
      </trkpt>
      <trkpt lat="47.31837" lon="4.9744">
        <ele>363.6</ele>
        <time>2013-02-09T09:15:22.000Z</time>
      </trkpt>
      <trkpt lat="47.31839" lon="4.97445">
        <ele>363.4</ele>
        <time>2013-02-09T09:15:24.000Z</time>
      </trkpt>
      <trkpt lat="47.3184" lon="4.97447">
        <ele>363.2</ele>
        <time>2013-02-09T09:15:25.000Z</time>
      </trkpt>
      <trkpt lat="47.31841" lon="4.97451">
        <ele>362.6</ele>
        <time>2013-02-09T09:15:27.000Z</time>
      </trkpt>
      <trkpt lat="47.31842" lon="4.97453">
        <ele>362.4</ele>
        <time>2013-02-09T09:15:28.000Z</time>
      </trkpt>
      <trkpt lat="47.31843" lon="4.97459">
        <ele>362</ele>
        <time>2013-02-09T09:15:31.000Z</time>
      </trkpt>
      <trkpt lat="47.31843" lon="4.97461">
        <ele>362</ele>
        <time>2013-02-09T09:15:32.000Z</time>
      </trkpt>
      <trkpt lat="47.31844" lon="4.97466">
        <ele>361.5</ele>
        <time>2013-02-09T09:15:35.000Z</time>
      </trkpt>
      <trkpt lat="47.31844" lon="4.97468">
        <ele>361.4</ele>
        <time>2013-02-09T09:15:36.000Z</time>
      </trkpt>
      <trkpt lat="47.31845" lon="4.97472">
        <ele>360.9</ele>
        <time>2013-02-09T09:15:38.000Z</time>
      </trkpt>
      <trkpt lat="47.31846" lon="4.97475">
        <ele>360.6</ele>
        <time>2013-02-09T09:15:39.000Z</time>
      </trkpt>
      <trkpt lat="47.31848" lon="4.9748">
        <ele>360.2</ele>
        <time>2013-02-09T09:15:41.000Z</time>
      </trkpt>
      <trkpt lat="47.3185" lon="4.97483">
        <ele>360.1</ele>
        <time>2013-02-09T09:15:42.000Z</time>
      </trkpt>
      <trkpt lat="47.31851" lon="4.97487">
        <ele>360</ele>
        <time>2013-02-09T09:15:44.000Z</time>
      </trkpt>
      <trkpt lat="47.31852" lon="4.97489">
        <ele>359.9</ele>
        <time>2013-02-09T09:15:45.000Z</time>
      </trkpt>
      <trkpt lat="47.31854" lon="4.97493">
        <ele>359.6</ele>
        <time>2013-02-09T09:15:47.000Z</time>
      </trkpt>
      <trkpt lat="47.31855" lon="4.97495">
        <ele>359.3</ele>
        <time>2013-02-09T09:15:48.000Z</time>
      </trkpt>
      <trkpt lat="47.31858" lon="4.97498">
        <ele>359.2</ele>
        <time>2013-02-09T09:15:50.000Z</time>
      </trkpt>
      <trkpt lat="47.31859" lon="4.97499">
        <ele>359.3</ele>
        <time>2013-02-09T09:15:51.000Z</time>
      </trkpt>
      <trkpt lat="47.31861" lon="4.97504">
        <ele>358.9</ele>
        <time>2013-02-09T09:15:53.000Z</time>
      </trkpt>
      <trkpt lat="47.31862" lon="4.97505">
        <ele>358.8</ele>
        <time>2013-02-09T09:15:54.000Z</time>
      </trkpt>
      <trkpt lat="47.31865" lon="4.97508">
        <ele>357.9</ele>
        <time>2013-02-09T09:15:56.000Z</time>
      </trkpt>
      <trkpt lat="47.31867" lon="4.9751">
        <ele>357.7</ele>
        <time>2013-02-09T09:15:57.000Z</time>
      </trkpt>
      <trkpt lat="47.31869" lon="4.97514">
        <ele>357.3</ele>
        <time>2013-02-09T09:15:59.000Z</time>
      </trkpt>
      <trkpt lat="47.3187" lon="4.97516">
        <ele>357.1</ele>
        <time>2013-02-09T09:16:00.000Z</time>
      </trkpt>
      <trkpt lat="47.31872" lon="4.97519">
        <ele>356.5</ele>
        <time>2013-02-09T09:16:02.000Z</time>
      </trkpt>
      <trkpt lat="47.31874" lon="4.97521">
        <ele>356.1</ele>
        <time>2013-02-09T09:16:03.000Z</time>
      </trkpt>
      <trkpt lat="47.31877" lon="4.97525">
        <ele>355.5</ele>
        <time>2013-02-09T09:16:05.000Z</time>
      </trkpt>
      <trkpt lat="47.31878" lon="4.97527">
        <ele>355.4</ele>
        <time>2013-02-09T09:16:06.000Z</time>
      </trkpt>
      <trkpt lat="47.3188" lon="4.9753">
        <ele>355.1</ele>
        <time>2013-02-09T09:16:08.000Z</time>
      </trkpt>
      <trkpt lat="47.31881" lon="4.97531">
        <ele>355.1</ele>
        <time>2013-02-09T09:16:09.000Z</time>
      </trkpt>
      <trkpt lat="47.31885" lon="4.97535">
        <ele>355.2</ele>
        <time>2013-02-09T09:16:12.000Z</time>
      </trkpt>
      <trkpt lat="47.31886" lon="4.97537">
        <ele>355.3</ele>
        <time>2013-02-09T09:16:13.000Z</time>
      </trkpt>
      <trkpt lat="47.31888" lon="4.97541">
        <ele>355.5</ele>
        <time>2013-02-09T09:16:15.000Z</time>
      </trkpt>
      <trkpt lat="47.31889" lon="4.97542">
        <ele>355.5</ele>
        <time>2013-02-09T09:16:16.000Z</time>
      </trkpt>
      <trkpt lat="47.31892" lon="4.97545">
        <ele>355.6</ele>
        <time>2013-02-09T09:16:18.000Z</time>
      </trkpt>
      <trkpt lat="47.31893" lon="4.97546">
        <ele>355.8</ele>
        <time>2013-02-09T09:16:19.000Z</time>
      </trkpt>
      <trkpt lat="47.31896" lon="4.97549">
        <ele>355.7</ele>
        <time>2013-02-09T09:16:21.000Z</time>
      </trkpt>
      <trkpt lat="47.31897" lon="4.9755">
        <ele>355.4</ele>
        <time>2013-02-09T09:16:22.000Z</time>
      </trkpt>
      <trkpt lat="47.31899" lon="4.97554">
        <ele>355.1</ele>
        <time>2013-02-09T09:16:24.000Z</time>
      </trkpt>
      <trkpt lat="47.319" lon="4.97556">
        <ele>354.9</ele>
        <time>2013-02-09T09:16:25.000Z</time>
      </trkpt>
      <trkpt lat="47.31902" lon="4.97558">
        <ele>354.8</ele>
        <time>2013-02-09T09:16:27.000Z</time>
      </trkpt>
      <trkpt lat="47.31904" lon="4.97559">
        <ele>354.7</ele>
        <time>2013-02-09T09:16:28.000Z</time>
      </trkpt>
      <trkpt lat="47.31908" lon="4.97562">
        <ele>354.2</ele>
        <time>2013-02-09T09:16:30.000Z</time>
      </trkpt>
      <trkpt lat="47.31909" lon="4.97563">
        <ele>354.2</ele>
        <time>2013-02-09T09:16:31.000Z</time>
      </trkpt>
      <trkpt lat="47.31912" lon="4.97565">
        <ele>353.6</ele>
        <time>2013-02-09T09:16:33.000Z</time>
      </trkpt>
      <trkpt lat="47.31913" lon="4.97567">
        <ele>353.3</ele>
        <time>2013-02-09T09:16:34.000Z</time>
      </trkpt>
      <trkpt lat="47.31915" lon="4.97569">
        <ele>353.1</ele>
        <time>2013-02-09T09:16:36.000Z</time>
      </trkpt>
      <trkpt lat="47.31917" lon="4.97571">
        <ele>352.9</ele>
        <time>2013-02-09T09:16:37.000Z</time>
      </trkpt>
      <trkpt lat="47.31919" lon="4.97574">
        <ele>352.7</ele>
        <time>2013-02-09T09:16:39.000Z</time>
      </trkpt>
      <trkpt lat="47.31921" lon="4.97576">
        <ele>352.6</ele>
        <time>2013-02-09T09:16:40.000Z</time>
      </trkpt>
      <trkpt lat="47.31923" lon="4.97581">
        <ele>352.7</ele>
        <time>2013-02-09T09:16:43.000Z</time>
      </trkpt>
      <trkpt lat="47.31924" lon="4.97583">
        <ele>352.9</ele>
        <time>2013-02-09T09:16:44.000Z</time>
      </trkpt>
      <trkpt lat="47.31934" lon="4.97598">
        <ele>353.7</ele>
        <time>2013-02-09T09:16:51.000Z</time>
      </trkpt>
      <trkpt lat="47.31936" lon="4.97602">
        <ele>352.5</ele>
        <time>2013-02-09T09:16:54.000Z</time>
      </trkpt>
      <trkpt lat="47.31937" lon="4.97603">
        <ele>352.9</ele>
        <time>2013-02-09T09:16:55.000Z</time>
      </trkpt>
      <trkpt lat="47.31939" lon="4.97608">
        <ele>353.5</ele>
        <time>2013-02-09T09:16:58.000Z</time>
      </trkpt>
      <trkpt lat="47.3194" lon="4.9761">
        <ele>355</ele>
        <time>2013-02-09T09:16:59.000Z</time>
      </trkpt>
      <trkpt lat="47.31941" lon="4.97613">
        <ele>355.2</ele>
        <time>2013-02-09T09:17:00.000Z</time>
      </trkpt>
      <trkpt lat="47.31942" lon="4.97617">
        <ele>355.1</ele>
        <time>2013-02-09T09:17:01.000Z</time>
      </trkpt>
      <trkpt lat="47.31943" lon="4.97621">
        <ele>355.6</ele>
        <time>2013-02-09T09:17:03.000Z</time>
      </trkpt>
      <trkpt lat="47.31944" lon="4.97623">
        <ele>355.5</ele>
        <time>2013-02-09T09:17:04.000Z</time>
      </trkpt>
      <trkpt lat="47.31945" lon="4.97627">
        <ele>356.5</ele>
        <time>2013-02-09T09:17:06.000Z</time>
      </trkpt>
      <trkpt lat="47.31945" lon="4.97629">
        <ele>357.4</ele>
        <time>2013-02-09T09:17:07.000Z</time>
      </trkpt>
      <trkpt lat="47.31946" lon="4.97635">
        <ele>360.4</ele>
        <time>2013-02-09T09:17:10.000Z</time>
      </trkpt>
      <trkpt lat="47.31946" lon="4.97635">
        <ele>361.6</ele>
        <time>2013-02-09T09:17:11.000Z</time>
      </trkpt>
      <trkpt lat="47.31947" lon="4.97639">
        <ele>361.9</ele>
        <time>2013-02-09T09:17:13.000Z</time>
      </trkpt>
      <trkpt lat="47.31947" lon="4.97642">
        <ele>362</ele>
        <time>2013-02-09T09:17:14.000Z</time>
      </trkpt>
      <trkpt lat="47.31949" lon="4.97648">
        <ele>360.8</ele>
        <time>2013-02-09T09:17:17.000Z</time>
      </trkpt>
      <trkpt lat="47.31949" lon="4.9765">
        <ele>360.5</ele>
        <time>2013-02-09T09:17:18.000Z</time>
      </trkpt>
      <trkpt lat="47.3195" lon="4.97655">
        <ele>360.1</ele>
        <time>2013-02-09T09:17:21.000Z</time>
      </trkpt>
      <trkpt lat="47.3195" lon="4.97657">
        <ele>360.1</ele>
        <time>2013-02-09T09:17:22.000Z</time>
      </trkpt>
      <trkpt lat="47.31952" lon="4.97663">
        <ele>359.5</ele>
        <time>2013-02-09T09:17:25.000Z</time>
      </trkpt>
      <trkpt lat="47.31952" lon="4.97665">
        <ele>359.4</ele>
        <time>2013-02-09T09:17:26.000Z</time>
      </trkpt>
      <trkpt lat="47.31953" lon="4.97669">
        <ele>359.4</ele>
        <time>2013-02-09T09:17:29.000Z</time>
      </trkpt>
      <trkpt lat="47.31953" lon="4.97672">
        <ele>359.4</ele>
        <time>2013-02-09T09:17:30.000Z</time>
      </trkpt>
      <trkpt lat="47.31955" lon="4.97676">
        <ele>359.1</ele>
        <time>2013-02-09T09:17:32.000Z</time>
      </trkpt>
      <trkpt lat="47.31955" lon="4.97679">
        <ele>359.1</ele>
        <time>2013-02-09T09:17:33.000Z</time>
      </trkpt>
      <trkpt lat="47.31955" lon="4.97685">
        <ele>359.3</ele>
        <time>2013-02-09T09:17:36.000Z</time>
      </trkpt>
      <trkpt lat="47.31955" lon="4.97687">
        <ele>359.4</ele>
        <time>2013-02-09T09:17:37.000Z</time>
      </trkpt>
      <trkpt lat="47.31957" lon="4.97693">
        <ele>359.7</ele>
        <time>2013-02-09T09:17:40.000Z</time>
      </trkpt>
      <trkpt lat="47.31956" lon="4.97696">
        <ele>359.8</ele>
        <time>2013-02-09T09:17:41.000Z</time>
      </trkpt>
      <trkpt lat="47.31957" lon="4.97701">
        <ele>359.9</ele>
        <time>2013-02-09T09:17:43.000Z</time>
      </trkpt>
      <trkpt lat="47.31967" lon="4.97723">
        <ele>353.3</ele>
        <time>2013-02-09T09:17:51.000Z</time>
      </trkpt>
      <trkpt lat="47.31967" lon="4.97729">
        <ele>357.2</ele>
        <time>2013-02-09T09:17:54.000Z</time>
      </trkpt>
      <trkpt lat="47.31967" lon="4.97732">
        <ele>356.7</ele>
        <time>2013-02-09T09:17:55.000Z</time>
      </trkpt>
      <trkpt lat="47.31966" lon="4.97738">
        <ele>356.8</ele>
        <time>2013-02-09T09:17:58.000Z</time>
      </trkpt>
      <trkpt lat="47.31966" lon="4.97742">
        <ele>355.8</ele>
        <time>2013-02-09T09:17:59.000Z</time>
      </trkpt>
      <trkpt lat="47.31967" lon="4.97745">
        <ele>355.4</ele>
        <time>2013-02-09T09:18:00.000Z</time>
      </trkpt>
      <trkpt lat="47.31966" lon="4.97749">
        <ele>354.2</ele>
        <time>2013-02-09T09:18:01.000Z</time>
      </trkpt>
      <trkpt lat="47.31965" lon="4.97753">
        <ele>353.5</ele>
        <time>2013-02-09T09:18:02.000Z</time>
      </trkpt>
      <trkpt lat="47.31965" lon="4.97756">
        <ele>353.2</ele>
        <time>2013-02-09T09:18:03.000Z</time>
      </trkpt>
      <trkpt lat="47.31966" lon="4.9776">
        <ele>353.6</ele>
        <time>2013-02-09T09:18:05.000Z</time>
      </trkpt>
      <trkpt lat="47.31966" lon="4.97763">
        <ele>353.6</ele>
        <time>2013-02-09T09:18:06.000Z</time>
      </trkpt>
      <trkpt lat="47.31967" lon="4.97769">
        <ele>355.3</ele>
        <time>2013-02-09T09:18:09.000Z</time>
      </trkpt>
      <trkpt lat="47.31966" lon="4.97771">
        <ele>355.7</ele>
        <time>2013-02-09T09:18:10.000Z</time>
      </trkpt>
      <trkpt lat="47.31966" lon="4.97777">
        <ele>355.1</ele>
        <time>2013-02-09T09:18:13.000Z</time>
      </trkpt>
      <trkpt lat="47.31965" lon="4.9778">
        <ele>354.9</ele>
        <time>2013-02-09T09:18:14.000Z</time>
      </trkpt>
      <trkpt lat="47.31965" lon="4.97784">
        <ele>354.7</ele>
        <time>2013-02-09T09:18:16.000Z</time>
      </trkpt>
      <trkpt lat="47.31965" lon="4.97787">
        <ele>354.4</ele>
        <time>2013-02-09T09:18:17.000Z</time>
      </trkpt>
      <trkpt lat="47.31964" lon="4.97791">
        <ele>353.9</ele>
        <time>2013-02-09T09:18:19.000Z</time>
      </trkpt>
      <trkpt lat="47.31965" lon="4.97793">
        <ele>353.7</ele>
        <time>2013-02-09T09:18:20.000Z</time>
      </trkpt>
      <trkpt lat="47.31966" lon="4.97798">
        <ele>353.6</ele>
        <time>2013-02-09T09:18:22.000Z</time>
      </trkpt>
      <trkpt lat="47.31966" lon="4.97801">
        <ele>353.2</ele>
        <time>2013-02-09T09:18:23.000Z</time>
      </trkpt>
      <trkpt lat="47.31967" lon="4.97804">
        <ele>351.8</ele>
        <time>2013-02-09T09:18:24.000Z</time>
      </trkpt>
      <trkpt lat="47.31968" lon="4.97808">
        <ele>350.7</ele>
        <time>2013-02-09T09:18:25.000Z</time>
      </trkpt>
      <trkpt lat="47.31969" lon="4.97812">
        <ele>349.9</ele>
        <time>2013-02-09T09:18:26.000Z</time>
      </trkpt>
      <trkpt lat="47.3197" lon="4.97815">
        <ele>349.2</ele>
        <time>2013-02-09T09:18:27.000Z</time>
      </trkpt>
      <trkpt lat="47.31971" lon="4.9782">
        <ele>348.7</ele>
        <time>2013-02-09T09:18:29.000Z</time>
      </trkpt>
      <trkpt lat="47.31973" lon="4.97823">
        <ele>348.3</ele>
        <time>2013-02-09T09:18:30.000Z</time>
      </trkpt>
      <trkpt lat="47.31975" lon="4.97825">
        <ele>347.5</ele>
        <time>2013-02-09T09:18:31.000Z</time>
      </trkpt>
      <trkpt lat="47.31978" lon="4.97828">
        <ele>346.3</ele>
        <time>2013-02-09T09:18:32.000Z</time>
      </trkpt>
      <trkpt lat="47.31979" lon="4.97831">
        <ele>345.8</ele>
        <time>2013-02-09T09:18:33.000Z</time>
      </trkpt>
      <trkpt lat="47.31981" lon="4.97836">
        <ele>344.6</ele>
        <time>2013-02-09T09:18:34.000Z</time>
      </trkpt>
      <trkpt lat="47.31982" lon="4.97841">
        <ele>343.1</ele>
        <time>2013-02-09T09:18:36.000Z</time>
      </trkpt>
      <trkpt lat="47.31982" lon="4.97843">
        <ele>342.7</ele>
        <time>2013-02-09T09:18:37.000Z</time>
      </trkpt>
      <trkpt lat="47.31984" lon="4.97846">
        <ele>342.1</ele>
        <time>2013-02-09T09:18:38.000Z</time>
      </trkpt>
      <trkpt lat="47.31985" lon="4.97849">
        <ele>341.4</ele>
        <time>2013-02-09T09:18:39.000Z</time>
      </trkpt>
      <trkpt lat="47.31987" lon="4.97854">
        <ele>339.9</ele>
        <time>2013-02-09T09:18:41.000Z</time>
      </trkpt>
      <trkpt lat="47.31988" lon="4.97855">
        <ele>339.1</ele>
        <time>2013-02-09T09:18:42.000Z</time>
      </trkpt>
      <trkpt lat="47.31988" lon="4.97856">
        <ele>338.6</ele>
        <time>2013-02-09T09:18:43.000Z</time>
      </trkpt>
      <trkpt lat="47.31966" lon="4.97873">
        <ele>340.2</ele>
        <time>2013-02-09T09:18:51.000Z</time>
      </trkpt>
      <trkpt lat="47.31966" lon="4.97873">
        <ele>340.2</ele>
        <time>2013-02-09T09:19:16.000Z</time>
      </trkpt>
      <trkpt lat="47.31974" lon="4.9787">
        <ele>346.3</ele>
        <time>2013-02-09T09:19:17.000Z</time>
      </trkpt>
      <trkpt lat="47.31974" lon="4.9787">
        <ele>346.3</ele>
        <time>2013-02-09T09:19:44.000Z</time>
      </trkpt>
      <trkpt lat="47.31968" lon="4.97854">
        <ele>355.1</ele>
        <time>2013-02-09T09:19:55.000Z</time>
      </trkpt>
      <trkpt lat="47.3197" lon="4.97859">
        <ele>351.1</ele>
        <time>2013-02-09T09:19:58.000Z</time>
      </trkpt>
      <trkpt lat="47.31971" lon="4.9786">
        <ele>350.9</ele>
        <time>2013-02-09T09:19:59.000Z</time>
      </trkpt>
      <trkpt lat="47.3197" lon="4.97862">
        <ele>349.4</ele>
        <time>2013-02-09T09:20:43.000Z</time>
      </trkpt>
      <trkpt lat="47.31976" lon="4.97862">
        <ele>336.4</ele>
        <time>2013-02-09T09:20:52.000Z</time>
      </trkpt>
      <trkpt lat="47.31974" lon="4.97856">
        <ele>337.7</ele>
        <time>2013-02-09T09:21:44.000Z</time>
      </trkpt>
      <trkpt lat="47.31986" lon="4.9786">
        <ele>343.3</ele>
        <time>2013-02-09T09:21:51.000Z</time>
      </trkpt>
      <trkpt lat="47.31989" lon="4.97861">
        <ele>342.3</ele>
        <time>2013-02-09T09:21:53.000Z</time>
      </trkpt>
      <trkpt lat="47.31991" lon="4.97861">
        <ele>342.7</ele>
        <time>2013-02-09T09:21:54.000Z</time>
      </trkpt>
      <trkpt lat="47.31994" lon="4.97856">
        <ele>353.1</ele>
        <time>2013-02-09T09:22:05.000Z</time>
      </trkpt>
      <trkpt lat="47.31994" lon="4.97855">
        <ele>353.5</ele>
        <time>2013-02-09T09:22:06.000Z</time>
      </trkpt>
      <trkpt lat="47.31995" lon="4.97851">
        <ele>355.2</ele>
        <time>2013-02-09T09:22:09.000Z</time>
      </trkpt>
      <trkpt lat="47.31996" lon="4.97849">
        <ele>355.9</ele>
        <time>2013-02-09T09:22:10.000Z</time>
      </trkpt>
      <trkpt lat="47.32" lon="4.97848">
        <ele>355.5</ele>
        <time>2013-02-09T09:22:14.000Z</time>
      </trkpt>
      <trkpt lat="47.32001" lon="4.97848">
        <ele>354.3</ele>
        <time>2013-02-09T09:22:15.000Z</time>
      </trkpt>
      <trkpt lat="47.32005" lon="4.97846">
        <ele>351.8</ele>
        <time>2013-02-09T09:22:18.000Z</time>
      </trkpt>
      <trkpt lat="47.32006" lon="4.97844">
        <ele>351.2</ele>
        <time>2013-02-09T09:22:19.000Z</time>
      </trkpt>
      <trkpt lat="47.32008" lon="4.97839">
        <ele>350.3</ele>
        <time>2013-02-09T09:22:23.000Z</time>
      </trkpt>
      <trkpt lat="47.32008" lon="4.97838">
        <ele>349.8</ele>
        <time>2013-02-09T09:22:24.000Z</time>
      </trkpt>
      <trkpt lat="47.3201" lon="4.97832">
        <ele>350.7</ele>
        <time>2013-02-09T09:22:28.000Z</time>
      </trkpt>
      <trkpt lat="47.32011" lon="4.97831">
        <ele>350.8</ele>
        <time>2013-02-09T09:22:29.000Z</time>
      </trkpt>
      <trkpt lat="47.32011" lon="4.97825">
        <ele>351.5</ele>
        <time>2013-02-09T09:22:33.000Z</time>
      </trkpt>
      <trkpt lat="47.32011" lon="4.97824">
        <ele>351.9</ele>
        <time>2013-02-09T09:22:34.000Z</time>
      </trkpt>
      <trkpt lat="47.32013" lon="4.97818">
        <ele>352.3</ele>
        <time>2013-02-09T09:22:38.000Z</time>
      </trkpt>
      <trkpt lat="47.32013" lon="4.97816">
        <ele>352.3</ele>
        <time>2013-02-09T09:22:39.000Z</time>
      </trkpt>
      <trkpt lat="47.32015" lon="4.97812">
        <ele>352.5</ele>
        <time>2013-02-09T09:22:43.000Z</time>
      </trkpt>
      <trkpt lat="47.32016" lon="4.97792">
        <ele>354.3</ele>
        <time>2013-02-09T09:22:51.000Z</time>
      </trkpt>
      <trkpt lat="47.32018" lon="4.97789">
        <ele>354.4</ele>
        <time>2013-02-09T09:22:54.000Z</time>
      </trkpt>
      <trkpt lat="47.32018" lon="4.97785">
        <ele>355.4</ele>
        <time>2013-02-09T09:22:55.000Z</time>
      </trkpt>
      <trkpt lat="47.32021" lon="4.97782">
        <ele>356.4</ele>
        <time>2013-02-09T09:23:04.000Z</time>
      </trkpt>
      <trkpt lat="47.32022" lon="4.9778">
        <ele>357.4</ele>
        <time>2013-02-09T09:23:05.000Z</time>
      </trkpt>
      <trkpt lat="47.32025" lon="4.97776">
        <ele>360.7</ele>
        <time>2013-02-09T09:23:16.000Z</time>
      </trkpt>
      <trkpt lat="47.32025" lon="4.97775">
        <ele>361.2</ele>
        <time>2013-02-09T09:23:17.000Z</time>
      </trkpt>
      <trkpt lat="47.32027" lon="4.9777">
        <ele>361.9</ele>
        <time>2013-02-09T09:23:22.000Z</time>
      </trkpt>
      <trkpt lat="47.32027" lon="4.97769">
        <ele>361.8</ele>
        <time>2013-02-09T09:23:23.000Z</time>
      </trkpt>
      <trkpt lat="47.3203" lon="4.97764">
        <ele>361</ele>
        <time>2013-02-09T09:23:27.000Z</time>
      </trkpt>
      <trkpt lat="47.32031" lon="4.97763">
        <ele>360.6</ele>
        <time>2013-02-09T09:23:28.000Z</time>
      </trkpt>
      <trkpt lat="47.32034" lon="4.97759">
        <ele>360.4</ele>
        <time>2013-02-09T09:23:33.000Z</time>
      </trkpt>
      <trkpt lat="47.32034" lon="4.97758">
        <ele>360.3</ele>
        <time>2013-02-09T09:23:34.000Z</time>
      </trkpt>
      <trkpt lat="47.32036" lon="4.97753">
        <ele>360.6</ele>
        <time>2013-02-09T09:23:38.000Z</time>
      </trkpt>
      <trkpt lat="47.32036" lon="4.97751">
        <ele>360.8</ele>
        <time>2013-02-09T09:23:39.000Z</time>
      </trkpt>
      <trkpt lat="47.32037" lon="4.97747">
        <ele>361.4</ele>
        <time>2013-02-09T09:23:43.000Z</time>
      </trkpt>
      <trkpt lat="47.32045" lon="4.97725">
        <ele>366.6</ele>
        <time>2013-02-09T09:24:04.000Z</time>
      </trkpt>
      <trkpt lat="47.32045" lon="4.97719">
        <ele>367.5</ele>
        <time>2013-02-09T09:24:08.000Z</time>
      </trkpt>
      <trkpt lat="47.32045" lon="4.97717">
        <ele>367.7</ele>
        <time>2013-02-09T09:24:09.000Z</time>
      </trkpt>
      <trkpt lat="47.32047" lon="4.97712">
        <ele>370.2</ele>
        <time>2013-02-09T09:24:15.000Z</time>
      </trkpt>
      <trkpt lat="47.32047" lon="4.97711">
        <ele>370.3</ele>
        <time>2013-02-09T09:24:16.000Z</time>
      </trkpt>
      <trkpt lat="47.32049" lon="4.97705">
        <ele>373.5</ele>
        <time>2013-02-09T09:24:24.000Z</time>
      </trkpt>
      <trkpt lat="47.32049" lon="4.97704">
        <ele>373.9</ele>
        <time>2013-02-09T09:24:25.000Z</time>
      </trkpt>
      <trkpt lat="47.32052" lon="4.97699">
        <ele>374.8</ele>
        <time>2013-02-09T09:24:32.000Z</time>
      </trkpt>
      <trkpt lat="47.32053" lon="4.97697">
        <ele>374.4</ele>
        <time>2013-02-09T09:24:33.000Z</time>
      </trkpt>
      <trkpt lat="47.32055" lon="4.97691">
        <ele>375.4</ele>
        <time>2013-02-09T09:24:39.000Z</time>
      </trkpt>
      <trkpt lat="47.32055" lon="4.9769">
        <ele>375.6</ele>
        <time>2013-02-09T09:24:40.000Z</time>
      </trkpt>
      <trkpt lat="47.32055" lon="4.97684">
        <ele>376.5</ele>
        <time>2013-02-09T09:24:46.000Z</time>
      </trkpt>
      <trkpt lat="47.32055" lon="4.97683">
        <ele>376.5</ele>
        <time>2013-02-09T09:24:47.000Z</time>
      </trkpt>
      <trkpt lat="47.32058" lon="4.97681">
        <ele>376.6</ele>
        <time>2013-02-09T09:24:49.000Z</time>
      </trkpt>
      <trkpt lat="47.32059" lon="4.97679">
        <ele>376.9</ele>
        <time>2013-02-09T09:24:50.000Z</time>
      </trkpt>
      <trkpt lat="47.32061" lon="4.97675">
        <ele>377.7</ele>
        <time>2013-02-09T09:24:52.000Z</time>
      </trkpt>
      <trkpt lat="47.32062" lon="4.97673">
        <ele>378.1</ele>
        <time>2013-02-09T09:24:53.000Z</time>
      </trkpt>
      <trkpt lat="47.32063" lon="4.97668">
        <ele>379.2</ele>
        <time>2013-02-09T09:24:56.000Z</time>
      </trkpt>
      <trkpt lat="47.32064" lon="4.97666">
        <ele>379.4</ele>
        <time>2013-02-09T09:24:57.000Z</time>
      </trkpt>
      <trkpt lat="47.32065" lon="4.97662">
        <ele>379.9</ele>
        <time>2013-02-09T09:24:59.000Z</time>
      </trkpt>
      <trkpt lat="47.32066" lon="4.97659">
        <ele>380.1</ele>
        <time>2013-02-09T09:25:00.000Z</time>
      </trkpt>
      <trkpt lat="47.32066" lon="4.97655">
        <ele>380.6</ele>
        <time>2013-02-09T09:25:02.000Z</time>
      </trkpt>
      <trkpt lat="47.32067" lon="4.97653">
        <ele>380.8</ele>
        <time>2013-02-09T09:25:03.000Z</time>
      </trkpt>
      <trkpt lat="47.32068" lon="4.97646">
        <ele>381.6</ele>
        <time>2013-02-09T09:25:06.000Z</time>
      </trkpt>
      <trkpt lat="47.32068" lon="4.97644">
        <ele>381.8</ele>
        <time>2013-02-09T09:25:07.000Z</time>
      </trkpt>
      <trkpt lat="47.3207" lon="4.97639">
        <ele>382.5</ele>
        <time>2013-02-09T09:25:10.000Z</time>
      </trkpt>
      <trkpt lat="47.32071" lon="4.97637">
        <ele>382.8</ele>
        <time>2013-02-09T09:25:11.000Z</time>
      </trkpt>
      <trkpt lat="47.32073" lon="4.97633">
        <ele>383.8</ele>
        <time>2013-02-09T09:25:14.000Z</time>
      </trkpt>
      <trkpt lat="47.32074" lon="4.97631">
        <ele>384</ele>
        <time>2013-02-09T09:25:15.000Z</time>
      </trkpt>
      <trkpt lat="47.32076" lon="4.97626">
        <ele>384.8</ele>
        <time>2013-02-09T09:25:18.000Z</time>
      </trkpt>
      <trkpt lat="47.32076" lon="4.97624">
        <ele>385.2</ele>
        <time>2013-02-09T09:25:19.000Z</time>
      </trkpt>
      <trkpt lat="47.32077" lon="4.9762">
        <ele>385.6</ele>
        <time>2013-02-09T09:25:21.000Z</time>
      </trkpt>
      <trkpt lat="47.32078" lon="4.97618">
        <ele>385.9</ele>
        <time>2013-02-09T09:25:22.000Z</time>
      </trkpt>
      <trkpt lat="47.3208" lon="4.97613">
        <ele>387</ele>
        <time>2013-02-09T09:25:25.000Z</time>
      </trkpt>
      <trkpt lat="47.32081" lon="4.97611">
        <ele>387.3</ele>
        <time>2013-02-09T09:25:26.000Z</time>
      </trkpt>
      <trkpt lat="47.32082" lon="4.97606">
        <ele>387.8</ele>
        <time>2013-02-09T09:25:29.000Z</time>
      </trkpt>
      <trkpt lat="47.32083" lon="4.97605">
        <ele>388</ele>
        <time>2013-02-09T09:25:30.000Z</time>
      </trkpt>
      <trkpt lat="47.32086" lon="4.97601">
        <ele>388.8</ele>
        <time>2013-02-09T09:25:34.000Z</time>
      </trkpt>
      <trkpt lat="47.32086" lon="4.976">
        <ele>389</ele>
        <time>2013-02-09T09:25:35.000Z</time>
      </trkpt>
      <trkpt lat="47.32088" lon="4.97596">
        <ele>389.7</ele>
        <time>2013-02-09T09:25:38.000Z</time>
      </trkpt>
      <trkpt lat="47.32088" lon="4.97594">
        <ele>390</ele>
        <time>2013-02-09T09:25:39.000Z</time>
      </trkpt>
      <trkpt lat="47.32091" lon="4.97589">
        <ele>390.6</ele>
        <time>2013-02-09T09:25:42.000Z</time>
      </trkpt>
      <trkpt lat="47.32092" lon="4.97586">
        <ele>390.8</ele>
        <time>2013-02-09T09:25:43.000Z</time>
      </trkpt>
      <trkpt lat="47.32094" lon="4.9757">
        <ele>399.3</ele>
        <time>2013-02-09T09:25:51.000Z</time>
      </trkpt>
      <trkpt lat="47.32094" lon="4.97563">
        <ele>400.9</ele>
        <time>2013-02-09T09:25:54.000Z</time>
      </trkpt>
      <trkpt lat="47.32094" lon="4.97562">
        <ele>400.2</ele>
        <time>2013-02-09T09:25:55.000Z</time>
      </trkpt>
      <trkpt lat="47.32094" lon="4.97557">
        <ele>401.4</ele>
        <time>2013-02-09T09:25:57.000Z</time>
      </trkpt>
      <trkpt lat="47.32095" lon="4.97555">
        <ele>402.3</ele>
        <time>2013-02-09T09:25:58.000Z</time>
      </trkpt>
      <trkpt lat="47.32096" lon="4.9755">
        <ele>402.5</ele>
        <time>2013-02-09T09:26:00.000Z</time>
      </trkpt>
      <trkpt lat="47.32096" lon="4.97548">
        <ele>402.8</ele>
        <time>2013-02-09T09:26:01.000Z</time>
      </trkpt>
      <trkpt lat="47.32098" lon="4.97543">
        <ele>403</ele>
        <time>2013-02-09T09:26:03.000Z</time>
      </trkpt>
      <trkpt lat="47.32099" lon="4.97541">
        <ele>403.2</ele>
        <time>2013-02-09T09:26:04.000Z</time>
      </trkpt>
      <trkpt lat="47.32101" lon="4.97537">
        <ele>405</ele>
        <time>2013-02-09T09:26:07.000Z</time>
      </trkpt>
      <trkpt lat="47.32101" lon="4.97535">
        <ele>405.4</ele>
        <time>2013-02-09T09:26:08.000Z</time>
      </trkpt>
      <trkpt lat="47.32102" lon="4.9753">
        <ele>406.9</ele>
        <time>2013-02-09T09:26:10.000Z</time>
      </trkpt>
      <trkpt lat="47.32103" lon="4.97527">
        <ele>407.3</ele>
        <time>2013-02-09T09:26:11.000Z</time>
      </trkpt>
      <trkpt lat="47.32104" lon="4.97521">
        <ele>408.5</ele>
        <time>2013-02-09T09:26:14.000Z</time>
      </trkpt>
      <trkpt lat="47.32104" lon="4.97519">
        <ele>409.1</ele>
        <time>2013-02-09T09:26:15.000Z</time>
      </trkpt>
      <trkpt lat="47.32105" lon="4.97515">
        <ele>408.4</ele>
        <time>2013-02-09T09:26:17.000Z</time>
      </trkpt>
      <trkpt lat="47.32106" lon="4.97513">
        <ele>408.4</ele>
        <time>2013-02-09T09:26:18.000Z</time>
      </trkpt>
      <trkpt lat="47.32107" lon="4.97509">
        <ele>407.9</ele>
        <time>2013-02-09T09:26:20.000Z</time>
      </trkpt>
      <trkpt lat="47.32108" lon="4.97507">
        <ele>407.9</ele>
        <time>2013-02-09T09:26:21.000Z</time>
      </trkpt>
      <trkpt lat="47.3211" lon="4.97501">
        <ele>407.8</ele>
        <time>2013-02-09T09:26:23.000Z</time>
      </trkpt>
      <trkpt lat="47.32111" lon="4.97498">
        <ele>407.7</ele>
        <time>2013-02-09T09:26:24.000Z</time>
      </trkpt>
      <trkpt lat="47.32113" lon="4.97494">
        <ele>407.4</ele>
        <time>2013-02-09T09:26:26.000Z</time>
      </trkpt>
      <trkpt lat="47.32115" lon="4.97493">
        <ele>406.4</ele>
        <time>2013-02-09T09:26:27.000Z</time>
      </trkpt>
      <trkpt lat="47.32113" lon="4.97498">
        <ele>407.1</ele>
        <time>2013-02-09T09:26:40.000Z</time>
      </trkpt>
      <trkpt lat="47.32113" lon="4.975">
        <ele>407.3</ele>
        <time>2013-02-09T09:26:41.000Z</time>
      </trkpt>
      <trkpt lat="47.32113" lon="4.97506">
        <ele>407.6</ele>
        <time>2013-02-09T09:26:44.000Z</time>
      </trkpt>
      <trkpt lat="47.32109" lon="4.97525">
        <ele>400.2</ele>
        <time>2013-02-09T09:26:50.000Z</time>
      </trkpt>
      <trkpt lat="47.32105" lon="4.97529">
        <ele>404.5</ele>
        <time>2013-02-09T09:26:54.000Z</time>
      </trkpt>
      <trkpt lat="47.32106" lon="4.97531">
        <ele>404.3</ele>
        <time>2013-02-09T09:26:55.000Z</time>
      </trkpt>
      <trkpt lat="47.32106" lon="4.97536">
        <ele>404.5</ele>
        <time>2013-02-09T09:26:57.000Z</time>
      </trkpt>
      <trkpt lat="47.32106" lon="4.97539">
        <ele>404.4</ele>
        <time>2013-02-09T09:26:58.000Z</time>
      </trkpt>
      <trkpt lat="47.32105" lon="4.97545">
        <ele>405.2</ele>
        <time>2013-02-09T09:27:01.000Z</time>
      </trkpt>
      <trkpt lat="47.32105" lon="4.97547">
        <ele>405.3</ele>
        <time>2013-02-09T09:27:02.000Z</time>
      </trkpt>
      <trkpt lat="47.32103" lon="4.97553">
        <ele>407</ele>
        <time>2013-02-09T09:27:05.000Z</time>
      </trkpt>
      <trkpt lat="47.32103" lon="4.97554">
        <ele>408.2</ele>
        <time>2013-02-09T09:27:06.000Z</time>
      </trkpt>
      <trkpt lat="47.32101" lon="4.9756">
        <ele>412.6</ele>
        <time>2013-02-09T09:27:10.000Z</time>
      </trkpt>
      <trkpt lat="47.321" lon="4.97562">
        <ele>413.7</ele>
        <time>2013-02-09T09:27:11.000Z</time>
      </trkpt>
      <trkpt lat="47.32099" lon="4.97567">
        <ele>412.9</ele>
        <time>2013-02-09T09:27:14.000Z</time>
      </trkpt>
      <trkpt lat="47.32098" lon="4.97568">
        <ele>413</ele>
        <time>2013-02-09T09:27:15.000Z</time>
      </trkpt>
      <trkpt lat="47.32095" lon="4.97572">
        <ele>411.4</ele>
        <time>2013-02-09T09:27:20.000Z</time>
      </trkpt>
      <trkpt lat="47.32095" lon="4.97573">
        <ele>411</ele>
        <time>2013-02-09T09:27:21.000Z</time>
      </trkpt>
      <trkpt lat="47.32094" lon="4.97579">
        <ele>409.2</ele>
        <time>2013-02-09T09:27:29.000Z</time>
      </trkpt>
      <trkpt lat="47.32094" lon="4.9758">
        <ele>409</ele>
        <time>2013-02-09T09:27:30.000Z</time>
      </trkpt>
      <trkpt lat="47.32094" lon="4.97586">
        <ele>408.8</ele>
        <time>2013-02-09T09:27:34.000Z</time>
      </trkpt>
      <trkpt lat="47.32094" lon="4.97587">
        <ele>408.9</ele>
        <time>2013-02-09T09:27:35.000Z</time>
      </trkpt>
      <trkpt lat="47.32093" lon="4.97593">
        <ele>408</ele>
        <time>2013-02-09T09:27:45.000Z</time>
      </trkpt>
      <trkpt lat="47.32094" lon="4.97594">
        <ele>407.5</ele>
        <time>2013-02-09T09:27:46.000Z</time>
      </trkpt>
      <trkpt lat="47.32095" lon="4.97595">
        <ele>406.8</ele>
        <time>2013-02-09T09:28:43.000Z</time>
      </trkpt>
      <trkpt lat="47.32103" lon="4.97616">
        <ele>396.5</ele>
        <time>2013-02-09T09:28:51.000Z</time>
      </trkpt>
      <trkpt lat="47.32101" lon="4.9762">
        <ele>395.2</ele>
        <time>2013-02-09T09:28:52.000Z</time>
      </trkpt>
      <trkpt lat="47.32103" lon="4.97623">
        <ele>397.1</ele>
        <time>2013-02-09T09:28:53.000Z</time>
      </trkpt>
      <trkpt lat="47.321" lon="4.97623">
        <ele>396.2</ele>
        <time>2013-02-09T09:28:56.000Z</time>
      </trkpt>
      <trkpt lat="47.32099" lon="4.97622">
        <ele>395.9</ele>
        <time>2013-02-09T09:28:57.000Z</time>
      </trkpt>
      <trkpt lat="47.32097" lon="4.97616">
        <ele>392.5</ele>
        <time>2013-02-09T09:29:02.000Z</time>
      </trkpt>
      <trkpt lat="47.32096" lon="4.97616">
        <ele>391.9</ele>
        <time>2013-02-09T09:29:03.000Z</time>
      </trkpt>
      <trkpt lat="47.321" lon="4.97619">
        <ele>393.4</ele>
        <time>2013-02-09T09:29:32.000Z</time>
      </trkpt>
      <trkpt lat="47.321" lon="4.97619">
        <ele>393.9</ele>
        <time>2013-02-09T09:29:33.000Z</time>
      </trkpt>
      <trkpt lat="47.32103" lon="4.97623">
        <ele>395.5</ele>
        <time>2013-02-09T09:29:37.000Z</time>
      </trkpt>
      <trkpt lat="47.32104" lon="4.97625">
        <ele>395.4</ele>
        <time>2013-02-09T09:29:38.000Z</time>
      </trkpt>
      <trkpt lat="47.32106" lon="4.97629">
        <ele>396.8</ele>
        <time>2013-02-09T09:29:41.000Z</time>
      </trkpt>
      <trkpt lat="47.32107" lon="4.97631">
        <ele>397</ele>
        <time>2013-02-09T09:29:42.000Z</time>
      </trkpt>
      <trkpt lat="47.32108" lon="4.97634">
        <ele>397.7</ele>
        <time>2013-02-09T09:29:44.000Z</time>
      </trkpt>
      <trkpt lat="47.32114" lon="4.97656">
        <ele>399</ele>
        <time>2013-02-09T09:29:50.000Z</time>
      </trkpt>
      <trkpt lat="47.32117" lon="4.9766">
        <ele>401.4</ele>
        <time>2013-02-09T09:29:54.000Z</time>
      </trkpt>
      <trkpt lat="47.32118" lon="4.97661">
        <ele>402.2</ele>
        <time>2013-02-09T09:29:55.000Z</time>
      </trkpt>
      <trkpt lat="47.3212" lon="4.97665">
        <ele>401.5</ele>
        <time>2013-02-09T09:29:57.000Z</time>
      </trkpt>
      <trkpt lat="47.32121" lon="4.97667">
        <ele>402.4</ele>
        <time>2013-02-09T09:29:58.000Z</time>
      </trkpt>
      <trkpt lat="47.32122" lon="4.97672">
        <ele>404</ele>
        <time>2013-02-09T09:30:00.000Z</time>
      </trkpt>
      <trkpt lat="47.32123" lon="4.97675">
        <ele>404.3</ele>
        <time>2013-02-09T09:30:01.000Z</time>
      </trkpt>
      <trkpt lat="47.32125" lon="4.97678">
        <ele>403.3</ele>
        <time>2013-02-09T09:30:03.000Z</time>
      </trkpt>
      <trkpt lat="47.32125" lon="4.9768">
        <ele>402.9</ele>
        <time>2013-02-09T09:30:04.000Z</time>
      </trkpt>
      <trkpt lat="47.32126" lon="4.97685">
        <ele>402.6</ele>
        <time>2013-02-09T09:30:07.000Z</time>
      </trkpt>
      <trkpt lat="47.32126" lon="4.97687">
        <ele>403.3</ele>
        <time>2013-02-09T09:30:08.000Z</time>
      </trkpt>
      <trkpt lat="47.32127" lon="4.97692">
        <ele>405.5</ele>
        <time>2013-02-09T09:30:10.000Z</time>
      </trkpt>
      <trkpt lat="47.32128" lon="4.97695">
        <ele>406.6</ele>
        <time>2013-02-09T09:30:11.000Z</time>
      </trkpt>
      <trkpt lat="47.3213" lon="4.977">
        <ele>410.1</ele>
        <time>2013-02-09T09:30:13.000Z</time>
      </trkpt>
      <trkpt lat="47.3213" lon="4.97703">
        <ele>410.9</ele>
        <time>2013-02-09T09:30:14.000Z</time>
      </trkpt>
      <trkpt lat="47.32132" lon="4.97706">
        <ele>407.8</ele>
        <time>2013-02-09T09:30:17.000Z</time>
      </trkpt>
      <trkpt lat="47.32133" lon="4.97709">
        <ele>407</ele>
        <time>2013-02-09T09:30:18.000Z</time>
      </trkpt>
      <trkpt lat="47.32135" lon="4.97715">
        <ele>406</ele>
        <time>2013-02-09T09:30:20.000Z</time>
      </trkpt>
      <trkpt lat="47.32136" lon="4.97718">
        <ele>405.6</ele>
        <time>2013-02-09T09:30:21.000Z</time>
      </trkpt>
      <trkpt lat="47.32138" lon="4.97723">
        <ele>404.6</ele>
        <time>2013-02-09T09:30:24.000Z</time>
      </trkpt>
      <trkpt lat="47.32138" lon="4.97726">
        <ele>404.5</ele>
        <time>2013-02-09T09:30:25.000Z</time>
      </trkpt>
      <trkpt lat="47.3214" lon="4.97731">
        <ele>403.5</ele>
        <time>2013-02-09T09:30:27.000Z</time>
      </trkpt>
      <trkpt lat="47.32141" lon="4.97734">
        <ele>403.3</ele>
        <time>2013-02-09T09:30:28.000Z</time>
      </trkpt>
      <trkpt lat="47.32142" lon="4.97736">
        <ele>403.1</ele>
        <time>2013-02-09T09:30:29.000Z</time>
      </trkpt>
      <trkpt lat="47.32143" lon="4.9774">
        <ele>402.9</ele>
        <time>2013-02-09T09:30:30.000Z</time>
      </trkpt>
      <trkpt lat="47.32143" lon="4.97743">
        <ele>402.9</ele>
        <time>2013-02-09T09:30:31.000Z</time>
      </trkpt>
      <trkpt lat="47.32144" lon="4.97746">
        <ele>402.9</ele>
        <time>2013-02-09T09:30:32.000Z</time>
      </trkpt>
      <trkpt lat="47.32146" lon="4.97752">
        <ele>403</ele>
        <time>2013-02-09T09:30:34.000Z</time>
      </trkpt>
      <trkpt lat="47.32147" lon="4.97755">
        <ele>403</ele>
        <time>2013-02-09T09:30:35.000Z</time>
      </trkpt>
      <trkpt lat="47.32149" lon="4.9776">
        <ele>402.5</ele>
        <time>2013-02-09T09:30:37.000Z</time>
      </trkpt>
      <trkpt lat="47.32149" lon="4.97763">
        <ele>402.5</ele>
        <time>2013-02-09T09:30:38.000Z</time>
      </trkpt>
      <trkpt lat="47.32151" lon="4.97766">
        <ele>402.7</ele>
        <time>2013-02-09T09:30:39.000Z</time>
      </trkpt>
      <trkpt lat="47.32153" lon="4.97769">
        <ele>402.7</ele>
        <time>2013-02-09T09:30:40.000Z</time>
      </trkpt>
      <trkpt lat="47.32154" lon="4.97772">
        <ele>402.5</ele>
        <time>2013-02-09T09:30:41.000Z</time>
      </trkpt>
      <trkpt lat="47.32155" lon="4.97775">
        <ele>402.5</ele>
        <time>2013-02-09T09:30:42.000Z</time>
      </trkpt>
      <trkpt lat="47.32157" lon="4.9778">
        <ele>402.5</ele>
        <time>2013-02-09T09:30:44.000Z</time>
      </trkpt>
      <trkpt lat="47.32169" lon="4.97815">
        <ele>395.3</ele>
        <time>2013-02-09T09:30:52.000Z</time>
      </trkpt>
      <trkpt lat="47.32171" lon="4.9782">
        <ele>400.8</ele>
        <time>2013-02-09T09:30:57.000Z</time>
      </trkpt>
      <trkpt lat="47.32172" lon="4.97823">
        <ele>401.3</ele>
        <time>2013-02-09T09:30:58.000Z</time>
      </trkpt>
      <trkpt lat="47.32175" lon="4.97827">
        <ele>401</ele>
        <time>2013-02-09T09:31:01.000Z</time>
      </trkpt>
      <trkpt lat="47.32176" lon="4.9783">
        <ele>401.5</ele>
        <time>2013-02-09T09:31:02.000Z</time>
      </trkpt>
      <trkpt lat="47.32178" lon="4.97835">
        <ele>401.1</ele>
        <time>2013-02-09T09:31:04.000Z</time>
      </trkpt>
      <trkpt lat="47.32178" lon="4.97837">
        <ele>401.5</ele>
        <time>2013-02-09T09:31:05.000Z</time>
      </trkpt>
      <trkpt lat="47.3218" lon="4.97842">
        <ele>402.2</ele>
        <time>2013-02-09T09:31:07.000Z</time>
      </trkpt>
      <trkpt lat="47.32181" lon="4.97844">
        <ele>402</ele>
        <time>2013-02-09T09:31:08.000Z</time>
      </trkpt>
      <trkpt lat="47.32183" lon="4.9785">
        <ele>401.6</ele>
        <time>2013-02-09T09:31:10.000Z</time>
      </trkpt>
      <trkpt lat="47.32183" lon="4.97853">
        <ele>402.3</ele>
        <time>2013-02-09T09:31:11.000Z</time>
      </trkpt>
      <trkpt lat="47.32185" lon="4.97859">
        <ele>401.8</ele>
        <time>2013-02-09T09:31:12.000Z</time>
      </trkpt>
      <trkpt lat="47.32186" lon="4.97862">
        <ele>402.3</ele>
        <time>2013-02-09T09:31:13.000Z</time>
      </trkpt>
      <trkpt lat="47.32189" lon="4.97867">
        <ele>401.7</ele>
        <time>2013-02-09T09:31:15.000Z</time>
      </trkpt>
      <trkpt lat="47.32189" lon="4.97871">
        <ele>401.7</ele>
        <time>2013-02-09T09:31:16.000Z</time>
      </trkpt>
      <trkpt lat="47.32192" lon="4.97876">
        <ele>400.1</ele>
        <time>2013-02-09T09:31:18.000Z</time>
      </trkpt>
      <trkpt lat="47.32193" lon="4.97879">
        <ele>399.7</ele>
        <time>2013-02-09T09:31:19.000Z</time>
      </trkpt>
      <trkpt lat="47.32194" lon="4.97884">
        <ele>399.6</ele>
        <time>2013-02-09T09:31:21.000Z</time>
      </trkpt>
      <trkpt lat="47.32195" lon="4.97887">
        <ele>399.5</ele>
        <time>2013-02-09T09:31:22.000Z</time>
      </trkpt>
      <trkpt lat="47.32198" lon="4.97891">
        <ele>398.3</ele>
        <time>2013-02-09T09:31:24.000Z</time>
      </trkpt>
      <trkpt lat="47.322" lon="4.97894">
        <ele>397.5</ele>
        <time>2013-02-09T09:31:25.000Z</time>
      </trkpt>
      <trkpt lat="47.32202" lon="4.97895">
        <ele>396.7</ele>
        <time>2013-02-09T09:31:26.000Z</time>
      </trkpt>
      <trkpt lat="47.32204" lon="4.97896">
        <ele>396.3</ele>
        <time>2013-02-09T09:31:27.000Z</time>
      </trkpt>
      <trkpt lat="47.32208" lon="4.97899">
        <ele>395.3</ele>
        <time>2013-02-09T09:31:29.000Z</time>
      </trkpt>
      <trkpt lat="47.32209" lon="4.97901">
        <ele>395</ele>
        <time>2013-02-09T09:31:30.000Z</time>
      </trkpt>
      <trkpt lat="47.32213" lon="4.97904">
        <ele>394.9</ele>
        <time>2013-02-09T09:31:32.000Z</time>
      </trkpt>
      <trkpt lat="47.32214" lon="4.97904">
        <ele>394.7</ele>
        <time>2013-02-09T09:31:33.000Z</time>
      </trkpt>
      <trkpt lat="47.32217" lon="4.97906">
        <ele>394.3</ele>
        <time>2013-02-09T09:31:35.000Z</time>
      </trkpt>
      <trkpt lat="47.32218" lon="4.97907">
        <ele>394.2</ele>
        <time>2013-02-09T09:31:36.000Z</time>
      </trkpt>
      <trkpt lat="47.32221" lon="4.97909">
        <ele>394</ele>
        <time>2013-02-09T09:31:38.000Z</time>
      </trkpt>
      <trkpt lat="47.32223" lon="4.97909">
        <ele>393.8</ele>
        <time>2013-02-09T09:31:39.000Z</time>
      </trkpt>
      <trkpt lat="47.32226" lon="4.97909">
        <ele>393.8</ele>
        <time>2013-02-09T09:31:41.000Z</time>
      </trkpt>
      <trkpt lat="47.32228" lon="4.97909">
        <ele>393.7</ele>
        <time>2013-02-09T09:31:42.000Z</time>
      </trkpt>
      <trkpt lat="47.32231" lon="4.97911">
        <ele>393.8</ele>
        <time>2013-02-09T09:31:44.000Z</time>
      </trkpt>
      <trkpt lat="47.32247" lon="4.97918">
        <ele>396.5</ele>
        <time>2013-02-09T09:31:50.000Z</time>
      </trkpt>
      <trkpt lat="47.32251" lon="4.97919">
        <ele>396</ele>
        <time>2013-02-09T09:31:52.000Z</time>
      </trkpt>
      <trkpt lat="47.32253" lon="4.97921">
        <ele>394.6</ele>
        <time>2013-02-09T09:31:53.000Z</time>
      </trkpt>
      <trkpt lat="47.32255" lon="4.97924">
        <ele>394.8</ele>
        <time>2013-02-09T09:31:55.000Z</time>
      </trkpt>
      <trkpt lat="47.32257" lon="4.97926">
        <ele>394.4</ele>
        <time>2013-02-09T09:31:56.000Z</time>
      </trkpt>
      <trkpt lat="47.3226" lon="4.9793">
        <ele>392.8</ele>
        <time>2013-02-09T09:31:58.000Z</time>
      </trkpt>
      <trkpt lat="47.32261" lon="4.97932">
        <ele>393.3</ele>
        <time>2013-02-09T09:31:59.000Z</time>
      </trkpt>
      <trkpt lat="47.32261" lon="4.97938">
        <ele>394.1</ele>
        <time>2013-02-09T09:32:02.000Z</time>
      </trkpt>
      <trkpt lat="47.32262" lon="4.9794">
        <ele>394</ele>
        <time>2013-02-09T09:32:03.000Z</time>
      </trkpt>
      <trkpt lat="47.32263" lon="4.97946">
        <ele>395.8</ele>
        <time>2013-02-09T09:32:05.000Z</time>
      </trkpt>
      <trkpt lat="47.32263" lon="4.97948">
        <ele>396.3</ele>
        <time>2013-02-09T09:32:06.000Z</time>
      </trkpt>
      <trkpt lat="47.32263" lon="4.97954">
        <ele>399.3</ele>
        <time>2013-02-09T09:32:08.000Z</time>
      </trkpt>
      <trkpt lat="47.32262" lon="4.97957">
        <ele>401.1</ele>
        <time>2013-02-09T09:32:09.000Z</time>
      </trkpt>
      <trkpt lat="47.32263" lon="4.97963">
        <ele>405</ele>
        <time>2013-02-09T09:32:12.000Z</time>
      </trkpt>
      <trkpt lat="47.32264" lon="4.97966">
        <ele>406.4</ele>
        <time>2013-02-09T09:32:13.000Z</time>
      </trkpt>
      <trkpt lat="47.32265" lon="4.97971">
        <ele>404.9</ele>
        <time>2013-02-09T09:32:15.000Z</time>
      </trkpt>
      <trkpt lat="47.32266" lon="4.97974">
        <ele>404.4</ele>
        <time>2013-02-09T09:32:16.000Z</time>
      </trkpt>
      <trkpt lat="47.32266" lon="4.97979">
        <ele>401.9</ele>
        <time>2013-02-09T09:32:19.000Z</time>
      </trkpt>
      <trkpt lat="47.32266" lon="4.97981">
        <ele>401.4</ele>
        <time>2013-02-09T09:32:20.000Z</time>
      </trkpt>
      <trkpt lat="47.32267" lon="4.97986">
        <ele>400.9</ele>
        <time>2013-02-09T09:32:22.000Z</time>
      </trkpt>
      <trkpt lat="47.32267" lon="4.97989">
        <ele>400.7</ele>
        <time>2013-02-09T09:32:23.000Z</time>
      </trkpt>
      <trkpt lat="47.32268" lon="4.97992">
        <ele>400.8</ele>
        <time>2013-02-09T09:32:24.000Z</time>
      </trkpt>
      <trkpt lat="47.32268" lon="4.97996">
        <ele>401</ele>
        <time>2013-02-09T09:32:25.000Z</time>
      </trkpt>
      <trkpt lat="47.32267" lon="4.98002">
        <ele>400.9</ele>
        <time>2013-02-09T09:32:27.000Z</time>
      </trkpt>
      <trkpt lat="47.32267" lon="4.98005">
        <ele>400.4</ele>
        <time>2013-02-09T09:32:28.000Z</time>
      </trkpt>
      <trkpt lat="47.32268" lon="4.98009">
        <ele>400.3</ele>
        <time>2013-02-09T09:32:29.000Z</time>
      </trkpt>
      <trkpt lat="47.32268" lon="4.98012">
        <ele>400</ele>
        <time>2013-02-09T09:32:30.000Z</time>
      </trkpt>
      <trkpt lat="47.32269" lon="4.98018">
        <ele>399.7</ele>
        <time>2013-02-09T09:32:32.000Z</time>
      </trkpt>
      <trkpt lat="47.32269" lon="4.9802">
        <ele>399.7</ele>
        <time>2013-02-09T09:32:33.000Z</time>
      </trkpt>
      <trkpt lat="47.3227" lon="4.98023">
        <ele>399.7</ele>
        <time>2013-02-09T09:32:34.000Z</time>
      </trkpt>
      <trkpt lat="47.3227" lon="4.98026">
        <ele>399.9</ele>
        <time>2013-02-09T09:32:35.000Z</time>
      </trkpt>
      <trkpt lat="47.3227" lon="4.98032">
        <ele>399.9</ele>
        <time>2013-02-09T09:32:38.000Z</time>
      </trkpt>
      <trkpt lat="47.3227" lon="4.98034">
        <ele>399.8</ele>
        <time>2013-02-09T09:32:39.000Z</time>
      </trkpt>
      <trkpt lat="47.32269" lon="4.9804">
        <ele>399.3</ele>
        <time>2013-02-09T09:32:41.000Z</time>
      </trkpt>
      <trkpt lat="47.32268" lon="4.98043">
        <ele>399.3</ele>
        <time>2013-02-09T09:32:42.000Z</time>
      </trkpt>
      <trkpt lat="47.32267" lon="4.98048">
        <ele>398.4</ele>
        <time>2013-02-09T09:32:44.000Z</time>
      </trkpt>
      <trkpt lat="47.32296" lon="4.98259">
        <ele>397.4</ele>
        <time>2013-02-09T09:34:01.000Z</time>
      </trkpt>
      <trkpt lat="47.32296" lon="4.98262">
        <ele>397.3</ele>
        <time>2013-02-09T09:34:02.000Z</time>
      </trkpt>
      <trkpt lat="47.32297" lon="4.98266">
        <ele>398.5</ele>
        <time>2013-02-09T09:34:03.000Z</time>
      </trkpt>
      <trkpt lat="47.32298" lon="4.98271">
        <ele>396.7</ele>
        <time>2013-02-09T09:34:04.000Z</time>
      </trkpt>
      <trkpt lat="47.32299" lon="4.98276">
        <ele>395</ele>
        <time>2013-02-09T09:34:05.000Z</time>
      </trkpt>
      <trkpt lat="47.323" lon="4.98282">
        <ele>395.3</ele>
        <time>2013-02-09T09:34:07.000Z</time>
      </trkpt>
      <trkpt lat="47.32301" lon="4.98285">
        <ele>395.1</ele>
        <time>2013-02-09T09:34:08.000Z</time>
      </trkpt>
      <trkpt lat="47.32302" lon="4.98291">
        <ele>394.9</ele>
        <time>2013-02-09T09:34:10.000Z</time>
      </trkpt>
      <trkpt lat="47.32302" lon="4.98293">
        <ele>395.8</ele>
        <time>2013-02-09T09:34:11.000Z</time>
      </trkpt>
      <trkpt lat="47.32303" lon="4.983">
        <ele>395.2</ele>
        <time>2013-02-09T09:34:13.000Z</time>
      </trkpt>
      <trkpt lat="47.32303" lon="4.98303">
        <ele>395.3</ele>
        <time>2013-02-09T09:34:14.000Z</time>
      </trkpt>
      <trkpt lat="47.32304" lon="4.98308">
        <ele>395.8</ele>
        <time>2013-02-09T09:34:16.000Z</time>
      </trkpt>
      <trkpt lat="47.32304" lon="4.98311">
        <ele>396.4</ele>
        <time>2013-02-09T09:34:17.000Z</time>
      </trkpt>
      <trkpt lat="47.32304" lon="4.98316">
        <ele>397</ele>
        <time>2013-02-09T09:34:19.000Z</time>
      </trkpt>
      <trkpt lat="47.32304" lon="4.98319">
        <ele>396.8</ele>
        <time>2013-02-09T09:34:20.000Z</time>
      </trkpt>
      <trkpt lat="47.32305" lon="4.98325">
        <ele>396.5</ele>
        <time>2013-02-09T09:34:22.000Z</time>
      </trkpt>
      <trkpt lat="47.32306" lon="4.98327">
        <ele>396.6</ele>
        <time>2013-02-09T09:34:23.000Z</time>
      </trkpt>
      <trkpt lat="47.32306" lon="4.98333">
        <ele>396.3</ele>
        <time>2013-02-09T09:34:25.000Z</time>
      </trkpt>
      <trkpt lat="47.32307" lon="4.98336">
        <ele>396.4</ele>
        <time>2013-02-09T09:34:26.000Z</time>
      </trkpt>
      <trkpt lat="47.32308" lon="4.98342">
        <ele>396.2</ele>
        <time>2013-02-09T09:34:28.000Z</time>
      </trkpt>
      <trkpt lat="47.32309" lon="4.98344">
        <ele>396.4</ele>
        <time>2013-02-09T09:34:29.000Z</time>
      </trkpt>
      <trkpt lat="47.3231" lon="4.9835">
        <ele>396.6</ele>
        <time>2013-02-09T09:34:31.000Z</time>
      </trkpt>
      <trkpt lat="47.3231" lon="4.98353">
        <ele>396.6</ele>
        <time>2013-02-09T09:34:32.000Z</time>
      </trkpt>
      <trkpt lat="47.32311" lon="4.98358">
        <ele>396.9</ele>
        <time>2013-02-09T09:34:34.000Z</time>
      </trkpt>
      <trkpt lat="47.32311" lon="4.98361">
        <ele>396.9</ele>
        <time>2013-02-09T09:34:35.000Z</time>
      </trkpt>
      <trkpt lat="47.32312" lon="4.98367">
        <ele>396.9</ele>
        <time>2013-02-09T09:34:37.000Z</time>
      </trkpt>
      <trkpt lat="47.32313" lon="4.9837">
        <ele>396.8</ele>
        <time>2013-02-09T09:34:38.000Z</time>
      </trkpt>
      <trkpt lat="47.32313" lon="4.98376">
        <ele>396.8</ele>
        <time>2013-02-09T09:34:40.000Z</time>
      </trkpt>
      <trkpt lat="47.32313" lon="4.98379">
        <ele>396.9</ele>
        <time>2013-02-09T09:34:41.000Z</time>
      </trkpt>
      <trkpt lat="47.32313" lon="4.98385">
        <ele>397</ele>
        <time>2013-02-09T09:34:43.000Z</time>
      </trkpt>
      <trkpt lat="47.32313" lon="4.98388">
        <ele>397.1</ele>
        <time>2013-02-09T09:34:44.000Z</time>
      </trkpt>
      <trkpt lat="47.32315" lon="4.98414">
        <ele>394.8</ele>
        <time>2013-02-09T09:34:51.000Z</time>
      </trkpt>
      <trkpt lat="47.32315" lon="4.9842">
        <ele>394.3</ele>
        <time>2013-02-09T09:34:53.000Z</time>
      </trkpt>
      <trkpt lat="47.32315" lon="4.98423">
        <ele>394</ele>
        <time>2013-02-09T09:34:54.000Z</time>
      </trkpt>
      <trkpt lat="47.32314" lon="4.98428">
        <ele>394.4</ele>
        <time>2013-02-09T09:34:56.000Z</time>
      </trkpt>
      <trkpt lat="47.32314" lon="4.98431">
        <ele>395.4</ele>
        <time>2013-02-09T09:34:57.000Z</time>
      </trkpt>
      <trkpt lat="47.32314" lon="4.98435">
        <ele>395.6</ele>
        <time>2013-02-09T09:34:58.000Z</time>
      </trkpt>
      <trkpt lat="47.32314" lon="4.98438">
        <ele>397.1</ele>
        <time>2013-02-09T09:34:59.000Z</time>
      </trkpt>
      <trkpt lat="47.32314" lon="4.98443">
        <ele>398</ele>
        <time>2013-02-09T09:35:00.000Z</time>
      </trkpt>
      <trkpt lat="47.32315" lon="4.98447">
        <ele>398.2</ele>
        <time>2013-02-09T09:35:01.000Z</time>
      </trkpt>
      <trkpt lat="47.32315" lon="4.98451">
        <ele>398.8</ele>
        <time>2013-02-09T09:35:02.000Z</time>
      </trkpt>
      <trkpt lat="47.32316" lon="4.98455">
        <ele>399.4</ele>
        <time>2013-02-09T09:35:03.000Z</time>
      </trkpt>
      <trkpt lat="47.32316" lon="4.98459">
        <ele>399.7</ele>
        <time>2013-02-09T09:35:04.000Z</time>
      </trkpt>
      <trkpt lat="47.32317" lon="4.98463">
        <ele>400.3</ele>
        <time>2013-02-09T09:35:05.000Z</time>
      </trkpt>
      <trkpt lat="47.32318" lon="4.98467">
        <ele>400.9</ele>
        <time>2013-02-09T09:35:06.000Z</time>
      </trkpt>
      <trkpt lat="47.32318" lon="4.98471">
        <ele>401.6</ele>
        <time>2013-02-09T09:35:07.000Z</time>
      </trkpt>
      <trkpt lat="47.32319" lon="4.98477">
        <ele>402.7</ele>
        <time>2013-02-09T09:35:09.000Z</time>
      </trkpt>
      <trkpt lat="47.3232" lon="4.9848">
        <ele>403.1</ele>
        <time>2013-02-09T09:35:10.000Z</time>
      </trkpt>
      <trkpt lat="47.3232" lon="4.98485">
        <ele>404.3</ele>
        <time>2013-02-09T09:35:12.000Z</time>
      </trkpt>
      <trkpt lat="47.32321" lon="4.98488">
        <ele>402.5</ele>
        <time>2013-02-09T09:35:13.000Z</time>
      </trkpt>
      <trkpt lat="47.32321" lon="4.98494">
        <ele>400.6</ele>
        <time>2013-02-09T09:35:16.000Z</time>
      </trkpt>
      <trkpt lat="47.32321" lon="4.98495">
        <ele>399.9</ele>
        <time>2013-02-09T09:35:17.000Z</time>
      </trkpt>
      <trkpt lat="47.32321" lon="4.98496">
        <ele>398.6</ele>
        <time>2013-02-09T09:35:44.000Z</time>
      </trkpt>
      <trkpt lat="47.32319" lon="4.98501">
        <ele>390.9</ele>
        <time>2013-02-09T09:35:51.000Z</time>
      </trkpt>
      <trkpt lat="47.3232" lon="4.98506">
        <ele>393.2</ele>
        <time>2013-02-09T09:38:33.000Z</time>
      </trkpt>
      <trkpt lat="47.32321" lon="4.98508">
        <ele>393.2</ele>
        <time>2013-02-09T09:38:34.000Z</time>
      </trkpt>
      <trkpt lat="47.32323" lon="4.98513">
        <ele>393.4</ele>
        <time>2013-02-09T09:38:37.000Z</time>
      </trkpt>
      <trkpt lat="47.32324" lon="4.98515">
        <ele>393.6</ele>
        <time>2013-02-09T09:38:38.000Z</time>
      </trkpt>
      <trkpt lat="47.32325" lon="4.98521">
        <ele>393.8</ele>
        <time>2013-02-09T09:38:41.000Z</time>
      </trkpt>
      <trkpt lat="47.32326" lon="4.98523">
        <ele>393.8</ele>
        <time>2013-02-09T09:38:42.000Z</time>
      </trkpt>
      <trkpt lat="47.32328" lon="4.98527">
        <ele>393.9</ele>
        <time>2013-02-09T09:38:44.000Z</time>
      </trkpt>
      <trkpt lat="47.32338" lon="4.98549">
        <ele>397.4</ele>
        <time>2013-02-09T09:38:51.000Z</time>
      </trkpt>
      <trkpt lat="47.3234" lon="4.98554">
        <ele>398.5</ele>
        <time>2013-02-09T09:38:53.000Z</time>
      </trkpt>
      <trkpt lat="47.32342" lon="4.98557">
        <ele>398</ele>
        <time>2013-02-09T09:38:54.000Z</time>
      </trkpt>
      <trkpt lat="47.32344" lon="4.98561">
        <ele>398</ele>
        <time>2013-02-09T09:38:55.000Z</time>
      </trkpt>
      <trkpt lat="47.32345" lon="4.98564">
        <ele>397.9</ele>
        <time>2013-02-09T09:38:56.000Z</time>
      </trkpt>
      <trkpt lat="47.32347" lon="4.98567">
        <ele>398.6</ele>
        <time>2013-02-09T09:38:58.000Z</time>
      </trkpt>
      <trkpt lat="47.32348" lon="4.98569">
        <ele>399.2</ele>
        <time>2013-02-09T09:38:59.000Z</time>
      </trkpt>
      <trkpt lat="47.32351" lon="4.98573">
        <ele>400.3</ele>
        <time>2013-02-09T09:39:01.000Z</time>
      </trkpt>
      <trkpt lat="47.32352" lon="4.98574">
        <ele>400.5</ele>
        <time>2013-02-09T09:39:02.000Z</time>
      </trkpt>
      <trkpt lat="47.32355" lon="4.98577">
        <ele>400.6</ele>
        <time>2013-02-09T09:39:04.000Z</time>
      </trkpt>
      <trkpt lat="47.32357" lon="4.98578">
        <ele>400.6</ele>
        <time>2013-02-09T09:39:05.000Z</time>
      </trkpt>
      <trkpt lat="47.32361" lon="4.98579">
        <ele>401.2</ele>
        <time>2013-02-09T09:39:07.000Z</time>
      </trkpt>
      <trkpt lat="47.32363" lon="4.9858">
        <ele>401.5</ele>
        <time>2013-02-09T09:39:08.000Z</time>
      </trkpt>
      <trkpt lat="47.32366" lon="4.98582">
        <ele>402.7</ele>
        <time>2013-02-09T09:39:10.000Z</time>
      </trkpt>
      <trkpt lat="47.32367" lon="4.98583">
        <ele>402.9</ele>
        <time>2013-02-09T09:39:11.000Z</time>
      </trkpt>
      <trkpt lat="47.32371" lon="4.98585">
        <ele>403.8</ele>
        <time>2013-02-09T09:39:14.000Z</time>
      </trkpt>
      <trkpt lat="47.32372" lon="4.98586">
        <ele>404</ele>
        <time>2013-02-09T09:39:15.000Z</time>
      </trkpt>
      <trkpt lat="47.32376" lon="4.98588">
        <ele>403.7</ele>
        <time>2013-02-09T09:39:17.000Z</time>
      </trkpt>
      <trkpt lat="47.32377" lon="4.98589">
        <ele>403.7</ele>
        <time>2013-02-09T09:39:18.000Z</time>
      </trkpt>
      <trkpt lat="47.32381" lon="4.9859">
        <ele>404.1</ele>
        <time>2013-02-09T09:39:20.000Z</time>
      </trkpt>
      <trkpt lat="47.32384" lon="4.9859">
        <ele>404</ele>
        <time>2013-02-09T09:39:21.000Z</time>
      </trkpt>
      <trkpt lat="47.32388" lon="4.98591">
        <ele>404</ele>
        <time>2013-02-09T09:39:23.000Z</time>
      </trkpt>
      <trkpt lat="47.3239" lon="4.98591">
        <ele>404.1</ele>
        <time>2013-02-09T09:39:24.000Z</time>
      </trkpt>
      <trkpt lat="47.32395" lon="4.98592">
        <ele>404</ele>
        <time>2013-02-09T09:39:26.000Z</time>
      </trkpt>
      <trkpt lat="47.32397" lon="4.98592">
        <ele>403.9</ele>
        <time>2013-02-09T09:39:27.000Z</time>
      </trkpt>
      <trkpt lat="47.32399" lon="4.98593">
        <ele>403.9</ele>
        <time>2013-02-09T09:39:28.000Z</time>
      </trkpt>
      <trkpt lat="47.32401" lon="4.98594">
        <ele>404</ele>
        <time>2013-02-09T09:39:29.000Z</time>
      </trkpt>
      <trkpt lat="47.32405" lon="4.98596">
        <ele>404</ele>
        <time>2013-02-09T09:39:31.000Z</time>
      </trkpt>
      <trkpt lat="47.32407" lon="4.98597">
        <ele>403.8</ele>
        <time>2013-02-09T09:39:32.000Z</time>
      </trkpt>
      <trkpt lat="47.32411" lon="4.98598">
        <ele>403.4</ele>
        <time>2013-02-09T09:39:34.000Z</time>
      </trkpt>
      <trkpt lat="47.32413" lon="4.98598">
        <ele>403.2</ele>
        <time>2013-02-09T09:39:35.000Z</time>
      </trkpt>
      <trkpt lat="47.32417" lon="4.98598">
        <ele>403.1</ele>
        <time>2013-02-09T09:39:37.000Z</time>
      </trkpt>
      <trkpt lat="47.32419" lon="4.98599">
        <ele>403</ele>
        <time>2013-02-09T09:39:38.000Z</time>
      </trkpt>
      <trkpt lat="47.32423" lon="4.98598">
        <ele>402.8</ele>
        <time>2013-02-09T09:39:40.000Z</time>
      </trkpt>
      <trkpt lat="47.32425" lon="4.98598">
        <ele>402.6</ele>
        <time>2013-02-09T09:39:41.000Z</time>
      </trkpt>
      <trkpt lat="47.32428" lon="4.98597">
        <ele>402.4</ele>
        <time>2013-02-09T09:39:43.000Z</time>
      </trkpt>
      <trkpt lat="47.3243" lon="4.98595">
        <ele>402.4</ele>
        <time>2013-02-09T09:39:44.000Z</time>
      </trkpt>
      <trkpt lat="47.32432" lon="4.98592">
        <ele>402.4</ele>
        <time>2013-02-09T09:39:46.000Z</time>
      </trkpt>
      <trkpt lat="47.32434" lon="4.98591">
        <ele>402.4</ele>
        <time>2013-02-09T09:39:47.000Z</time>
      </trkpt>
      <trkpt lat="47.32436" lon="4.98587">
        <ele>402.2</ele>
        <time>2013-02-09T09:39:49.000Z</time>
      </trkpt>
      <trkpt lat="47.32437" lon="4.98584">
        <ele>402.1</ele>
        <time>2013-02-09T09:39:50.000Z</time>
      </trkpt>
      <trkpt lat="47.32439" lon="4.9858">
        <ele>401.7</ele>
        <time>2013-02-09T09:39:52.000Z</time>
      </trkpt>
      <trkpt lat="47.3244" lon="4.98578">
        <ele>401.7</ele>
        <time>2013-02-09T09:39:53.000Z</time>
      </trkpt>
      <trkpt lat="47.32441" lon="4.98574">
        <ele>401.8</ele>
        <time>2013-02-09T09:39:55.000Z</time>
      </trkpt>
      <trkpt lat="47.32441" lon="4.98571">
        <ele>401.8</ele>
        <time>2013-02-09T09:39:56.000Z</time>
      </trkpt>
      <trkpt lat="47.32442" lon="4.98566">
        <ele>401.7</ele>
        <time>2013-02-09T09:39:58.000Z</time>
      </trkpt>
      <trkpt lat="47.32443" lon="4.98564">
        <ele>401.6</ele>
        <time>2013-02-09T09:39:59.000Z</time>
      </trkpt>
      <trkpt lat="47.32443" lon="4.98559">
        <ele>401.6</ele>
        <time>2013-02-09T09:40:01.000Z</time>
      </trkpt>
      <trkpt lat="47.32444" lon="4.98556">
        <ele>401.5</ele>
        <time>2013-02-09T09:40:02.000Z</time>
      </trkpt>
      <trkpt lat="47.32444" lon="4.98551">
        <ele>401.4</ele>
        <time>2013-02-09T09:40:04.000Z</time>
      </trkpt>
      <trkpt lat="47.32445" lon="4.98548">
        <ele>401.4</ele>
        <time>2013-02-09T09:40:05.000Z</time>
      </trkpt>
      <trkpt lat="47.32445" lon="4.98543">
        <ele>401.4</ele>
        <time>2013-02-09T09:40:07.000Z</time>
      </trkpt>
      <trkpt lat="47.32446" lon="4.9854">
        <ele>401.5</ele>
        <time>2013-02-09T09:40:08.000Z</time>
      </trkpt>
      <trkpt lat="47.32447" lon="4.98534">
        <ele>401.5</ele>
        <time>2013-02-09T09:40:10.000Z</time>
      </trkpt>
      <trkpt lat="47.32447" lon="4.98532">
        <ele>401.5</ele>
        <time>2013-02-09T09:40:11.000Z</time>
      </trkpt>
      <trkpt lat="47.32447" lon="4.98526">
        <ele>401.5</ele>
        <time>2013-02-09T09:40:13.000Z</time>
      </trkpt>
      <trkpt lat="47.32448" lon="4.98524">
        <ele>401.5</ele>
        <time>2013-02-09T09:40:14.000Z</time>
      </trkpt>
      <trkpt lat="47.32448" lon="4.98518">
        <ele>401.4</ele>
        <time>2013-02-09T09:40:16.000Z</time>
      </trkpt>
      <trkpt lat="47.32449" lon="4.98515">
        <ele>401.4</ele>
        <time>2013-02-09T09:40:17.000Z</time>
      </trkpt>
      <trkpt lat="47.32449" lon="4.98509">
        <ele>401.3</ele>
        <time>2013-02-09T09:40:19.000Z</time>
      </trkpt>
      <trkpt lat="47.32449" lon="4.98507">
        <ele>401.3</ele>
        <time>2013-02-09T09:40:20.000Z</time>
      </trkpt>
      <trkpt lat="47.3245" lon="4.98501">
        <ele>401.3</ele>
        <time>2013-02-09T09:40:22.000Z</time>
      </trkpt>
      <trkpt lat="47.3245" lon="4.98498">
        <ele>401.3</ele>
        <time>2013-02-09T09:40:23.000Z</time>
      </trkpt>
      <trkpt lat="47.3245" lon="4.98492">
        <ele>401.5</ele>
        <time>2013-02-09T09:40:25.000Z</time>
      </trkpt>
      <trkpt lat="47.32451" lon="4.98489">
        <ele>401.6</ele>
        <time>2013-02-09T09:40:26.000Z</time>
      </trkpt>
      <trkpt lat="47.32451" lon="4.98484">
        <ele>401.6</ele>
        <time>2013-02-09T09:40:28.000Z</time>
      </trkpt>
      <trkpt lat="47.32451" lon="4.98481">
        <ele>401.8</ele>
        <time>2013-02-09T09:40:29.000Z</time>
      </trkpt>
      <trkpt lat="47.32452" lon="4.98475">
        <ele>402</ele>
        <time>2013-02-09T09:40:31.000Z</time>
      </trkpt>
      <trkpt lat="47.32452" lon="4.98473">
        <ele>402.1</ele>
        <time>2013-02-09T09:40:32.000Z</time>
      </trkpt>
      <trkpt lat="47.32452" lon="4.98467">
        <ele>402.3</ele>
        <time>2013-02-09T09:40:34.000Z</time>
      </trkpt>
      <trkpt lat="47.32452" lon="4.98464">
        <ele>402.4</ele>
        <time>2013-02-09T09:40:35.000Z</time>
      </trkpt>
      <trkpt lat="47.32453" lon="4.98458">
        <ele>402.6</ele>
        <time>2013-02-09T09:40:37.000Z</time>
      </trkpt>
      <trkpt lat="47.32453" lon="4.98455">
        <ele>402.6</ele>
        <time>2013-02-09T09:40:38.000Z</time>
      </trkpt>
      <trkpt lat="47.32454" lon="4.98449">
        <ele>402.8</ele>
        <time>2013-02-09T09:40:40.000Z</time>
      </trkpt>
      <trkpt lat="47.32454" lon="4.98446">
        <ele>402.8</ele>
        <time>2013-02-09T09:40:41.000Z</time>
      </trkpt>
      <trkpt lat="47.32454" lon="4.98441">
        <ele>402.9</ele>
        <time>2013-02-09T09:40:43.000Z</time>
      </trkpt>
      <trkpt lat="47.32454" lon="4.98438">
        <ele>403</ele>
        <time>2013-02-09T09:40:44.000Z</time>
      </trkpt>
      <trkpt lat="47.32455" lon="4.98418">
        <ele>402.8</ele>
        <time>2013-02-09T09:40:51.000Z</time>
      </trkpt>
      <trkpt lat="47.32456" lon="4.98413">
        <ele>403.6</ele>
        <time>2013-02-09T09:40:53.000Z</time>
      </trkpt>
      <trkpt lat="47.32456" lon="4.9841">
        <ele>403.6</ele>
        <time>2013-02-09T09:40:54.000Z</time>
      </trkpt>
      <trkpt lat="47.32456" lon="4.98405">
        <ele>403.9</ele>
        <time>2013-02-09T09:40:56.000Z</time>
      </trkpt>
      <trkpt lat="47.32456" lon="4.98402">
        <ele>404.2</ele>
        <time>2013-02-09T09:40:57.000Z</time>
      </trkpt>
      <trkpt lat="47.32456" lon="4.98397">
        <ele>404.5</ele>
        <time>2013-02-09T09:40:59.000Z</time>
      </trkpt>
      <trkpt lat="47.32456" lon="4.98395">
        <ele>404.7</ele>
        <time>2013-02-09T09:41:00.000Z</time>
      </trkpt>
      <trkpt lat="47.32456" lon="4.9839">
        <ele>405.1</ele>
        <time>2013-02-09T09:41:02.000Z</time>
      </trkpt>
      <trkpt lat="47.32456" lon="4.98387">
        <ele>405.1</ele>
        <time>2013-02-09T09:41:03.000Z</time>
      </trkpt>
      <trkpt lat="47.32456" lon="4.98382">
        <ele>405.4</ele>
        <time>2013-02-09T09:41:05.000Z</time>
      </trkpt>
      <trkpt lat="47.32457" lon="4.98379">
        <ele>405.6</ele>
        <time>2013-02-09T09:41:06.000Z</time>
      </trkpt>
      <trkpt lat="47.32457" lon="4.98373">
        <ele>405.5</ele>
        <time>2013-02-09T09:41:08.000Z</time>
      </trkpt>
      <trkpt lat="47.32457" lon="4.98371">
        <ele>405.7</ele>
        <time>2013-02-09T09:41:09.000Z</time>
      </trkpt>
      <trkpt lat="47.32457" lon="4.98365">
        <ele>406</ele>
        <time>2013-02-09T09:41:11.000Z</time>
      </trkpt>
      <trkpt lat="47.32457" lon="4.98362">
        <ele>406</ele>
        <time>2013-02-09T09:41:12.000Z</time>
      </trkpt>
      <trkpt lat="47.32457" lon="4.98357">
        <ele>406.1</ele>
        <time>2013-02-09T09:41:14.000Z</time>
      </trkpt>
      <trkpt lat="47.32457" lon="4.98354">
        <ele>406.1</ele>
        <time>2013-02-09T09:41:15.000Z</time>
      </trkpt>
      <trkpt lat="47.32458" lon="4.98348">
        <ele>406.1</ele>
        <time>2013-02-09T09:41:17.000Z</time>
      </trkpt>
      <trkpt lat="47.32458" lon="4.98346">
        <ele>406.1</ele>
        <time>2013-02-09T09:41:18.000Z</time>
      </trkpt>
      <trkpt lat="47.32458" lon="4.9834">
        <ele>406.1</ele>
        <time>2013-02-09T09:41:20.000Z</time>
      </trkpt>
      <trkpt lat="47.32458" lon="4.98337">
        <ele>405.9</ele>
        <time>2013-02-09T09:41:21.000Z</time>
      </trkpt>
      <trkpt lat="47.32458" lon="4.98331">
        <ele>405.7</ele>
        <time>2013-02-09T09:41:23.000Z</time>
      </trkpt>
      <trkpt lat="47.32458" lon="4.98328">
        <ele>405.6</ele>
        <time>2013-02-09T09:41:24.000Z</time>
      </trkpt>
      <trkpt lat="47.32459" lon="4.98322">
        <ele>405.5</ele>
        <time>2013-02-09T09:41:26.000Z</time>
      </trkpt>
      <trkpt lat="47.32459" lon="4.98319">
        <ele>405.6</ele>
        <time>2013-02-09T09:41:27.000Z</time>
      </trkpt>
      <trkpt lat="47.32459" lon="4.98313">
        <ele>405.6</ele>
        <time>2013-02-09T09:41:29.000Z</time>
      </trkpt>
      <trkpt lat="47.32459" lon="4.9831">
        <ele>405.6</ele>
        <time>2013-02-09T09:41:30.000Z</time>
      </trkpt>
      <trkpt lat="47.32459" lon="4.98305">
        <ele>405.8</ele>
        <time>2013-02-09T09:41:32.000Z</time>
      </trkpt>
      <trkpt lat="47.32459" lon="4.98302">
        <ele>405.8</ele>
        <time>2013-02-09T09:41:33.000Z</time>
      </trkpt>
      <trkpt lat="47.32459" lon="4.98297">
        <ele>406</ele>
        <time>2013-02-09T09:41:35.000Z</time>
      </trkpt>
      <trkpt lat="47.32459" lon="4.98294">
        <ele>406</ele>
        <time>2013-02-09T09:41:36.000Z</time>
      </trkpt>
      <trkpt lat="47.32459" lon="4.98289">
        <ele>406.1</ele>
        <time>2013-02-09T09:41:38.000Z</time>
      </trkpt>
      <trkpt lat="47.3246" lon="4.98286">
        <ele>406.1</ele>
        <time>2013-02-09T09:41:39.000Z</time>
      </trkpt>
      <trkpt lat="47.3246" lon="4.9828">
        <ele>406.3</ele>
        <time>2013-02-09T09:41:41.000Z</time>
      </trkpt>
      <trkpt lat="47.3246" lon="4.98278">
        <ele>406.4</ele>
        <time>2013-02-09T09:41:42.000Z</time>
      </trkpt>
      <trkpt lat="47.3246" lon="4.98272">
        <ele>406.5</ele>
        <time>2013-02-09T09:41:44.000Z</time>
      </trkpt>
      <trkpt lat="47.32462" lon="4.98251">
        <ele>407.8</ele>
        <time>2013-02-09T09:41:51.000Z</time>
      </trkpt>
      <trkpt lat="47.32462" lon="4.98246">
        <ele>408.5</ele>
        <time>2013-02-09T09:41:53.000Z</time>
      </trkpt>
      <trkpt lat="47.32462" lon="4.98244">
        <ele>408.3</ele>
        <time>2013-02-09T09:41:54.000Z</time>
      </trkpt>
      <trkpt lat="47.32462" lon="4.98238">
        <ele>408.2</ele>
        <time>2013-02-09T09:41:56.000Z</time>
      </trkpt>
      <trkpt lat="47.32462" lon="4.98236">
        <ele>408.3</ele>
        <time>2013-02-09T09:41:57.000Z</time>
      </trkpt>
      <trkpt lat="47.32462" lon="4.9823">
        <ele>408.5</ele>
        <time>2013-02-09T09:41:59.000Z</time>
      </trkpt>
      <trkpt lat="47.32462" lon="4.98228">
        <ele>408.5</ele>
        <time>2013-02-09T09:42:00.000Z</time>
      </trkpt>
      <trkpt lat="47.32462" lon="4.98223">
        <ele>408.8</ele>
        <time>2013-02-09T09:42:02.000Z</time>
      </trkpt>
      <trkpt lat="47.32462" lon="4.9822">
        <ele>408.9</ele>
        <time>2013-02-09T09:42:03.000Z</time>
      </trkpt>
      <trkpt lat="47.32463" lon="4.98216">
        <ele>409</ele>
        <time>2013-02-09T09:42:05.000Z</time>
      </trkpt>
      <trkpt lat="47.32463" lon="4.98213">
        <ele>409.1</ele>
        <time>2013-02-09T09:42:06.000Z</time>
      </trkpt>
      <trkpt lat="47.32463" lon="4.98208">
        <ele>409.1</ele>
        <time>2013-02-09T09:42:08.000Z</time>
      </trkpt>
      <trkpt lat="47.32463" lon="4.98205">
        <ele>409.2</ele>
        <time>2013-02-09T09:42:09.000Z</time>
      </trkpt>
      <trkpt lat="47.32463" lon="4.982">
        <ele>409.4</ele>
        <time>2013-02-09T09:42:11.000Z</time>
      </trkpt>
      <trkpt lat="47.32463" lon="4.98197">
        <ele>409.5</ele>
        <time>2013-02-09T09:42:12.000Z</time>
      </trkpt>
      <trkpt lat="47.32464" lon="4.98192">
        <ele>409.7</ele>
        <time>2013-02-09T09:42:14.000Z</time>
      </trkpt>
      <trkpt lat="47.32464" lon="4.98189">
        <ele>409.8</ele>
        <time>2013-02-09T09:42:15.000Z</time>
      </trkpt>
      <trkpt lat="47.32464" lon="4.98184">
        <ele>409.8</ele>
        <time>2013-02-09T09:42:17.000Z</time>
      </trkpt>
      <trkpt lat="47.32464" lon="4.98181">
        <ele>409.8</ele>
        <time>2013-02-09T09:42:18.000Z</time>
      </trkpt>
      <trkpt lat="47.32464" lon="4.98176">
        <ele>410</ele>
        <time>2013-02-09T09:42:20.000Z</time>
      </trkpt>
      <trkpt lat="47.32464" lon="4.98173">
        <ele>410</ele>
        <time>2013-02-09T09:42:21.000Z</time>
      </trkpt>
      <trkpt lat="47.32464" lon="4.98168">
        <ele>410.1</ele>
        <time>2013-02-09T09:42:23.000Z</time>
      </trkpt>
      <trkpt lat="47.32465" lon="4.98165">
        <ele>410.2</ele>
        <time>2013-02-09T09:42:24.000Z</time>
      </trkpt>
      <trkpt lat="47.32465" lon="4.9816">
        <ele>410.3</ele>
        <time>2013-02-09T09:42:26.000Z</time>
      </trkpt>
      <trkpt lat="47.32465" lon="4.98157">
        <ele>410.3</ele>
        <time>2013-02-09T09:42:27.000Z</time>
      </trkpt>
      <trkpt lat="47.32465" lon="4.98151">
        <ele>410.5</ele>
        <time>2013-02-09T09:42:29.000Z</time>
      </trkpt>
      <trkpt lat="47.32465" lon="4.98149">
        <ele>410.6</ele>
        <time>2013-02-09T09:42:30.000Z</time>
      </trkpt>
      <trkpt lat="47.32465" lon="4.98143">
        <ele>410.7</ele>
        <time>2013-02-09T09:42:32.000Z</time>
      </trkpt>
      <trkpt lat="47.32465" lon="4.98141">
        <ele>410.7</ele>
        <time>2013-02-09T09:42:33.000Z</time>
      </trkpt>
      <trkpt lat="47.32466" lon="4.98135">
        <ele>410.7</ele>
        <time>2013-02-09T09:42:35.000Z</time>
      </trkpt>
      <trkpt lat="47.32466" lon="4.98133">
        <ele>410.8</ele>
        <time>2013-02-09T09:42:36.000Z</time>
      </trkpt>
      <trkpt lat="47.32466" lon="4.98127">
        <ele>411</ele>
        <time>2013-02-09T09:42:38.000Z</time>
      </trkpt>
      <trkpt lat="47.32466" lon="4.98125">
        <ele>411.1</ele>
        <time>2013-02-09T09:42:39.000Z</time>
      </trkpt>
      <trkpt lat="47.32466" lon="4.9812">
        <ele>411.2</ele>
        <time>2013-02-09T09:42:41.000Z</time>
      </trkpt>
      <trkpt lat="47.32466" lon="4.98117">
        <ele>411.3</ele>
        <time>2013-02-09T09:42:42.000Z</time>
      </trkpt>
      <trkpt lat="47.32467" lon="4.98112">
        <ele>411.5</ele>
        <time>2013-02-09T09:42:44.000Z</time>
      </trkpt>
      <trkpt lat="47.32467" lon="4.98095">
        <ele>414.4</ele>
        <time>2013-02-09T09:42:51.000Z</time>
      </trkpt>
      <trkpt lat="47.32467" lon="4.9809">
        <ele>414.1</ele>
        <time>2013-02-09T09:42:53.000Z</time>
      </trkpt>
      <trkpt lat="47.32467" lon="4.98088">
        <ele>413.9</ele>
        <time>2013-02-09T09:42:54.000Z</time>
      </trkpt>
      <trkpt lat="47.32467" lon="4.98082">
        <ele>413.6</ele>
        <time>2013-02-09T09:42:56.000Z</time>
      </trkpt>
      <trkpt lat="47.32467" lon="4.9808">
        <ele>413.6</ele>
        <time>2013-02-09T09:42:57.000Z</time>
      </trkpt>
      <trkpt lat="47.32467" lon="4.98074">
        <ele>413.6</ele>
        <time>2013-02-09T09:42:59.000Z</time>
      </trkpt>
      <trkpt lat="47.32467" lon="4.98072">
        <ele>413.6</ele>
        <time>2013-02-09T09:43:00.000Z</time>
      </trkpt>
      <trkpt lat="47.32468" lon="4.98066">
        <ele>413.8</ele>
        <time>2013-02-09T09:43:02.000Z</time>
      </trkpt>
      <trkpt lat="47.32468" lon="4.98064">
        <ele>414</ele>
        <time>2013-02-09T09:43:03.000Z</time>
      </trkpt>
      <trkpt lat="47.32468" lon="4.98059">
        <ele>414.2</ele>
        <time>2013-02-09T09:43:05.000Z</time>
      </trkpt>
      <trkpt lat="47.32468" lon="4.98056">
        <ele>414.3</ele>
        <time>2013-02-09T09:43:06.000Z</time>
      </trkpt>
      <trkpt lat="47.32469" lon="4.98051">
        <ele>414.6</ele>
        <time>2013-02-09T09:43:08.000Z</time>
      </trkpt>
      <trkpt lat="47.32469" lon="4.98049">
        <ele>414.6</ele>
        <time>2013-02-09T09:43:09.000Z</time>
      </trkpt>
      <trkpt lat="47.3247" lon="4.98044">
        <ele>414.9</ele>
        <time>2013-02-09T09:43:11.000Z</time>
      </trkpt>
      <trkpt lat="47.3247" lon="4.98041">
        <ele>415.1</ele>
        <time>2013-02-09T09:43:12.000Z</time>
      </trkpt>
      <trkpt lat="47.3247" lon="4.98036">
        <ele>415.3</ele>
        <time>2013-02-09T09:43:14.000Z</time>
      </trkpt>
      <trkpt lat="47.3247" lon="4.98034">
        <ele>415.4</ele>
        <time>2013-02-09T09:43:15.000Z</time>
      </trkpt>
      <trkpt lat="47.3247" lon="4.98029">
        <ele>415.6</ele>
        <time>2013-02-09T09:43:17.000Z</time>
      </trkpt>
      <trkpt lat="47.32471" lon="4.98026">
        <ele>415.6</ele>
        <time>2013-02-09T09:43:18.000Z</time>
      </trkpt>
      <trkpt lat="47.32471" lon="4.98021">
        <ele>415.7</ele>
        <time>2013-02-09T09:43:20.000Z</time>
      </trkpt>
      <trkpt lat="47.32471" lon="4.98018">
        <ele>415.8</ele>
        <time>2013-02-09T09:43:21.000Z</time>
      </trkpt>
      <trkpt lat="47.32471" lon="4.98014">
        <ele>416</ele>
        <time>2013-02-09T09:43:23.000Z</time>
      </trkpt>
      <trkpt lat="47.32471" lon="4.98011">
        <ele>416.1</ele>
        <time>2013-02-09T09:43:24.000Z</time>
      </trkpt>
      <trkpt lat="47.32471" lon="4.98006">
        <ele>416.3</ele>
        <time>2013-02-09T09:43:26.000Z</time>
      </trkpt>
      <trkpt lat="47.32472" lon="4.98003">
        <ele>416.4</ele>
        <time>2013-02-09T09:43:27.000Z</time>
      </trkpt>
      <trkpt lat="47.32472" lon="4.97998">
        <ele>416.6</ele>
        <time>2013-02-09T09:43:29.000Z</time>
      </trkpt>
      <trkpt lat="47.32472" lon="4.97996">
        <ele>416.7</ele>
        <time>2013-02-09T09:43:30.000Z</time>
      </trkpt>
      <trkpt lat="47.32473" lon="4.97991">
        <ele>416.9</ele>
        <time>2013-02-09T09:43:32.000Z</time>
      </trkpt>
      <trkpt lat="47.32473" lon="4.97988">
        <ele>417</ele>
        <time>2013-02-09T09:43:33.000Z</time>
      </trkpt>
      <trkpt lat="47.32473" lon="4.97982">
        <ele>417.1</ele>
        <time>2013-02-09T09:43:35.000Z</time>
      </trkpt>
      <trkpt lat="47.32473" lon="4.97979">
        <ele>417.2</ele>
        <time>2013-02-09T09:43:36.000Z</time>
      </trkpt>
      <trkpt lat="47.32474" lon="4.97974">
        <ele>417.4</ele>
        <time>2013-02-09T09:43:38.000Z</time>
      </trkpt>
      <trkpt lat="47.32474" lon="4.97971">
        <ele>417.5</ele>
        <time>2013-02-09T09:43:39.000Z</time>
      </trkpt>
      <trkpt lat="47.32474" lon="4.97966">
        <ele>417.8</ele>
        <time>2013-02-09T09:43:41.000Z</time>
      </trkpt>
      <trkpt lat="47.32474" lon="4.97963">
        <ele>417.9</ele>
        <time>2013-02-09T09:43:42.000Z</time>
      </trkpt>
      <trkpt lat="47.32474" lon="4.97958">
        <ele>418.1</ele>
        <time>2013-02-09T09:43:44.000Z</time>
      </trkpt>
      <trkpt lat="47.32474" lon="4.97956">
        <ele>418.2</ele>
        <time>2013-02-09T09:43:45.000Z</time>
      </trkpt>
      <trkpt lat="47.32474" lon="4.97951">
        <ele>418.4</ele>
        <time>2013-02-09T09:43:47.000Z</time>
      </trkpt>
      <trkpt lat="47.32474" lon="4.97948">
        <ele>418.5</ele>
        <time>2013-02-09T09:43:48.000Z</time>
      </trkpt>
      <trkpt lat="47.32474" lon="4.97943">
        <ele>418.6</ele>
        <time>2013-02-09T09:43:50.000Z</time>
      </trkpt>
      <trkpt lat="47.32474" lon="4.9794">
        <ele>418.7</ele>
        <time>2013-02-09T09:43:51.000Z</time>
      </trkpt>
      <trkpt lat="47.32475" lon="4.97935">
        <ele>419</ele>
        <time>2013-02-09T09:43:53.000Z</time>
      </trkpt>
      <trkpt lat="47.32475" lon="4.97932">
        <ele>419.1</ele>
        <time>2013-02-09T09:43:54.000Z</time>
      </trkpt>
      <trkpt lat="47.32475" lon="4.97927">
        <ele>419.3</ele>
        <time>2013-02-09T09:43:56.000Z</time>
      </trkpt>
      <trkpt lat="47.32475" lon="4.97924">
        <ele>419.4</ele>
        <time>2013-02-09T09:43:57.000Z</time>
      </trkpt>
      <trkpt lat="47.32476" lon="4.97919">
        <ele>419.6</ele>
        <time>2013-02-09T09:43:59.000Z</time>
      </trkpt>
      <trkpt lat="47.32476" lon="4.97917">
        <ele>419.7</ele>
        <time>2013-02-09T09:44:00.000Z</time>
      </trkpt>
      <trkpt lat="47.32476" lon="4.97911">
        <ele>419.8</ele>
        <time>2013-02-09T09:44:02.000Z</time>
      </trkpt>
      <trkpt lat="47.32476" lon="4.97909">
        <ele>419.9</ele>
        <time>2013-02-09T09:44:03.000Z</time>
      </trkpt>
      <trkpt lat="47.32477" lon="4.97904">
        <ele>420.1</ele>
        <time>2013-02-09T09:44:05.000Z</time>
      </trkpt>
      <trkpt lat="47.32477" lon="4.97901">
        <ele>420.1</ele>
        <time>2013-02-09T09:44:06.000Z</time>
      </trkpt>
      <trkpt lat="47.32477" lon="4.97896">
        <ele>420.3</ele>
        <time>2013-02-09T09:44:08.000Z</time>
      </trkpt>
      <trkpt lat="47.32477" lon="4.97894">
        <ele>420.4</ele>
        <time>2013-02-09T09:44:09.000Z</time>
      </trkpt>
      <trkpt lat="47.32478" lon="4.97889">
        <ele>420.6</ele>
        <time>2013-02-09T09:44:11.000Z</time>
      </trkpt>
      <trkpt lat="47.32478" lon="4.97886">
        <ele>420.7</ele>
        <time>2013-02-09T09:44:12.000Z</time>
      </trkpt>
      <trkpt lat="47.32479" lon="4.97881">
        <ele>420.9</ele>
        <time>2013-02-09T09:44:14.000Z</time>
      </trkpt>
      <trkpt lat="47.3248" lon="4.97879">
        <ele>421</ele>
        <time>2013-02-09T09:44:15.000Z</time>
      </trkpt>
      <trkpt lat="47.32481" lon="4.97874">
        <ele>421.2</ele>
        <time>2013-02-09T09:44:17.000Z</time>
      </trkpt>
      <trkpt lat="47.32481" lon="4.97871">
        <ele>421.3</ele>
        <time>2013-02-09T09:44:18.000Z</time>
      </trkpt>
      <trkpt lat="47.32483" lon="4.97867">
        <ele>421.5</ele>
        <time>2013-02-09T09:44:20.000Z</time>
      </trkpt>
      <trkpt lat="47.32484" lon="4.97865">
        <ele>421.6</ele>
        <time>2013-02-09T09:44:21.000Z</time>
      </trkpt>
      <trkpt lat="47.32486" lon="4.97862">
        <ele>421.7</ele>
        <time>2013-02-09T09:44:23.000Z</time>
      </trkpt>
      <trkpt lat="47.32487" lon="4.9786">
        <ele>421.8</ele>
        <time>2013-02-09T09:44:24.000Z</time>
      </trkpt>
      <trkpt lat="47.32488" lon="4.97855">
        <ele>421.9</ele>
        <time>2013-02-09T09:44:26.000Z</time>
      </trkpt>
      <trkpt lat="47.32488" lon="4.97853">
        <ele>421.9</ele>
        <time>2013-02-09T09:44:27.000Z</time>
      </trkpt>
      <trkpt lat="47.32488" lon="4.97848">
        <ele>422.1</ele>
        <time>2013-02-09T09:44:29.000Z</time>
      </trkpt>
      <trkpt lat="47.32488" lon="4.97846">
        <ele>422.2</ele>
        <time>2013-02-09T09:44:30.000Z</time>
      </trkpt>
      <trkpt lat="47.32488" lon="4.97841">
        <ele>422.4</ele>
        <time>2013-02-09T09:44:32.000Z</time>
      </trkpt>
      <trkpt lat="47.32488" lon="4.97839">
        <ele>422.5</ele>
        <time>2013-02-09T09:44:33.000Z</time>
      </trkpt>
      <trkpt lat="47.32489" lon="4.97834">
        <ele>422.7</ele>
        <time>2013-02-09T09:44:35.000Z</time>
      </trkpt>
      <trkpt lat="47.32489" lon="4.97832">
        <ele>422.7</ele>
        <time>2013-02-09T09:44:36.000Z</time>
      </trkpt>
      <trkpt lat="47.3249" lon="4.97825">
        <ele>423.3</ele>
        <time>2013-02-09T09:44:39.000Z</time>
      </trkpt>
      <trkpt lat="47.3249" lon="4.97823">
        <ele>423.5</ele>
        <time>2013-02-09T09:44:40.000Z</time>
      </trkpt>
      <trkpt lat="47.32492" lon="4.97817">
        <ele>423.9</ele>
        <time>2013-02-09T09:44:43.000Z</time>
      </trkpt>
      <trkpt lat="47.32493" lon="4.97815">
        <ele>424.2</ele>
        <time>2013-02-09T09:44:44.000Z</time>
      </trkpt>
      <trkpt lat="47.32494" lon="4.97811">
        <ele>424.5</ele>
        <time>2013-02-09T09:44:46.000Z</time>
      </trkpt>
      <trkpt lat="47.32494" lon="4.97809">
        <ele>424.7</ele>
        <time>2013-02-09T09:44:47.000Z</time>
      </trkpt>
      <trkpt lat="47.32496" lon="4.97804">
        <ele>425.1</ele>
        <time>2013-02-09T09:44:49.000Z</time>
      </trkpt>
      <trkpt lat="47.32496" lon="4.97802">
        <ele>425.2</ele>
        <time>2013-02-09T09:44:50.000Z</time>
      </trkpt>
      <trkpt lat="47.32497" lon="4.97797">
        <ele>425.5</ele>
        <time>2013-02-09T09:44:52.000Z</time>
      </trkpt>
      <trkpt lat="47.32498" lon="4.97795">
        <ele>425.6</ele>
        <time>2013-02-09T09:44:53.000Z</time>
      </trkpt>
      <trkpt lat="47.32498" lon="4.9779">
        <ele>426</ele>
        <time>2013-02-09T09:44:55.000Z</time>
      </trkpt>
      <trkpt lat="47.32499" lon="4.97788">
        <ele>426.1</ele>
        <time>2013-02-09T09:44:56.000Z</time>
      </trkpt>
      <trkpt lat="47.325" lon="4.97783">
        <ele>426.3</ele>
        <time>2013-02-09T09:44:58.000Z</time>
      </trkpt>
      <trkpt lat="47.325" lon="4.97781">
        <ele>426.4</ele>
        <time>2013-02-09T09:44:59.000Z</time>
      </trkpt>
      <trkpt lat="47.32501" lon="4.97776">
        <ele>426.9</ele>
        <time>2013-02-09T09:45:01.000Z</time>
      </trkpt>
      <trkpt lat="47.32501" lon="4.97773">
        <ele>427.1</ele>
        <time>2013-02-09T09:45:02.000Z</time>
      </trkpt>
      <trkpt lat="47.32502" lon="4.97769">
        <ele>427.6</ele>
        <time>2013-02-09T09:45:04.000Z</time>
      </trkpt>
      <trkpt lat="47.32502" lon="4.97767">
        <ele>427.8</ele>
        <time>2013-02-09T09:45:05.000Z</time>
      </trkpt>
      <trkpt lat="47.32502" lon="4.97762">
        <ele>428.2</ele>
        <time>2013-02-09T09:45:07.000Z</time>
      </trkpt>
      <trkpt lat="47.32502" lon="4.9776">
        <ele>428.4</ele>
        <time>2013-02-09T09:45:08.000Z</time>
      </trkpt>
      <trkpt lat="47.32503" lon="4.97755">
        <ele>428.7</ele>
        <time>2013-02-09T09:45:10.000Z</time>
      </trkpt>
      <trkpt lat="47.32503" lon="4.97752">
        <ele>428.8</ele>
        <time>2013-02-09T09:45:11.000Z</time>
      </trkpt>
      <trkpt lat="47.32504" lon="4.97747">
        <ele>429.1</ele>
        <time>2013-02-09T09:45:13.000Z</time>
      </trkpt>
      <trkpt lat="47.32504" lon="4.97744">
        <ele>429.3</ele>
        <time>2013-02-09T09:45:14.000Z</time>
      </trkpt>
      <trkpt lat="47.32504" lon="4.97739">
        <ele>429.6</ele>
        <time>2013-02-09T09:45:16.000Z</time>
      </trkpt>
      <trkpt lat="47.32505" lon="4.97737">
        <ele>429.8</ele>
        <time>2013-02-09T09:45:17.000Z</time>
      </trkpt>
      <trkpt lat="47.32505" lon="4.97732">
        <ele>430.1</ele>
        <time>2013-02-09T09:45:19.000Z</time>
      </trkpt>
      <trkpt lat="47.32505" lon="4.9773">
        <ele>430.3</ele>
        <time>2013-02-09T09:45:20.000Z</time>
      </trkpt>
      <trkpt lat="47.32506" lon="4.97725">
        <ele>430.6</ele>
        <time>2013-02-09T09:45:22.000Z</time>
      </trkpt>
      <trkpt lat="47.32506" lon="4.97722">
        <ele>430.7</ele>
        <time>2013-02-09T09:45:23.000Z</time>
      </trkpt>
      <trkpt lat="47.32507" lon="4.97717">
        <ele>431.1</ele>
        <time>2013-02-09T09:45:25.000Z</time>
      </trkpt>
      <trkpt lat="47.32507" lon="4.97715">
        <ele>431.3</ele>
        <time>2013-02-09T09:45:26.000Z</time>
      </trkpt>
      <trkpt lat="47.32507" lon="4.97708">
        <ele>432.3</ele>
        <time>2013-02-09T09:45:29.000Z</time>
      </trkpt>
      <trkpt lat="47.32507" lon="4.97706">
        <ele>432.6</ele>
        <time>2013-02-09T09:45:30.000Z</time>
      </trkpt>
      <trkpt lat="47.32507" lon="4.977">
        <ele>433.6</ele>
        <time>2013-02-09T09:45:33.000Z</time>
      </trkpt>
      <trkpt lat="47.32507" lon="4.97697">
        <ele>433.9</ele>
        <time>2013-02-09T09:45:34.000Z</time>
      </trkpt>
      <trkpt lat="47.32508" lon="4.97693">
        <ele>434.5</ele>
        <time>2013-02-09T09:45:36.000Z</time>
      </trkpt>
      <trkpt lat="47.32508" lon="4.97691">
        <ele>434.8</ele>
        <time>2013-02-09T09:45:37.000Z</time>
      </trkpt>
      <trkpt lat="47.32508" lon="4.97686">
        <ele>435.4</ele>
        <time>2013-02-09T09:45:39.000Z</time>
      </trkpt>
      <trkpt lat="47.32508" lon="4.97684">
        <ele>435.6</ele>
        <time>2013-02-09T09:45:40.000Z</time>
      </trkpt>
      <trkpt lat="47.32508" lon="4.97679">
        <ele>436.1</ele>
        <time>2013-02-09T09:45:42.000Z</time>
      </trkpt>
      <trkpt lat="47.32508" lon="4.97677">
        <ele>436.3</ele>
        <time>2013-02-09T09:45:43.000Z</time>
      </trkpt>
      <trkpt lat="47.32508" lon="4.97674">
        <ele>436.6</ele>
        <time>2013-02-09T09:45:44.000Z</time>
      </trkpt>
      <trkpt lat="47.32508" lon="4.97658">
        <ele>438.4</ele>
        <time>2013-02-09T09:45:51.000Z</time>
      </trkpt>
      <trkpt lat="47.32508" lon="4.97652">
        <ele>439.6</ele>
        <time>2013-02-09T09:45:53.000Z</time>
      </trkpt>
      <trkpt lat="47.32508" lon="4.97649">
        <ele>440</ele>
        <time>2013-02-09T09:45:54.000Z</time>
      </trkpt>
      <trkpt lat="47.32508" lon="4.97645">
        <ele>440.2</ele>
        <time>2013-02-09T09:45:56.000Z</time>
      </trkpt>
      <trkpt lat="47.32507" lon="4.97643">
        <ele>440.5</ele>
        <time>2013-02-09T09:45:57.000Z</time>
      </trkpt>
      <trkpt lat="47.32507" lon="4.97638">
        <ele>441.1</ele>
        <time>2013-02-09T09:45:59.000Z</time>
      </trkpt>
      <trkpt lat="47.32508" lon="4.97636">
        <ele>441.3</ele>
        <time>2013-02-09T09:46:00.000Z</time>
      </trkpt>
      <trkpt lat="47.32508" lon="4.97631">
        <ele>441.7</ele>
        <time>2013-02-09T09:46:02.000Z</time>
      </trkpt>
      <trkpt lat="47.32508" lon="4.97629">
        <ele>442</ele>
        <time>2013-02-09T09:46:03.000Z</time>
      </trkpt>
      <trkpt lat="47.32509" lon="4.97624">
        <ele>442.4</ele>
        <time>2013-02-09T09:46:05.000Z</time>
      </trkpt>
      <trkpt lat="47.32509" lon="4.97621">
        <ele>442.6</ele>
        <time>2013-02-09T09:46:06.000Z</time>
      </trkpt>
      <trkpt lat="47.32509" lon="4.97617">
        <ele>443</ele>
        <time>2013-02-09T09:46:08.000Z</time>
      </trkpt>
      <trkpt lat="47.32509" lon="4.97614">
        <ele>443.3</ele>
        <time>2013-02-09T09:46:09.000Z</time>
      </trkpt>
      <trkpt lat="47.32509" lon="4.97609">
        <ele>443.5</ele>
        <time>2013-02-09T09:46:11.000Z</time>
      </trkpt>
      <trkpt lat="47.32509" lon="4.97607">
        <ele>443.7</ele>
        <time>2013-02-09T09:46:12.000Z</time>
      </trkpt>
      <trkpt lat="47.32509" lon="4.97602">
        <ele>444</ele>
        <time>2013-02-09T09:46:14.000Z</time>
      </trkpt>
      <trkpt lat="47.32509" lon="4.976">
        <ele>444.1</ele>
        <time>2013-02-09T09:46:15.000Z</time>
      </trkpt>
      <trkpt lat="47.3251" lon="4.97595">
        <ele>444.2</ele>
        <time>2013-02-09T09:46:17.000Z</time>
      </trkpt>
      <trkpt lat="47.3251" lon="4.97593">
        <ele>444.3</ele>
        <time>2013-02-09T09:46:18.000Z</time>
      </trkpt>
      <trkpt lat="47.3251" lon="4.97588">
        <ele>444.5</ele>
        <time>2013-02-09T09:46:20.000Z</time>
      </trkpt>
      <trkpt lat="47.3251" lon="4.97585">
        <ele>444.6</ele>
        <time>2013-02-09T09:46:21.000Z</time>
      </trkpt>
      <trkpt lat="47.3251" lon="4.9758">
        <ele>444.7</ele>
        <time>2013-02-09T09:46:23.000Z</time>
      </trkpt>
      <trkpt lat="47.3251" lon="4.97578">
        <ele>444.7</ele>
        <time>2013-02-09T09:46:24.000Z</time>
      </trkpt>
      <trkpt lat="47.3251" lon="4.97573">
        <ele>444.9</ele>
        <time>2013-02-09T09:46:26.000Z</time>
      </trkpt>
      <trkpt lat="47.3251" lon="4.9757">
        <ele>445</ele>
        <time>2013-02-09T09:46:27.000Z</time>
      </trkpt>
      <trkpt lat="47.3251" lon="4.97565">
        <ele>445.1</ele>
        <time>2013-02-09T09:46:29.000Z</time>
      </trkpt>
      <trkpt lat="47.32511" lon="4.97562">
        <ele>445.1</ele>
        <time>2013-02-09T09:46:30.000Z</time>
      </trkpt>
      <trkpt lat="47.32511" lon="4.97557">
        <ele>445.2</ele>
        <time>2013-02-09T09:46:32.000Z</time>
      </trkpt>
      <trkpt lat="47.32511" lon="4.97554">
        <ele>445.3</ele>
        <time>2013-02-09T09:46:33.000Z</time>
      </trkpt>
      <trkpt lat="47.32511" lon="4.97549">
        <ele>445.5</ele>
        <time>2013-02-09T09:46:35.000Z</time>
      </trkpt>
      <trkpt lat="47.32511" lon="4.97546">
        <ele>445.6</ele>
        <time>2013-02-09T09:46:36.000Z</time>
      </trkpt>
      <trkpt lat="47.32511" lon="4.97541">
        <ele>445.7</ele>
        <time>2013-02-09T09:46:38.000Z</time>
      </trkpt>
      <trkpt lat="47.32511" lon="4.97539">
        <ele>445.9</ele>
        <time>2013-02-09T09:46:39.000Z</time>
      </trkpt>
      <trkpt lat="47.32511" lon="4.97534">
        <ele>446.2</ele>
        <time>2013-02-09T09:46:41.000Z</time>
      </trkpt>
      <trkpt lat="47.32511" lon="4.97532">
        <ele>446.3</ele>
        <time>2013-02-09T09:46:42.000Z</time>
      </trkpt>
      <trkpt lat="47.32511" lon="4.97527">
        <ele>446.6</ele>
        <time>2013-02-09T09:46:44.000Z</time>
      </trkpt>
      <trkpt lat="47.32512" lon="4.97509">
        <ele>448.5</ele>
        <time>2013-02-09T09:46:51.000Z</time>
      </trkpt>
      <trkpt lat="47.32511" lon="4.97503">
        <ele>448.5</ele>
        <time>2013-02-09T09:46:54.000Z</time>
      </trkpt>
      <trkpt lat="47.32511" lon="4.975">
        <ele>448.6</ele>
        <time>2013-02-09T09:46:55.000Z</time>
      </trkpt>
      <trkpt lat="47.32511" lon="4.97496">
        <ele>449</ele>
        <time>2013-02-09T09:46:57.000Z</time>
      </trkpt>
      <trkpt lat="47.32511" lon="4.97494">
        <ele>449.1</ele>
        <time>2013-02-09T09:46:58.000Z</time>
      </trkpt>
      <trkpt lat="47.32511" lon="4.97489">
        <ele>449.2</ele>
        <time>2013-02-09T09:47:00.000Z</time>
      </trkpt>
      <trkpt lat="47.32511" lon="4.97486">
        <ele>449.3</ele>
        <time>2013-02-09T09:47:01.000Z</time>
      </trkpt>
      <trkpt lat="47.32511" lon="4.97481">
        <ele>449.3</ele>
        <time>2013-02-09T09:47:03.000Z</time>
      </trkpt>
      <trkpt lat="47.32511" lon="4.97478">
        <ele>449.3</ele>
        <time>2013-02-09T09:47:04.000Z</time>
      </trkpt>
      <trkpt lat="47.32511" lon="4.97473">
        <ele>449.3</ele>
        <time>2013-02-09T09:47:06.000Z</time>
      </trkpt>
      <trkpt lat="47.32511" lon="4.97471">
        <ele>449.4</ele>
        <time>2013-02-09T09:47:07.000Z</time>
      </trkpt>
      <trkpt lat="47.3251" lon="4.97466">
        <ele>449.6</ele>
        <time>2013-02-09T09:47:09.000Z</time>
      </trkpt>
      <trkpt lat="47.3251" lon="4.97463">
        <ele>449.7</ele>
        <time>2013-02-09T09:47:10.000Z</time>
      </trkpt>
      <trkpt lat="47.3251" lon="4.97458">
        <ele>449.9</ele>
        <time>2013-02-09T09:47:12.000Z</time>
      </trkpt>
      <trkpt lat="47.3251" lon="4.97455">
        <ele>449.9</ele>
        <time>2013-02-09T09:47:13.000Z</time>
      </trkpt>
      <trkpt lat="47.3251" lon="4.9745">
        <ele>449.9</ele>
        <time>2013-02-09T09:47:15.000Z</time>
      </trkpt>
      <trkpt lat="47.3251" lon="4.97447">
        <ele>449.9</ele>
        <time>2013-02-09T09:47:16.000Z</time>
      </trkpt>
      <trkpt lat="47.3251" lon="4.97442">
        <ele>449.9</ele>
        <time>2013-02-09T09:47:18.000Z</time>
      </trkpt>
      <trkpt lat="47.32509" lon="4.97439">
        <ele>449.8</ele>
        <time>2013-02-09T09:47:19.000Z</time>
      </trkpt>
      <trkpt lat="47.32509" lon="4.97434">
        <ele>449.8</ele>
        <time>2013-02-09T09:47:21.000Z</time>
      </trkpt>
      <trkpt lat="47.32509" lon="4.97431">
        <ele>449.9</ele>
        <time>2013-02-09T09:47:22.000Z</time>
      </trkpt>
      <trkpt lat="47.32509" lon="4.97425">
        <ele>449.7</ele>
        <time>2013-02-09T09:47:24.000Z</time>
      </trkpt>
      <trkpt lat="47.32509" lon="4.97423">
        <ele>449.6</ele>
        <time>2013-02-09T09:47:25.000Z</time>
      </trkpt>
      <trkpt lat="47.32508" lon="4.97417">
        <ele>449.5</ele>
        <time>2013-02-09T09:47:27.000Z</time>
      </trkpt>
      <trkpt lat="47.32508" lon="4.97414">
        <ele>449.4</ele>
        <time>2013-02-09T09:47:28.000Z</time>
      </trkpt>
      <trkpt lat="47.32508" lon="4.97409">
        <ele>449.4</ele>
        <time>2013-02-09T09:47:30.000Z</time>
      </trkpt>
      <trkpt lat="47.32508" lon="4.97406">
        <ele>449.3</ele>
        <time>2013-02-09T09:47:31.000Z</time>
      </trkpt>
      <trkpt lat="47.32508" lon="4.974">
        <ele>449.2</ele>
        <time>2013-02-09T09:47:33.000Z</time>
      </trkpt>
      <trkpt lat="47.32508" lon="4.97398">
        <ele>449.2</ele>
        <time>2013-02-09T09:47:34.000Z</time>
      </trkpt>
      <trkpt lat="47.32508" lon="4.97392">
        <ele>449.2</ele>
        <time>2013-02-09T09:47:36.000Z</time>
      </trkpt>
      <trkpt lat="47.32508" lon="4.97389">
        <ele>449.1</ele>
        <time>2013-02-09T09:47:37.000Z</time>
      </trkpt>
      <trkpt lat="47.32507" lon="4.97384">
        <ele>449.1</ele>
        <time>2013-02-09T09:47:39.000Z</time>
      </trkpt>
      <trkpt lat="47.32507" lon="4.97381">
        <ele>449</ele>
        <time>2013-02-09T09:47:40.000Z</time>
      </trkpt>
      <trkpt lat="47.32506" lon="4.97375">
        <ele>449</ele>
        <time>2013-02-09T09:47:42.000Z</time>
      </trkpt>
      <trkpt lat="47.32506" lon="4.97373">
        <ele>449</ele>
        <time>2013-02-09T09:47:43.000Z</time>
      </trkpt>
      <trkpt lat="47.32506" lon="4.9737">
        <ele>448.9</ele>
        <time>2013-02-09T09:47:44.000Z</time>
      </trkpt>
      <trkpt lat="47.32505" lon="4.97346">
        <ele>446.4</ele>
        <time>2013-02-09T09:47:51.000Z</time>
      </trkpt>
      <trkpt lat="47.32504" lon="4.97341">
        <ele>446.6</ele>
        <time>2013-02-09T09:47:53.000Z</time>
      </trkpt>
      <trkpt lat="47.32504" lon="4.97337">
        <ele>447</ele>
        <time>2013-02-09T09:47:54.000Z</time>
      </trkpt>
      <trkpt lat="47.32503" lon="4.97331">
        <ele>447.1</ele>
        <time>2013-02-09T09:47:56.000Z</time>
      </trkpt>
      <trkpt lat="47.32503" lon="4.97328">
        <ele>447</ele>
        <time>2013-02-09T09:47:57.000Z</time>
      </trkpt>
      <trkpt lat="47.32503" lon="4.97322">
        <ele>446.8</ele>
        <time>2013-02-09T09:47:59.000Z</time>
      </trkpt>
      <trkpt lat="47.32502" lon="4.97319">
        <ele>446.7</ele>
        <time>2013-02-09T09:48:00.000Z</time>
      </trkpt>
      <trkpt lat="47.32501" lon="4.97313">
        <ele>447.2</ele>
        <time>2013-02-09T09:48:02.000Z</time>
      </trkpt>
      <trkpt lat="47.32501" lon="4.9731">
        <ele>447.2</ele>
        <time>2013-02-09T09:48:03.000Z</time>
      </trkpt>
      <trkpt lat="47.325" lon="4.97305">
        <ele>447.4</ele>
        <time>2013-02-09T09:48:05.000Z</time>
      </trkpt>
      <trkpt lat="47.325" lon="4.97302">
        <ele>447.5</ele>
        <time>2013-02-09T09:48:06.000Z</time>
      </trkpt>
      <trkpt lat="47.32499" lon="4.97296">
        <ele>447.5</ele>
        <time>2013-02-09T09:48:08.000Z</time>
      </trkpt>
      <trkpt lat="47.32499" lon="4.97293">
        <ele>447.4</ele>
        <time>2013-02-09T09:48:09.000Z</time>
      </trkpt>
      <trkpt lat="47.32498" lon="4.97287">
        <ele>447.4</ele>
        <time>2013-02-09T09:48:11.000Z</time>
      </trkpt>
      <trkpt lat="47.32498" lon="4.97285">
        <ele>447.4</ele>
        <time>2013-02-09T09:48:12.000Z</time>
      </trkpt>
      <trkpt lat="47.32497" lon="4.97279">
        <ele>447.5</ele>
        <time>2013-02-09T09:48:14.000Z</time>
      </trkpt>
      <trkpt lat="47.32496" lon="4.97276">
        <ele>447.5</ele>
        <time>2013-02-09T09:48:15.000Z</time>
      </trkpt>
      <trkpt lat="47.32496" lon="4.97271">
        <ele>447.5</ele>
        <time>2013-02-09T09:48:17.000Z</time>
      </trkpt>
      <trkpt lat="47.32495" lon="4.97268">
        <ele>447.4</ele>
        <time>2013-02-09T09:48:18.000Z</time>
      </trkpt>
      <trkpt lat="47.32495" lon="4.97262">
        <ele>447.3</ele>
        <time>2013-02-09T09:48:20.000Z</time>
      </trkpt>
      <trkpt lat="47.32495" lon="4.97259">
        <ele>447.3</ele>
        <time>2013-02-09T09:48:21.000Z</time>
      </trkpt>
      <trkpt lat="47.32494" lon="4.97254">
        <ele>447.3</ele>
        <time>2013-02-09T09:48:23.000Z</time>
      </trkpt>
      <trkpt lat="47.32494" lon="4.97251">
        <ele>447.2</ele>
        <time>2013-02-09T09:48:24.000Z</time>
      </trkpt>
      <trkpt lat="47.32493" lon="4.97246">
        <ele>447.3</ele>
        <time>2013-02-09T09:48:26.000Z</time>
      </trkpt>
      <trkpt lat="47.32493" lon="4.97243">
        <ele>447.3</ele>
        <time>2013-02-09T09:48:27.000Z</time>
      </trkpt>
      <trkpt lat="47.32493" lon="4.97238">
        <ele>447.4</ele>
        <time>2013-02-09T09:48:29.000Z</time>
      </trkpt>
      <trkpt lat="47.32493" lon="4.97235">
        <ele>447.4</ele>
        <time>2013-02-09T09:48:30.000Z</time>
      </trkpt>
      <trkpt lat="47.32492" lon="4.9723">
        <ele>447.5</ele>
        <time>2013-02-09T09:48:32.000Z</time>
      </trkpt>
      <trkpt lat="47.32492" lon="4.97227">
        <ele>447.6</ele>
        <time>2013-02-09T09:48:33.000Z</time>
      </trkpt>
      <trkpt lat="47.32492" lon="4.97222">
        <ele>447.8</ele>
        <time>2013-02-09T09:48:35.000Z</time>
      </trkpt>
      <trkpt lat="47.32491" lon="4.97219">
        <ele>447.9</ele>
        <time>2013-02-09T09:48:36.000Z</time>
      </trkpt>
      <trkpt lat="47.32491" lon="4.97214">
        <ele>448</ele>
        <time>2013-02-09T09:48:38.000Z</time>
      </trkpt>
      <trkpt lat="47.32491" lon="4.97211">
        <ele>448</ele>
        <time>2013-02-09T09:48:39.000Z</time>
      </trkpt>
      <trkpt lat="47.3249" lon="4.97206">
        <ele>448.1</ele>
        <time>2013-02-09T09:48:41.000Z</time>
      </trkpt>
      <trkpt lat="47.3249" lon="4.97204">
        <ele>448.2</ele>
        <time>2013-02-09T09:48:42.000Z</time>
      </trkpt>
      <trkpt lat="47.32489" lon="4.97198">
        <ele>448.3</ele>
        <time>2013-02-09T09:48:44.000Z</time>
      </trkpt>
      <trkpt lat="47.32488" lon="4.97179">
        <ele>450.7</ele>
        <time>2013-02-09T09:48:51.000Z</time>
      </trkpt>
      <trkpt lat="47.32488" lon="4.97174">
        <ele>450.8</ele>
        <time>2013-02-09T09:48:52.000Z</time>
      </trkpt>
      <trkpt lat="47.32488" lon="4.97171">
        <ele>450.1</ele>
        <time>2013-02-09T09:48:53.000Z</time>
      </trkpt>
      <trkpt lat="47.32488" lon="4.97165">
        <ele>449.8</ele>
        <time>2013-02-09T09:48:55.000Z</time>
      </trkpt>
      <trkpt lat="47.32488" lon="4.97163">
        <ele>449.6</ele>
        <time>2013-02-09T09:48:56.000Z</time>
      </trkpt>
      <trkpt lat="47.32487" lon="4.97158">
        <ele>449.4</ele>
        <time>2013-02-09T09:48:58.000Z</time>
      </trkpt>
      <trkpt lat="47.32487" lon="4.97155">
        <ele>449.4</ele>
        <time>2013-02-09T09:48:59.000Z</time>
      </trkpt>
      <trkpt lat="47.32487" lon="4.97149">
        <ele>449.3</ele>
        <time>2013-02-09T09:49:01.000Z</time>
      </trkpt>
      <trkpt lat="47.32487" lon="4.97146">
        <ele>449.2</ele>
        <time>2013-02-09T09:49:02.000Z</time>
      </trkpt>
      <trkpt lat="47.32486" lon="4.97141">
        <ele>448.9</ele>
        <time>2013-02-09T09:49:04.000Z</time>
      </trkpt>
      <trkpt lat="47.32486" lon="4.97138">
        <ele>448.9</ele>
        <time>2013-02-09T09:49:05.000Z</time>
      </trkpt>
      <trkpt lat="47.32486" lon="4.97132">
        <ele>448.9</ele>
        <time>2013-02-09T09:49:07.000Z</time>
      </trkpt>
      <trkpt lat="47.32486" lon="4.97129">
        <ele>448.9</ele>
        <time>2013-02-09T09:49:08.000Z</time>
      </trkpt>
      <trkpt lat="47.32486" lon="4.97124">
        <ele>449</ele>
        <time>2013-02-09T09:49:10.000Z</time>
      </trkpt>
      <trkpt lat="47.32486" lon="4.97121">
        <ele>449</ele>
        <time>2013-02-09T09:49:11.000Z</time>
      </trkpt>
      <trkpt lat="47.32485" lon="4.97115">
        <ele>449</ele>
        <time>2013-02-09T09:49:13.000Z</time>
      </trkpt>
      <trkpt lat="47.32485" lon="4.97113">
        <ele>449</ele>
        <time>2013-02-09T09:49:14.000Z</time>
      </trkpt>
      <trkpt lat="47.32485" lon="4.97107">
        <ele>449</ele>
        <time>2013-02-09T09:49:16.000Z</time>
      </trkpt>
      <trkpt lat="47.32485" lon="4.97104">
        <ele>449.1</ele>
        <time>2013-02-09T09:49:17.000Z</time>
      </trkpt>
      <trkpt lat="47.32485" lon="4.97099">
        <ele>449</ele>
        <time>2013-02-09T09:49:19.000Z</time>
      </trkpt>
      <trkpt lat="47.32485" lon="4.97096">
        <ele>449</ele>
        <time>2013-02-09T09:49:20.000Z</time>
      </trkpt>
      <trkpt lat="47.32485" lon="4.97091">
        <ele>449.1</ele>
        <time>2013-02-09T09:49:22.000Z</time>
      </trkpt>
      <trkpt lat="47.32485" lon="4.97088">
        <ele>449.2</ele>
        <time>2013-02-09T09:49:23.000Z</time>
      </trkpt>
      <trkpt lat="47.32485" lon="4.97082">
        <ele>449.3</ele>
        <time>2013-02-09T09:49:25.000Z</time>
      </trkpt>
      <trkpt lat="47.32485" lon="4.9708">
        <ele>449.4</ele>
        <time>2013-02-09T09:49:26.000Z</time>
      </trkpt>
      <trkpt lat="47.32484" lon="4.97074">
        <ele>449.5</ele>
        <time>2013-02-09T09:49:28.000Z</time>
      </trkpt>
      <trkpt lat="47.32484" lon="4.97072">
        <ele>449.5</ele>
        <time>2013-02-09T09:49:29.000Z</time>
      </trkpt>
      <trkpt lat="47.32484" lon="4.97066">
        <ele>449.6</ele>
        <time>2013-02-09T09:49:31.000Z</time>
      </trkpt>
      <trkpt lat="47.32484" lon="4.97063">
        <ele>449.6</ele>
        <time>2013-02-09T09:49:32.000Z</time>
      </trkpt>
      <trkpt lat="47.32484" lon="4.97057">
        <ele>449.7</ele>
        <time>2013-02-09T09:49:34.000Z</time>
      </trkpt>
      <trkpt lat="47.32484" lon="4.97054">
        <ele>449.7</ele>
        <time>2013-02-09T09:49:35.000Z</time>
      </trkpt>
      <trkpt lat="47.32484" lon="4.97049">
        <ele>449.8</ele>
        <time>2013-02-09T09:49:37.000Z</time>
      </trkpt>
      <trkpt lat="47.32484" lon="4.97046">
        <ele>449.8</ele>
        <time>2013-02-09T09:49:38.000Z</time>
      </trkpt>
      <trkpt lat="47.32484" lon="4.9704">
        <ele>450</ele>
        <time>2013-02-09T09:49:40.000Z</time>
      </trkpt>
      <trkpt lat="47.32483" lon="4.97037">
        <ele>450.1</ele>
        <time>2013-02-09T09:49:41.000Z</time>
      </trkpt>
      <trkpt lat="47.32483" lon="4.97032">
        <ele>450.2</ele>
        <time>2013-02-09T09:49:43.000Z</time>
      </trkpt>
      <trkpt lat="47.32483" lon="4.97029">
        <ele>450.3</ele>
        <time>2013-02-09T09:49:44.000Z</time>
      </trkpt>
      <trkpt lat="47.32482" lon="4.97008">
        <ele>450.9</ele>
        <time>2013-02-09T09:49:51.000Z</time>
      </trkpt>
      <trkpt lat="47.32482" lon="4.97002">
        <ele>451</ele>
        <time>2013-02-09T09:49:53.000Z</time>
      </trkpt>
      <trkpt lat="47.32482" lon="4.96999">
        <ele>451.4</ele>
        <time>2013-02-09T09:49:54.000Z</time>
      </trkpt>
      <trkpt lat="47.32482" lon="4.96994">
        <ele>451.7</ele>
        <time>2013-02-09T09:49:56.000Z</time>
      </trkpt>
      <trkpt lat="47.32482" lon="4.96992">
        <ele>451.6</ele>
        <time>2013-02-09T09:49:57.000Z</time>
      </trkpt>
      <trkpt lat="47.32482" lon="4.96986">
        <ele>451.6</ele>
        <time>2013-02-09T09:49:59.000Z</time>
      </trkpt>
      <trkpt lat="47.32482" lon="4.96983">
        <ele>451.6</ele>
        <time>2013-02-09T09:50:00.000Z</time>
      </trkpt>
      <trkpt lat="47.32482" lon="4.96978">
        <ele>451.7</ele>
        <time>2013-02-09T09:50:02.000Z</time>
      </trkpt>
      <trkpt lat="47.32482" lon="4.96975">
        <ele>451.8</ele>
        <time>2013-02-09T09:50:03.000Z</time>
      </trkpt>
      <trkpt lat="47.32481" lon="4.9697">
        <ele>451.9</ele>
        <time>2013-02-09T09:50:05.000Z</time>
      </trkpt>
      <trkpt lat="47.32481" lon="4.96967">
        <ele>452</ele>
        <time>2013-02-09T09:50:06.000Z</time>
      </trkpt>
      <trkpt lat="47.32481" lon="4.96962">
        <ele>452.2</ele>
        <time>2013-02-09T09:50:08.000Z</time>
      </trkpt>
      <trkpt lat="47.32481" lon="4.96959">
        <ele>452.2</ele>
        <time>2013-02-09T09:50:09.000Z</time>
      </trkpt>
      <trkpt lat="47.32481" lon="4.96954">
        <ele>452.4</ele>
        <time>2013-02-09T09:50:11.000Z</time>
      </trkpt>
      <trkpt lat="47.32481" lon="4.96951">
        <ele>452.4</ele>
        <time>2013-02-09T09:50:12.000Z</time>
      </trkpt>
      <trkpt lat="47.32481" lon="4.96945">
        <ele>452.5</ele>
        <time>2013-02-09T09:50:14.000Z</time>
      </trkpt>
      <trkpt lat="47.32481" lon="4.96943">
        <ele>452.7</ele>
        <time>2013-02-09T09:50:15.000Z</time>
      </trkpt>
      <trkpt lat="47.3248" lon="4.96938">
        <ele>452.9</ele>
        <time>2013-02-09T09:50:17.000Z</time>
      </trkpt>
      <trkpt lat="47.3248" lon="4.96935">
        <ele>452.9</ele>
        <time>2013-02-09T09:50:18.000Z</time>
      </trkpt>
      <trkpt lat="47.3248" lon="4.96929">
        <ele>452.9</ele>
        <time>2013-02-09T09:50:20.000Z</time>
      </trkpt>
      <trkpt lat="47.3248" lon="4.96927">
        <ele>452.9</ele>
        <time>2013-02-09T09:50:21.000Z</time>
      </trkpt>
      <trkpt lat="47.3248" lon="4.96921">
        <ele>452.9</ele>
        <time>2013-02-09T09:50:23.000Z</time>
      </trkpt>
      <trkpt lat="47.3248" lon="4.96918">
        <ele>452.9</ele>
        <time>2013-02-09T09:50:24.000Z</time>
      </trkpt>
      <trkpt lat="47.3248" lon="4.96912">
        <ele>453</ele>
        <time>2013-02-09T09:50:26.000Z</time>
      </trkpt>
      <trkpt lat="47.3248" lon="4.9691">
        <ele>453.1</ele>
        <time>2013-02-09T09:50:27.000Z</time>
      </trkpt>
      <trkpt lat="47.3248" lon="4.96904">
        <ele>453.1</ele>
        <time>2013-02-09T09:50:29.000Z</time>
      </trkpt>
      <trkpt lat="47.3248" lon="4.96901">
        <ele>453.2</ele>
        <time>2013-02-09T09:50:30.000Z</time>
      </trkpt>
      <trkpt lat="47.3248" lon="4.96895">
        <ele>453.3</ele>
        <time>2013-02-09T09:50:32.000Z</time>
      </trkpt>
      <trkpt lat="47.3248" lon="4.96893">
        <ele>453.3</ele>
        <time>2013-02-09T09:50:33.000Z</time>
      </trkpt>
      <trkpt lat="47.3248" lon="4.96887">
        <ele>453.3</ele>
        <time>2013-02-09T09:50:35.000Z</time>
      </trkpt>
      <trkpt lat="47.3248" lon="4.96884">
        <ele>453.3</ele>
        <time>2013-02-09T09:50:36.000Z</time>
      </trkpt>
      <trkpt lat="47.3248" lon="4.96878">
        <ele>453.3</ele>
        <time>2013-02-09T09:50:38.000Z</time>
      </trkpt>
      <trkpt lat="47.3248" lon="4.96875">
        <ele>453.4</ele>
        <time>2013-02-09T09:50:39.000Z</time>
      </trkpt>
      <trkpt lat="47.3248" lon="4.96869">
        <ele>453.4</ele>
        <time>2013-02-09T09:50:41.000Z</time>
      </trkpt>
      <trkpt lat="47.3248" lon="4.96866">
        <ele>453.4</ele>
        <time>2013-02-09T09:50:42.000Z</time>
      </trkpt>
      <trkpt lat="47.3248" lon="4.96861">
        <ele>453.6</ele>
        <time>2013-02-09T09:50:44.000Z</time>
      </trkpt>
      <trkpt lat="47.3248" lon="4.96839">
        <ele>453.9</ele>
        <time>2013-02-09T09:50:51.000Z</time>
      </trkpt>
      <trkpt lat="47.3248" lon="4.96834">
        <ele>453.7</ele>
        <time>2013-02-09T09:50:53.000Z</time>
      </trkpt>
      <trkpt lat="47.3248" lon="4.96831">
        <ele>453.5</ele>
        <time>2013-02-09T09:50:54.000Z</time>
      </trkpt>
      <trkpt lat="47.3248" lon="4.96825">
        <ele>453.4</ele>
        <time>2013-02-09T09:50:56.000Z</time>
      </trkpt>
      <trkpt lat="47.3248" lon="4.96822">
        <ele>453.4</ele>
        <time>2013-02-09T09:50:57.000Z</time>
      </trkpt>
      <trkpt lat="47.3248" lon="4.96816">
        <ele>453.2</ele>
        <time>2013-02-09T09:50:59.000Z</time>
      </trkpt>
      <trkpt lat="47.3248" lon="4.96813">
        <ele>453.1</ele>
        <time>2013-02-09T09:51:00.000Z</time>
      </trkpt>
      <trkpt lat="47.3248" lon="4.96807">
        <ele>453</ele>
        <time>2013-02-09T09:51:02.000Z</time>
      </trkpt>
      <trkpt lat="47.3248" lon="4.96805">
        <ele>453</ele>
        <time>2013-02-09T09:51:03.000Z</time>
      </trkpt>
      <trkpt lat="47.3248" lon="4.96799">
        <ele>453</ele>
        <time>2013-02-09T09:51:05.000Z</time>
      </trkpt>
      <trkpt lat="47.32481" lon="4.96796">
        <ele>453</ele>
        <time>2013-02-09T09:51:06.000Z</time>
      </trkpt>
      <trkpt lat="47.3248" lon="4.9679">
        <ele>452.7</ele>
        <time>2013-02-09T09:51:08.000Z</time>
      </trkpt>
      <trkpt lat="47.3248" lon="4.96787">
        <ele>452.7</ele>
        <time>2013-02-09T09:51:09.000Z</time>
      </trkpt>
      <trkpt lat="47.3248" lon="4.96781">
        <ele>452.7</ele>
        <time>2013-02-09T09:51:11.000Z</time>
      </trkpt>
      <trkpt lat="47.3248" lon="4.96778">
        <ele>452.6</ele>
        <time>2013-02-09T09:51:12.000Z</time>
      </trkpt>
      <trkpt lat="47.32481" lon="4.96773">
        <ele>452.7</ele>
        <time>2013-02-09T09:51:14.000Z</time>
      </trkpt>
      <trkpt lat="47.32481" lon="4.9677">
        <ele>452.6</ele>
        <time>2013-02-09T09:51:15.000Z</time>
      </trkpt>
      <trkpt lat="47.32481" lon="4.96764">
        <ele>452.4</ele>
        <time>2013-02-09T09:51:17.000Z</time>
      </trkpt>
      <trkpt lat="47.32481" lon="4.96761">
        <ele>452.4</ele>
        <time>2013-02-09T09:51:18.000Z</time>
      </trkpt>
      <trkpt lat="47.32481" lon="4.96755">
        <ele>452.3</ele>
        <time>2013-02-09T09:51:20.000Z</time>
      </trkpt>
      <trkpt lat="47.32481" lon="4.96752">
        <ele>452.3</ele>
        <time>2013-02-09T09:51:21.000Z</time>
      </trkpt>
      <trkpt lat="47.3248" lon="4.96747">
        <ele>452.3</ele>
        <time>2013-02-09T09:51:23.000Z</time>
      </trkpt>
      <trkpt lat="47.32481" lon="4.96744">
        <ele>452.3</ele>
        <time>2013-02-09T09:51:24.000Z</time>
      </trkpt>
      <trkpt lat="47.32481" lon="4.96738">
        <ele>452.2</ele>
        <time>2013-02-09T09:51:26.000Z</time>
      </trkpt>
      <trkpt lat="47.32481" lon="4.96735">
        <ele>452.1</ele>
        <time>2013-02-09T09:51:27.000Z</time>
      </trkpt>
      <trkpt lat="47.32481" lon="4.9673">
        <ele>452</ele>
        <time>2013-02-09T09:51:29.000Z</time>
      </trkpt>
      <trkpt lat="47.32481" lon="4.96727">
        <ele>452</ele>
        <time>2013-02-09T09:51:30.000Z</time>
      </trkpt>
      <trkpt lat="47.32481" lon="4.96721">
        <ele>452</ele>
        <time>2013-02-09T09:51:32.000Z</time>
      </trkpt>
      <trkpt lat="47.3248" lon="4.96718">
        <ele>451.9</ele>
        <time>2013-02-09T09:51:33.000Z</time>
      </trkpt>
      <trkpt lat="47.3248" lon="4.96712">
        <ele>451.9</ele>
        <time>2013-02-09T09:51:35.000Z</time>
      </trkpt>
      <trkpt lat="47.3248" lon="4.96709">
        <ele>452</ele>
        <time>2013-02-09T09:51:36.000Z</time>
      </trkpt>
      <trkpt lat="47.3248" lon="4.96705">
        <ele>452.1</ele>
        <time>2013-02-09T09:51:38.000Z</time>
      </trkpt>
      <trkpt lat="47.3248" lon="4.96702">
        <ele>452.2</ele>
        <time>2013-02-09T09:51:39.000Z</time>
      </trkpt>
      <trkpt lat="47.3248" lon="4.96697">
        <ele>452.3</ele>
        <time>2013-02-09T09:51:41.000Z</time>
      </trkpt>
      <trkpt lat="47.3248" lon="4.96694">
        <ele>452.4</ele>
        <time>2013-02-09T09:51:42.000Z</time>
      </trkpt>
      <trkpt lat="47.3248" lon="4.96688">
        <ele>452.5</ele>
        <time>2013-02-09T09:51:44.000Z</time>
      </trkpt>
      <trkpt lat="47.32479" lon="4.96669">
        <ele>453.3</ele>
        <time>2013-02-09T09:51:51.000Z</time>
      </trkpt>
      <trkpt lat="47.32479" lon="4.96663">
        <ele>453</ele>
        <time>2013-02-09T09:51:53.000Z</time>
      </trkpt>
      <trkpt lat="47.32479" lon="4.9666">
        <ele>452.6</ele>
        <time>2013-02-09T09:51:54.000Z</time>
      </trkpt>
      <trkpt lat="47.32479" lon="4.96655">
        <ele>452.4</ele>
        <time>2013-02-09T09:51:56.000Z</time>
      </trkpt>
      <trkpt lat="47.32479" lon="4.96652">
        <ele>452.6</ele>
        <time>2013-02-09T09:51:57.000Z</time>
      </trkpt>
      <trkpt lat="47.32479" lon="4.96646">
        <ele>452.8</ele>
        <time>2013-02-09T09:51:59.000Z</time>
      </trkpt>
      <trkpt lat="47.32479" lon="4.96643">
        <ele>452.9</ele>
        <time>2013-02-09T09:52:00.000Z</time>
      </trkpt>
      <trkpt lat="47.32479" lon="4.96638">
        <ele>452.8</ele>
        <time>2013-02-09T09:52:02.000Z</time>
      </trkpt>
      <trkpt lat="47.32479" lon="4.96635">
        <ele>452.7</ele>
        <time>2013-02-09T09:52:03.000Z</time>
      </trkpt>
      <trkpt lat="47.32479" lon="4.9663">
        <ele>452.6</ele>
        <time>2013-02-09T09:52:05.000Z</time>
      </trkpt>
      <trkpt lat="47.32479" lon="4.96627">
        <ele>452.6</ele>
        <time>2013-02-09T09:52:06.000Z</time>
      </trkpt>
      <trkpt lat="47.32479" lon="4.96621">
        <ele>452.6</ele>
        <time>2013-02-09T09:52:08.000Z</time>
      </trkpt>
      <trkpt lat="47.32479" lon="4.96619">
        <ele>452.5</ele>
        <time>2013-02-09T09:52:09.000Z</time>
      </trkpt>
      <trkpt lat="47.32479" lon="4.96613">
        <ele>452.5</ele>
        <time>2013-02-09T09:52:11.000Z</time>
      </trkpt>
      <trkpt lat="47.32479" lon="4.96611">
        <ele>452.5</ele>
        <time>2013-02-09T09:52:12.000Z</time>
      </trkpt>
      <trkpt lat="47.32479" lon="4.96605">
        <ele>452.4</ele>
        <time>2013-02-09T09:52:14.000Z</time>
      </trkpt>
      <trkpt lat="47.32479" lon="4.96603">
        <ele>452.4</ele>
        <time>2013-02-09T09:52:15.000Z</time>
      </trkpt>
      <trkpt lat="47.32479" lon="4.96598">
        <ele>452.3</ele>
        <time>2013-02-09T09:52:17.000Z</time>
      </trkpt>
      <trkpt lat="47.32479" lon="4.96595">
        <ele>452.4</ele>
        <time>2013-02-09T09:52:18.000Z</time>
      </trkpt>
      <trkpt lat="47.32479" lon="4.9659">
        <ele>452.4</ele>
        <time>2013-02-09T09:52:20.000Z</time>
      </trkpt>
      <trkpt lat="47.32479" lon="4.96587">
        <ele>452.5</ele>
        <time>2013-02-09T09:52:21.000Z</time>
      </trkpt>
      <trkpt lat="47.32479" lon="4.96582">
        <ele>452.4</ele>
        <time>2013-02-09T09:52:23.000Z</time>
      </trkpt>
      <trkpt lat="47.3248" lon="4.96579">
        <ele>452.4</ele>
        <time>2013-02-09T09:52:24.000Z</time>
      </trkpt>
      <trkpt lat="47.3248" lon="4.96574">
        <ele>452.3</ele>
        <time>2013-02-09T09:52:26.000Z</time>
      </trkpt>
      <trkpt lat="47.3248" lon="4.96571">
        <ele>452.3</ele>
        <time>2013-02-09T09:52:27.000Z</time>
      </trkpt>
      <trkpt lat="47.3248" lon="4.96566">
        <ele>452.3</ele>
        <time>2013-02-09T09:52:29.000Z</time>
      </trkpt>
      <trkpt lat="47.3248" lon="4.96563">
        <ele>452.3</ele>
        <time>2013-02-09T09:52:30.000Z</time>
      </trkpt>
      <trkpt lat="47.3248" lon="4.96558">
        <ele>452.3</ele>
        <time>2013-02-09T09:52:32.000Z</time>
      </trkpt>
      <trkpt lat="47.32481" lon="4.96556">
        <ele>452.3</ele>
        <time>2013-02-09T09:52:33.000Z</time>
      </trkpt>
      <trkpt lat="47.32481" lon="4.96551">
        <ele>452.3</ele>
        <time>2013-02-09T09:52:35.000Z</time>
      </trkpt>
      <trkpt lat="47.32481" lon="4.96548">
        <ele>452.4</ele>
        <time>2013-02-09T09:52:36.000Z</time>
      </trkpt>
      <trkpt lat="47.32482" lon="4.96543">
        <ele>452.4</ele>
        <time>2013-02-09T09:52:38.000Z</time>
      </trkpt>
      <trkpt lat="47.32482" lon="4.9654">
        <ele>452.5</ele>
        <time>2013-02-09T09:52:39.000Z</time>
      </trkpt>
      <trkpt lat="47.32482" lon="4.96535">
        <ele>452.7</ele>
        <time>2013-02-09T09:52:41.000Z</time>
      </trkpt>
      <trkpt lat="47.32483" lon="4.96532">
        <ele>452.7</ele>
        <time>2013-02-09T09:52:42.000Z</time>
      </trkpt>
      <trkpt lat="47.32483" lon="4.96527">
        <ele>452.8</ele>
        <time>2013-02-09T09:52:44.000Z</time>
      </trkpt>
      <trkpt lat="47.32488" lon="4.96507">
        <ele>453.2</ele>
        <time>2013-02-09T09:52:51.000Z</time>
      </trkpt>
      <trkpt lat="47.32488" lon="4.96501">
        <ele>453</ele>
        <time>2013-02-09T09:52:53.000Z</time>
      </trkpt>
      <trkpt lat="47.32488" lon="4.96499">
        <ele>453</ele>
        <time>2013-02-09T09:52:54.000Z</time>
      </trkpt>
      <trkpt lat="47.32489" lon="4.96493">
        <ele>452.8</ele>
        <time>2013-02-09T09:52:56.000Z</time>
      </trkpt>
      <trkpt lat="47.3249" lon="4.9649">
        <ele>452.7</ele>
        <time>2013-02-09T09:52:57.000Z</time>
      </trkpt>
      <trkpt lat="47.32491" lon="4.96484">
        <ele>452.6</ele>
        <time>2013-02-09T09:52:59.000Z</time>
      </trkpt>
      <trkpt lat="47.32491" lon="4.96482">
        <ele>452.8</ele>
        <time>2013-02-09T09:53:00.000Z</time>
      </trkpt>
      <trkpt lat="47.32492" lon="4.96477">
        <ele>453.1</ele>
        <time>2013-02-09T09:53:02.000Z</time>
      </trkpt>
      <trkpt lat="47.32492" lon="4.96475">
        <ele>453.2</ele>
        <time>2013-02-09T09:53:03.000Z</time>
      </trkpt>
      <trkpt lat="47.32493" lon="4.96469">
        <ele>453.4</ele>
        <time>2013-02-09T09:53:05.000Z</time>
      </trkpt>
      <trkpt lat="47.32493" lon="4.96467">
        <ele>453.2</ele>
        <time>2013-02-09T09:53:06.000Z</time>
      </trkpt>
      <trkpt lat="47.32494" lon="4.96461">
        <ele>453.3</ele>
        <time>2013-02-09T09:53:08.000Z</time>
      </trkpt>
      <trkpt lat="47.32494" lon="4.96459">
        <ele>453.4</ele>
        <time>2013-02-09T09:53:09.000Z</time>
      </trkpt>
      <trkpt lat="47.32494" lon="4.96454">
        <ele>453.3</ele>
        <time>2013-02-09T09:53:11.000Z</time>
      </trkpt>
      <trkpt lat="47.32494" lon="4.96451">
        <ele>453.4</ele>
        <time>2013-02-09T09:53:12.000Z</time>
      </trkpt>
      <trkpt lat="47.32493" lon="4.96445">
        <ele>453.1</ele>
        <time>2013-02-09T09:53:14.000Z</time>
      </trkpt>
      <trkpt lat="47.32493" lon="4.96443">
        <ele>453.1</ele>
        <time>2013-02-09T09:53:15.000Z</time>
      </trkpt>
      <trkpt lat="47.32493" lon="4.96437">
        <ele>453</ele>
        <time>2013-02-09T09:53:17.000Z</time>
      </trkpt>
      <trkpt lat="47.32493" lon="4.96435">
        <ele>453.1</ele>
        <time>2013-02-09T09:53:18.000Z</time>
      </trkpt>
      <trkpt lat="47.32493" lon="4.9643">
        <ele>453.3</ele>
        <time>2013-02-09T09:53:20.000Z</time>
      </trkpt>
      <trkpt lat="47.32493" lon="4.96427">
        <ele>453.5</ele>
        <time>2013-02-09T09:53:21.000Z</time>
      </trkpt>
      <trkpt lat="47.32492" lon="4.96422">
        <ele>453.5</ele>
        <time>2013-02-09T09:53:23.000Z</time>
      </trkpt>
      <trkpt lat="47.32492" lon="4.96419">
        <ele>453.5</ele>
        <time>2013-02-09T09:53:24.000Z</time>
      </trkpt>
      <trkpt lat="47.32492" lon="4.96414">
        <ele>453.4</ele>
        <time>2013-02-09T09:53:26.000Z</time>
      </trkpt>
      <trkpt lat="47.32492" lon="4.96411">
        <ele>453.5</ele>
        <time>2013-02-09T09:53:27.000Z</time>
      </trkpt>
      <trkpt lat="47.32492" lon="4.96405">
        <ele>453.4</ele>
        <time>2013-02-09T09:53:29.000Z</time>
      </trkpt>
      <trkpt lat="47.32492" lon="4.96403">
        <ele>453.3</ele>
        <time>2013-02-09T09:53:30.000Z</time>
      </trkpt>
      <trkpt lat="47.32492" lon="4.96397">
        <ele>453.3</ele>
        <time>2013-02-09T09:53:32.000Z</time>
      </trkpt>
      <trkpt lat="47.32492" lon="4.96394">
        <ele>453.3</ele>
        <time>2013-02-09T09:53:33.000Z</time>
      </trkpt>
      <trkpt lat="47.32492" lon="4.96389">
        <ele>453.5</ele>
        <time>2013-02-09T09:53:35.000Z</time>
      </trkpt>
      <trkpt lat="47.32492" lon="4.96386">
        <ele>453.6</ele>
        <time>2013-02-09T09:53:36.000Z</time>
      </trkpt>
      <trkpt lat="47.32492" lon="4.96381">
        <ele>453.6</ele>
        <time>2013-02-09T09:53:38.000Z</time>
      </trkpt>
      <trkpt lat="47.32492" lon="4.96378">
        <ele>453.6</ele>
        <time>2013-02-09T09:53:39.000Z</time>
      </trkpt>
      <trkpt lat="47.32493" lon="4.96372">
        <ele>453.6</ele>
        <time>2013-02-09T09:53:41.000Z</time>
      </trkpt>
      <trkpt lat="47.32493" lon="4.96369">
        <ele>453.4</ele>
        <time>2013-02-09T09:53:42.000Z</time>
      </trkpt>
      <trkpt lat="47.32493" lon="4.96364">
        <ele>453.3</ele>
        <time>2013-02-09T09:53:44.000Z</time>
      </trkpt>
      <trkpt lat="47.32494" lon="4.96341">
        <ele>453.9</ele>
        <time>2013-02-09T09:53:51.000Z</time>
      </trkpt>
      <trkpt lat="47.32494" lon="4.96336">
        <ele>452.5</ele>
        <time>2013-02-09T09:53:53.000Z</time>
      </trkpt>
      <trkpt lat="47.32494" lon="4.96333">
        <ele>452.4</ele>
        <time>2013-02-09T09:53:54.000Z</time>
      </trkpt>
      <trkpt lat="47.32495" lon="4.96327">
        <ele>452.7</ele>
        <time>2013-02-09T09:53:56.000Z</time>
      </trkpt>
      <trkpt lat="47.32495" lon="4.96325">
        <ele>452.5</ele>
        <time>2013-02-09T09:53:57.000Z</time>
      </trkpt>
      <trkpt lat="47.32496" lon="4.96319">
        <ele>452.4</ele>
        <time>2013-02-09T09:53:59.000Z</time>
      </trkpt>
      <trkpt lat="47.32496" lon="4.96316">
        <ele>452.3</ele>
        <time>2013-02-09T09:54:00.000Z</time>
      </trkpt>
      <trkpt lat="47.32496" lon="4.96311">
        <ele>452.1</ele>
        <time>2013-02-09T09:54:02.000Z</time>
      </trkpt>
      <trkpt lat="47.32496" lon="4.96308">
        <ele>452.1</ele>
        <time>2013-02-09T09:54:03.000Z</time>
      </trkpt>
      <trkpt lat="47.32497" lon="4.96302">
        <ele>452.4</ele>
        <time>2013-02-09T09:54:05.000Z</time>
      </trkpt>
      <trkpt lat="47.32497" lon="4.963">
        <ele>452.5</ele>
        <time>2013-02-09T09:54:06.000Z</time>
      </trkpt>
      <trkpt lat="47.32498" lon="4.96294">
        <ele>452.5</ele>
        <time>2013-02-09T09:54:08.000Z</time>
      </trkpt>
      <trkpt lat="47.32498" lon="4.96292">
        <ele>452.6</ele>
        <time>2013-02-09T09:54:09.000Z</time>
      </trkpt>
      <trkpt lat="47.32498" lon="4.96287">
        <ele>452.7</ele>
        <time>2013-02-09T09:54:11.000Z</time>
      </trkpt>
      <trkpt lat="47.32499" lon="4.96284">
        <ele>452.8</ele>
        <time>2013-02-09T09:54:12.000Z</time>
      </trkpt>
      <trkpt lat="47.32499" lon="4.96279">
        <ele>452.8</ele>
        <time>2013-02-09T09:54:14.000Z</time>
      </trkpt>
      <trkpt lat="47.32499" lon="4.96276">
        <ele>452.9</ele>
        <time>2013-02-09T09:54:15.000Z</time>
      </trkpt>
      <trkpt lat="47.32499" lon="4.96271">
        <ele>452.7</ele>
        <time>2013-02-09T09:54:17.000Z</time>
      </trkpt>
      <trkpt lat="47.325" lon="4.96268">
        <ele>452.6</ele>
        <time>2013-02-09T09:54:18.000Z</time>
      </trkpt>
      <trkpt lat="47.325" lon="4.96262">
        <ele>452.5</ele>
        <time>2013-02-09T09:54:20.000Z</time>
      </trkpt>
      <trkpt lat="47.325" lon="4.9626">
        <ele>452.5</ele>
        <time>2013-02-09T09:54:21.000Z</time>
      </trkpt>
      <trkpt lat="47.325" lon="4.96254">
        <ele>452.5</ele>
        <time>2013-02-09T09:54:23.000Z</time>
      </trkpt>
      <trkpt lat="47.325" lon="4.96252">
        <ele>452.5</ele>
        <time>2013-02-09T09:54:24.000Z</time>
      </trkpt>
      <trkpt lat="47.32501" lon="4.96246">
        <ele>452.6</ele>
        <time>2013-02-09T09:54:26.000Z</time>
      </trkpt>
      <trkpt lat="47.32501" lon="4.96244">
        <ele>452.7</ele>
        <time>2013-02-09T09:54:27.000Z</time>
      </trkpt>
      <trkpt lat="47.32501" lon="4.96238">
        <ele>452.8</ele>
        <time>2013-02-09T09:54:29.000Z</time>
      </trkpt>
      <trkpt lat="47.32501" lon="4.96235">
        <ele>452.8</ele>
        <time>2013-02-09T09:54:30.000Z</time>
      </trkpt>
      <trkpt lat="47.32502" lon="4.9623">
        <ele>452.9</ele>
        <time>2013-02-09T09:54:32.000Z</time>
      </trkpt>
      <trkpt lat="47.32502" lon="4.96227">
        <ele>452.8</ele>
        <time>2013-02-09T09:54:33.000Z</time>
      </trkpt>
      <trkpt lat="47.32502" lon="4.96222">
        <ele>452.9</ele>
        <time>2013-02-09T09:54:35.000Z</time>
      </trkpt>
      <trkpt lat="47.32502" lon="4.9622">
        <ele>452.9</ele>
        <time>2013-02-09T09:54:36.000Z</time>
      </trkpt>
      <trkpt lat="47.32503" lon="4.96214">
        <ele>453.1</ele>
        <time>2013-02-09T09:54:38.000Z</time>
      </trkpt>
      <trkpt lat="47.32503" lon="4.96212">
        <ele>453.1</ele>
        <time>2013-02-09T09:54:39.000Z</time>
      </trkpt>
      <trkpt lat="47.32503" lon="4.96206">
        <ele>453.2</ele>
        <time>2013-02-09T09:54:41.000Z</time>
      </trkpt>
      <trkpt lat="47.32503" lon="4.96204">
        <ele>453.3</ele>
        <time>2013-02-09T09:54:42.000Z</time>
      </trkpt>
      <trkpt lat="47.32504" lon="4.96198">
        <ele>453.4</ele>
        <time>2013-02-09T09:54:44.000Z</time>
      </trkpt>
      <trkpt lat="47.32504" lon="4.96179">
        <ele>453.9</ele>
        <time>2013-02-09T09:54:51.000Z</time>
      </trkpt>
      <trkpt lat="47.32505" lon="4.96173">
        <ele>455.6</ele>
        <time>2013-02-09T09:54:53.000Z</time>
      </trkpt>
      <trkpt lat="47.32505" lon="4.9617">
        <ele>455.6</ele>
        <time>2013-02-09T09:54:54.000Z</time>
      </trkpt>
      <trkpt lat="47.32506" lon="4.96164">
        <ele>455.7</ele>
        <time>2013-02-09T09:54:56.000Z</time>
      </trkpt>
      <trkpt lat="47.32506" lon="4.96161">
        <ele>455.7</ele>
        <time>2013-02-09T09:54:57.000Z</time>
      </trkpt>
      <trkpt lat="47.32507" lon="4.96155">
        <ele>455.9</ele>
        <time>2013-02-09T09:54:59.000Z</time>
      </trkpt>
      <trkpt lat="47.32507" lon="4.96153">
        <ele>456</ele>
        <time>2013-02-09T09:55:00.000Z</time>
      </trkpt>
      <trkpt lat="47.32507" lon="4.96147">
        <ele>456</ele>
        <time>2013-02-09T09:55:02.000Z</time>
      </trkpt>
      <trkpt lat="47.32507" lon="4.96145">
        <ele>455.9</ele>
        <time>2013-02-09T09:55:03.000Z</time>
      </trkpt>
      <trkpt lat="47.32507" lon="4.96139">
        <ele>456</ele>
        <time>2013-02-09T09:55:05.000Z</time>
      </trkpt>
      <trkpt lat="47.32507" lon="4.96136">
        <ele>456.1</ele>
        <time>2013-02-09T09:55:06.000Z</time>
      </trkpt>
      <trkpt lat="47.32508" lon="4.96131">
        <ele>456.1</ele>
        <time>2013-02-09T09:55:08.000Z</time>
      </trkpt>
      <trkpt lat="47.32508" lon="4.96128">
        <ele>456</ele>
        <time>2013-02-09T09:55:09.000Z</time>
      </trkpt>
      <trkpt lat="47.32508" lon="4.96123">
        <ele>455.9</ele>
        <time>2013-02-09T09:55:11.000Z</time>
      </trkpt>
      <trkpt lat="47.32509" lon="4.9612">
        <ele>455.8</ele>
        <time>2013-02-09T09:55:12.000Z</time>
      </trkpt>
      <trkpt lat="47.32509" lon="4.96115">
        <ele>455.7</ele>
        <time>2013-02-09T09:55:14.000Z</time>
      </trkpt>
      <trkpt lat="47.32509" lon="4.96112">
        <ele>455.7</ele>
        <time>2013-02-09T09:55:15.000Z</time>
      </trkpt>
      <trkpt lat="47.3251" lon="4.96107">
        <ele>455.3</ele>
        <time>2013-02-09T09:55:17.000Z</time>
      </trkpt>
      <trkpt lat="47.3251" lon="4.96105">
        <ele>455.2</ele>
        <time>2013-02-09T09:55:18.000Z</time>
      </trkpt>
      <trkpt lat="47.32511" lon="4.96099">
        <ele>455.1</ele>
        <time>2013-02-09T09:55:20.000Z</time>
      </trkpt>
      <trkpt lat="47.32511" lon="4.96096">
        <ele>455</ele>
        <time>2013-02-09T09:55:21.000Z</time>
      </trkpt>
      <trkpt lat="47.32512" lon="4.9609">
        <ele>454.9</ele>
        <time>2013-02-09T09:55:23.000Z</time>
      </trkpt>
      <trkpt lat="47.32512" lon="4.96088">
        <ele>455</ele>
        <time>2013-02-09T09:55:24.000Z</time>
      </trkpt>
      <trkpt lat="47.32513" lon="4.96082">
        <ele>455</ele>
        <time>2013-02-09T09:55:26.000Z</time>
      </trkpt>
      <trkpt lat="47.32513" lon="4.96079">
        <ele>455.1</ele>
        <time>2013-02-09T09:55:27.000Z</time>
      </trkpt>
      <trkpt lat="47.32514" lon="4.96074">
        <ele>455.2</ele>
        <time>2013-02-09T09:55:29.000Z</time>
      </trkpt>
      <trkpt lat="47.32515" lon="4.96071">
        <ele>455.3</ele>
        <time>2013-02-09T09:55:30.000Z</time>
      </trkpt>
      <trkpt lat="47.32516" lon="4.96066">
        <ele>455.3</ele>
        <time>2013-02-09T09:55:32.000Z</time>
      </trkpt>
      <trkpt lat="47.32516" lon="4.96063">
        <ele>455.3</ele>
        <time>2013-02-09T09:55:33.000Z</time>
      </trkpt>
      <trkpt lat="47.32517" lon="4.96057">
        <ele>455.3</ele>
        <time>2013-02-09T09:55:35.000Z</time>
      </trkpt>
      <trkpt lat="47.32517" lon="4.96055">
        <ele>455.3</ele>
        <time>2013-02-09T09:55:36.000Z</time>
      </trkpt>
      <trkpt lat="47.32518" lon="4.9605">
        <ele>455.1</ele>
        <time>2013-02-09T09:55:38.000Z</time>
      </trkpt>
      <trkpt lat="47.32519" lon="4.96048">
        <ele>455</ele>
        <time>2013-02-09T09:55:39.000Z</time>
      </trkpt>
      <trkpt lat="47.3252" lon="4.96043">
        <ele>455</ele>
        <time>2013-02-09T09:55:41.000Z</time>
      </trkpt>
      <trkpt lat="47.3252" lon="4.96041">
        <ele>455</ele>
        <time>2013-02-09T09:55:42.000Z</time>
      </trkpt>
      <trkpt lat="47.32521" lon="4.96036">
        <ele>454.8</ele>
        <time>2013-02-09T09:55:44.000Z</time>
      </trkpt>
      <trkpt lat="47.32525" lon="4.96014">
        <ele>454.5</ele>
        <time>2013-02-09T09:55:51.000Z</time>
      </trkpt>
      <trkpt lat="47.32526" lon="4.96009">
        <ele>454.3</ele>
        <time>2013-02-09T09:55:53.000Z</time>
      </trkpt>
      <trkpt lat="47.32526" lon="4.96007">
        <ele>454.4</ele>
        <time>2013-02-09T09:55:54.000Z</time>
      </trkpt>
      <trkpt lat="47.32527" lon="4.96002">
        <ele>453.7</ele>
        <time>2013-02-09T09:55:56.000Z</time>
      </trkpt>
      <trkpt lat="47.32527" lon="4.96">
        <ele>453.6</ele>
        <time>2013-02-09T09:55:57.000Z</time>
      </trkpt>
      <trkpt lat="47.32528" lon="4.95994">
        <ele>454.1</ele>
        <time>2013-02-09T09:55:59.000Z</time>
      </trkpt>
      <trkpt lat="47.32529" lon="4.95992">
        <ele>454.2</ele>
        <time>2013-02-09T09:56:00.000Z</time>
      </trkpt>
      <trkpt lat="47.3253" lon="4.95987">
        <ele>454.3</ele>
        <time>2013-02-09T09:56:02.000Z</time>
      </trkpt>
      <trkpt lat="47.3253" lon="4.95985">
        <ele>454.5</ele>
        <time>2013-02-09T09:56:03.000Z</time>
      </trkpt>
      <trkpt lat="47.32526" lon="4.9598">
        <ele>454.7</ele>
        <time>2013-02-09T09:56:06.000Z</time>
      </trkpt>
      <trkpt lat="47.32525" lon="4.9598">
        <ele>454.6</ele>
        <time>2013-02-09T09:56:07.000Z</time>
      </trkpt>
      <trkpt lat="47.32521" lon="4.9598">
        <ele>454.7</ele>
        <time>2013-02-09T09:56:09.000Z</time>
      </trkpt>
      <trkpt lat="47.3252" lon="4.9598">
        <ele>454.8</ele>
        <time>2013-02-09T09:56:10.000Z</time>
      </trkpt>
      <trkpt lat="47.32517" lon="4.95982">
        <ele>454.9</ele>
        <time>2013-02-09T09:56:12.000Z</time>
      </trkpt>
      <trkpt lat="47.32516" lon="4.95985">
        <ele>454.9</ele>
        <time>2013-02-09T09:56:13.000Z</time>
      </trkpt>
      <trkpt lat="47.32514" lon="4.95991">
        <ele>454.7</ele>
        <time>2013-02-09T09:56:18.000Z</time>
      </trkpt>
      <trkpt lat="47.32514" lon="4.95993">
        <ele>454.7</ele>
        <time>2013-02-09T09:56:19.000Z</time>
      </trkpt>
      <trkpt lat="47.32513" lon="4.95996">
        <ele>454.6</ele>
        <time>2013-02-09T09:56:20.000Z</time>
      </trkpt>
      <trkpt lat="47.32512" lon="4.96">
        <ele>454.6</ele>
        <time>2013-02-09T09:56:21.000Z</time>
      </trkpt>
      <trkpt lat="47.32511" lon="4.96003">
        <ele>454.5</ele>
        <time>2013-02-09T09:56:22.000Z</time>
      </trkpt>
      <trkpt lat="47.3251" lon="4.96006">
        <ele>454.4</ele>
        <time>2013-02-09T09:56:23.000Z</time>
      </trkpt>
      <trkpt lat="47.32508" lon="4.96012">
        <ele>454.2</ele>
        <time>2013-02-09T09:56:25.000Z</time>
      </trkpt>
      <trkpt lat="47.32507" lon="4.96015">
        <ele>454.1</ele>
        <time>2013-02-09T09:56:26.000Z</time>
      </trkpt>
      <trkpt lat="47.32506" lon="4.96021">
        <ele>453.9</ele>
        <time>2013-02-09T09:56:28.000Z</time>
      </trkpt>
      <trkpt lat="47.32505" lon="4.96024">
        <ele>453.9</ele>
        <time>2013-02-09T09:56:29.000Z</time>
      </trkpt>
      <trkpt lat="47.32503" lon="4.9603">
        <ele>453.9</ele>
        <time>2013-02-09T09:56:31.000Z</time>
      </trkpt>
      <trkpt lat="47.32503" lon="4.96033">
        <ele>454</ele>
        <time>2013-02-09T09:56:32.000Z</time>
      </trkpt>
      <trkpt lat="47.32502" lon="4.96039">
        <ele>454.4</ele>
        <time>2013-02-09T09:56:34.000Z</time>
      </trkpt>
      <trkpt lat="47.32502" lon="4.96042">
        <ele>454.7</ele>
        <time>2013-02-09T09:56:35.000Z</time>
      </trkpt>
      <trkpt lat="47.32502" lon="4.96047">
        <ele>455.1</ele>
        <time>2013-02-09T09:56:37.000Z</time>
      </trkpt>
      <trkpt lat="47.32501" lon="4.9605">
        <ele>455.4</ele>
        <time>2013-02-09T09:56:38.000Z</time>
      </trkpt>
      <trkpt lat="47.32501" lon="4.96055">
        <ele>455.8</ele>
        <time>2013-02-09T09:56:40.000Z</time>
      </trkpt>
      <trkpt lat="47.325" lon="4.96058">
        <ele>456.2</ele>
        <time>2013-02-09T09:56:41.000Z</time>
      </trkpt>
      <trkpt lat="47.325" lon="4.96063">
        <ele>456.6</ele>
        <time>2013-02-09T09:56:43.000Z</time>
      </trkpt>
      <trkpt lat="47.32499" lon="4.96066">
        <ele>456.8</ele>
        <time>2013-02-09T09:56:44.000Z</time>
      </trkpt>
      <trkpt lat="47.32497" lon="4.96072">
        <ele>457</ele>
        <time>2013-02-09T09:56:46.000Z</time>
      </trkpt>
      <trkpt lat="47.32497" lon="4.96074">
        <ele>457</ele>
        <time>2013-02-09T09:56:47.000Z</time>
      </trkpt>
      <trkpt lat="47.32496" lon="4.9608">
        <ele>457.1</ele>
        <time>2013-02-09T09:56:49.000Z</time>
      </trkpt>
      <trkpt lat="47.32496" lon="4.96082">
        <ele>457.1</ele>
        <time>2013-02-09T09:56:50.000Z</time>
      </trkpt>
      <trkpt lat="47.32495" lon="4.96088">
        <ele>457.3</ele>
        <time>2013-02-09T09:56:52.000Z</time>
      </trkpt>
      <trkpt lat="47.32495" lon="4.96091">
        <ele>457.3</ele>
        <time>2013-02-09T09:56:53.000Z</time>
      </trkpt>
      <trkpt lat="47.32495" lon="4.96097">
        <ele>457.2</ele>
        <time>2013-02-09T09:56:55.000Z</time>
      </trkpt>
      <trkpt lat="47.32494" lon="4.961">
        <ele>457.3</ele>
        <time>2013-02-09T09:56:56.000Z</time>
      </trkpt>
      <trkpt lat="47.32494" lon="4.96106">
        <ele>457.1</ele>
        <time>2013-02-09T09:56:58.000Z</time>
      </trkpt>
      <trkpt lat="47.32493" lon="4.96109">
        <ele>456.9</ele>
        <time>2013-02-09T09:56:59.000Z</time>
      </trkpt>
      <trkpt lat="47.32493" lon="4.96113">
        <ele>456.7</ele>
        <time>2013-02-09T09:57:00.000Z</time>
      </trkpt>
      <trkpt lat="47.32493" lon="4.96116">
        <ele>456.6</ele>
        <time>2013-02-09T09:57:01.000Z</time>
      </trkpt>
      <trkpt lat="47.32492" lon="4.96122">
        <ele>456.4</ele>
        <time>2013-02-09T09:57:03.000Z</time>
      </trkpt>
      <trkpt lat="47.32492" lon="4.96126">
        <ele>456.4</ele>
        <time>2013-02-09T09:57:04.000Z</time>
      </trkpt>
      <trkpt lat="47.32491" lon="4.96131">
        <ele>456.3</ele>
        <time>2013-02-09T09:57:06.000Z</time>
      </trkpt>
      <trkpt lat="47.32491" lon="4.96135">
        <ele>456.2</ele>
        <time>2013-02-09T09:57:07.000Z</time>
      </trkpt>
      <trkpt lat="47.3249" lon="4.9614">
        <ele>456.3</ele>
        <time>2013-02-09T09:57:09.000Z</time>
      </trkpt>
      <trkpt lat="47.3249" lon="4.96143">
        <ele>456.2</ele>
        <time>2013-02-09T09:57:10.000Z</time>
      </trkpt>
      <trkpt lat="47.3249" lon="4.96149">
        <ele>455.9</ele>
        <time>2013-02-09T09:57:12.000Z</time>
      </trkpt>
      <trkpt lat="47.32489" lon="4.96152">
        <ele>455.8</ele>
        <time>2013-02-09T09:57:13.000Z</time>
      </trkpt>
      <trkpt lat="47.32489" lon="4.96158">
        <ele>455.7</ele>
        <time>2013-02-09T09:57:15.000Z</time>
      </trkpt>
      <trkpt lat="47.32489" lon="4.96161">
        <ele>455.7</ele>
        <time>2013-02-09T09:57:16.000Z</time>
      </trkpt>
      <trkpt lat="47.32488" lon="4.96167">
        <ele>455.6</ele>
        <time>2013-02-09T09:57:18.000Z</time>
      </trkpt>
      <trkpt lat="47.32488" lon="4.9617">
        <ele>455.7</ele>
        <time>2013-02-09T09:57:19.000Z</time>
      </trkpt>
      <trkpt lat="47.32487" lon="4.96175">
        <ele>455.5</ele>
        <time>2013-02-09T09:57:21.000Z</time>
      </trkpt>
      <trkpt lat="47.32487" lon="4.96178">
        <ele>455.5</ele>
        <time>2013-02-09T09:57:22.000Z</time>
      </trkpt>
      <trkpt lat="47.32486" lon="4.96184">
        <ele>455.5</ele>
        <time>2013-02-09T09:57:24.000Z</time>
      </trkpt>
      <trkpt lat="47.32486" lon="4.96187">
        <ele>455.5</ele>
        <time>2013-02-09T09:57:25.000Z</time>
      </trkpt>
      <trkpt lat="47.32486" lon="4.96193">
        <ele>455.2</ele>
        <time>2013-02-09T09:57:27.000Z</time>
      </trkpt>
      <trkpt lat="47.32486" lon="4.96196">
        <ele>455.1</ele>
        <time>2013-02-09T09:57:28.000Z</time>
      </trkpt>
      <trkpt lat="47.32485" lon="4.96202">
        <ele>455.2</ele>
        <time>2013-02-09T09:57:30.000Z</time>
      </trkpt>
      <trkpt lat="47.32485" lon="4.96205">
        <ele>455.2</ele>
        <time>2013-02-09T09:57:31.000Z</time>
      </trkpt>
      <trkpt lat="47.32484" lon="4.9621">
        <ele>455.1</ele>
        <time>2013-02-09T09:57:33.000Z</time>
      </trkpt>
      <trkpt lat="47.32484" lon="4.96213">
        <ele>455.1</ele>
        <time>2013-02-09T09:57:34.000Z</time>
      </trkpt>
      <trkpt lat="47.32483" lon="4.96219">
        <ele>455.1</ele>
        <time>2013-02-09T09:57:36.000Z</time>
      </trkpt>
      <trkpt lat="47.32483" lon="4.96222">
        <ele>455.2</ele>
        <time>2013-02-09T09:57:37.000Z</time>
      </trkpt>
      <trkpt lat="47.32483" lon="4.96228">
        <ele>455.2</ele>
        <time>2013-02-09T09:57:39.000Z</time>
      </trkpt>
      <trkpt lat="47.32483" lon="4.96231">
        <ele>455.4</ele>
        <time>2013-02-09T09:57:40.000Z</time>
      </trkpt>
      <trkpt lat="47.32483" lon="4.96237">
        <ele>455.5</ele>
        <time>2013-02-09T09:57:42.000Z</time>
      </trkpt>
      <trkpt lat="47.32483" lon="4.9624">
        <ele>455.4</ele>
        <time>2013-02-09T09:57:43.000Z</time>
      </trkpt>
      <trkpt lat="47.32482" lon="4.96243">
        <ele>455.4</ele>
        <time>2013-02-09T09:57:44.000Z</time>
      </trkpt>
      <trkpt lat="47.3248" lon="4.96263">
        <ele>454.4</ele>
        <time>2013-02-09T09:57:51.000Z</time>
      </trkpt>
      <trkpt lat="47.32479" lon="4.96269">
        <ele>453.8</ele>
        <time>2013-02-09T09:57:53.000Z</time>
      </trkpt>
      <trkpt lat="47.32479" lon="4.96272">
        <ele>453.6</ele>
        <time>2013-02-09T09:57:54.000Z</time>
      </trkpt>
      <trkpt lat="47.32479" lon="4.96278">
        <ele>454.1</ele>
        <time>2013-02-09T09:57:56.000Z</time>
      </trkpt>
      <trkpt lat="47.32479" lon="4.96281">
        <ele>454.6</ele>
        <time>2013-02-09T09:57:57.000Z</time>
      </trkpt>
      <trkpt lat="47.32478" lon="4.96287">
        <ele>455</ele>
        <time>2013-02-09T09:57:59.000Z</time>
      </trkpt>
      <trkpt lat="47.32478" lon="4.9629">
        <ele>455.2</ele>
        <time>2013-02-09T09:58:00.000Z</time>
      </trkpt>
      <trkpt lat="47.32478" lon="4.96296">
        <ele>455.6</ele>
        <time>2013-02-09T09:58:02.000Z</time>
      </trkpt>
      <trkpt lat="47.32478" lon="4.96298">
        <ele>456.1</ele>
        <time>2013-02-09T09:58:03.000Z</time>
      </trkpt>
      <trkpt lat="47.32477" lon="4.96304">
        <ele>456.1</ele>
        <time>2013-02-09T09:58:05.000Z</time>
      </trkpt>
      <trkpt lat="47.32477" lon="4.96307">
        <ele>456</ele>
        <time>2013-02-09T09:58:06.000Z</time>
      </trkpt>
      <trkpt lat="47.32477" lon="4.96313">
        <ele>456.1</ele>
        <time>2013-02-09T09:58:08.000Z</time>
      </trkpt>
      <trkpt lat="47.32477" lon="4.96316">
        <ele>455.8</ele>
        <time>2013-02-09T09:58:09.000Z</time>
      </trkpt>
      <trkpt lat="47.32476" lon="4.96322">
        <ele>455.9</ele>
        <time>2013-02-09T09:58:11.000Z</time>
      </trkpt>
      <trkpt lat="47.32476" lon="4.96325">
        <ele>456</ele>
        <time>2013-02-09T09:58:12.000Z</time>
      </trkpt>
      <trkpt lat="47.32476" lon="4.96331">
        <ele>455.4</ele>
        <time>2013-02-09T09:58:14.000Z</time>
      </trkpt>
      <trkpt lat="47.32476" lon="4.96334">
        <ele>455.1</ele>
        <time>2013-02-09T09:58:15.000Z</time>
      </trkpt>
      <trkpt lat="47.32476" lon="4.9634">
        <ele>454.8</ele>
        <time>2013-02-09T09:58:17.000Z</time>
      </trkpt>
      <trkpt lat="47.32475" lon="4.96342">
        <ele>454.8</ele>
        <time>2013-02-09T09:58:18.000Z</time>
      </trkpt>
      <trkpt lat="47.32475" lon="4.96348">
        <ele>454.7</ele>
        <time>2013-02-09T09:58:20.000Z</time>
      </trkpt>
      <trkpt lat="47.32475" lon="4.96351">
        <ele>454.6</ele>
        <time>2013-02-09T09:58:21.000Z</time>
      </trkpt>
      <trkpt lat="47.32475" lon="4.96357">
        <ele>454.4</ele>
        <time>2013-02-09T09:58:23.000Z</time>
      </trkpt>
      <trkpt lat="47.32475" lon="4.9636">
        <ele>454.4</ele>
        <time>2013-02-09T09:58:24.000Z</time>
      </trkpt>
      <trkpt lat="47.32474" lon="4.96365">
        <ele>454.5</ele>
        <time>2013-02-09T09:58:26.000Z</time>
      </trkpt>
      <trkpt lat="47.32474" lon="4.96368">
        <ele>454.5</ele>
        <time>2013-02-09T09:58:27.000Z</time>
      </trkpt>
      <trkpt lat="47.32474" lon="4.96374">
        <ele>454.4</ele>
        <time>2013-02-09T09:58:29.000Z</time>
      </trkpt>
      <trkpt lat="47.32474" lon="4.96377">
        <ele>454.3</ele>
        <time>2013-02-09T09:58:30.000Z</time>
      </trkpt>
      <trkpt lat="47.32473" lon="4.96383">
        <ele>454.4</ele>
        <time>2013-02-09T09:58:32.000Z</time>
      </trkpt>
      <trkpt lat="47.32473" lon="4.96386">
        <ele>454.3</ele>
        <time>2013-02-09T09:58:33.000Z</time>
      </trkpt>
      <trkpt lat="47.32473" lon="4.96392">
        <ele>454.2</ele>
        <time>2013-02-09T09:58:35.000Z</time>
      </trkpt>
      <trkpt lat="47.32474" lon="4.96394">
        <ele>454.2</ele>
        <time>2013-02-09T09:58:36.000Z</time>
      </trkpt>
      <trkpt lat="47.32477" lon="4.96395">
        <ele>453.8</ele>
        <time>2013-02-09T09:58:38.000Z</time>
      </trkpt>
      <trkpt lat="47.32479" lon="4.96394">
        <ele>453.8</ele>
        <time>2013-02-09T09:58:39.000Z</time>
      </trkpt>
      <trkpt lat="47.32483" lon="4.96394">
        <ele>453.9</ele>
        <time>2013-02-09T09:58:41.000Z</time>
      </trkpt>
      <trkpt lat="47.32484" lon="4.96393">
        <ele>454</ele>
        <time>2013-02-09T09:58:42.000Z</time>
      </trkpt>
      <trkpt lat="47.32488" lon="4.96391">
        <ele>453.9</ele>
        <time>2013-02-09T09:58:44.000Z</time>
      </trkpt>
      <trkpt lat="47.32489" lon="4.9639">
        <ele>453.8</ele>
        <time>2013-02-09T09:58:45.000Z</time>
      </trkpt>
      <trkpt lat="47.32491" lon="4.96387">
        <ele>453.7</ele>
        <time>2013-02-09T09:58:47.000Z</time>
      </trkpt>
      <trkpt lat="47.32492" lon="4.96385">
        <ele>453.7</ele>
        <time>2013-02-09T09:58:48.000Z</time>
      </trkpt>
      <trkpt lat="47.32492" lon="4.96379">
        <ele>453.8</ele>
        <time>2013-02-09T09:58:51.000Z</time>
      </trkpt>
      <trkpt lat="47.32492" lon="4.96377">
        <ele>453.8</ele>
        <time>2013-02-09T09:58:52.000Z</time>
      </trkpt>
      <trkpt lat="47.32492" lon="4.96372">
        <ele>453.8</ele>
        <time>2013-02-09T09:58:54.000Z</time>
      </trkpt>
      <trkpt lat="47.32492" lon="4.9637">
        <ele>453.8</ele>
        <time>2013-02-09T09:58:55.000Z</time>
      </trkpt>
      <trkpt lat="47.32492" lon="4.96365">
        <ele>453.9</ele>
        <time>2013-02-09T09:58:57.000Z</time>
      </trkpt>
      <trkpt lat="47.32492" lon="4.96363">
        <ele>453.9</ele>
        <time>2013-02-09T09:58:58.000Z</time>
      </trkpt>
      <trkpt lat="47.32492" lon="4.96358">
        <ele>454.1</ele>
        <time>2013-02-09T09:59:00.000Z</time>
      </trkpt>
      <trkpt lat="47.32493" lon="4.96356">
        <ele>454.1</ele>
        <time>2013-02-09T09:59:01.000Z</time>
      </trkpt>
      <trkpt lat="47.32493" lon="4.96351">
        <ele>454.2</ele>
        <time>2013-02-09T09:59:03.000Z</time>
      </trkpt>
      <trkpt lat="47.32493" lon="4.96348">
        <ele>454.2</ele>
        <time>2013-02-09T09:59:04.000Z</time>
      </trkpt>
      <trkpt lat="47.32494" lon="4.96343">
        <ele>454.2</ele>
        <time>2013-02-09T09:59:06.000Z</time>
      </trkpt>
      <trkpt lat="47.32494" lon="4.96341">
        <ele>454.2</ele>
        <time>2013-02-09T09:59:07.000Z</time>
      </trkpt>
      <trkpt lat="47.32494" lon="4.96336">
        <ele>454.3</ele>
        <time>2013-02-09T09:59:09.000Z</time>
      </trkpt>
      <trkpt lat="47.32495" lon="4.96334">
        <ele>454.3</ele>
        <time>2013-02-09T09:59:10.000Z</time>
      </trkpt>
      <trkpt lat="47.32495" lon="4.96329">
        <ele>454.3</ele>
        <time>2013-02-09T09:59:12.000Z</time>
      </trkpt>
      <trkpt lat="47.32495" lon="4.96327">
        <ele>454.3</ele>
        <time>2013-02-09T09:59:13.000Z</time>
      </trkpt>
      <trkpt lat="47.32495" lon="4.96322">
        <ele>454.3</ele>
        <time>2013-02-09T09:59:15.000Z</time>
      </trkpt>
      <trkpt lat="47.32495" lon="4.9632">
        <ele>454.3</ele>
        <time>2013-02-09T09:59:16.000Z</time>
      </trkpt>
      <trkpt lat="47.32496" lon="4.96315">
        <ele>454.3</ele>
        <time>2013-02-09T09:59:18.000Z</time>
      </trkpt>
      <trkpt lat="47.32496" lon="4.96312">
        <ele>454.4</ele>
        <time>2013-02-09T09:59:19.000Z</time>
      </trkpt>
      <trkpt lat="47.32496" lon="4.96308">
        <ele>454.4</ele>
        <time>2013-02-09T09:59:21.000Z</time>
      </trkpt>
      <trkpt lat="47.32497" lon="4.96305">
        <ele>454.5</ele>
        <time>2013-02-09T09:59:22.000Z</time>
      </trkpt>
      <trkpt lat="47.32497" lon="4.96299">
        <ele>454.5</ele>
        <time>2013-02-09T09:59:25.000Z</time>
      </trkpt>
      <trkpt lat="47.32497" lon="4.96297">
        <ele>454.6</ele>
        <time>2013-02-09T09:59:26.000Z</time>
      </trkpt>
      <trkpt lat="47.32497" lon="4.9629">
        <ele>454.6</ele>
        <time>2013-02-09T09:59:29.000Z</time>
      </trkpt>
      <trkpt lat="47.32497" lon="4.96288">
        <ele>454.7</ele>
        <time>2013-02-09T09:59:30.000Z</time>
      </trkpt>
      <trkpt lat="47.32497" lon="4.96281">
        <ele>454.6</ele>
        <time>2013-02-09T09:59:33.000Z</time>
      </trkpt>
      <trkpt lat="47.32497" lon="4.96279">
        <ele>454.6</ele>
        <time>2013-02-09T09:59:34.000Z</time>
      </trkpt>
      <trkpt lat="47.32497" lon="4.96273">
        <ele>454.8</ele>
        <time>2013-02-09T09:59:37.000Z</time>
      </trkpt>
      <trkpt lat="47.32497" lon="4.96271">
        <ele>454.8</ele>
        <time>2013-02-09T09:59:38.000Z</time>
      </trkpt>
      <trkpt lat="47.32498" lon="4.96267">
        <ele>454.8</ele>
        <time>2013-02-09T09:59:40.000Z</time>
      </trkpt>
      <trkpt lat="47.32498" lon="4.96264">
        <ele>454.8</ele>
        <time>2013-02-09T09:59:41.000Z</time>
      </trkpt>
      <trkpt lat="47.32498" lon="4.9626">
        <ele>454.8</ele>
        <time>2013-02-09T09:59:43.000Z</time>
      </trkpt>
      <trkpt lat="47.32498" lon="4.96257">
        <ele>454.8</ele>
        <time>2013-02-09T09:59:44.000Z</time>
      </trkpt>
      <trkpt lat="47.32501" lon="4.96237">
        <ele>452.6</ele>
        <time>2013-02-09T09:59:51.000Z</time>
      </trkpt>
      <trkpt lat="47.32502" lon="4.96232">
        <ele>452.1</ele>
        <time>2013-02-09T09:59:53.000Z</time>
      </trkpt>
      <trkpt lat="47.32502" lon="4.9623">
        <ele>452.4</ele>
        <time>2013-02-09T09:59:54.000Z</time>
      </trkpt>
      <trkpt lat="47.32501" lon="4.96223">
        <ele>453.5</ele>
        <time>2013-02-09T09:59:57.000Z</time>
      </trkpt>
      <trkpt lat="47.32501" lon="4.96221">
        <ele>453.8</ele>
        <time>2013-02-09T09:59:58.000Z</time>
      </trkpt>
      <trkpt lat="47.32501" lon="4.96217">
        <ele>454.1</ele>
        <time>2013-02-09T10:00:00.000Z</time>
      </trkpt>
      <trkpt lat="47.32502" lon="4.96214">
        <ele>454.2</ele>
        <time>2013-02-09T10:00:01.000Z</time>
      </trkpt>
      <trkpt lat="47.32503" lon="4.96209">
        <ele>453.7</ele>
        <time>2013-02-09T10:00:03.000Z</time>
      </trkpt>
      <trkpt lat="47.32503" lon="4.96206">
        <ele>453.7</ele>
        <time>2013-02-09T10:00:04.000Z</time>
      </trkpt>
      <trkpt lat="47.32503" lon="4.96201">
        <ele>454.2</ele>
        <time>2013-02-09T10:00:06.000Z</time>
      </trkpt>
      <trkpt lat="47.32503" lon="4.96199">
        <ele>454.3</ele>
        <time>2013-02-09T10:00:07.000Z</time>
      </trkpt>
      <trkpt lat="47.32503" lon="4.96194">
        <ele>454.5</ele>
        <time>2013-02-09T10:00:09.000Z</time>
      </trkpt>
      <trkpt lat="47.32504" lon="4.96192">
        <ele>454.5</ele>
        <time>2013-02-09T10:00:10.000Z</time>
      </trkpt>
      <trkpt lat="47.32504" lon="4.96187">
        <ele>454.6</ele>
        <time>2013-02-09T10:00:12.000Z</time>
      </trkpt>
      <trkpt lat="47.32504" lon="4.96185">
        <ele>454.6</ele>
        <time>2013-02-09T10:00:13.000Z</time>
      </trkpt>
      <trkpt lat="47.32504" lon="4.9618">
        <ele>454.7</ele>
        <time>2013-02-09T10:00:15.000Z</time>
      </trkpt>
      <trkpt lat="47.32504" lon="4.96178">
        <ele>454.7</ele>
        <time>2013-02-09T10:00:16.000Z</time>
      </trkpt>
      <trkpt lat="47.32504" lon="4.96174">
        <ele>454.7</ele>
        <time>2013-02-09T10:00:18.000Z</time>
      </trkpt>
      <trkpt lat="47.32504" lon="4.96171">
        <ele>454.6</ele>
        <time>2013-02-09T10:00:19.000Z</time>
      </trkpt>
      <trkpt lat="47.32505" lon="4.96167">
        <ele>454.6</ele>
        <time>2013-02-09T10:00:21.000Z</time>
      </trkpt>
      <trkpt lat="47.32505" lon="4.96165">
        <ele>454.6</ele>
        <time>2013-02-09T10:00:22.000Z</time>
      </trkpt>
      <trkpt lat="47.32505" lon="4.9616">
        <ele>454.7</ele>
        <time>2013-02-09T10:00:24.000Z</time>
      </trkpt>
      <trkpt lat="47.32505" lon="4.96157">
        <ele>454.7</ele>
        <time>2013-02-09T10:00:25.000Z</time>
      </trkpt>
      <trkpt lat="47.32506" lon="4.96152">
        <ele>454.8</ele>
        <time>2013-02-09T10:00:27.000Z</time>
      </trkpt>
      <trkpt lat="47.32506" lon="4.9615">
        <ele>454.8</ele>
        <time>2013-02-09T10:00:28.000Z</time>
      </trkpt>
      <trkpt lat="47.32506" lon="4.96145">
        <ele>454.8</ele>
        <time>2013-02-09T10:00:30.000Z</time>
      </trkpt>
      <trkpt lat="47.32506" lon="4.96143">
        <ele>454.8</ele>
        <time>2013-02-09T10:00:31.000Z</time>
      </trkpt>
      <trkpt lat="47.32507" lon="4.96138">
        <ele>454.9</ele>
        <time>2013-02-09T10:00:33.000Z</time>
      </trkpt>
      <trkpt lat="47.32507" lon="4.96135">
        <ele>454.9</ele>
        <time>2013-02-09T10:00:34.000Z</time>
      </trkpt>
      <trkpt lat="47.32507" lon="4.96131">
        <ele>454.8</ele>
        <time>2013-02-09T10:00:36.000Z</time>
      </trkpt>
      <trkpt lat="47.32507" lon="4.96129">
        <ele>454.8</ele>
        <time>2013-02-09T10:00:37.000Z</time>
      </trkpt>
      <trkpt lat="47.32508" lon="4.96124">
        <ele>454.8</ele>
        <time>2013-02-09T10:00:39.000Z</time>
      </trkpt>
      <trkpt lat="47.32508" lon="4.96122">
        <ele>454.8</ele>
        <time>2013-02-09T10:00:40.000Z</time>
      </trkpt>
      <trkpt lat="47.32508" lon="4.96115">
        <ele>454.8</ele>
        <time>2013-02-09T10:00:43.000Z</time>
      </trkpt>
      <trkpt lat="47.32508" lon="4.96113">
        <ele>454.8</ele>
        <time>2013-02-09T10:00:44.000Z</time>
      </trkpt>
      <trkpt lat="47.32511" lon="4.96096">
        <ele>450.9</ele>
        <time>2013-02-09T10:00:51.000Z</time>
      </trkpt>
      <trkpt lat="47.32512" lon="4.96089">
        <ele>452</ele>
        <time>2013-02-09T10:00:54.000Z</time>
      </trkpt>
      <trkpt lat="47.32512" lon="4.96087">
        <ele>452.3</ele>
        <time>2013-02-09T10:00:55.000Z</time>
      </trkpt>
      <trkpt lat="47.32512" lon="4.96081">
        <ele>453.5</ele>
        <time>2013-02-09T10:00:58.000Z</time>
      </trkpt>
      <trkpt lat="47.32512" lon="4.96079">
        <ele>453.6</ele>
        <time>2013-02-09T10:00:59.000Z</time>
      </trkpt>
      <trkpt lat="47.32512" lon="4.96074">
        <ele>453.9</ele>
        <time>2013-02-09T10:01:01.000Z</time>
      </trkpt>
      <trkpt lat="47.32513" lon="4.96072">
        <ele>453.8</ele>
        <time>2013-02-09T10:01:02.000Z</time>
      </trkpt>
      <trkpt lat="47.32514" lon="4.96068">
        <ele>453.8</ele>
        <time>2013-02-09T10:01:04.000Z</time>
      </trkpt>
      <trkpt lat="47.32514" lon="4.96066">
        <ele>453.8</ele>
        <time>2013-02-09T10:01:05.000Z</time>
      </trkpt>
      <trkpt lat="47.32515" lon="4.96061">
        <ele>453.7</ele>
        <time>2013-02-09T10:01:07.000Z</time>
      </trkpt>
      <trkpt lat="47.32515" lon="4.96059">
        <ele>453.8</ele>
        <time>2013-02-09T10:01:08.000Z</time>
      </trkpt>
      <trkpt lat="47.32516" lon="4.96054">
        <ele>453.8</ele>
        <time>2013-02-09T10:01:10.000Z</time>
      </trkpt>
      <trkpt lat="47.32516" lon="4.96052">
        <ele>453.8</ele>
        <time>2013-02-09T10:01:11.000Z</time>
      </trkpt>
      <trkpt lat="47.32517" lon="4.96046">
        <ele>454.3</ele>
        <time>2013-02-09T10:01:14.000Z</time>
      </trkpt>
      <trkpt lat="47.32517" lon="4.96044">
        <ele>454.6</ele>
        <time>2013-02-09T10:01:15.000Z</time>
      </trkpt>
      <trkpt lat="47.32518" lon="4.96039">
        <ele>454.6</ele>
        <time>2013-02-09T10:01:18.000Z</time>
      </trkpt>
      <trkpt lat="47.32518" lon="4.96037">
        <ele>454.7</ele>
        <time>2013-02-09T10:01:19.000Z</time>
      </trkpt>
      <trkpt lat="47.32519" lon="4.96032">
        <ele>454.8</ele>
        <time>2013-02-09T10:01:22.000Z</time>
      </trkpt>
      <trkpt lat="47.32519" lon="4.9603">
        <ele>454.9</ele>
        <time>2013-02-09T10:01:23.000Z</time>
      </trkpt>
      <trkpt lat="47.3252" lon="4.96025">
        <ele>455.1</ele>
        <time>2013-02-09T10:01:25.000Z</time>
      </trkpt>
      <trkpt lat="47.32521" lon="4.96023">
        <ele>455.1</ele>
        <time>2013-02-09T10:01:26.000Z</time>
      </trkpt>
      <trkpt lat="47.32522" lon="4.96018">
        <ele>455.2</ele>
        <time>2013-02-09T10:01:28.000Z</time>
      </trkpt>
      <trkpt lat="47.32522" lon="4.96016">
        <ele>455.3</ele>
        <time>2013-02-09T10:01:29.000Z</time>
      </trkpt>
      <trkpt lat="47.32523" lon="4.96011">
        <ele>455.5</ele>
        <time>2013-02-09T10:01:31.000Z</time>
      </trkpt>
      <trkpt lat="47.32524" lon="4.96009">
        <ele>455.5</ele>
        <time>2013-02-09T10:01:32.000Z</time>
      </trkpt>
      <trkpt lat="47.32524" lon="4.96004">
        <ele>455.6</ele>
        <time>2013-02-09T10:01:34.000Z</time>
      </trkpt>
      <trkpt lat="47.32525" lon="4.96002">
        <ele>455.6</ele>
        <time>2013-02-09T10:01:35.000Z</time>
      </trkpt>
      <trkpt lat="47.32526" lon="4.95997">
        <ele>455.7</ele>
        <time>2013-02-09T10:01:37.000Z</time>
      </trkpt>
      <trkpt lat="47.32527" lon="4.95994">
        <ele>455.7</ele>
        <time>2013-02-09T10:01:38.000Z</time>
      </trkpt>
      <trkpt lat="47.32528" lon="4.9599">
        <ele>455.8</ele>
        <time>2013-02-09T10:01:40.000Z</time>
      </trkpt>
      <trkpt lat="47.32528" lon="4.95987">
        <ele>455.9</ele>
        <time>2013-02-09T10:01:41.000Z</time>
      </trkpt>
      <trkpt lat="47.32529" lon="4.95983">
        <ele>455.9</ele>
        <time>2013-02-09T10:01:43.000Z</time>
      </trkpt>
      <trkpt lat="47.3253" lon="4.9598">
        <ele>455.9</ele>
        <time>2013-02-09T10:01:44.000Z</time>
      </trkpt>
      <trkpt lat="47.32534" lon="4.95962">
        <ele>455.4</ele>
        <time>2013-02-09T10:01:51.000Z</time>
      </trkpt>
      <trkpt lat="47.32535" lon="4.95957">
        <ele>455.2</ele>
        <time>2013-02-09T10:01:53.000Z</time>
      </trkpt>
      <trkpt lat="47.32535" lon="4.95955">
        <ele>455.6</ele>
        <time>2013-02-09T10:01:54.000Z</time>
      </trkpt>
      <trkpt lat="47.32536" lon="4.95951">
        <ele>456</ele>
        <time>2013-02-09T10:01:56.000Z</time>
      </trkpt>
      <trkpt lat="47.32537" lon="4.95949">
        <ele>455.8</ele>
        <time>2013-02-09T10:01:57.000Z</time>
      </trkpt>
      <trkpt lat="47.32538" lon="4.95944">
        <ele>456</ele>
        <time>2013-02-09T10:01:59.000Z</time>
      </trkpt>
      <trkpt lat="47.32538" lon="4.95942">
        <ele>456.1</ele>
        <time>2013-02-09T10:02:00.000Z</time>
      </trkpt>
      <trkpt lat="47.32539" lon="4.95937">
        <ele>456.2</ele>
        <time>2013-02-09T10:02:02.000Z</time>
      </trkpt>
      <trkpt lat="47.3254" lon="4.95935">
        <ele>456.3</ele>
        <time>2013-02-09T10:02:03.000Z</time>
      </trkpt>
      <trkpt lat="47.32541" lon="4.95929">
        <ele>456.5</ele>
        <time>2013-02-09T10:02:06.000Z</time>
      </trkpt>
      <trkpt lat="47.32542" lon="4.95927">
        <ele>456.6</ele>
        <time>2013-02-09T10:02:07.000Z</time>
      </trkpt>
      <trkpt lat="47.32543" lon="4.95921">
        <ele>457</ele>
        <time>2013-02-09T10:02:10.000Z</time>
      </trkpt>
      <trkpt lat="47.32543" lon="4.95918">
        <ele>457</ele>
        <time>2013-02-09T10:02:11.000Z</time>
      </trkpt>
      <trkpt lat="47.32544" lon="4.95912">
        <ele>457.2</ele>
        <time>2013-02-09T10:02:14.000Z</time>
      </trkpt>
      <trkpt lat="47.32544" lon="4.9591">
        <ele>457.3</ele>
        <time>2013-02-09T10:02:15.000Z</time>
      </trkpt>
      <trkpt lat="47.32545" lon="4.95906">
        <ele>457.1</ele>
        <time>2013-02-09T10:02:17.000Z</time>
      </trkpt>
      <trkpt lat="47.32546" lon="4.95904">
        <ele>457.1</ele>
        <time>2013-02-09T10:02:18.000Z</time>
      </trkpt>
      <trkpt lat="47.32547" lon="4.95898">
        <ele>457.1</ele>
        <time>2013-02-09T10:02:21.000Z</time>
      </trkpt>
      <trkpt lat="47.32547" lon="4.95896">
        <ele>457.1</ele>
        <time>2013-02-09T10:02:22.000Z</time>
      </trkpt>
      <trkpt lat="47.32548" lon="4.95891">
        <ele>457</ele>
        <time>2013-02-09T10:02:25.000Z</time>
      </trkpt>
      <trkpt lat="47.32548" lon="4.95889">
        <ele>457</ele>
        <time>2013-02-09T10:02:26.000Z</time>
      </trkpt>
      <trkpt lat="47.32548" lon="4.95883">
        <ele>457.1</ele>
        <time>2013-02-09T10:02:30.000Z</time>
      </trkpt>
      <trkpt lat="47.32549" lon="4.95881">
        <ele>457.1</ele>
        <time>2013-02-09T10:02:31.000Z</time>
      </trkpt>
      <trkpt lat="47.32549" lon="4.95875">
        <ele>457.2</ele>
        <time>2013-02-09T10:02:42.000Z</time>
      </trkpt>
      <trkpt lat="47.32549" lon="4.95874">
        <ele>457.3</ele>
        <time>2013-02-09T10:02:43.000Z</time>
      </trkpt>
      <trkpt lat="47.32549" lon="4.95874">
        <ele>457.3</ele>
        <time>2013-02-09T10:02:44.000Z</time>
      </trkpt>
      <trkpt lat="47.32545" lon="4.95868">
        <ele>463.7</ele>
        <time>2013-02-09T10:02:51.000Z</time>
      </trkpt>
      <trkpt lat="47.32545" lon="4.95868">
        <ele>463.7</ele>
        <time>2013-02-09T10:03:44.000Z</time>
      </trkpt>
      <trkpt lat="47.32552" lon="4.95871">
        <ele>455.7</ele>
        <time>2013-02-09T10:03:51.000Z</time>
      </trkpt>
      <trkpt lat="47.32549" lon="4.95868">
        <ele>457.8</ele>
        <time>2013-02-09T10:04:09.000Z</time>
      </trkpt>
      <trkpt lat="47.32548" lon="4.95868">
        <ele>457.6</ele>
        <time>2013-02-09T10:04:10.000Z</time>
      </trkpt>
      <trkpt lat="47.32548" lon="4.95872">
        <ele>460.8</ele>
        <time>2013-02-09T10:09:04.000Z</time>
      </trkpt>
    </trkseg>
  </trk>
</gpx>